<?xml version="1.0" encoding="UTF-8" standalone="no" ?>
<gpx xmlns="http://www.topografix.com/GPX/1/1" xmlns:xsi="http://www.w3.org/2001/XMLSchema-instance" xsi:schemaLocation="http://www.topografix.com/GPX/1/1 http://www.topografix.com/GPX/1/1/gpx.xsd" version="1.1" creator="VisuGPX - https://www.visugpx.com">
  <metadata>
    <name>Lac de Blanchemer - Lac d'Altenweiher</name>
  </metadata>
  <trk>
    <name><![CDATA[2022-10-30 10:43:15]]></name>
    <extensions>
      <line xmlns="http://www.topografix.com/GPX/gpx_style/0/2">
        <color>0000FF</color>
        <width>4</width>
      </line>
    </extensions>
    <trkseg>
      <trkpt lat="48.02194" lon="6.96632">
        <ele>926</ele>
        <time>2022-10-30T09:43:15.000Z</time>
      </trkpt>
      <trkpt lat="48.02194" lon="6.96632">
        <ele>926</ele>
        <time>2022-10-30T09:43:16.000Z</time>
      </trkpt>
      <trkpt lat="48.02196" lon="6.96629">
        <ele>926.19995117188</ele>
        <time>2022-10-30T09:43:23.000Z</time>
      </trkpt>
      <trkpt lat="48.02197" lon="6.96628">
        <ele>926.19995117188</ele>
        <time>2022-10-30T09:43:24.000Z</time>
      </trkpt>
      <trkpt lat="48.02197" lon="6.96627">
        <ele>926.19995117188</ele>
        <time>2022-10-30T09:43:25.000Z</time>
      </trkpt>
      <trkpt lat="48.02197" lon="6.96626">
        <ele>926.19995117188</ele>
        <time>2022-10-30T09:43:28.000Z</time>
      </trkpt>
      <trkpt lat="48.02197" lon="6.96626">
        <ele>926.19995117188</ele>
        <time>2022-10-30T09:43:29.000Z</time>
      </trkpt>
      <trkpt lat="48.02202" lon="6.96622">
        <ele>926.19995117188</ele>
        <time>2022-10-30T09:43:34.000Z</time>
      </trkpt>
      <trkpt lat="48.02204" lon="6.9662">
        <ele>926.19995117188</ele>
        <time>2022-10-30T09:43:40.000Z</time>
      </trkpt>
      <trkpt lat="48.02208" lon="6.96621">
        <ele>926.40002441406</ele>
        <time>2022-10-30T09:43:44.000Z</time>
      </trkpt>
      <trkpt lat="48.02209" lon="6.96623">
        <ele>926.40002441406</ele>
        <time>2022-10-30T09:43:51.000Z</time>
      </trkpt>
      <trkpt lat="48.02208" lon="6.96622">
        <ele>926</ele>
        <time>2022-10-30T09:43:57.000Z</time>
      </trkpt>
      <trkpt lat="48.02207" lon="6.96621">
        <ele>926.19995117188</ele>
        <time>2022-10-30T09:44:05.000Z</time>
      </trkpt>
      <trkpt lat="48.02202" lon="6.96626">
        <ele>926.19995117188</ele>
        <time>2022-10-30T09:44:20.000Z</time>
      </trkpt>
      <trkpt lat="48.02195" lon="6.9663">
        <ele>926.19995117188</ele>
        <time>2022-10-30T09:44:25.000Z</time>
      </trkpt>
      <trkpt lat="48.02193" lon="6.96637">
        <ele>926.59997558594</ele>
        <time>2022-10-30T09:44:32.000Z</time>
      </trkpt>
      <trkpt lat="48.02193" lon="6.96638">
        <ele>926.80004882812</ele>
        <time>2022-10-30T09:44:34.000Z</time>
      </trkpt>
      <trkpt lat="48.02193" lon="6.96639">
        <ele>927.19995117188</ele>
        <time>2022-10-30T09:44:36.000Z</time>
      </trkpt>
      <trkpt lat="48.02191" lon="6.9664">
        <ele>927.40002441406</ele>
        <time>2022-10-30T09:44:39.000Z</time>
      </trkpt>
      <trkpt lat="48.02184" lon="6.96644">
        <ele>928.19995117188</ele>
        <time>2022-10-30T09:44:45.000Z</time>
      </trkpt>
      <trkpt lat="48.02182" lon="6.96646">
        <ele>928.40002441406</ele>
        <time>2022-10-30T09:44:47.000Z</time>
      </trkpt>
      <trkpt lat="48.02181" lon="6.96646">
        <ele>928.59997558594</ele>
        <time>2022-10-30T09:44:48.000Z</time>
      </trkpt>
      <trkpt lat="48.0218" lon="6.96647">
        <ele>928.80004882812</ele>
        <time>2022-10-30T09:44:49.000Z</time>
      </trkpt>
      <trkpt lat="48.02178" lon="6.96646">
        <ele>929</ele>
        <time>2022-10-30T09:44:50.000Z</time>
      </trkpt>
      <trkpt lat="48.02176" lon="6.96646">
        <ele>929</ele>
        <time>2022-10-30T09:44:51.000Z</time>
      </trkpt>
      <trkpt lat="48.02173" lon="6.96645">
        <ele>929.19995117188</ele>
        <time>2022-10-30T09:44:52.000Z</time>
      </trkpt>
      <trkpt lat="48.02168" lon="6.96644">
        <ele>929.40002441406</ele>
        <time>2022-10-30T09:44:56.000Z</time>
      </trkpt>
      <trkpt lat="48.02167" lon="6.96644">
        <ele>930</ele>
        <time>2022-10-30T09:45:01.000Z</time>
      </trkpt>
      <trkpt lat="48.02167" lon="6.96643">
        <ele>930.40002441406</ele>
        <time>2022-10-30T09:45:05.000Z</time>
      </trkpt>
      <trkpt lat="48.02166" lon="6.96644">
        <ele>930.19995117188</ele>
        <time>2022-10-30T09:45:06.000Z</time>
      </trkpt>
      <trkpt lat="48.02166" lon="6.96645">
        <ele>930.40002441406</ele>
        <time>2022-10-30T09:45:08.000Z</time>
      </trkpt>
      <trkpt lat="48.02165" lon="6.96644">
        <ele>930.19995117188</ele>
        <time>2022-10-30T09:45:10.000Z</time>
      </trkpt>
      <trkpt lat="48.02164" lon="6.96644">
        <ele>930.19995117188</ele>
        <time>2022-10-30T09:45:12.000Z</time>
      </trkpt>
      <trkpt lat="48.02162" lon="6.96645">
        <ele>930.40002441406</ele>
        <time>2022-10-30T09:45:14.000Z</time>
      </trkpt>
      <trkpt lat="48.02162" lon="6.96644">
        <ele>930.59997558594</ele>
        <time>2022-10-30T09:45:16.000Z</time>
      </trkpt>
      <trkpt lat="48.02162" lon="6.96644">
        <ele>930.59997558594</ele>
        <time>2022-10-30T09:45:17.000Z</time>
      </trkpt>
      <trkpt lat="48.02159" lon="6.96645">
        <ele>930.59997558594</ele>
        <time>2022-10-30T09:45:20.000Z</time>
      </trkpt>
      <trkpt lat="48.02156" lon="6.96646">
        <ele>931.19995117188</ele>
        <time>2022-10-30T09:45:25.000Z</time>
      </trkpt>
      <trkpt lat="48.02155" lon="6.96647">
        <ele>931.40002441406</ele>
        <time>2022-10-30T09:45:27.000Z</time>
      </trkpt>
      <trkpt lat="48.02153" lon="6.96649">
        <ele>931.80004882812</ele>
        <time>2022-10-30T09:45:30.000Z</time>
      </trkpt>
      <trkpt lat="48.02146" lon="6.96652">
        <ele>932.40002441406</ele>
        <time>2022-10-30T09:45:36.000Z</time>
      </trkpt>
      <trkpt lat="48.02143" lon="6.96654">
        <ele>932.59997558594</ele>
        <time>2022-10-30T09:45:38.000Z</time>
      </trkpt>
      <trkpt lat="48.02141" lon="6.96653">
        <ele>933</ele>
        <time>2022-10-30T09:45:40.000Z</time>
      </trkpt>
      <trkpt lat="48.02139" lon="6.96656">
        <ele>933.59997558594</ele>
        <time>2022-10-30T09:45:46.000Z</time>
      </trkpt>
      <trkpt lat="48.02133" lon="6.96659">
        <ele>934.40002441406</ele>
        <time>2022-10-30T09:45:54.000Z</time>
      </trkpt>
      <trkpt lat="48.02127" lon="6.9666">
        <ele>934.59997558594</ele>
        <time>2022-10-30T09:45:57.000Z</time>
      </trkpt>
      <trkpt lat="48.02119" lon="6.96665">
        <ele>935.19995117188</ele>
        <time>2022-10-30T09:46:03.000Z</time>
      </trkpt>
      <trkpt lat="48.02117" lon="6.96669">
        <ele>935.40002441406</ele>
        <time>2022-10-30T09:46:05.000Z</time>
      </trkpt>
      <trkpt lat="48.02115" lon="6.96672">
        <ele>935.80004882812</ele>
        <time>2022-10-30T09:46:07.000Z</time>
      </trkpt>
      <trkpt lat="48.02113" lon="6.96673">
        <ele>935.80004882812</ele>
        <time>2022-10-30T09:46:09.000Z</time>
      </trkpt>
      <trkpt lat="48.02109" lon="6.96676">
        <ele>936.19995117188</ele>
        <time>2022-10-30T09:46:13.000Z</time>
      </trkpt>
      <trkpt lat="48.02107" lon="6.96678">
        <ele>936.80004882812</ele>
        <time>2022-10-30T09:46:18.000Z</time>
      </trkpt>
      <trkpt lat="48.02106" lon="6.9668">
        <ele>937</ele>
        <time>2022-10-30T09:46:20.000Z</time>
      </trkpt>
      <trkpt lat="48.02108" lon="6.96683">
        <ele>937.59997558594</ele>
        <time>2022-10-30T09:46:26.000Z</time>
      </trkpt>
      <trkpt lat="48.02112" lon="6.96684">
        <ele>937.59997558594</ele>
        <time>2022-10-30T09:46:32.000Z</time>
      </trkpt>
      <trkpt lat="48.0211" lon="6.96684">
        <ele>937.59997558594</ele>
        <time>2022-10-30T09:46:34.000Z</time>
      </trkpt>
      <trkpt lat="48.02106" lon="6.96687">
        <ele>938</ele>
        <time>2022-10-30T09:46:39.000Z</time>
      </trkpt>
      <trkpt lat="48.02104" lon="6.96687">
        <ele>938.40002441406</ele>
        <time>2022-10-30T09:46:44.000Z</time>
      </trkpt>
      <trkpt lat="48.02102" lon="6.96692">
        <ele>939.19995117188</ele>
        <time>2022-10-30T09:46:49.000Z</time>
      </trkpt>
      <trkpt lat="48.02101" lon="6.96693">
        <ele>939.40002441406</ele>
        <time>2022-10-30T09:46:50.000Z</time>
      </trkpt>
      <trkpt lat="48.02095" lon="6.96702">
        <ele>939.80004882812</ele>
        <time>2022-10-30T09:46:57.000Z</time>
      </trkpt>
      <trkpt lat="48.02094" lon="6.96704">
        <ele>940.19995117188</ele>
        <time>2022-10-30T09:46:59.000Z</time>
      </trkpt>
      <trkpt lat="48.02095" lon="6.96705">
        <ele>940.19995117188</ele>
        <time>2022-10-30T09:47:00.000Z</time>
      </trkpt>
      <trkpt lat="48.02095" lon="6.96708">
        <ele>940.59997558594</ele>
        <time>2022-10-30T09:47:02.000Z</time>
      </trkpt>
      <trkpt lat="48.02091" lon="6.96714">
        <ele>941.19995117188</ele>
        <time>2022-10-30T09:47:06.000Z</time>
      </trkpt>
      <trkpt lat="48.02087" lon="6.96719">
        <ele>941.59997558594</ele>
        <time>2022-10-30T09:47:10.000Z</time>
      </trkpt>
      <trkpt lat="48.02083" lon="6.96724">
        <ele>942.40002441406</ele>
        <time>2022-10-30T09:47:15.000Z</time>
      </trkpt>
      <trkpt lat="48.02081" lon="6.96725">
        <ele>942.40002441406</ele>
        <time>2022-10-30T09:47:16.000Z</time>
      </trkpt>
      <trkpt lat="48.0208" lon="6.96726">
        <ele>942.59997558594</ele>
        <time>2022-10-30T09:47:17.000Z</time>
      </trkpt>
      <trkpt lat="48.02079" lon="6.9673">
        <ele>942.80004882812</ele>
        <time>2022-10-30T09:47:21.000Z</time>
      </trkpt>
      <trkpt lat="48.02079" lon="6.96732">
        <ele>943.19995117188</ele>
        <time>2022-10-30T09:47:24.000Z</time>
      </trkpt>
      <trkpt lat="48.02078" lon="6.9673">
        <ele>943.40002441406</ele>
        <time>2022-10-30T09:47:26.000Z</time>
      </trkpt>
      <trkpt lat="48.02077" lon="6.96735">
        <ele>943</ele>
        <time>2022-10-30T09:47:34.000Z</time>
      </trkpt>
      <trkpt lat="48.02072" lon="6.96742">
        <ele>944</ele>
        <time>2022-10-30T09:47:41.000Z</time>
      </trkpt>
      <trkpt lat="48.02069" lon="6.96746">
        <ele>944.59997558594</ele>
        <time>2022-10-30T09:47:45.000Z</time>
      </trkpt>
      <trkpt lat="48.02066" lon="6.9675">
        <ele>945</ele>
        <time>2022-10-30T09:47:49.000Z</time>
      </trkpt>
      <trkpt lat="48.02061" lon="6.96754">
        <ele>945.40002441406</ele>
        <time>2022-10-30T09:47:53.000Z</time>
      </trkpt>
      <trkpt lat="48.0206" lon="6.96756">
        <ele>945.59997558594</ele>
        <time>2022-10-30T09:47:54.000Z</time>
      </trkpt>
      <trkpt lat="48.02059" lon="6.96758">
        <ele>945.80004882812</ele>
        <time>2022-10-30T09:47:55.000Z</time>
      </trkpt>
      <trkpt lat="48.02055" lon="6.96764">
        <ele>946.59997558594</ele>
        <time>2022-10-30T09:48:02.000Z</time>
      </trkpt>
      <trkpt lat="48.02055" lon="6.96769">
        <ele>947</ele>
        <time>2022-10-30T09:48:06.000Z</time>
      </trkpt>
      <trkpt lat="48.02051" lon="6.96773">
        <ele>946.59997558594</ele>
        <time>2022-10-30T09:48:08.000Z</time>
      </trkpt>
      <trkpt lat="48.02047" lon="6.96778">
        <ele>947</ele>
        <time>2022-10-30T09:48:13.000Z</time>
      </trkpt>
      <trkpt lat="48.02046" lon="6.96779">
        <ele>947</ele>
        <time>2022-10-30T09:48:14.000Z</time>
      </trkpt>
      <trkpt lat="48.02045" lon="6.96792">
        <ele>947.59997558594</ele>
        <time>2022-10-30T09:48:22.000Z</time>
      </trkpt>
      <trkpt lat="48.02044" lon="6.96793">
        <ele>947.80004882812</ele>
        <time>2022-10-30T09:48:23.000Z</time>
      </trkpt>
      <trkpt lat="48.02043" lon="6.96796">
        <ele>948</ele>
        <time>2022-10-30T09:48:25.000Z</time>
      </trkpt>
      <trkpt lat="48.02042" lon="6.968">
        <ele>948.19995117188</ele>
        <time>2022-10-30T09:48:28.000Z</time>
      </trkpt>
      <trkpt lat="48.02042" lon="6.96802">
        <ele>948.40002441406</ele>
        <time>2022-10-30T09:48:29.000Z</time>
      </trkpt>
      <trkpt lat="48.02043" lon="6.96807">
        <ele>948.59997558594</ele>
        <time>2022-10-30T09:48:31.000Z</time>
      </trkpt>
      <trkpt lat="48.02043" lon="6.96809">
        <ele>948.80004882812</ele>
        <time>2022-10-30T09:48:32.000Z</time>
      </trkpt>
      <trkpt lat="48.02044" lon="6.96811">
        <ele>949.19995117188</ele>
        <time>2022-10-30T09:48:34.000Z</time>
      </trkpt>
      <trkpt lat="48.02044" lon="6.96812">
        <ele>949.40002441406</ele>
        <time>2022-10-30T09:48:36.000Z</time>
      </trkpt>
      <trkpt lat="48.02043" lon="6.96812">
        <ele>949.59997558594</ele>
        <time>2022-10-30T09:48:38.000Z</time>
      </trkpt>
      <trkpt lat="48.02042" lon="6.96812">
        <ele>949.59997558594</ele>
        <time>2022-10-30T09:48:39.000Z</time>
      </trkpt>
      <trkpt lat="48.0204" lon="6.96813">
        <ele>949.80004882812</ele>
        <time>2022-10-30T09:48:41.000Z</time>
      </trkpt>
      <trkpt lat="48.0204" lon="6.96815">
        <ele>950</ele>
        <time>2022-10-30T09:48:43.000Z</time>
      </trkpt>
      <trkpt lat="48.0204" lon="6.96818">
        <ele>950.40002441406</ele>
        <time>2022-10-30T09:48:45.000Z</time>
      </trkpt>
      <trkpt lat="48.0204" lon="6.96823">
        <ele>950.80004882812</ele>
        <time>2022-10-30T09:48:49.000Z</time>
      </trkpt>
      <trkpt lat="48.02038" lon="6.9683">
        <ele>951.19995117188</ele>
        <time>2022-10-30T09:48:53.000Z</time>
      </trkpt>
      <trkpt lat="48.02032" lon="6.96832">
        <ele>952</ele>
        <time>2022-10-30T09:48:58.000Z</time>
      </trkpt>
      <trkpt lat="48.02028" lon="6.96838">
        <ele>952.19995117188</ele>
        <time>2022-10-30T09:49:05.000Z</time>
      </trkpt>
      <trkpt lat="48.02025" lon="6.96844">
        <ele>952.80004882812</ele>
        <time>2022-10-30T09:49:10.000Z</time>
      </trkpt>
      <trkpt lat="48.02025" lon="6.96845">
        <ele>953</ele>
        <time>2022-10-30T09:49:11.000Z</time>
      </trkpt>
      <trkpt lat="48.02025" lon="6.96847">
        <ele>953</ele>
        <time>2022-10-30T09:49:12.000Z</time>
      </trkpt>
      <trkpt lat="48.02024" lon="6.96856">
        <ele>953.59997558594</ele>
        <time>2022-10-30T09:49:18.000Z</time>
      </trkpt>
      <trkpt lat="48.02023" lon="6.96863">
        <ele>954</ele>
        <time>2022-10-30T09:49:23.000Z</time>
      </trkpt>
      <trkpt lat="48.02023" lon="6.96864">
        <ele>954.19995117188</ele>
        <time>2022-10-30T09:49:24.000Z</time>
      </trkpt>
      <trkpt lat="48.02025" lon="6.96873">
        <ele>955</ele>
        <time>2022-10-30T09:49:30.000Z</time>
      </trkpt>
      <trkpt lat="48.02025" lon="6.96876">
        <ele>955.19995117188</ele>
        <time>2022-10-30T09:49:31.000Z</time>
      </trkpt>
      <trkpt lat="48.02024" lon="6.96878">
        <ele>955.19995117188</ele>
        <time>2022-10-30T09:49:32.000Z</time>
      </trkpt>
      <trkpt lat="48.02024" lon="6.9688">
        <ele>955.40002441406</ele>
        <time>2022-10-30T09:49:34.000Z</time>
      </trkpt>
      <trkpt lat="48.02024" lon="6.96882">
        <ele>955.59997558594</ele>
        <time>2022-10-30T09:49:35.000Z</time>
      </trkpt>
      <trkpt lat="48.02022" lon="6.96886">
        <ele>956</ele>
        <time>2022-10-30T09:49:39.000Z</time>
      </trkpt>
      <trkpt lat="48.02021" lon="6.96888">
        <ele>956.19995117188</ele>
        <time>2022-10-30T09:49:41.000Z</time>
      </trkpt>
      <trkpt lat="48.02021" lon="6.96891">
        <ele>956.40002441406</ele>
        <time>2022-10-30T09:49:45.000Z</time>
      </trkpt>
      <trkpt lat="48.0202" lon="6.96896">
        <ele>956.80004882812</ele>
        <time>2022-10-30T09:49:50.000Z</time>
      </trkpt>
      <trkpt lat="48.02019" lon="6.969">
        <ele>957.40002441406</ele>
        <time>2022-10-30T09:49:53.000Z</time>
      </trkpt>
      <trkpt lat="48.02016" lon="6.96907">
        <ele>957.80004882812</ele>
        <time>2022-10-30T09:49:57.000Z</time>
      </trkpt>
      <trkpt lat="48.02014" lon="6.96916">
        <ele>958.19995117188</ele>
        <time>2022-10-30T09:50:02.000Z</time>
      </trkpt>
      <trkpt lat="48.02012" lon="6.96918">
        <ele>958.40002441406</ele>
        <time>2022-10-30T09:50:04.000Z</time>
      </trkpt>
      <trkpt lat="48.0201" lon="6.96924">
        <ele>958.80004882812</ele>
        <time>2022-10-30T09:50:08.000Z</time>
      </trkpt>
      <trkpt lat="48.0201" lon="6.96931">
        <ele>959.59997558594</ele>
        <time>2022-10-30T09:50:14.000Z</time>
      </trkpt>
      <trkpt lat="48.02009" lon="6.96932">
        <ele>959.80004882812</ele>
        <time>2022-10-30T09:50:15.000Z</time>
      </trkpt>
      <trkpt lat="48.02008" lon="6.96937">
        <ele>960.19995117188</ele>
        <time>2022-10-30T09:50:20.000Z</time>
      </trkpt>
      <trkpt lat="48.02007" lon="6.96941">
        <ele>960.80004882812</ele>
        <time>2022-10-30T09:50:23.000Z</time>
      </trkpt>
      <trkpt lat="48.02007" lon="6.96948">
        <ele>961.19995117188</ele>
        <time>2022-10-30T09:50:27.000Z</time>
      </trkpt>
      <trkpt lat="48.02007" lon="6.96954">
        <ele>961.59997558594</ele>
        <time>2022-10-30T09:50:32.000Z</time>
      </trkpt>
      <trkpt lat="48.02008" lon="6.96957">
        <ele>961.80004882812</ele>
        <time>2022-10-30T09:50:34.000Z</time>
      </trkpt>
      <trkpt lat="48.02006" lon="6.96959">
        <ele>962</ele>
        <time>2022-10-30T09:50:35.000Z</time>
      </trkpt>
      <trkpt lat="48.02007" lon="6.96966">
        <ele>962.19995117188</ele>
        <time>2022-10-30T09:50:38.000Z</time>
      </trkpt>
      <trkpt lat="48.02007" lon="6.96968">
        <ele>962.40002441406</ele>
        <time>2022-10-30T09:50:39.000Z</time>
      </trkpt>
      <trkpt lat="48.02006" lon="6.96972">
        <ele>962.80004882812</ele>
        <time>2022-10-30T09:50:43.000Z</time>
      </trkpt>
      <trkpt lat="48.02006" lon="6.96973">
        <ele>963</ele>
        <time>2022-10-30T09:50:44.000Z</time>
      </trkpt>
      <trkpt lat="48.02005" lon="6.96973">
        <ele>963.40002441406</ele>
        <time>2022-10-30T09:50:48.000Z</time>
      </trkpt>
      <trkpt lat="48.02004" lon="6.96977">
        <ele>963.59997558594</ele>
        <time>2022-10-30T09:50:50.000Z</time>
      </trkpt>
      <trkpt lat="48.02003" lon="6.96983">
        <ele>963.80004882812</ele>
        <time>2022-10-30T09:50:53.000Z</time>
      </trkpt>
      <trkpt lat="48.02003" lon="6.96985">
        <ele>964</ele>
        <time>2022-10-30T09:50:54.000Z</time>
      </trkpt>
      <trkpt lat="48.02004" lon="6.96989">
        <ele>964.40002441406</ele>
        <time>2022-10-30T09:50:57.000Z</time>
      </trkpt>
      <trkpt lat="48.02004" lon="6.96991">
        <ele>964.40002441406</ele>
        <time>2022-10-30T09:50:58.000Z</time>
      </trkpt>
      <trkpt lat="48.02005" lon="6.96992">
        <ele>964.59997558594</ele>
        <time>2022-10-30T09:50:59.000Z</time>
      </trkpt>
      <trkpt lat="48.02004" lon="6.96995">
        <ele>965</ele>
        <time>2022-10-30T09:51:02.000Z</time>
      </trkpt>
      <trkpt lat="48.02004" lon="6.96996">
        <ele>965.19995117188</ele>
        <time>2022-10-30T09:51:04.000Z</time>
      </trkpt>
      <trkpt lat="48.02005" lon="6.97001">
        <ele>965.40002441406</ele>
        <time>2022-10-30T09:51:10.000Z</time>
      </trkpt>
      <trkpt lat="48.02003" lon="6.97009">
        <ele>966</ele>
        <time>2022-10-30T09:51:17.000Z</time>
      </trkpt>
      <trkpt lat="48.02004" lon="6.97017">
        <ele>966.59997558594</ele>
        <time>2022-10-30T09:51:23.000Z</time>
      </trkpt>
      <trkpt lat="48.02006" lon="6.97024">
        <ele>967.19995117188</ele>
        <time>2022-10-30T09:51:29.000Z</time>
      </trkpt>
      <trkpt lat="48.02004" lon="6.97026">
        <ele>967.19995117188</ele>
        <time>2022-10-30T09:51:34.000Z</time>
      </trkpt>
      <trkpt lat="48.02002" lon="6.97027">
        <ele>967</ele>
        <time>2022-10-30T09:51:42.000Z</time>
      </trkpt>
      <trkpt lat="48.02002" lon="6.97027">
        <ele>964.40002441406</ele>
        <time>2022-10-30T09:51:58.000Z</time>
      </trkpt>
      <trkpt lat="48.02001" lon="6.97027">
        <ele>964.40002441406</ele>
        <time>2022-10-30T09:52:02.000Z</time>
      </trkpt>
      <trkpt lat="48.02" lon="6.97026">
        <ele>964.40002441406</ele>
        <time>2022-10-30T09:52:07.000Z</time>
      </trkpt>
      <trkpt lat="48.01996" lon="6.97023">
        <ele>964.40002441406</ele>
        <time>2022-10-30T09:52:29.000Z</time>
      </trkpt>
      <trkpt lat="48.0199" lon="6.97028">
        <ele>964.40002441406</ele>
        <time>2022-10-30T09:52:51.000Z</time>
      </trkpt>
      <trkpt lat="48.01987" lon="6.97031">
        <ele>961</ele>
        <time>2022-10-30T09:52:59.000Z</time>
      </trkpt>
      <trkpt lat="48.01983" lon="6.97034">
        <ele>961</ele>
        <time>2022-10-30T09:53:03.000Z</time>
      </trkpt>
      <trkpt lat="48.01982" lon="6.97034">
        <ele>961</ele>
        <time>2022-10-30T09:53:04.000Z</time>
      </trkpt>
      <trkpt lat="48.0198" lon="6.97037">
        <ele>960.80004882812</ele>
        <time>2022-10-30T09:53:06.000Z</time>
      </trkpt>
      <trkpt lat="48.01976" lon="6.9704">
        <ele>961</ele>
        <time>2022-10-30T09:53:11.000Z</time>
      </trkpt>
      <trkpt lat="48.01975" lon="6.97038">
        <ele>961</ele>
        <time>2022-10-30T09:53:14.000Z</time>
      </trkpt>
      <trkpt lat="48.01974" lon="6.97036">
        <ele>961</ele>
        <time>2022-10-30T09:53:17.000Z</time>
      </trkpt>
      <trkpt lat="48.01974" lon="6.97035">
        <ele>961</ele>
        <time>2022-10-30T09:53:20.000Z</time>
      </trkpt>
      <trkpt lat="48.01974" lon="6.97034">
        <ele>961</ele>
        <time>2022-10-30T09:53:23.000Z</time>
      </trkpt>
      <trkpt lat="48.01972" lon="6.97039">
        <ele>960.80004882812</ele>
        <time>2022-10-30T09:53:30.000Z</time>
      </trkpt>
      <trkpt lat="48.01973" lon="6.97038">
        <ele>961</ele>
        <time>2022-10-30T09:53:33.000Z</time>
      </trkpt>
      <trkpt lat="48.01972" lon="6.97038">
        <ele>961.19995117188</ele>
        <time>2022-10-30T09:53:37.000Z</time>
      </trkpt>
      <trkpt lat="48.01971" lon="6.97038">
        <ele>961</ele>
        <time>2022-10-30T09:53:44.000Z</time>
      </trkpt>
      <trkpt lat="48.01974" lon="6.97042">
        <ele>961.59997558594</ele>
        <time>2022-10-30T09:54:22.000Z</time>
      </trkpt>
      <trkpt lat="48.01976" lon="6.97047">
        <ele>961.59997558594</ele>
        <time>2022-10-30T09:54:30.000Z</time>
      </trkpt>
      <trkpt lat="48.01977" lon="6.97052">
        <ele>961.59997558594</ele>
        <time>2022-10-30T09:54:48.000Z</time>
      </trkpt>
      <trkpt lat="48.01979" lon="6.97057">
        <ele>961.59997558594</ele>
        <time>2022-10-30T09:54:53.000Z</time>
      </trkpt>
      <trkpt lat="48.0198" lon="6.97059">
        <ele>961.59997558594</ele>
        <time>2022-10-30T09:54:55.000Z</time>
      </trkpt>
      <trkpt lat="48.01981" lon="6.97063">
        <ele>961.59997558594</ele>
        <time>2022-10-30T09:54:57.000Z</time>
      </trkpt>
      <trkpt lat="48.0198" lon="6.97066">
        <ele>961.59997558594</ele>
        <time>2022-10-30T09:54:59.000Z</time>
      </trkpt>
      <trkpt lat="48.01979" lon="6.97067">
        <ele>961.59997558594</ele>
        <time>2022-10-30T09:55:00.000Z</time>
      </trkpt>
      <trkpt lat="48.01979" lon="6.97069">
        <ele>969.40002441406</ele>
        <time>2022-10-30T09:55:01.000Z</time>
      </trkpt>
      <trkpt lat="48.01979" lon="6.9707">
        <ele>969.40002441406</ele>
        <time>2022-10-30T09:55:02.000Z</time>
      </trkpt>
      <trkpt lat="48.01979" lon="6.97071">
        <ele>969.40002441406</ele>
        <time>2022-10-30T09:55:04.000Z</time>
      </trkpt>
      <trkpt lat="48.01979" lon="6.97072">
        <ele>969.40002441406</ele>
        <time>2022-10-30T09:55:06.000Z</time>
      </trkpt>
      <trkpt lat="48.01979" lon="6.97073">
        <ele>969.40002441406</ele>
        <time>2022-10-30T09:55:07.000Z</time>
      </trkpt>
      <trkpt lat="48.01979" lon="6.97075">
        <ele>970</ele>
        <time>2022-10-30T09:55:10.000Z</time>
      </trkpt>
      <trkpt lat="48.01976" lon="6.97077">
        <ele>970.40002441406</ele>
        <time>2022-10-30T09:55:13.000Z</time>
      </trkpt>
      <trkpt lat="48.01974" lon="6.97076">
        <ele>970.40002441406</ele>
        <time>2022-10-30T09:55:14.000Z</time>
      </trkpt>
      <trkpt lat="48.01971" lon="6.97077">
        <ele>970.59997558594</ele>
        <time>2022-10-30T09:55:19.000Z</time>
      </trkpt>
      <trkpt lat="48.0197" lon="6.97082">
        <ele>970.40002441406</ele>
        <time>2022-10-30T09:55:22.000Z</time>
      </trkpt>
      <trkpt lat="48.01969" lon="6.97084">
        <ele>970.40002441406</ele>
        <time>2022-10-30T09:55:25.000Z</time>
      </trkpt>
      <trkpt lat="48.01969" lon="6.97093">
        <ele>970.40002441406</ele>
        <time>2022-10-30T09:55:32.000Z</time>
      </trkpt>
      <trkpt lat="48.01966" lon="6.97101">
        <ele>970.59997558594</ele>
        <time>2022-10-30T09:55:39.000Z</time>
      </trkpt>
      <trkpt lat="48.01965" lon="6.97104">
        <ele>970.59997558594</ele>
        <time>2022-10-30T09:55:40.000Z</time>
      </trkpt>
      <trkpt lat="48.01963" lon="6.97109">
        <ele>970.59997558594</ele>
        <time>2022-10-30T09:55:44.000Z</time>
      </trkpt>
      <trkpt lat="48.01965" lon="6.97112">
        <ele>970.40002441406</ele>
        <time>2022-10-30T09:55:50.000Z</time>
      </trkpt>
      <trkpt lat="48.01962" lon="6.97116">
        <ele>970.40002441406</ele>
        <time>2022-10-30T09:55:54.000Z</time>
      </trkpt>
      <trkpt lat="48.0196" lon="6.97116">
        <ele>970.40002441406</ele>
        <time>2022-10-30T09:55:59.000Z</time>
      </trkpt>
      <trkpt lat="48.01964" lon="6.97119">
        <ele>970.40002441406</ele>
        <time>2022-10-30T09:56:02.000Z</time>
      </trkpt>
      <trkpt lat="48.01963" lon="6.97122">
        <ele>970.40002441406</ele>
        <time>2022-10-30T09:56:05.000Z</time>
      </trkpt>
      <trkpt lat="48.01962" lon="6.97126">
        <ele>970.40002441406</ele>
        <time>2022-10-30T09:56:08.000Z</time>
      </trkpt>
      <trkpt lat="48.01961" lon="6.97129">
        <ele>970.19995117188</ele>
        <time>2022-10-30T09:56:11.000Z</time>
      </trkpt>
      <trkpt lat="48.01962" lon="6.97131">
        <ele>969.59997558594</ele>
        <time>2022-10-30T09:56:16.000Z</time>
      </trkpt>
      <trkpt lat="48.01962" lon="6.97133">
        <ele>969.40002441406</ele>
        <time>2022-10-30T09:56:18.000Z</time>
      </trkpt>
      <trkpt lat="48.01962" lon="6.97133">
        <ele>969.19995117188</ele>
        <time>2022-10-30T09:56:20.000Z</time>
      </trkpt>
      <trkpt lat="48.01962" lon="6.97134">
        <ele>968.80004882812</ele>
        <time>2022-10-30T09:56:25.000Z</time>
      </trkpt>
      <trkpt lat="48.01958" lon="6.97136">
        <ele>968.80004882812</ele>
        <time>2022-10-30T09:56:29.000Z</time>
      </trkpt>
      <trkpt lat="48.0196" lon="6.97136">
        <ele>968.59997558594</ele>
        <time>2022-10-30T09:56:35.000Z</time>
      </trkpt>
      <trkpt lat="48.0196" lon="6.97138">
        <ele>968.59997558594</ele>
        <time>2022-10-30T09:56:44.000Z</time>
      </trkpt>
      <trkpt lat="48.0196" lon="6.97138">
        <ele>969</ele>
        <time>2022-10-30T09:56:48.000Z</time>
      </trkpt>
      <trkpt lat="48.0196" lon="6.97137">
        <ele>970.40002441406</ele>
        <time>2022-10-30T09:56:59.000Z</time>
      </trkpt>
      <trkpt lat="48.01965" lon="6.97139">
        <ele>970.80004882812</ele>
        <time>2022-10-30T09:57:13.000Z</time>
      </trkpt>
      <trkpt lat="48.01965" lon="6.97146">
        <ele>971</ele>
        <time>2022-10-30T09:57:18.000Z</time>
      </trkpt>
      <trkpt lat="48.01963" lon="6.97158">
        <ele>971.19995117188</ele>
        <time>2022-10-30T09:57:25.000Z</time>
      </trkpt>
      <trkpt lat="48.01963" lon="6.97164">
        <ele>971.19995117188</ele>
        <time>2022-10-30T09:57:30.000Z</time>
      </trkpt>
      <trkpt lat="48.01964" lon="6.97167">
        <ele>971.40002441406</ele>
        <time>2022-10-30T09:57:33.000Z</time>
      </trkpt>
      <trkpt lat="48.01965" lon="6.97168">
        <ele>971.40002441406</ele>
        <time>2022-10-30T09:57:34.000Z</time>
      </trkpt>
      <trkpt lat="48.01964" lon="6.97173">
        <ele>971.59997558594</ele>
        <time>2022-10-30T09:57:36.000Z</time>
      </trkpt>
      <trkpt lat="48.01963" lon="6.97176">
        <ele>971.80004882812</ele>
        <time>2022-10-30T09:57:41.000Z</time>
      </trkpt>
      <trkpt lat="48.01964" lon="6.97182">
        <ele>972</ele>
        <time>2022-10-30T09:57:47.000Z</time>
      </trkpt>
      <trkpt lat="48.01966" lon="6.97188">
        <ele>972.59997558594</ele>
        <time>2022-10-30T09:57:52.000Z</time>
      </trkpt>
      <trkpt lat="48.01965" lon="6.9719">
        <ele>973</ele>
        <time>2022-10-30T09:57:54.000Z</time>
      </trkpt>
      <trkpt lat="48.01964" lon="6.97192">
        <ele>973.19995117188</ele>
        <time>2022-10-30T09:57:57.000Z</time>
      </trkpt>
      <trkpt lat="48.01963" lon="6.97195">
        <ele>973.80004882812</ele>
        <time>2022-10-30T09:58:00.000Z</time>
      </trkpt>
      <trkpt lat="48.01962" lon="6.97197">
        <ele>974</ele>
        <time>2022-10-30T09:58:03.000Z</time>
      </trkpt>
      <trkpt lat="48.0196" lon="6.97202">
        <ele>974.80004882812</ele>
        <time>2022-10-30T09:58:08.000Z</time>
      </trkpt>
      <trkpt lat="48.01959" lon="6.97204">
        <ele>975.40002441406</ele>
        <time>2022-10-30T09:58:13.000Z</time>
      </trkpt>
      <trkpt lat="48.0196" lon="6.97211">
        <ele>975.80004882812</ele>
        <time>2022-10-30T09:58:17.000Z</time>
      </trkpt>
      <trkpt lat="48.0196" lon="6.97212">
        <ele>975.80004882812</ele>
        <time>2022-10-30T09:58:18.000Z</time>
      </trkpt>
      <trkpt lat="48.0196" lon="6.97213">
        <ele>976</ele>
        <time>2022-10-30T09:58:19.000Z</time>
      </trkpt>
      <trkpt lat="48.01959" lon="6.97209">
        <ele>976.19995117188</ele>
        <time>2022-10-30T09:58:23.000Z</time>
      </trkpt>
      <trkpt lat="48.01959" lon="6.97203">
        <ele>976.59997558594</ele>
        <time>2022-10-30T09:58:31.000Z</time>
      </trkpt>
      <trkpt lat="48.0196" lon="6.97204">
        <ele>977</ele>
        <time>2022-10-30T09:58:33.000Z</time>
      </trkpt>
      <trkpt lat="48.01962" lon="6.97208">
        <ele>977.80004882812</ele>
        <time>2022-10-30T09:58:37.000Z</time>
      </trkpt>
      <trkpt lat="48.01962" lon="6.97208">
        <ele>979.40002441406</ele>
        <time>2022-10-30T09:58:45.000Z</time>
      </trkpt>
      <trkpt lat="48.01962" lon="6.97208">
        <ele>980.40002441406</ele>
        <time>2022-10-30T09:58:51.000Z</time>
      </trkpt>
      <trkpt lat="48.01962" lon="6.97211">
        <ele>980.59997558594</ele>
        <time>2022-10-30T09:58:56.000Z</time>
      </trkpt>
      <trkpt lat="48.01962" lon="6.97213">
        <ele>980.59997558594</ele>
        <time>2022-10-30T09:58:58.000Z</time>
      </trkpt>
      <trkpt lat="48.01964" lon="6.97219">
        <ele>980.59997558594</ele>
        <time>2022-10-30T09:59:01.000Z</time>
      </trkpt>
      <trkpt lat="48.01965" lon="6.9723">
        <ele>980.80004882812</ele>
        <time>2022-10-30T09:59:05.000Z</time>
      </trkpt>
      <trkpt lat="48.01964" lon="6.9724">
        <ele>980.80004882812</ele>
        <time>2022-10-30T09:59:11.000Z</time>
      </trkpt>
      <trkpt lat="48.01966" lon="6.9724">
        <ele>981.19995117188</ele>
        <time>2022-10-30T09:59:16.000Z</time>
      </trkpt>
      <trkpt lat="48.01968" lon="6.97239">
        <ele>981.40002441406</ele>
        <time>2022-10-30T09:59:18.000Z</time>
      </trkpt>
      <trkpt lat="48.01968" lon="6.9724">
        <ele>981.40002441406</ele>
        <time>2022-10-30T09:59:19.000Z</time>
      </trkpt>
      <trkpt lat="48.0197" lon="6.97238">
        <ele>981.59997558594</ele>
        <time>2022-10-30T09:59:21.000Z</time>
      </trkpt>
      <trkpt lat="48.01971" lon="6.97239">
        <ele>981.80004882812</ele>
        <time>2022-10-30T09:59:24.000Z</time>
      </trkpt>
      <trkpt lat="48.01973" lon="6.97241">
        <ele>982</ele>
        <time>2022-10-30T09:59:26.000Z</time>
      </trkpt>
      <trkpt lat="48.01973" lon="6.97244">
        <ele>982.59997558594</ele>
        <time>2022-10-30T09:59:31.000Z</time>
      </trkpt>
      <trkpt lat="48.01973" lon="6.97245">
        <ele>982.59997558594</ele>
        <time>2022-10-30T09:59:32.000Z</time>
      </trkpt>
      <trkpt lat="48.01972" lon="6.97249">
        <ele>982.59997558594</ele>
        <time>2022-10-30T09:59:38.000Z</time>
      </trkpt>
      <trkpt lat="48.01971" lon="6.97248">
        <ele>982.59997558594</ele>
        <time>2022-10-30T09:59:44.000Z</time>
      </trkpt>
      <trkpt lat="48.01972" lon="6.97248">
        <ele>982.59997558594</ele>
        <time>2022-10-30T09:59:45.000Z</time>
      </trkpt>
      <trkpt lat="48.01974" lon="6.9725">
        <ele>982.59997558594</ele>
        <time>2022-10-30T09:59:51.000Z</time>
      </trkpt>
      <trkpt lat="48.01972" lon="6.9725">
        <ele>982.40002441406</ele>
        <time>2022-10-30T09:59:59.000Z</time>
      </trkpt>
      <trkpt lat="48.01971" lon="6.97256">
        <ele>982.40002441406</ele>
        <time>2022-10-30T10:00:05.000Z</time>
      </trkpt>
      <trkpt lat="48.01973" lon="6.97263">
        <ele>982.80004882812</ele>
        <time>2022-10-30T10:00:11.000Z</time>
      </trkpt>
      <trkpt lat="48.01974" lon="6.97273">
        <ele>983.19995117188</ele>
        <time>2022-10-30T10:00:17.000Z</time>
      </trkpt>
      <trkpt lat="48.01974" lon="6.97276">
        <ele>983.59997558594</ele>
        <time>2022-10-30T10:00:20.000Z</time>
      </trkpt>
      <trkpt lat="48.01973" lon="6.97285">
        <ele>984</ele>
        <time>2022-10-30T10:00:25.000Z</time>
      </trkpt>
      <trkpt lat="48.01972" lon="6.97291">
        <ele>984.19995117188</ele>
        <time>2022-10-30T10:00:31.000Z</time>
      </trkpt>
      <trkpt lat="48.01968" lon="6.97294">
        <ele>984.19995117188</ele>
        <time>2022-10-30T10:00:38.000Z</time>
      </trkpt>
      <trkpt lat="48.01968" lon="6.97292">
        <ele>984.19995117188</ele>
        <time>2022-10-30T10:00:42.000Z</time>
      </trkpt>
      <trkpt lat="48.01968" lon="6.9729">
        <ele>984.19995117188</ele>
        <time>2022-10-30T10:00:45.000Z</time>
      </trkpt>
      <trkpt lat="48.01968" lon="6.9729">
        <ele>983.80004882812</ele>
        <time>2022-10-30T10:01:06.000Z</time>
      </trkpt>
      <trkpt lat="48.01968" lon="6.9729">
        <ele>984</ele>
        <time>2022-10-30T10:01:07.000Z</time>
      </trkpt>
      <trkpt lat="48.01965" lon="6.97293">
        <ele>983.59997558594</ele>
        <time>2022-10-30T10:01:52.000Z</time>
      </trkpt>
      <trkpt lat="48.01964" lon="6.97293">
        <ele>983.80004882812</ele>
        <time>2022-10-30T10:01:59.000Z</time>
      </trkpt>
      <trkpt lat="48.01963" lon="6.97292">
        <ele>983.80004882812</ele>
        <time>2022-10-30T10:02:03.000Z</time>
      </trkpt>
      <trkpt lat="48.0196" lon="6.97292">
        <ele>983.59997558594</ele>
        <time>2022-10-30T10:02:11.000Z</time>
      </trkpt>
      <trkpt lat="48.0196" lon="6.97291">
        <ele>983.80004882812</ele>
        <time>2022-10-30T10:02:19.000Z</time>
      </trkpt>
      <trkpt lat="48.01959" lon="6.9729">
        <ele>983.80004882812</ele>
        <time>2022-10-30T10:02:25.000Z</time>
      </trkpt>
      <trkpt lat="48.01962" lon="6.97289">
        <ele>984</ele>
        <time>2022-10-30T10:02:44.000Z</time>
      </trkpt>
      <trkpt lat="48.01964" lon="6.97288">
        <ele>984.59997558594</ele>
        <time>2022-10-30T10:02:56.000Z</time>
      </trkpt>
      <trkpt lat="48.01969" lon="6.97297">
        <ele>985</ele>
        <time>2022-10-30T10:03:04.000Z</time>
      </trkpt>
      <trkpt lat="48.0197" lon="6.973">
        <ele>985.19995117188</ele>
        <time>2022-10-30T10:03:05.000Z</time>
      </trkpt>
      <trkpt lat="48.0197" lon="6.97315">
        <ele>985.40002441406</ele>
        <time>2022-10-30T10:03:10.000Z</time>
      </trkpt>
      <trkpt lat="48.0197" lon="6.9732">
        <ele>985.40002441406</ele>
        <time>2022-10-30T10:03:12.000Z</time>
      </trkpt>
      <trkpt lat="48.0197" lon="6.97325">
        <ele>985.59997558594</ele>
        <time>2022-10-30T10:03:14.000Z</time>
      </trkpt>
      <trkpt lat="48.0197" lon="6.97327">
        <ele>985.80004882812</ele>
        <time>2022-10-30T10:03:15.000Z</time>
      </trkpt>
      <trkpt lat="48.0197" lon="6.97332">
        <ele>986</ele>
        <time>2022-10-30T10:03:17.000Z</time>
      </trkpt>
      <trkpt lat="48.01968" lon="6.97348">
        <ele>986.59997558594</ele>
        <time>2022-10-30T10:03:24.000Z</time>
      </trkpt>
      <trkpt lat="48.01968" lon="6.97349">
        <ele>986.59997558594</ele>
        <time>2022-10-30T10:03:25.000Z</time>
      </trkpt>
      <trkpt lat="48.01968" lon="6.97351">
        <ele>986.59997558594</ele>
        <time>2022-10-30T10:03:26.000Z</time>
      </trkpt>
      <trkpt lat="48.01968" lon="6.97357">
        <ele>986.59997558594</ele>
        <time>2022-10-30T10:03:29.000Z</time>
      </trkpt>
      <trkpt lat="48.01968" lon="6.97362">
        <ele>986.80004882812</ele>
        <time>2022-10-30T10:03:33.000Z</time>
      </trkpt>
      <trkpt lat="48.01966" lon="6.97365">
        <ele>986.80004882812</ele>
        <time>2022-10-30T10:03:35.000Z</time>
      </trkpt>
      <trkpt lat="48.01965" lon="6.97374">
        <ele>987.19995117188</ele>
        <time>2022-10-30T10:03:40.000Z</time>
      </trkpt>
      <trkpt lat="48.01964" lon="6.97375">
        <ele>987.19995117188</ele>
        <time>2022-10-30T10:03:42.000Z</time>
      </trkpt>
      <trkpt lat="48.01964" lon="6.97374">
        <ele>987.40002441406</ele>
        <time>2022-10-30T10:03:46.000Z</time>
      </trkpt>
      <trkpt lat="48.01961" lon="6.97376">
        <ele>987.59997558594</ele>
        <time>2022-10-30T10:03:50.000Z</time>
      </trkpt>
      <trkpt lat="48.0196" lon="6.97376">
        <ele>987.59997558594</ele>
        <time>2022-10-30T10:03:51.000Z</time>
      </trkpt>
      <trkpt lat="48.01958" lon="6.9738">
        <ele>987.80004882812</ele>
        <time>2022-10-30T10:03:54.000Z</time>
      </trkpt>
      <trkpt lat="48.01957" lon="6.97393">
        <ele>988.40002441406</ele>
        <time>2022-10-30T10:04:01.000Z</time>
      </trkpt>
      <trkpt lat="48.01958" lon="6.97396">
        <ele>988.80004882812</ele>
        <time>2022-10-30T10:04:03.000Z</time>
      </trkpt>
      <trkpt lat="48.01955" lon="6.97402">
        <ele>989.19995117188</ele>
        <time>2022-10-30T10:04:07.000Z</time>
      </trkpt>
      <trkpt lat="48.01954" lon="6.97404">
        <ele>989.19995117188</ele>
        <time>2022-10-30T10:04:08.000Z</time>
      </trkpt>
      <trkpt lat="48.01953" lon="6.97409">
        <ele>989.80004882812</ele>
        <time>2022-10-30T10:04:11.000Z</time>
      </trkpt>
      <trkpt lat="48.01953" lon="6.97411">
        <ele>989.80004882812</ele>
        <time>2022-10-30T10:04:12.000Z</time>
      </trkpt>
      <trkpt lat="48.01951" lon="6.97419">
        <ele>990</ele>
        <time>2022-10-30T10:04:17.000Z</time>
      </trkpt>
      <trkpt lat="48.01951" lon="6.97427">
        <ele>990.19995117188</ele>
        <time>2022-10-30T10:04:21.000Z</time>
      </trkpt>
      <trkpt lat="48.01946" lon="6.97433">
        <ele>990.40002441406</ele>
        <time>2022-10-30T10:04:25.000Z</time>
      </trkpt>
      <trkpt lat="48.01943" lon="6.97435">
        <ele>990.80004882812</ele>
        <time>2022-10-30T10:04:28.000Z</time>
      </trkpt>
      <trkpt lat="48.01942" lon="6.97435">
        <ele>990.80004882812</ele>
        <time>2022-10-30T10:04:29.000Z</time>
      </trkpt>
      <trkpt lat="48.01936" lon="6.97442">
        <ele>991.40002441406</ele>
        <time>2022-10-30T10:04:36.000Z</time>
      </trkpt>
      <trkpt lat="48.01932" lon="6.97453">
        <ele>991.80004882812</ele>
        <time>2022-10-30T10:04:42.000Z</time>
      </trkpt>
      <trkpt lat="48.01929" lon="6.97464">
        <ele>992.19995117188</ele>
        <time>2022-10-30T10:04:47.000Z</time>
      </trkpt>
      <trkpt lat="48.01929" lon="6.97466">
        <ele>992.19995117188</ele>
        <time>2022-10-30T10:04:48.000Z</time>
      </trkpt>
      <trkpt lat="48.01928" lon="6.97467">
        <ele>992.19995117188</ele>
        <time>2022-10-30T10:04:49.000Z</time>
      </trkpt>
      <trkpt lat="48.01925" lon="6.97476">
        <ele>992.40002441406</ele>
        <time>2022-10-30T10:04:53.000Z</time>
      </trkpt>
      <trkpt lat="48.01923" lon="6.97486">
        <ele>992.59997558594</ele>
        <time>2022-10-30T10:04:58.000Z</time>
      </trkpt>
      <trkpt lat="48.01921" lon="6.97487">
        <ele>992.80004882812</ele>
        <time>2022-10-30T10:05:00.000Z</time>
      </trkpt>
      <trkpt lat="48.01921" lon="6.97488">
        <ele>992.80004882812</ele>
        <time>2022-10-30T10:05:01.000Z</time>
      </trkpt>
      <trkpt lat="48.0192" lon="6.9749">
        <ele>992.80004882812</ele>
        <time>2022-10-30T10:05:03.000Z</time>
      </trkpt>
      <trkpt lat="48.01919" lon="6.97498">
        <ele>993</ele>
        <time>2022-10-30T10:05:08.000Z</time>
      </trkpt>
      <trkpt lat="48.01918" lon="6.97504">
        <ele>993.19995117188</ele>
        <time>2022-10-30T10:05:12.000Z</time>
      </trkpt>
      <trkpt lat="48.01914" lon="6.9751">
        <ele>993.19995117188</ele>
        <time>2022-10-30T10:05:16.000Z</time>
      </trkpt>
      <trkpt lat="48.01906" lon="6.97515">
        <ele>993.40002441406</ele>
        <time>2022-10-30T10:05:24.000Z</time>
      </trkpt>
      <trkpt lat="48.01905" lon="6.97517">
        <ele>993.19995117188</ele>
        <time>2022-10-30T10:05:26.000Z</time>
      </trkpt>
      <trkpt lat="48.01903" lon="6.9752">
        <ele>993.40002441406</ele>
        <time>2022-10-30T10:05:28.000Z</time>
      </trkpt>
      <trkpt lat="48.01902" lon="6.97521">
        <ele>993.40002441406</ele>
        <time>2022-10-30T10:05:29.000Z</time>
      </trkpt>
      <trkpt lat="48.01898" lon="6.97527">
        <ele>993.59997558594</ele>
        <time>2022-10-30T10:05:34.000Z</time>
      </trkpt>
      <trkpt lat="48.01896" lon="6.9753">
        <ele>993.59997558594</ele>
        <time>2022-10-30T10:05:36.000Z</time>
      </trkpt>
      <trkpt lat="48.01893" lon="6.97531">
        <ele>993.59997558594</ele>
        <time>2022-10-30T10:05:38.000Z</time>
      </trkpt>
      <trkpt lat="48.01891" lon="6.97533">
        <ele>993.40002441406</ele>
        <time>2022-10-30T10:05:40.000Z</time>
      </trkpt>
      <trkpt lat="48.01889" lon="6.97533">
        <ele>993.40002441406</ele>
        <time>2022-10-30T10:05:41.000Z</time>
      </trkpt>
      <trkpt lat="48.01878" lon="6.97542">
        <ele>993.59997558594</ele>
        <time>2022-10-30T10:05:49.000Z</time>
      </trkpt>
      <trkpt lat="48.01878" lon="6.97547">
        <ele>993.59997558594</ele>
        <time>2022-10-30T10:05:56.000Z</time>
      </trkpt>
      <trkpt lat="48.01876" lon="6.97547">
        <ele>993.59997558594</ele>
        <time>2022-10-30T10:05:59.000Z</time>
      </trkpt>
      <trkpt lat="48.01874" lon="6.9755">
        <ele>993.59997558594</ele>
        <time>2022-10-30T10:06:02.000Z</time>
      </trkpt>
      <trkpt lat="48.01875" lon="6.9755">
        <ele>993.59997558594</ele>
        <time>2022-10-30T10:06:06.000Z</time>
      </trkpt>
      <trkpt lat="48.01874" lon="6.97549">
        <ele>993.59997558594</ele>
        <time>2022-10-30T10:06:08.000Z</time>
      </trkpt>
      <trkpt lat="48.01873" lon="6.9755">
        <ele>993.19995117188</ele>
        <time>2022-10-30T10:06:14.000Z</time>
      </trkpt>
      <trkpt lat="48.01873" lon="6.9755">
        <ele>993.19995117188</ele>
        <time>2022-10-30T10:06:28.000Z</time>
      </trkpt>
      <trkpt lat="48.01872" lon="6.9755">
        <ele>993.19995117188</ele>
        <time>2022-10-30T10:06:43.000Z</time>
      </trkpt>
      <trkpt lat="48.01872" lon="6.9755">
        <ele>993.19995117188</ele>
        <time>2022-10-30T10:06:49.000Z</time>
      </trkpt>
      <trkpt lat="48.01868" lon="6.9754">
        <ele>993.19995117188</ele>
        <time>2022-10-30T10:07:10.000Z</time>
      </trkpt>
      <trkpt lat="48.01864" lon="6.97532">
        <ele>993.19995117188</ele>
        <time>2022-10-30T10:07:16.000Z</time>
      </trkpt>
      <trkpt lat="48.0186" lon="6.97528">
        <ele>993.19995117188</ele>
        <time>2022-10-30T10:07:22.000Z</time>
      </trkpt>
      <trkpt lat="48.0186" lon="6.97528">
        <ele>993.19995117188</ele>
        <time>2022-10-30T10:07:23.000Z</time>
      </trkpt>
      <trkpt lat="48.01856" lon="6.97524">
        <ele>993.19995117188</ele>
        <time>2022-10-30T10:07:27.000Z</time>
      </trkpt>
      <trkpt lat="48.01854" lon="6.97523">
        <ele>993.19995117188</ele>
        <time>2022-10-30T10:07:31.000Z</time>
      </trkpt>
      <trkpt lat="48.0185" lon="6.97517">
        <ele>993.19995117188</ele>
        <time>2022-10-30T10:07:37.000Z</time>
      </trkpt>
      <trkpt lat="48.01848" lon="6.97513">
        <ele>993.19995117188</ele>
        <time>2022-10-30T10:07:40.000Z</time>
      </trkpt>
      <trkpt lat="48.01847" lon="6.9751">
        <ele>993.19995117188</ele>
        <time>2022-10-30T10:07:43.000Z</time>
      </trkpt>
      <trkpt lat="48.01843" lon="6.97504">
        <ele>993.19995117188</ele>
        <time>2022-10-30T10:07:47.000Z</time>
      </trkpt>
      <trkpt lat="48.01839" lon="6.97499">
        <ele>993.19995117188</ele>
        <time>2022-10-30T10:07:53.000Z</time>
      </trkpt>
      <trkpt lat="48.01837" lon="6.97494">
        <ele>993.19995117188</ele>
        <time>2022-10-30T10:07:59.000Z</time>
      </trkpt>
      <trkpt lat="48.01835" lon="6.9749">
        <ele>993.19995117188</ele>
        <time>2022-10-30T10:08:05.000Z</time>
      </trkpt>
      <trkpt lat="48.01832" lon="6.97483">
        <ele>993.19995117188</ele>
        <time>2022-10-30T10:08:11.000Z</time>
      </trkpt>
      <trkpt lat="48.01831" lon="6.97483">
        <ele>993.19995117188</ele>
        <time>2022-10-30T10:08:12.000Z</time>
      </trkpt>
      <trkpt lat="48.01828" lon="6.9748">
        <ele>993.19995117188</ele>
        <time>2022-10-30T10:08:17.000Z</time>
      </trkpt>
      <trkpt lat="48.01827" lon="6.97478">
        <ele>993.19995117188</ele>
        <time>2022-10-30T10:08:18.000Z</time>
      </trkpt>
      <trkpt lat="48.01824" lon="6.97469">
        <ele>993.19995117188</ele>
        <time>2022-10-30T10:08:24.000Z</time>
      </trkpt>
      <trkpt lat="48.0182" lon="6.97462">
        <ele>993.19995117188</ele>
        <time>2022-10-30T10:08:30.000Z</time>
      </trkpt>
      <trkpt lat="48.01819" lon="6.97459">
        <ele>993.19995117188</ele>
        <time>2022-10-30T10:08:32.000Z</time>
      </trkpt>
      <trkpt lat="48.01814" lon="6.97452">
        <ele>993.19995117188</ele>
        <time>2022-10-30T10:08:36.000Z</time>
      </trkpt>
      <trkpt lat="48.0181" lon="6.9745">
        <ele>993.19995117188</ele>
        <time>2022-10-30T10:08:44.000Z</time>
      </trkpt>
      <trkpt lat="48.01809" lon="6.97447">
        <ele>993.19995117188</ele>
        <time>2022-10-30T10:08:47.000Z</time>
      </trkpt>
      <trkpt lat="48.01807" lon="6.97447">
        <ele>993.19995117188</ele>
        <time>2022-10-30T10:08:49.000Z</time>
      </trkpt>
      <trkpt lat="48.01805" lon="6.97447">
        <ele>993.19995117188</ele>
        <time>2022-10-30T10:08:52.000Z</time>
      </trkpt>
      <trkpt lat="48.01801" lon="6.97447">
        <ele>993.19995117188</ele>
        <time>2022-10-30T10:08:58.000Z</time>
      </trkpt>
      <trkpt lat="48.01799" lon="6.97448">
        <ele>993.19995117188</ele>
        <time>2022-10-30T10:09:03.000Z</time>
      </trkpt>
      <trkpt lat="48.01797" lon="6.97448">
        <ele>993.19995117188</ele>
        <time>2022-10-30T10:09:05.000Z</time>
      </trkpt>
      <trkpt lat="48.01793" lon="6.97451">
        <ele>993.19995117188</ele>
        <time>2022-10-30T10:09:12.000Z</time>
      </trkpt>
      <trkpt lat="48.01793" lon="6.97451">
        <ele>993.19995117188</ele>
        <time>2022-10-30T10:09:13.000Z</time>
      </trkpt>
      <trkpt lat="48.01793" lon="6.97452">
        <ele>996</ele>
        <time>2022-10-30T10:09:15.000Z</time>
      </trkpt>
      <trkpt lat="48.01793" lon="6.97452">
        <ele>996</ele>
        <time>2022-10-30T10:09:16.000Z</time>
      </trkpt>
      <trkpt lat="48.01792" lon="6.97454">
        <ele>996</ele>
        <time>2022-10-30T10:09:19.000Z</time>
      </trkpt>
      <trkpt lat="48.01788" lon="6.97459">
        <ele>996.19995117188</ele>
        <time>2022-10-30T10:09:23.000Z</time>
      </trkpt>
      <trkpt lat="48.01787" lon="6.97461">
        <ele>996.19995117188</ele>
        <time>2022-10-30T10:09:26.000Z</time>
      </trkpt>
      <trkpt lat="48.01781" lon="6.97464">
        <ele>996.19995117188</ele>
        <time>2022-10-30T10:09:30.000Z</time>
      </trkpt>
      <trkpt lat="48.0178" lon="6.97464">
        <ele>996.19995117188</ele>
        <time>2022-10-30T10:09:31.000Z</time>
      </trkpt>
      <trkpt lat="48.0177" lon="6.97468">
        <ele>996.19995117188</ele>
        <time>2022-10-30T10:09:37.000Z</time>
      </trkpt>
      <trkpt lat="48.01768" lon="6.97468">
        <ele>996.19995117188</ele>
        <time>2022-10-30T10:09:38.000Z</time>
      </trkpt>
      <trkpt lat="48.01765" lon="6.97468">
        <ele>996.19995117188</ele>
        <time>2022-10-30T10:09:43.000Z</time>
      </trkpt>
      <trkpt lat="48.01755" lon="6.97473">
        <ele>996.40002441406</ele>
        <time>2022-10-30T10:09:52.000Z</time>
      </trkpt>
      <trkpt lat="48.01749" lon="6.97476">
        <ele>996.59997558594</ele>
        <time>2022-10-30T10:09:59.000Z</time>
      </trkpt>
      <trkpt lat="48.01742" lon="6.97478">
        <ele>996.59997558594</ele>
        <time>2022-10-30T10:10:06.000Z</time>
      </trkpt>
      <trkpt lat="48.0174" lon="6.97478">
        <ele>996.80004882812</ele>
        <time>2022-10-30T10:10:11.000Z</time>
      </trkpt>
      <trkpt lat="48.01737" lon="6.97477">
        <ele>997</ele>
        <time>2022-10-30T10:10:17.000Z</time>
      </trkpt>
      <trkpt lat="48.01729" lon="6.97477">
        <ele>997</ele>
        <time>2022-10-30T10:10:23.000Z</time>
      </trkpt>
      <trkpt lat="48.01724" lon="6.97479">
        <ele>996.80004882812</ele>
        <time>2022-10-30T10:10:28.000Z</time>
      </trkpt>
      <trkpt lat="48.01722" lon="6.97481">
        <ele>997</ele>
        <time>2022-10-30T10:10:30.000Z</time>
      </trkpt>
      <trkpt lat="48.01718" lon="6.97484">
        <ele>997</ele>
        <time>2022-10-30T10:10:32.000Z</time>
      </trkpt>
      <trkpt lat="48.01714" lon="6.97487">
        <ele>997.19995117188</ele>
        <time>2022-10-30T10:10:34.000Z</time>
      </trkpt>
      <trkpt lat="48.01713" lon="6.97488">
        <ele>997.19995117188</ele>
        <time>2022-10-30T10:10:35.000Z</time>
      </trkpt>
      <trkpt lat="48.01712" lon="6.97489">
        <ele>997.19995117188</ele>
        <time>2022-10-30T10:10:36.000Z</time>
      </trkpt>
      <trkpt lat="48.01707" lon="6.97489">
        <ele>997.40002441406</ele>
        <time>2022-10-30T10:10:41.000Z</time>
      </trkpt>
      <trkpt lat="48.01704" lon="6.97489">
        <ele>997.59997558594</ele>
        <time>2022-10-30T10:10:43.000Z</time>
      </trkpt>
      <trkpt lat="48.01703" lon="6.97489">
        <ele>997.59997558594</ele>
        <time>2022-10-30T10:10:44.000Z</time>
      </trkpt>
      <trkpt lat="48.01696" lon="6.97493">
        <ele>997.59997558594</ele>
        <time>2022-10-30T10:10:48.000Z</time>
      </trkpt>
      <trkpt lat="48.01694" lon="6.97494">
        <ele>997.59997558594</ele>
        <time>2022-10-30T10:10:49.000Z</time>
      </trkpt>
      <trkpt lat="48.01693" lon="6.97496">
        <ele>997.59997558594</ele>
        <time>2022-10-30T10:10:50.000Z</time>
      </trkpt>
      <trkpt lat="48.01692" lon="6.97497">
        <ele>997.80004882812</ele>
        <time>2022-10-30T10:10:51.000Z</time>
      </trkpt>
      <trkpt lat="48.01692" lon="6.97497">
        <ele>997.80004882812</ele>
        <time>2022-10-30T10:10:52.000Z</time>
      </trkpt>
      <trkpt lat="48.01687" lon="6.97492">
        <ele>997.80004882812</ele>
        <time>2022-10-30T10:10:59.000Z</time>
      </trkpt>
      <trkpt lat="48.01681" lon="6.97495">
        <ele>998</ele>
        <time>2022-10-30T10:11:05.000Z</time>
      </trkpt>
      <trkpt lat="48.0168" lon="6.97495">
        <ele>998</ele>
        <time>2022-10-30T10:11:06.000Z</time>
      </trkpt>
      <trkpt lat="48.0168" lon="6.97494">
        <ele>998.40002441406</ele>
        <time>2022-10-30T10:11:10.000Z</time>
      </trkpt>
      <trkpt lat="48.01681" lon="6.97494">
        <ele>998.40002441406</ele>
        <time>2022-10-30T10:11:11.000Z</time>
      </trkpt>
      <trkpt lat="48.01684" lon="6.97495">
        <ele>998.19995117188</ele>
        <time>2022-10-30T10:11:18.000Z</time>
      </trkpt>
      <trkpt lat="48.01681" lon="6.97494">
        <ele>998.19995117188</ele>
        <time>2022-10-30T10:11:27.000Z</time>
      </trkpt>
      <trkpt lat="48.01674" lon="6.97496">
        <ele>998.40002441406</ele>
        <time>2022-10-30T10:11:32.000Z</time>
      </trkpt>
      <trkpt lat="48.01667" lon="6.97498">
        <ele>998.59997558594</ele>
        <time>2022-10-30T10:11:37.000Z</time>
      </trkpt>
      <trkpt lat="48.01662" lon="6.97502">
        <ele>998.59997558594</ele>
        <time>2022-10-30T10:11:39.000Z</time>
      </trkpt>
      <trkpt lat="48.01659" lon="6.9751">
        <ele>998.80004882812</ele>
        <time>2022-10-30T10:11:43.000Z</time>
      </trkpt>
      <trkpt lat="48.01651" lon="6.97514">
        <ele>998.59997558594</ele>
        <time>2022-10-30T10:11:48.000Z</time>
      </trkpt>
      <trkpt lat="48.01647" lon="6.97518">
        <ele>998.80004882812</ele>
        <time>2022-10-30T10:11:53.000Z</time>
      </trkpt>
      <trkpt lat="48.01646" lon="6.97517">
        <ele>998.80004882812</ele>
        <time>2022-10-30T10:11:54.000Z</time>
      </trkpt>
      <trkpt lat="48.01648" lon="6.97517">
        <ele>999</ele>
        <time>2022-10-30T10:11:58.000Z</time>
      </trkpt>
      <trkpt lat="48.01648" lon="6.97517">
        <ele>999</ele>
        <time>2022-10-30T10:11:59.000Z</time>
      </trkpt>
      <trkpt lat="48.01648" lon="6.97518">
        <ele>999</ele>
        <time>2022-10-30T10:12:00.000Z</time>
      </trkpt>
      <trkpt lat="48.01649" lon="6.97524">
        <ele>999</ele>
        <time>2022-10-30T10:12:04.000Z</time>
      </trkpt>
      <trkpt lat="48.01649" lon="6.97525">
        <ele>999</ele>
        <time>2022-10-30T10:12:05.000Z</time>
      </trkpt>
      <trkpt lat="48.01648" lon="6.97531">
        <ele>999.19995117188</ele>
        <time>2022-10-30T10:12:09.000Z</time>
      </trkpt>
      <trkpt lat="48.01646" lon="6.97535">
        <ele>999.19995117188</ele>
        <time>2022-10-30T10:12:12.000Z</time>
      </trkpt>
      <trkpt lat="48.01645" lon="6.97537">
        <ele>999.19995117188</ele>
        <time>2022-10-30T10:12:13.000Z</time>
      </trkpt>
      <trkpt lat="48.01644" lon="6.97542">
        <ele>999.40002441406</ele>
        <time>2022-10-30T10:12:18.000Z</time>
      </trkpt>
      <trkpt lat="48.01646" lon="6.97552">
        <ele>999.80004882812</ele>
        <time>2022-10-30T10:12:24.000Z</time>
      </trkpt>
      <trkpt lat="48.01645" lon="6.97557">
        <ele>999.80004882812</ele>
        <time>2022-10-30T10:12:26.000Z</time>
      </trkpt>
      <trkpt lat="48.01645" lon="6.97559">
        <ele>1000</ele>
        <time>2022-10-30T10:12:27.000Z</time>
      </trkpt>
      <trkpt lat="48.01644" lon="6.97561">
        <ele>1000</ele>
        <time>2022-10-30T10:12:30.000Z</time>
      </trkpt>
      <trkpt lat="48.01643" lon="6.97562">
        <ele>1000</ele>
        <time>2022-10-30T10:12:31.000Z</time>
      </trkpt>
      <trkpt lat="48.01643" lon="6.97564">
        <ele>1000.1999511719</ele>
        <time>2022-10-30T10:12:33.000Z</time>
      </trkpt>
      <trkpt lat="48.01642" lon="6.97566">
        <ele>1000.1999511719</ele>
        <time>2022-10-30T10:12:35.000Z</time>
      </trkpt>
      <trkpt lat="48.01642" lon="6.97571">
        <ele>1000.4000244141</ele>
        <time>2022-10-30T10:12:39.000Z</time>
      </trkpt>
      <trkpt lat="48.01641" lon="6.97573">
        <ele>1000.4000244141</ele>
        <time>2022-10-30T10:12:40.000Z</time>
      </trkpt>
      <trkpt lat="48.0164" lon="6.97574">
        <ele>1000.4000244141</ele>
        <time>2022-10-30T10:12:41.000Z</time>
      </trkpt>
      <trkpt lat="48.01638" lon="6.97581">
        <ele>1000.5999755859</ele>
        <time>2022-10-30T10:12:45.000Z</time>
      </trkpt>
      <trkpt lat="48.01637" lon="6.97583">
        <ele>1000.5999755859</ele>
        <time>2022-10-30T10:12:46.000Z</time>
      </trkpt>
      <trkpt lat="48.01633" lon="6.97591">
        <ele>1000.8000488281</ele>
        <time>2022-10-30T10:12:52.000Z</time>
      </trkpt>
      <trkpt lat="48.01627" lon="6.97598">
        <ele>1001.1999511719</ele>
        <time>2022-10-30T10:12:57.000Z</time>
      </trkpt>
      <trkpt lat="48.01625" lon="6.97602">
        <ele>1001.4000244141</ele>
        <time>2022-10-30T10:12:59.000Z</time>
      </trkpt>
      <trkpt lat="48.01619" lon="6.97613">
        <ele>1001.8000488281</ele>
        <time>2022-10-30T10:13:07.000Z</time>
      </trkpt>
      <trkpt lat="48.01613" lon="6.97615">
        <ele>1001.8000488281</ele>
        <time>2022-10-30T10:13:13.000Z</time>
      </trkpt>
      <trkpt lat="48.01608" lon="6.97617">
        <ele>1001.8000488281</ele>
        <time>2022-10-30T10:13:18.000Z</time>
      </trkpt>
      <trkpt lat="48.01607" lon="6.97619">
        <ele>1001.8000488281</ele>
        <time>2022-10-30T10:13:22.000Z</time>
      </trkpt>
      <trkpt lat="48.01606" lon="6.97619">
        <ele>1001.8000488281</ele>
        <time>2022-10-30T10:13:23.000Z</time>
      </trkpt>
      <trkpt lat="48.016" lon="6.97627">
        <ele>1001.8000488281</ele>
        <time>2022-10-30T10:13:28.000Z</time>
      </trkpt>
      <trkpt lat="48.01597" lon="6.97631">
        <ele>1002</ele>
        <time>2022-10-30T10:13:31.000Z</time>
      </trkpt>
      <trkpt lat="48.01591" lon="6.97634">
        <ele>1002</ele>
        <time>2022-10-30T10:13:38.000Z</time>
      </trkpt>
      <trkpt lat="48.0159" lon="6.97635">
        <ele>1002.1999511719</ele>
        <time>2022-10-30T10:13:39.000Z</time>
      </trkpt>
      <trkpt lat="48.01589" lon="6.97642">
        <ele>1002.4000244141</ele>
        <time>2022-10-30T10:13:43.000Z</time>
      </trkpt>
      <trkpt lat="48.01583" lon="6.97651">
        <ele>1002.5999755859</ele>
        <time>2022-10-30T10:13:50.000Z</time>
      </trkpt>
      <trkpt lat="48.01579" lon="6.97655">
        <ele>1002.5999755859</ele>
        <time>2022-10-30T10:13:53.000Z</time>
      </trkpt>
      <trkpt lat="48.01577" lon="6.97658">
        <ele>1002.5999755859</ele>
        <time>2022-10-30T10:13:55.000Z</time>
      </trkpt>
      <trkpt lat="48.01575" lon="6.97665">
        <ele>1003</ele>
        <time>2022-10-30T10:14:01.000Z</time>
      </trkpt>
      <trkpt lat="48.01573" lon="6.97668">
        <ele>1003.1999511719</ele>
        <time>2022-10-30T10:14:04.000Z</time>
      </trkpt>
      <trkpt lat="48.01572" lon="6.97669">
        <ele>1003.1999511719</ele>
        <time>2022-10-30T10:14:05.000Z</time>
      </trkpt>
      <trkpt lat="48.01571" lon="6.97671">
        <ele>1003.4000244141</ele>
        <time>2022-10-30T10:14:07.000Z</time>
      </trkpt>
      <trkpt lat="48.01567" lon="6.97678">
        <ele>1003.5999755859</ele>
        <time>2022-10-30T10:14:14.000Z</time>
      </trkpt>
      <trkpt lat="48.01567" lon="6.97686">
        <ele>1003.5999755859</ele>
        <time>2022-10-30T10:14:20.000Z</time>
      </trkpt>
      <trkpt lat="48.01566" lon="6.97696">
        <ele>1003.8000488281</ele>
        <time>2022-10-30T10:14:26.000Z</time>
      </trkpt>
      <trkpt lat="48.01565" lon="6.97696">
        <ele>1003.8000488281</ele>
        <time>2022-10-30T10:14:27.000Z</time>
      </trkpt>
      <trkpt lat="48.01562" lon="6.97703">
        <ele>1004</ele>
        <time>2022-10-30T10:14:31.000Z</time>
      </trkpt>
      <trkpt lat="48.0156" lon="6.97703">
        <ele>1004.1999511719</ele>
        <time>2022-10-30T10:14:37.000Z</time>
      </trkpt>
      <trkpt lat="48.01559" lon="6.97702">
        <ele>1004.1999511719</ele>
        <time>2022-10-30T10:14:43.000Z</time>
      </trkpt>
      <trkpt lat="48.01558" lon="6.97705">
        <ele>1004</ele>
        <time>2022-10-30T10:14:50.000Z</time>
      </trkpt>
      <trkpt lat="48.0156" lon="6.9771">
        <ele>1004</ele>
        <time>2022-10-30T10:14:55.000Z</time>
      </trkpt>
      <trkpt lat="48.01561" lon="6.97712">
        <ele>1004.1999511719</ele>
        <time>2022-10-30T10:14:57.000Z</time>
      </trkpt>
      <trkpt lat="48.01561" lon="6.97713">
        <ele>1004.1999511719</ele>
        <time>2022-10-30T10:14:58.000Z</time>
      </trkpt>
      <trkpt lat="48.0156" lon="6.97717">
        <ele>1004.5999755859</ele>
        <time>2022-10-30T10:15:02.000Z</time>
      </trkpt>
      <trkpt lat="48.01559" lon="6.97722">
        <ele>1004.8000488281</ele>
        <time>2022-10-30T10:15:06.000Z</time>
      </trkpt>
      <trkpt lat="48.01559" lon="6.97723">
        <ele>1004.8000488281</ele>
        <time>2022-10-30T10:15:07.000Z</time>
      </trkpt>
      <trkpt lat="48.01559" lon="6.97734">
        <ele>1005</ele>
        <time>2022-10-30T10:15:13.000Z</time>
      </trkpt>
      <trkpt lat="48.01563" lon="6.97747">
        <ele>1005.1999511719</ele>
        <time>2022-10-30T10:15:20.000Z</time>
      </trkpt>
      <trkpt lat="48.01565" lon="6.97752">
        <ele>1005.1999511719</ele>
        <time>2022-10-30T10:15:23.000Z</time>
      </trkpt>
      <trkpt lat="48.01566" lon="6.97753">
        <ele>1005.1999511719</ele>
        <time>2022-10-30T10:15:24.000Z</time>
      </trkpt>
      <trkpt lat="48.01567" lon="6.97756">
        <ele>1005.4000244141</ele>
        <time>2022-10-30T10:15:25.000Z</time>
      </trkpt>
      <trkpt lat="48.01567" lon="6.97761">
        <ele>1005.4000244141</ele>
        <time>2022-10-30T10:15:28.000Z</time>
      </trkpt>
      <trkpt lat="48.01568" lon="6.97765">
        <ele>1005.4000244141</ele>
        <time>2022-10-30T10:15:30.000Z</time>
      </trkpt>
      <trkpt lat="48.01568" lon="6.97766">
        <ele>1005.4000244141</ele>
        <time>2022-10-30T10:15:31.000Z</time>
      </trkpt>
      <trkpt lat="48.0157" lon="6.97773">
        <ele>1005.5999755859</ele>
        <time>2022-10-30T10:15:37.000Z</time>
      </trkpt>
      <trkpt lat="48.01573" lon="6.9778">
        <ele>1005.5999755859</ele>
        <time>2022-10-30T10:15:41.000Z</time>
      </trkpt>
      <trkpt lat="48.01574" lon="6.97782">
        <ele>1005.5999755859</ele>
        <time>2022-10-30T10:15:42.000Z</time>
      </trkpt>
      <trkpt lat="48.01575" lon="6.97786">
        <ele>1005.8000488281</ele>
        <time>2022-10-30T10:15:44.000Z</time>
      </trkpt>
      <trkpt lat="48.01577" lon="6.97788">
        <ele>1005.8000488281</ele>
        <time>2022-10-30T10:15:46.000Z</time>
      </trkpt>
      <trkpt lat="48.01579" lon="6.9779">
        <ele>1005.8000488281</ele>
        <time>2022-10-30T10:15:48.000Z</time>
      </trkpt>
      <trkpt lat="48.0158" lon="6.97792">
        <ele>1005.8000488281</ele>
        <time>2022-10-30T10:15:49.000Z</time>
      </trkpt>
      <trkpt lat="48.01581" lon="6.97794">
        <ele>1005.8000488281</ele>
        <time>2022-10-30T10:15:50.000Z</time>
      </trkpt>
      <trkpt lat="48.01585" lon="6.97801">
        <ele>1005.8000488281</ele>
        <time>2022-10-30T10:15:55.000Z</time>
      </trkpt>
      <trkpt lat="48.01586" lon="6.97805">
        <ele>1005.8000488281</ele>
        <time>2022-10-30T10:15:58.000Z</time>
      </trkpt>
      <trkpt lat="48.01587" lon="6.9781">
        <ele>1005.8000488281</ele>
        <time>2022-10-30T10:16:00.000Z</time>
      </trkpt>
      <trkpt lat="48.01591" lon="6.97817">
        <ele>1005.8000488281</ele>
        <time>2022-10-30T10:16:06.000Z</time>
      </trkpt>
      <trkpt lat="48.01596" lon="6.97824">
        <ele>1005.5999755859</ele>
        <time>2022-10-30T10:16:11.000Z</time>
      </trkpt>
      <trkpt lat="48.01596" lon="6.97825">
        <ele>1005.4000244141</ele>
        <time>2022-10-30T10:16:12.000Z</time>
      </trkpt>
      <trkpt lat="48.01596" lon="6.97827">
        <ele>1005.1999511719</ele>
        <time>2022-10-30T10:16:14.000Z</time>
      </trkpt>
      <trkpt lat="48.01596" lon="6.97829">
        <ele>1005.1999511719</ele>
        <time>2022-10-30T10:16:16.000Z</time>
      </trkpt>
      <trkpt lat="48.01597" lon="6.97832">
        <ele>1005</ele>
        <time>2022-10-30T10:16:18.000Z</time>
      </trkpt>
      <trkpt lat="48.01598" lon="6.97833">
        <ele>1005</ele>
        <time>2022-10-30T10:16:19.000Z</time>
      </trkpt>
      <trkpt lat="48.016" lon="6.97839">
        <ele>1005.4000244141</ele>
        <time>2022-10-30T10:16:24.000Z</time>
      </trkpt>
      <trkpt lat="48.016" lon="6.97842">
        <ele>1005.4000244141</ele>
        <time>2022-10-30T10:16:26.000Z</time>
      </trkpt>
      <trkpt lat="48.01602" lon="6.97846">
        <ele>1005.4000244141</ele>
        <time>2022-10-30T10:16:32.000Z</time>
      </trkpt>
      <trkpt lat="48.01604" lon="6.97845">
        <ele>1005.4000244141</ele>
        <time>2022-10-30T10:16:40.000Z</time>
      </trkpt>
      <trkpt lat="48.01604" lon="6.97842">
        <ele>1005.4000244141</ele>
        <time>2022-10-30T10:16:44.000Z</time>
      </trkpt>
      <trkpt lat="48.01604" lon="6.97843">
        <ele>1005.4000244141</ele>
        <time>2022-10-30T10:17:05.000Z</time>
      </trkpt>
      <trkpt lat="48.01607" lon="6.97857">
        <ele>1001.8000488281</ele>
        <time>2022-10-30T10:17:23.000Z</time>
      </trkpt>
      <trkpt lat="48.01609" lon="6.97867">
        <ele>1001.8000488281</ele>
        <time>2022-10-30T10:17:29.000Z</time>
      </trkpt>
      <trkpt lat="48.01612" lon="6.97873">
        <ele>1001.4000244141</ele>
        <time>2022-10-30T10:17:33.000Z</time>
      </trkpt>
      <trkpt lat="48.01612" lon="6.97874">
        <ele>1001.1999511719</ele>
        <time>2022-10-30T10:17:34.000Z</time>
      </trkpt>
      <trkpt lat="48.01612" lon="6.97877">
        <ele>1001</ele>
        <time>2022-10-30T10:17:36.000Z</time>
      </trkpt>
      <trkpt lat="48.01613" lon="6.97883">
        <ele>1000.8000488281</ele>
        <time>2022-10-30T10:17:39.000Z</time>
      </trkpt>
      <trkpt lat="48.01614" lon="6.97884">
        <ele>1000.8000488281</ele>
        <time>2022-10-30T10:17:40.000Z</time>
      </trkpt>
      <trkpt lat="48.01614" lon="6.9789">
        <ele>1000.4000244141</ele>
        <time>2022-10-30T10:17:43.000Z</time>
      </trkpt>
      <trkpt lat="48.01614" lon="6.97895">
        <ele>1000.1999511719</ele>
        <time>2022-10-30T10:17:45.000Z</time>
      </trkpt>
      <trkpt lat="48.01614" lon="6.97897">
        <ele>1000</ele>
        <time>2022-10-30T10:17:46.000Z</time>
      </trkpt>
      <trkpt lat="48.01614" lon="6.979">
        <ele>999.80004882812</ele>
        <time>2022-10-30T10:17:48.000Z</time>
      </trkpt>
      <trkpt lat="48.01616" lon="6.97902">
        <ele>999.59997558594</ele>
        <time>2022-10-30T10:17:49.000Z</time>
      </trkpt>
      <trkpt lat="48.01618" lon="6.97905">
        <ele>999.59997558594</ele>
        <time>2022-10-30T10:17:51.000Z</time>
      </trkpt>
      <trkpt lat="48.01621" lon="6.97913">
        <ele>999</ele>
        <time>2022-10-30T10:17:57.000Z</time>
      </trkpt>
      <trkpt lat="48.01624" lon="6.97927">
        <ele>998.80004882812</ele>
        <time>2022-10-30T10:18:04.000Z</time>
      </trkpt>
      <trkpt lat="48.01619" lon="6.9793">
        <ele>998.80004882812</ele>
        <time>2022-10-30T10:18:09.000Z</time>
      </trkpt>
      <trkpt lat="48.01612" lon="6.97932">
        <ele>1000.1999511719</ele>
        <time>2022-10-30T10:18:17.000Z</time>
      </trkpt>
      <trkpt lat="48.01609" lon="6.97934">
        <ele>1000.5999755859</ele>
        <time>2022-10-30T10:18:20.000Z</time>
      </trkpt>
      <trkpt lat="48.01603" lon="6.97942">
        <ele>1002</ele>
        <time>2022-10-30T10:18:24.000Z</time>
      </trkpt>
      <trkpt lat="48.01601" lon="6.97943">
        <ele>1002</ele>
        <time>2022-10-30T10:18:26.000Z</time>
      </trkpt>
      <trkpt lat="48.016" lon="6.97944">
        <ele>1002</ele>
        <time>2022-10-30T10:18:28.000Z</time>
      </trkpt>
      <trkpt lat="48.01597" lon="6.97949">
        <ele>1002</ele>
        <time>2022-10-30T10:18:34.000Z</time>
      </trkpt>
      <trkpt lat="48.01597" lon="6.97951">
        <ele>1002</ele>
        <time>2022-10-30T10:18:40.000Z</time>
      </trkpt>
      <trkpt lat="48.01597" lon="6.97952">
        <ele>1002</ele>
        <time>2022-10-30T10:18:41.000Z</time>
      </trkpt>
      <trkpt lat="48.01597" lon="6.97956">
        <ele>1002</ele>
        <time>2022-10-30T10:18:44.000Z</time>
      </trkpt>
      <trkpt lat="48.01594" lon="6.97962">
        <ele>1002</ele>
        <time>2022-10-30T10:18:48.000Z</time>
      </trkpt>
      <trkpt lat="48.01593" lon="6.97964">
        <ele>1002</ele>
        <time>2022-10-30T10:18:49.000Z</time>
      </trkpt>
      <trkpt lat="48.01589" lon="6.97969">
        <ele>1002</ele>
        <time>2022-10-30T10:18:53.000Z</time>
      </trkpt>
      <trkpt lat="48.01587" lon="6.97973">
        <ele>1002</ele>
        <time>2022-10-30T10:18:56.000Z</time>
      </trkpt>
      <trkpt lat="48.01587" lon="6.97975">
        <ele>1002</ele>
        <time>2022-10-30T10:18:57.000Z</time>
      </trkpt>
      <trkpt lat="48.01586" lon="6.97978">
        <ele>1002</ele>
        <time>2022-10-30T10:19:00.000Z</time>
      </trkpt>
      <trkpt lat="48.01581" lon="6.97979">
        <ele>1002</ele>
        <time>2022-10-30T10:19:06.000Z</time>
      </trkpt>
      <trkpt lat="48.01579" lon="6.97979">
        <ele>1002</ele>
        <time>2022-10-30T10:19:07.000Z</time>
      </trkpt>
      <trkpt lat="48.01575" lon="6.97981">
        <ele>1002</ele>
        <time>2022-10-30T10:19:16.000Z</time>
      </trkpt>
      <trkpt lat="48.01576" lon="6.9798">
        <ele>1009.5999755859</ele>
        <time>2022-10-30T10:19:25.000Z</time>
      </trkpt>
      <trkpt lat="48.01572" lon="6.97986">
        <ele>1009.8000488281</ele>
        <time>2022-10-30T10:19:32.000Z</time>
      </trkpt>
      <trkpt lat="48.01571" lon="6.97991">
        <ele>1010.5999755859</ele>
        <time>2022-10-30T10:19:38.000Z</time>
      </trkpt>
      <trkpt lat="48.0157" lon="6.97993">
        <ele>1011</ele>
        <time>2022-10-30T10:19:40.000Z</time>
      </trkpt>
      <trkpt lat="48.01566" lon="6.97998">
        <ele>1011.5999755859</ele>
        <time>2022-10-30T10:19:47.000Z</time>
      </trkpt>
      <trkpt lat="48.01561" lon="6.98003">
        <ele>1012</ele>
        <time>2022-10-30T10:19:52.000Z</time>
      </trkpt>
      <trkpt lat="48.01559" lon="6.98003">
        <ele>1012</ele>
        <time>2022-10-30T10:19:53.000Z</time>
      </trkpt>
      <trkpt lat="48.01555" lon="6.97999">
        <ele>1012</ele>
        <time>2022-10-30T10:19:55.000Z</time>
      </trkpt>
      <trkpt lat="48.01552" lon="6.97999">
        <ele>1012</ele>
        <time>2022-10-30T10:19:59.000Z</time>
      </trkpt>
      <trkpt lat="48.0155" lon="6.97996">
        <ele>1012.5999755859</ele>
        <time>2022-10-30T10:20:04.000Z</time>
      </trkpt>
      <trkpt lat="48.01548" lon="6.97995">
        <ele>1013</ele>
        <time>2022-10-30T10:20:06.000Z</time>
      </trkpt>
      <trkpt lat="48.01545" lon="6.97994">
        <ele>1013.4000244141</ele>
        <time>2022-10-30T10:20:10.000Z</time>
      </trkpt>
      <trkpt lat="48.01544" lon="6.97994">
        <ele>1013.8000488281</ele>
        <time>2022-10-30T10:20:11.000Z</time>
      </trkpt>
      <trkpt lat="48.01542" lon="6.97992">
        <ele>1014.1999511719</ele>
        <time>2022-10-30T10:20:14.000Z</time>
      </trkpt>
      <trkpt lat="48.0154" lon="6.97987">
        <ele>1014.8000488281</ele>
        <time>2022-10-30T10:20:17.000Z</time>
      </trkpt>
      <trkpt lat="48.01541" lon="6.97985">
        <ele>1015</ele>
        <time>2022-10-30T10:20:20.000Z</time>
      </trkpt>
      <trkpt lat="48.01541" lon="6.97985">
        <ele>1015</ele>
        <time>2022-10-30T10:20:21.000Z</time>
      </trkpt>
      <trkpt lat="48.01543" lon="6.97985">
        <ele>1015.4000244141</ele>
        <time>2022-10-30T10:20:29.000Z</time>
      </trkpt>
      <trkpt lat="48.01537" lon="6.97983">
        <ele>1015.8000488281</ele>
        <time>2022-10-30T10:20:36.000Z</time>
      </trkpt>
      <trkpt lat="48.01535" lon="6.97983">
        <ele>1016</ele>
        <time>2022-10-30T10:20:39.000Z</time>
      </trkpt>
      <trkpt lat="48.01531" lon="6.97979">
        <ele>1016.8000488281</ele>
        <time>2022-10-30T10:20:44.000Z</time>
      </trkpt>
      <trkpt lat="48.0153" lon="6.97978">
        <ele>1016.8000488281</ele>
        <time>2022-10-30T10:20:46.000Z</time>
      </trkpt>
      <trkpt lat="48.01528" lon="6.97974">
        <ele>1017</ele>
        <time>2022-10-30T10:20:49.000Z</time>
      </trkpt>
      <trkpt lat="48.01522" lon="6.97973">
        <ele>1018</ele>
        <time>2022-10-30T10:20:56.000Z</time>
      </trkpt>
      <trkpt lat="48.01522" lon="6.97973">
        <ele>1018</ele>
        <time>2022-10-30T10:20:57.000Z</time>
      </trkpt>
      <trkpt lat="48.01521" lon="6.97974">
        <ele>1018</ele>
        <time>2022-10-30T10:21:02.000Z</time>
      </trkpt>
      <trkpt lat="48.01521" lon="6.97973">
        <ele>1018.4000244141</ele>
        <time>2022-10-30T10:21:05.000Z</time>
      </trkpt>
      <trkpt lat="48.01519" lon="6.97974">
        <ele>1018.8000488281</ele>
        <time>2022-10-30T10:21:08.000Z</time>
      </trkpt>
      <trkpt lat="48.01519" lon="6.97974">
        <ele>1019</ele>
        <time>2022-10-30T10:21:10.000Z</time>
      </trkpt>
      <trkpt lat="48.01518" lon="6.97975">
        <ele>1019.1999511719</ele>
        <time>2022-10-30T10:21:13.000Z</time>
      </trkpt>
      <trkpt lat="48.01518" lon="6.97976">
        <ele>1019.5999755859</ele>
        <time>2022-10-30T10:21:15.000Z</time>
      </trkpt>
      <trkpt lat="48.01517" lon="6.97979">
        <ele>1020.1999511719</ele>
        <time>2022-10-30T10:21:18.000Z</time>
      </trkpt>
      <trkpt lat="48.01516" lon="6.97977">
        <ele>1020.5999755859</ele>
        <time>2022-10-30T10:21:21.000Z</time>
      </trkpt>
      <trkpt lat="48.01517" lon="6.97979">
        <ele>1021.4000244141</ele>
        <time>2022-10-30T10:21:24.000Z</time>
      </trkpt>
      <trkpt lat="48.01518" lon="6.97981">
        <ele>1021.5999755859</ele>
        <time>2022-10-30T10:21:25.000Z</time>
      </trkpt>
      <trkpt lat="48.01516" lon="6.97985">
        <ele>1021.8000488281</ele>
        <time>2022-10-30T10:21:28.000Z</time>
      </trkpt>
      <trkpt lat="48.01515" lon="6.97986">
        <ele>1022.4000244141</ele>
        <time>2022-10-30T10:21:32.000Z</time>
      </trkpt>
      <trkpt lat="48.01513" lon="6.97986">
        <ele>1022.8000488281</ele>
        <time>2022-10-30T10:21:34.000Z</time>
      </trkpt>
      <trkpt lat="48.01513" lon="6.97985">
        <ele>1023</ele>
        <time>2022-10-30T10:21:35.000Z</time>
      </trkpt>
      <trkpt lat="48.01511" lon="6.97983">
        <ele>1023.5999755859</ele>
        <time>2022-10-30T10:21:38.000Z</time>
      </trkpt>
      <trkpt lat="48.01508" lon="6.97981">
        <ele>1024.1999511719</ele>
        <time>2022-10-30T10:21:41.000Z</time>
      </trkpt>
      <trkpt lat="48.01507" lon="6.97981">
        <ele>1024.4000244141</ele>
        <time>2022-10-30T10:21:42.000Z</time>
      </trkpt>
      <trkpt lat="48.01506" lon="6.97982">
        <ele>1024.5999755859</ele>
        <time>2022-10-30T10:21:43.000Z</time>
      </trkpt>
      <trkpt lat="48.01501" lon="6.97985">
        <ele>1025.5999755859</ele>
        <time>2022-10-30T10:21:49.000Z</time>
      </trkpt>
      <trkpt lat="48.01499" lon="6.97987">
        <ele>1026.1999511719</ele>
        <time>2022-10-30T10:21:52.000Z</time>
      </trkpt>
      <trkpt lat="48.01498" lon="6.97989">
        <ele>1026.8000488281</ele>
        <time>2022-10-30T10:21:55.000Z</time>
      </trkpt>
      <trkpt lat="48.01498" lon="6.9799">
        <ele>1026.8000488281</ele>
        <time>2022-10-30T10:21:56.000Z</time>
      </trkpt>
      <trkpt lat="48.01496" lon="6.9799">
        <ele>1027.1999511719</ele>
        <time>2022-10-30T10:21:58.000Z</time>
      </trkpt>
      <trkpt lat="48.01491" lon="6.97987">
        <ele>1027.5999755859</ele>
        <time>2022-10-30T10:22:03.000Z</time>
      </trkpt>
      <trkpt lat="48.01489" lon="6.97985">
        <ele>1027.5999755859</ele>
        <time>2022-10-30T10:22:06.000Z</time>
      </trkpt>
      <trkpt lat="48.01489" lon="6.97984">
        <ele>1027.5999755859</ele>
        <time>2022-10-30T10:22:07.000Z</time>
      </trkpt>
      <trkpt lat="48.01489" lon="6.9798">
        <ele>1027.8000488281</ele>
        <time>2022-10-30T10:22:14.000Z</time>
      </trkpt>
      <trkpt lat="48.01489" lon="6.97979">
        <ele>1027.8000488281</ele>
        <time>2022-10-30T10:22:15.000Z</time>
      </trkpt>
      <trkpt lat="48.01489" lon="6.97979">
        <ele>1027.8000488281</ele>
        <time>2022-10-30T10:22:21.000Z</time>
      </trkpt>
      <trkpt lat="48.01489" lon="6.97979">
        <ele>1028.1999511719</ele>
        <time>2022-10-30T10:22:31.000Z</time>
      </trkpt>
      <trkpt lat="48.01488" lon="6.9798">
        <ele>1028.8000488281</ele>
        <time>2022-10-30T10:22:41.000Z</time>
      </trkpt>
      <trkpt lat="48.01487" lon="6.9798">
        <ele>1029.1999511719</ele>
        <time>2022-10-30T10:22:43.000Z</time>
      </trkpt>
      <trkpt lat="48.01482" lon="6.9798">
        <ele>1029.8000488281</ele>
        <time>2022-10-30T10:22:48.000Z</time>
      </trkpt>
      <trkpt lat="48.01473" lon="6.97979">
        <ele>1030.4000244141</ele>
        <time>2022-10-30T10:22:53.000Z</time>
      </trkpt>
      <trkpt lat="48.01466" lon="6.97982">
        <ele>1031</ele>
        <time>2022-10-30T10:22:57.000Z</time>
      </trkpt>
      <trkpt lat="48.01464" lon="6.97982">
        <ele>1031.4000244141</ele>
        <time>2022-10-30T10:22:59.000Z</time>
      </trkpt>
      <trkpt lat="48.01459" lon="6.97981">
        <ele>1032.1999511719</ele>
        <time>2022-10-30T10:23:03.000Z</time>
      </trkpt>
      <trkpt lat="48.01458" lon="6.9798">
        <ele>1032.4000244141</ele>
        <time>2022-10-30T10:23:06.000Z</time>
      </trkpt>
      <trkpt lat="48.01451" lon="6.97969">
        <ele>1033.1999511719</ele>
        <time>2022-10-30T10:23:13.000Z</time>
      </trkpt>
      <trkpt lat="48.01451" lon="6.97969">
        <ele>1033.4000244141</ele>
        <time>2022-10-30T10:23:14.000Z</time>
      </trkpt>
      <trkpt lat="48.0145" lon="6.97968">
        <ele>1033.4000244141</ele>
        <time>2022-10-30T10:23:15.000Z</time>
      </trkpt>
      <trkpt lat="48.01449" lon="6.97966">
        <ele>1033.4000244141</ele>
        <time>2022-10-30T10:23:19.000Z</time>
      </trkpt>
      <trkpt lat="48.01448" lon="6.97966">
        <ele>1033.4000244141</ele>
        <time>2022-10-30T10:23:20.000Z</time>
      </trkpt>
      <trkpt lat="48.01448" lon="6.9796">
        <ele>1033.1999511719</ele>
        <time>2022-10-30T10:23:24.000Z</time>
      </trkpt>
      <trkpt lat="48.01447" lon="6.97953">
        <ele>1033.4000244141</ele>
        <time>2022-10-30T10:23:29.000Z</time>
      </trkpt>
      <trkpt lat="48.01446" lon="6.97952">
        <ele>1033.8000488281</ele>
        <time>2022-10-30T10:23:35.000Z</time>
      </trkpt>
      <trkpt lat="48.01446" lon="6.9796">
        <ele>1034.1999511719</ele>
        <time>2022-10-30T10:23:42.000Z</time>
      </trkpt>
      <trkpt lat="48.01446" lon="6.97958">
        <ele>1034.1999511719</ele>
        <time>2022-10-30T10:23:45.000Z</time>
      </trkpt>
      <trkpt lat="48.01443" lon="6.97954">
        <ele>1034.4000244141</ele>
        <time>2022-10-30T10:23:48.000Z</time>
      </trkpt>
      <trkpt lat="48.01442" lon="6.97954">
        <ele>1034.5999755859</ele>
        <time>2022-10-30T10:23:51.000Z</time>
      </trkpt>
      <trkpt lat="48.0144" lon="6.97953">
        <ele>1034.8000488281</ele>
        <time>2022-10-30T10:23:55.000Z</time>
      </trkpt>
      <trkpt lat="48.01437" lon="6.97953">
        <ele>1035.4000244141</ele>
        <time>2022-10-30T10:24:00.000Z</time>
      </trkpt>
      <trkpt lat="48.01437" lon="6.97953">
        <ele>1035.5999755859</ele>
        <time>2022-10-30T10:24:02.000Z</time>
      </trkpt>
      <trkpt lat="48.01435" lon="6.97953">
        <ele>1035.5999755859</ele>
        <time>2022-10-30T10:24:08.000Z</time>
      </trkpt>
      <trkpt lat="48.01434" lon="6.97952">
        <ele>1036</ele>
        <time>2022-10-30T10:24:15.000Z</time>
      </trkpt>
      <trkpt lat="48.0143" lon="6.9795">
        <ele>1036.4000244141</ele>
        <time>2022-10-30T10:24:22.000Z</time>
      </trkpt>
      <trkpt lat="48.01425" lon="6.97948">
        <ele>1037.1999511719</ele>
        <time>2022-10-30T10:24:28.000Z</time>
      </trkpt>
      <trkpt lat="48.01425" lon="6.97948">
        <ele>1037.4000244141</ele>
        <time>2022-10-30T10:24:29.000Z</time>
      </trkpt>
      <trkpt lat="48.01415" lon="6.97941">
        <ele>1038.4000244141</ele>
        <time>2022-10-30T10:24:37.000Z</time>
      </trkpt>
      <trkpt lat="48.01412" lon="6.9794">
        <ele>1039</ele>
        <time>2022-10-30T10:24:44.000Z</time>
      </trkpt>
      <trkpt lat="48.01413" lon="6.9794">
        <ele>1039</ele>
        <time>2022-10-30T10:24:52.000Z</time>
      </trkpt>
      <trkpt lat="48.01413" lon="6.97939">
        <ele>1039.1999511719</ele>
        <time>2022-10-30T10:25:02.000Z</time>
      </trkpt>
      <trkpt lat="48.01412" lon="6.97939">
        <ele>1039.4000244141</ele>
        <time>2022-10-30T10:25:11.000Z</time>
      </trkpt>
      <trkpt lat="48.01412" lon="6.97939">
        <ele>1039.5999755859</ele>
        <time>2022-10-30T10:25:12.000Z</time>
      </trkpt>
      <trkpt lat="48.0141" lon="6.97939">
        <ele>1040.5999755859</ele>
        <time>2022-10-30T10:25:18.000Z</time>
      </trkpt>
      <trkpt lat="48.01408" lon="6.97939">
        <ele>1041.5999755859</ele>
        <time>2022-10-30T10:25:24.000Z</time>
      </trkpt>
      <trkpt lat="48.01405" lon="6.97938">
        <ele>1042</ele>
        <time>2022-10-30T10:25:30.000Z</time>
      </trkpt>
      <trkpt lat="48.01398" lon="6.97927">
        <ele>1042.5999755859</ele>
        <time>2022-10-30T10:25:37.000Z</time>
      </trkpt>
      <trkpt lat="48.01397" lon="6.97926">
        <ele>1042.5999755859</ele>
        <time>2022-10-30T10:25:38.000Z</time>
      </trkpt>
      <trkpt lat="48.01398" lon="6.97922">
        <ele>1043</ele>
        <time>2022-10-30T10:25:42.000Z</time>
      </trkpt>
      <trkpt lat="48.01396" lon="6.97918">
        <ele>1043.5999755859</ele>
        <time>2022-10-30T10:25:46.000Z</time>
      </trkpt>
      <trkpt lat="48.01395" lon="6.97918">
        <ele>1043.8000488281</ele>
        <time>2022-10-30T10:25:47.000Z</time>
      </trkpt>
      <trkpt lat="48.01396" lon="6.97917">
        <ele>1044.1999511719</ele>
        <time>2022-10-30T10:25:49.000Z</time>
      </trkpt>
      <trkpt lat="48.01395" lon="6.97917">
        <ele>1044.8000488281</ele>
        <time>2022-10-30T10:25:52.000Z</time>
      </trkpt>
      <trkpt lat="48.01395" lon="6.97916">
        <ele>1045.1999511719</ele>
        <time>2022-10-30T10:25:54.000Z</time>
      </trkpt>
      <trkpt lat="48.01393" lon="6.97915">
        <ele>1045.8000488281</ele>
        <time>2022-10-30T10:25:57.000Z</time>
      </trkpt>
      <trkpt lat="48.01393" lon="6.97915">
        <ele>1046</ele>
        <time>2022-10-30T10:25:58.000Z</time>
      </trkpt>
      <trkpt lat="48.01391" lon="6.97915">
        <ele>1047</ele>
        <time>2022-10-30T10:26:02.000Z</time>
      </trkpt>
      <trkpt lat="48.01394" lon="6.97911">
        <ele>1047.4000244141</ele>
        <time>2022-10-30T10:26:05.000Z</time>
      </trkpt>
      <trkpt lat="48.01392" lon="6.97909">
        <ele>1047.4000244141</ele>
        <time>2022-10-30T10:26:08.000Z</time>
      </trkpt>
      <trkpt lat="48.01391" lon="6.97908">
        <ele>1047.5999755859</ele>
        <time>2022-10-30T10:26:13.000Z</time>
      </trkpt>
      <trkpt lat="48.01387" lon="6.97899">
        <ele>1048</ele>
        <time>2022-10-30T10:26:23.000Z</time>
      </trkpt>
      <trkpt lat="48.01385" lon="6.97896">
        <ele>1048.1999511719</ele>
        <time>2022-10-30T10:26:25.000Z</time>
      </trkpt>
      <trkpt lat="48.01379" lon="6.97885">
        <ele>1048.5999755859</ele>
        <time>2022-10-30T10:26:31.000Z</time>
      </trkpt>
      <trkpt lat="48.01374" lon="6.97879">
        <ele>1049.1999511719</ele>
        <time>2022-10-30T10:26:37.000Z</time>
      </trkpt>
      <trkpt lat="48.01374" lon="6.97878">
        <ele>1049.4000244141</ele>
        <time>2022-10-30T10:26:38.000Z</time>
      </trkpt>
      <trkpt lat="48.01369" lon="6.97879">
        <ele>1050.1999511719</ele>
        <time>2022-10-30T10:26:43.000Z</time>
      </trkpt>
      <trkpt lat="48.01367" lon="6.9788">
        <ele>1050.5999755859</ele>
        <time>2022-10-30T10:26:45.000Z</time>
      </trkpt>
      <trkpt lat="48.01361" lon="6.97879">
        <ele>1051.4000244141</ele>
        <time>2022-10-30T10:26:49.000Z</time>
      </trkpt>
      <trkpt lat="48.01358" lon="6.97872">
        <ele>1052</ele>
        <time>2022-10-30T10:26:54.000Z</time>
      </trkpt>
      <trkpt lat="48.01362" lon="6.97863">
        <ele>1052.1999511719</ele>
        <time>2022-10-30T10:27:01.000Z</time>
      </trkpt>
      <trkpt lat="48.01362" lon="6.97863">
        <ele>1052.4000244141</ele>
        <time>2022-10-30T10:27:03.000Z</time>
      </trkpt>
      <trkpt lat="48.01363" lon="6.97857">
        <ele>1052.5999755859</ele>
        <time>2022-10-30T10:27:08.000Z</time>
      </trkpt>
      <trkpt lat="48.01363" lon="6.97853">
        <ele>1053</ele>
        <time>2022-10-30T10:27:11.000Z</time>
      </trkpt>
      <trkpt lat="48.01362" lon="6.97848">
        <ele>1053.4000244141</ele>
        <time>2022-10-30T10:27:15.000Z</time>
      </trkpt>
      <trkpt lat="48.01361" lon="6.97846">
        <ele>1053.5999755859</ele>
        <time>2022-10-30T10:27:17.000Z</time>
      </trkpt>
      <trkpt lat="48.0136" lon="6.97834">
        <ele>1053.8000488281</ele>
        <time>2022-10-30T10:27:25.000Z</time>
      </trkpt>
      <trkpt lat="48.01361" lon="6.97826">
        <ele>1053.5999755859</ele>
        <time>2022-10-30T10:27:35.000Z</time>
      </trkpt>
      <trkpt lat="48.01358" lon="6.97811">
        <ele>1053.5999755859</ele>
        <time>2022-10-30T10:27:43.000Z</time>
      </trkpt>
      <trkpt lat="48.01357" lon="6.97811">
        <ele>1053.5999755859</ele>
        <time>2022-10-30T10:27:45.000Z</time>
      </trkpt>
      <trkpt lat="48.01359" lon="6.97813">
        <ele>1053.4000244141</ele>
        <time>2022-10-30T10:27:53.000Z</time>
      </trkpt>
      <trkpt lat="48.01359" lon="6.97814">
        <ele>1053.4000244141</ele>
        <time>2022-10-30T10:28:00.000Z</time>
      </trkpt>
      <trkpt lat="48.01359" lon="6.97814">
        <ele>1053.4000244141</ele>
        <time>2022-10-30T10:28:01.000Z</time>
      </trkpt>
      <trkpt lat="48.01358" lon="6.97814">
        <ele>1053.1999511719</ele>
        <time>2022-10-30T10:28:07.000Z</time>
      </trkpt>
      <trkpt lat="48.01359" lon="6.97813">
        <ele>1053.1999511719</ele>
        <time>2022-10-30T10:28:13.000Z</time>
      </trkpt>
      <trkpt lat="48.01359" lon="6.97813">
        <ele>1053.4000244141</ele>
        <time>2022-10-30T10:28:16.000Z</time>
      </trkpt>
      <trkpt lat="48.01358" lon="6.97812">
        <ele>1053.4000244141</ele>
        <time>2022-10-30T10:28:20.000Z</time>
      </trkpt>
      <trkpt lat="48.01358" lon="6.97812">
        <ele>1053.4000244141</ele>
        <time>2022-10-30T10:28:23.000Z</time>
      </trkpt>
      <trkpt lat="48.01358" lon="6.97813">
        <ele>1053.5999755859</ele>
        <time>2022-10-30T10:28:25.000Z</time>
      </trkpt>
      <trkpt lat="48.01358" lon="6.97816">
        <ele>1053.5999755859</ele>
        <time>2022-10-30T10:28:29.000Z</time>
      </trkpt>
      <trkpt lat="48.01352" lon="6.97812">
        <ele>1053.8000488281</ele>
        <time>2022-10-30T10:28:57.000Z</time>
      </trkpt>
      <trkpt lat="48.01349" lon="6.97805">
        <ele>1053.8000488281</ele>
        <time>2022-10-30T10:29:00.000Z</time>
      </trkpt>
      <trkpt lat="48.01343" lon="6.97797">
        <ele>1053.8000488281</ele>
        <time>2022-10-30T10:29:04.000Z</time>
      </trkpt>
      <trkpt lat="48.01341" lon="6.97791">
        <ele>1053.8000488281</ele>
        <time>2022-10-30T10:29:06.000Z</time>
      </trkpt>
      <trkpt lat="48.0134" lon="6.97789">
        <ele>1053.8000488281</ele>
        <time>2022-10-30T10:29:07.000Z</time>
      </trkpt>
      <trkpt lat="48.01336" lon="6.97785">
        <ele>1053.8000488281</ele>
        <time>2022-10-30T10:29:12.000Z</time>
      </trkpt>
      <trkpt lat="48.01335" lon="6.97785">
        <ele>1053.8000488281</ele>
        <time>2022-10-30T10:29:13.000Z</time>
      </trkpt>
      <trkpt lat="48.01334" lon="6.97781">
        <ele>1053.8000488281</ele>
        <time>2022-10-30T10:29:15.000Z</time>
      </trkpt>
      <trkpt lat="48.01332" lon="6.97776">
        <ele>1053.8000488281</ele>
        <time>2022-10-30T10:29:18.000Z</time>
      </trkpt>
      <trkpt lat="48.01329" lon="6.97771">
        <ele>1053.8000488281</ele>
        <time>2022-10-30T10:29:24.000Z</time>
      </trkpt>
      <trkpt lat="48.01325" lon="6.97763">
        <ele>1053.8000488281</ele>
        <time>2022-10-30T10:29:31.000Z</time>
      </trkpt>
      <trkpt lat="48.01322" lon="6.97757">
        <ele>1060.1999511719</ele>
        <time>2022-10-30T10:29:35.000Z</time>
      </trkpt>
      <trkpt lat="48.01321" lon="6.97753">
        <ele>1060.1999511719</ele>
        <time>2022-10-30T10:29:37.000Z</time>
      </trkpt>
      <trkpt lat="48.01318" lon="6.97747">
        <ele>1060.8000488281</ele>
        <time>2022-10-30T10:29:42.000Z</time>
      </trkpt>
      <trkpt lat="48.01313" lon="6.97745">
        <ele>1061.1999511719</ele>
        <time>2022-10-30T10:29:48.000Z</time>
      </trkpt>
      <trkpt lat="48.01311" lon="6.97746">
        <ele>1061.5999755859</ele>
        <time>2022-10-30T10:29:50.000Z</time>
      </trkpt>
      <trkpt lat="48.01305" lon="6.97743">
        <ele>1062.1999511719</ele>
        <time>2022-10-30T10:29:57.000Z</time>
      </trkpt>
      <trkpt lat="48.01301" lon="6.97732">
        <ele>1063.1999511719</ele>
        <time>2022-10-30T10:30:03.000Z</time>
      </trkpt>
      <trkpt lat="48.01298" lon="6.9773">
        <ele>1063.4000244141</ele>
        <time>2022-10-30T10:30:06.000Z</time>
      </trkpt>
      <trkpt lat="48.01295" lon="6.97729">
        <ele>1064.1999511719</ele>
        <time>2022-10-30T10:30:09.000Z</time>
      </trkpt>
      <trkpt lat="48.01293" lon="6.97727">
        <ele>1064.5999755859</ele>
        <time>2022-10-30T10:30:11.000Z</time>
      </trkpt>
      <trkpt lat="48.01291" lon="6.97724">
        <ele>1065.4000244141</ele>
        <time>2022-10-30T10:30:15.000Z</time>
      </trkpt>
      <trkpt lat="48.0129" lon="6.97722">
        <ele>1065.8000488281</ele>
        <time>2022-10-30T10:30:17.000Z</time>
      </trkpt>
      <trkpt lat="48.01289" lon="6.9772">
        <ele>1066</ele>
        <time>2022-10-30T10:30:18.000Z</time>
      </trkpt>
      <trkpt lat="48.01287" lon="6.97714">
        <ele>1066.8000488281</ele>
        <time>2022-10-30T10:30:22.000Z</time>
      </trkpt>
      <trkpt lat="48.01287" lon="6.97713">
        <ele>1067</ele>
        <time>2022-10-30T10:30:23.000Z</time>
      </trkpt>
      <trkpt lat="48.0128" lon="6.97708">
        <ele>1067.8000488281</ele>
        <time>2022-10-30T10:30:28.000Z</time>
      </trkpt>
      <trkpt lat="48.01279" lon="6.97707">
        <ele>1068</ele>
        <time>2022-10-30T10:30:29.000Z</time>
      </trkpt>
      <trkpt lat="48.01278" lon="6.97705">
        <ele>1068.4000244141</ele>
        <time>2022-10-30T10:30:31.000Z</time>
      </trkpt>
      <trkpt lat="48.01276" lon="6.97702">
        <ele>1069</ele>
        <time>2022-10-30T10:30:34.000Z</time>
      </trkpt>
      <trkpt lat="48.0127" lon="6.97698">
        <ele>1070.1999511719</ele>
        <time>2022-10-30T10:30:40.000Z</time>
      </trkpt>
      <trkpt lat="48.0127" lon="6.97697">
        <ele>1070.4000244141</ele>
        <time>2022-10-30T10:30:41.000Z</time>
      </trkpt>
      <trkpt lat="48.01266" lon="6.97691">
        <ele>1071.4000244141</ele>
        <time>2022-10-30T10:30:46.000Z</time>
      </trkpt>
      <trkpt lat="48.01265" lon="6.9769">
        <ele>1071.8000488281</ele>
        <time>2022-10-30T10:30:47.000Z</time>
      </trkpt>
      <trkpt lat="48.01262" lon="6.97689">
        <ele>1072.5999755859</ele>
        <time>2022-10-30T10:30:52.000Z</time>
      </trkpt>
      <trkpt lat="48.01258" lon="6.97693">
        <ele>1073.1999511719</ele>
        <time>2022-10-30T10:30:56.000Z</time>
      </trkpt>
      <trkpt lat="48.01257" lon="6.97694">
        <ele>1073.5999755859</ele>
        <time>2022-10-30T10:30:58.000Z</time>
      </trkpt>
      <trkpt lat="48.01258" lon="6.97694">
        <ele>1073.5999755859</ele>
        <time>2022-10-30T10:31:00.000Z</time>
      </trkpt>
      <trkpt lat="48.01259" lon="6.97692">
        <ele>1073.5999755859</ele>
        <time>2022-10-30T10:31:04.000Z</time>
      </trkpt>
      <trkpt lat="48.01259" lon="6.97692">
        <ele>1073.5999755859</ele>
        <time>2022-10-30T10:31:05.000Z</time>
      </trkpt>
      <trkpt lat="48.01259" lon="6.97695">
        <ele>1073.5999755859</ele>
        <time>2022-10-30T10:31:11.000Z</time>
      </trkpt>
      <trkpt lat="48.01259" lon="6.97701">
        <ele>1073.5999755859</ele>
        <time>2022-10-30T10:31:15.000Z</time>
      </trkpt>
      <trkpt lat="48.0126" lon="6.97706">
        <ele>1073.5999755859</ele>
        <time>2022-10-30T10:31:18.000Z</time>
      </trkpt>
      <trkpt lat="48.01264" lon="6.97716">
        <ele>1073.5999755859</ele>
        <time>2022-10-30T10:31:26.000Z</time>
      </trkpt>
      <trkpt lat="48.01264" lon="6.97719">
        <ele>1073.5999755859</ele>
        <time>2022-10-30T10:31:28.000Z</time>
      </trkpt>
      <trkpt lat="48.01264" lon="6.97725">
        <ele>1073.4000244141</ele>
        <time>2022-10-30T10:31:31.000Z</time>
      </trkpt>
      <trkpt lat="48.01265" lon="6.97727">
        <ele>1073.4000244141</ele>
        <time>2022-10-30T10:31:32.000Z</time>
      </trkpt>
      <trkpt lat="48.01265" lon="6.9773">
        <ele>1073.4000244141</ele>
        <time>2022-10-30T10:31:34.000Z</time>
      </trkpt>
      <trkpt lat="48.01264" lon="6.97732">
        <ele>1073.4000244141</ele>
        <time>2022-10-30T10:31:35.000Z</time>
      </trkpt>
      <trkpt lat="48.01263" lon="6.97737">
        <ele>1073.1999511719</ele>
        <time>2022-10-30T10:31:38.000Z</time>
      </trkpt>
      <trkpt lat="48.01262" lon="6.97746">
        <ele>1073</ele>
        <time>2022-10-30T10:31:43.000Z</time>
      </trkpt>
      <trkpt lat="48.01264" lon="6.97747">
        <ele>1072.8000488281</ele>
        <time>2022-10-30T10:31:45.000Z</time>
      </trkpt>
      <trkpt lat="48.01265" lon="6.97749">
        <ele>1072.8000488281</ele>
        <time>2022-10-30T10:31:46.000Z</time>
      </trkpt>
      <trkpt lat="48.01269" lon="6.9776">
        <ele>1072.8000488281</ele>
        <time>2022-10-30T10:31:51.000Z</time>
      </trkpt>
      <trkpt lat="48.01268" lon="6.97765">
        <ele>1073</ele>
        <time>2022-10-30T10:31:54.000Z</time>
      </trkpt>
      <trkpt lat="48.01267" lon="6.97768">
        <ele>1073</ele>
        <time>2022-10-30T10:31:56.000Z</time>
      </trkpt>
      <trkpt lat="48.01267" lon="6.9777">
        <ele>1072.8000488281</ele>
        <time>2022-10-30T10:31:57.000Z</time>
      </trkpt>
      <trkpt lat="48.01267" lon="6.97772">
        <ele>1072.8000488281</ele>
        <time>2022-10-30T10:31:59.000Z</time>
      </trkpt>
      <trkpt lat="48.01268" lon="6.97776">
        <ele>1072.8000488281</ele>
        <time>2022-10-30T10:32:01.000Z</time>
      </trkpt>
      <trkpt lat="48.01268" lon="6.9778">
        <ele>1072.8000488281</ele>
        <time>2022-10-30T10:32:03.000Z</time>
      </trkpt>
      <trkpt lat="48.01269" lon="6.97786">
        <ele>1072.8000488281</ele>
        <time>2022-10-30T10:32:07.000Z</time>
      </trkpt>
      <trkpt lat="48.0127" lon="6.97792">
        <ele>1073</ele>
        <time>2022-10-30T10:32:10.000Z</time>
      </trkpt>
      <trkpt lat="48.01273" lon="6.97808">
        <ele>1073.4000244141</ele>
        <time>2022-10-30T10:32:18.000Z</time>
      </trkpt>
      <trkpt lat="48.01274" lon="6.97813">
        <ele>1073.8000488281</ele>
        <time>2022-10-30T10:32:22.000Z</time>
      </trkpt>
      <trkpt lat="48.01274" lon="6.97814">
        <ele>1074</ele>
        <time>2022-10-30T10:32:24.000Z</time>
      </trkpt>
      <trkpt lat="48.01275" lon="6.97814">
        <ele>1074.1999511719</ele>
        <time>2022-10-30T10:32:25.000Z</time>
      </trkpt>
      <trkpt lat="48.01276" lon="6.97817">
        <ele>1074.1999511719</ele>
        <time>2022-10-30T10:32:27.000Z</time>
      </trkpt>
      <trkpt lat="48.01277" lon="6.97819">
        <ele>1074.4000244141</ele>
        <time>2022-10-30T10:32:28.000Z</time>
      </trkpt>
      <trkpt lat="48.0128" lon="6.97823">
        <ele>1074.5999755859</ele>
        <time>2022-10-30T10:32:30.000Z</time>
      </trkpt>
      <trkpt lat="48.01282" lon="6.97827">
        <ele>1074.5999755859</ele>
        <time>2022-10-30T10:32:34.000Z</time>
      </trkpt>
      <trkpt lat="48.01283" lon="6.97829">
        <ele>1074.8000488281</ele>
        <time>2022-10-30T10:32:35.000Z</time>
      </trkpt>
      <trkpt lat="48.01286" lon="6.97833">
        <ele>1074.8000488281</ele>
        <time>2022-10-30T10:32:38.000Z</time>
      </trkpt>
      <trkpt lat="48.01287" lon="6.97837">
        <ele>1075</ele>
        <time>2022-10-30T10:32:41.000Z</time>
      </trkpt>
      <trkpt lat="48.01288" lon="6.97841">
        <ele>1075.4000244141</ele>
        <time>2022-10-30T10:32:43.000Z</time>
      </trkpt>
      <trkpt lat="48.0129" lon="6.97845">
        <ele>1075.5999755859</ele>
        <time>2022-10-30T10:32:46.000Z</time>
      </trkpt>
      <trkpt lat="48.01291" lon="6.97847">
        <ele>1075.5999755859</ele>
        <time>2022-10-30T10:32:47.000Z</time>
      </trkpt>
      <trkpt lat="48.01292" lon="6.97847">
        <ele>1075.8000488281</ele>
        <time>2022-10-30T10:32:48.000Z</time>
      </trkpt>
      <trkpt lat="48.01293" lon="6.97848">
        <ele>1075.8000488281</ele>
        <time>2022-10-30T10:32:49.000Z</time>
      </trkpt>
      <trkpt lat="48.01295" lon="6.97852">
        <ele>1076.1999511719</ele>
        <time>2022-10-30T10:32:52.000Z</time>
      </trkpt>
      <trkpt lat="48.01295" lon="6.97853">
        <ele>1076.8000488281</ele>
        <time>2022-10-30T10:32:54.000Z</time>
      </trkpt>
      <trkpt lat="48.01295" lon="6.97857">
        <ele>1077.4000244141</ele>
        <time>2022-10-30T10:32:57.000Z</time>
      </trkpt>
      <trkpt lat="48.01296" lon="6.97859">
        <ele>1077.4000244141</ele>
        <time>2022-10-30T10:32:58.000Z</time>
      </trkpt>
      <trkpt lat="48.01296" lon="6.97859">
        <ele>1077.8000488281</ele>
        <time>2022-10-30T10:32:59.000Z</time>
      </trkpt>
      <trkpt lat="48.01299" lon="6.97865">
        <ele>1078.4000244141</ele>
        <time>2022-10-30T10:33:03.000Z</time>
      </trkpt>
      <trkpt lat="48.01299" lon="6.97868">
        <ele>1078.5999755859</ele>
        <time>2022-10-30T10:33:05.000Z</time>
      </trkpt>
      <trkpt lat="48.013" lon="6.9787">
        <ele>1078.8000488281</ele>
        <time>2022-10-30T10:33:06.000Z</time>
      </trkpt>
      <trkpt lat="48.01303" lon="6.97878">
        <ele>1079.4000244141</ele>
        <time>2022-10-30T10:33:11.000Z</time>
      </trkpt>
      <trkpt lat="48.01303" lon="6.97883">
        <ele>1080</ele>
        <time>2022-10-30T10:33:15.000Z</time>
      </trkpt>
      <trkpt lat="48.01306" lon="6.97888">
        <ele>1080.5999755859</ele>
        <time>2022-10-30T10:33:18.000Z</time>
      </trkpt>
      <trkpt lat="48.01307" lon="6.9789">
        <ele>1080.5999755859</ele>
        <time>2022-10-30T10:33:19.000Z</time>
      </trkpt>
      <trkpt lat="48.01308" lon="6.97895">
        <ele>1081.1999511719</ele>
        <time>2022-10-30T10:33:22.000Z</time>
      </trkpt>
      <trkpt lat="48.01307" lon="6.97896">
        <ele>1081.5999755859</ele>
        <time>2022-10-30T10:33:25.000Z</time>
      </trkpt>
      <trkpt lat="48.01306" lon="6.97896">
        <ele>1082</ele>
        <time>2022-10-30T10:33:31.000Z</time>
      </trkpt>
      <trkpt lat="48.01307" lon="6.979">
        <ele>1082.4000244141</ele>
        <time>2022-10-30T10:33:35.000Z</time>
      </trkpt>
      <trkpt lat="48.01307" lon="6.97901">
        <ele>1082.5999755859</ele>
        <time>2022-10-30T10:33:36.000Z</time>
      </trkpt>
      <trkpt lat="48.01309" lon="6.97905">
        <ele>1082.8000488281</ele>
        <time>2022-10-30T10:33:39.000Z</time>
      </trkpt>
      <trkpt lat="48.01309" lon="6.9791">
        <ele>1083.4000244141</ele>
        <time>2022-10-30T10:33:43.000Z</time>
      </trkpt>
      <trkpt lat="48.01309" lon="6.97911">
        <ele>1083.5999755859</ele>
        <time>2022-10-30T10:33:44.000Z</time>
      </trkpt>
      <trkpt lat="48.0131" lon="6.97914">
        <ele>1083.8000488281</ele>
        <time>2022-10-30T10:33:46.000Z</time>
      </trkpt>
      <trkpt lat="48.01314" lon="6.97919">
        <ele>1084.1999511719</ele>
        <time>2022-10-30T10:33:49.000Z</time>
      </trkpt>
      <trkpt lat="48.01314" lon="6.97921">
        <ele>1084.5999755859</ele>
        <time>2022-10-30T10:33:50.000Z</time>
      </trkpt>
      <trkpt lat="48.01314" lon="6.97925">
        <ele>1084.8000488281</ele>
        <time>2022-10-30T10:33:52.000Z</time>
      </trkpt>
      <trkpt lat="48.01316" lon="6.97929">
        <ele>1085.1999511719</ele>
        <time>2022-10-30T10:33:55.000Z</time>
      </trkpt>
      <trkpt lat="48.01317" lon="6.97934">
        <ele>1085.5999755859</ele>
        <time>2022-10-30T10:33:58.000Z</time>
      </trkpt>
      <trkpt lat="48.0132" lon="6.97941">
        <ele>1085.8000488281</ele>
        <time>2022-10-30T10:34:01.000Z</time>
      </trkpt>
      <trkpt lat="48.01323" lon="6.97945">
        <ele>1086</ele>
        <time>2022-10-30T10:34:03.000Z</time>
      </trkpt>
      <trkpt lat="48.01324" lon="6.97953">
        <ele>1086.5999755859</ele>
        <time>2022-10-30T10:34:07.000Z</time>
      </trkpt>
      <trkpt lat="48.01324" lon="6.97959">
        <ele>1087</ele>
        <time>2022-10-30T10:34:11.000Z</time>
      </trkpt>
      <trkpt lat="48.01323" lon="6.97965">
        <ele>1087.4000244141</ele>
        <time>2022-10-30T10:34:14.000Z</time>
      </trkpt>
      <trkpt lat="48.01323" lon="6.97968">
        <ele>1087.5999755859</ele>
        <time>2022-10-30T10:34:16.000Z</time>
      </trkpt>
      <trkpt lat="48.01323" lon="6.9797">
        <ele>1087.5999755859</ele>
        <time>2022-10-30T10:34:17.000Z</time>
      </trkpt>
      <trkpt lat="48.01325" lon="6.97979">
        <ele>1088.1999511719</ele>
        <time>2022-10-30T10:34:23.000Z</time>
      </trkpt>
      <trkpt lat="48.01326" lon="6.97982">
        <ele>1088.1999511719</ele>
        <time>2022-10-30T10:34:25.000Z</time>
      </trkpt>
      <trkpt lat="48.01327" lon="6.97987">
        <ele>1088.5999755859</ele>
        <time>2022-10-30T10:34:28.000Z</time>
      </trkpt>
      <trkpt lat="48.01327" lon="6.97989">
        <ele>1088.5999755859</ele>
        <time>2022-10-30T10:34:29.000Z</time>
      </trkpt>
      <trkpt lat="48.01329" lon="6.97992">
        <ele>1088.8000488281</ele>
        <time>2022-10-30T10:34:32.000Z</time>
      </trkpt>
      <trkpt lat="48.01329" lon="6.98001">
        <ele>1089.4000244141</ele>
        <time>2022-10-30T10:34:37.000Z</time>
      </trkpt>
      <trkpt lat="48.0133" lon="6.98004">
        <ele>1089.5999755859</ele>
        <time>2022-10-30T10:34:39.000Z</time>
      </trkpt>
      <trkpt lat="48.01331" lon="6.98005">
        <ele>1089.8000488281</ele>
        <time>2022-10-30T10:34:40.000Z</time>
      </trkpt>
      <trkpt lat="48.01332" lon="6.98009">
        <ele>1090</ele>
        <time>2022-10-30T10:34:43.000Z</time>
      </trkpt>
      <trkpt lat="48.01336" lon="6.98013">
        <ele>1090.1999511719</ele>
        <time>2022-10-30T10:34:47.000Z</time>
      </trkpt>
      <trkpt lat="48.01336" lon="6.98016">
        <ele>1090.1999511719</ele>
        <time>2022-10-30T10:34:49.000Z</time>
      </trkpt>
      <trkpt lat="48.01338" lon="6.98023">
        <ele>1090.1999511719</ele>
        <time>2022-10-30T10:34:53.000Z</time>
      </trkpt>
      <trkpt lat="48.01338" lon="6.98025">
        <ele>1090.1999511719</ele>
        <time>2022-10-30T10:34:55.000Z</time>
      </trkpt>
      <trkpt lat="48.01338" lon="6.98027">
        <ele>1090.4000244141</ele>
        <time>2022-10-30T10:34:57.000Z</time>
      </trkpt>
      <trkpt lat="48.01345" lon="6.98038">
        <ele>1090.5999755859</ele>
        <time>2022-10-30T10:35:05.000Z</time>
      </trkpt>
      <trkpt lat="48.01347" lon="6.98039">
        <ele>1090.8000488281</ele>
        <time>2022-10-30T10:35:07.000Z</time>
      </trkpt>
      <trkpt lat="48.01349" lon="6.98043">
        <ele>1091.1999511719</ele>
        <time>2022-10-30T10:35:12.000Z</time>
      </trkpt>
      <trkpt lat="48.01352" lon="6.98047">
        <ele>1091.5999755859</ele>
        <time>2022-10-30T10:35:15.000Z</time>
      </trkpt>
      <trkpt lat="48.01355" lon="6.98052">
        <ele>1091.8000488281</ele>
        <time>2022-10-30T10:35:18.000Z</time>
      </trkpt>
      <trkpt lat="48.01356" lon="6.98056">
        <ele>1091.8000488281</ele>
        <time>2022-10-30T10:35:21.000Z</time>
      </trkpt>
      <trkpt lat="48.01358" lon="6.9806">
        <ele>1092.1999511719</ele>
        <time>2022-10-30T10:35:25.000Z</time>
      </trkpt>
      <trkpt lat="48.0136" lon="6.9807">
        <ele>1092.4000244141</ele>
        <time>2022-10-30T10:35:32.000Z</time>
      </trkpt>
      <trkpt lat="48.01364" lon="6.98078">
        <ele>1092.4000244141</ele>
        <time>2022-10-30T10:35:38.000Z</time>
      </trkpt>
      <trkpt lat="48.01366" lon="6.98081">
        <ele>1092.5999755859</ele>
        <time>2022-10-30T10:35:40.000Z</time>
      </trkpt>
      <trkpt lat="48.0137" lon="6.98086">
        <ele>1092.8000488281</ele>
        <time>2022-10-30T10:35:45.000Z</time>
      </trkpt>
      <trkpt lat="48.01373" lon="6.98091">
        <ele>1093</ele>
        <time>2022-10-30T10:35:48.000Z</time>
      </trkpt>
      <trkpt lat="48.01377" lon="6.98096">
        <ele>1093.4000244141</ele>
        <time>2022-10-30T10:35:54.000Z</time>
      </trkpt>
      <trkpt lat="48.01377" lon="6.98096">
        <ele>1093.5999755859</ele>
        <time>2022-10-30T10:35:56.000Z</time>
      </trkpt>
      <trkpt lat="48.01377" lon="6.98096">
        <ele>1093.8000488281</ele>
        <time>2022-10-30T10:35:58.000Z</time>
      </trkpt>
      <trkpt lat="48.01378" lon="6.98095">
        <ele>1093.8000488281</ele>
        <time>2022-10-30T10:35:59.000Z</time>
      </trkpt>
      <trkpt lat="48.0138" lon="6.98096">
        <ele>1094</ele>
        <time>2022-10-30T10:36:00.000Z</time>
      </trkpt>
      <trkpt lat="48.01385" lon="6.98103">
        <ele>1094.4000244141</ele>
        <time>2022-10-30T10:36:06.000Z</time>
      </trkpt>
      <trkpt lat="48.01391" lon="6.98111">
        <ele>1095</ele>
        <time>2022-10-30T10:36:12.000Z</time>
      </trkpt>
      <trkpt lat="48.01392" lon="6.98114">
        <ele>1095.1999511719</ele>
        <time>2022-10-30T10:36:14.000Z</time>
      </trkpt>
      <trkpt lat="48.01393" lon="6.98115">
        <ele>1095.4000244141</ele>
        <time>2022-10-30T10:36:15.000Z</time>
      </trkpt>
      <trkpt lat="48.01397" lon="6.9812">
        <ele>1096</ele>
        <time>2022-10-30T10:36:20.000Z</time>
      </trkpt>
      <trkpt lat="48.01397" lon="6.98122">
        <ele>1096</ele>
        <time>2022-10-30T10:36:21.000Z</time>
      </trkpt>
      <trkpt lat="48.01403" lon="6.98129">
        <ele>1096.5999755859</ele>
        <time>2022-10-30T10:36:26.000Z</time>
      </trkpt>
      <trkpt lat="48.01407" lon="6.98134">
        <ele>1097</ele>
        <time>2022-10-30T10:36:29.000Z</time>
      </trkpt>
      <trkpt lat="48.01408" lon="6.98136">
        <ele>1097.1999511719</ele>
        <time>2022-10-30T10:36:31.000Z</time>
      </trkpt>
      <trkpt lat="48.0141" lon="6.98135">
        <ele>1097.1999511719</ele>
        <time>2022-10-30T10:36:34.000Z</time>
      </trkpt>
      <trkpt lat="48.0141" lon="6.98134">
        <ele>1097.5999755859</ele>
        <time>2022-10-30T10:36:39.000Z</time>
      </trkpt>
      <trkpt lat="48.01408" lon="6.98137">
        <ele>1098</ele>
        <time>2022-10-30T10:36:44.000Z</time>
      </trkpt>
      <trkpt lat="48.01412" lon="6.98141">
        <ele>1098</ele>
        <time>2022-10-30T10:36:47.000Z</time>
      </trkpt>
      <trkpt lat="48.01413" lon="6.98142">
        <ele>1098.1999511719</ele>
        <time>2022-10-30T10:36:48.000Z</time>
      </trkpt>
      <trkpt lat="48.01417" lon="6.98149">
        <ele>1098.8000488281</ele>
        <time>2022-10-30T10:36:53.000Z</time>
      </trkpt>
      <trkpt lat="48.01418" lon="6.9815">
        <ele>1098.8000488281</ele>
        <time>2022-10-30T10:36:54.000Z</time>
      </trkpt>
      <trkpt lat="48.01423" lon="6.98155">
        <ele>1099.1999511719</ele>
        <time>2022-10-30T10:36:58.000Z</time>
      </trkpt>
      <trkpt lat="48.01427" lon="6.98158">
        <ele>1099.5999755859</ele>
        <time>2022-10-30T10:37:00.000Z</time>
      </trkpt>
      <trkpt lat="48.01437" lon="6.98168">
        <ele>1100.1999511719</ele>
        <time>2022-10-30T10:37:06.000Z</time>
      </trkpt>
      <trkpt lat="48.01439" lon="6.9817">
        <ele>1100.4000244141</ele>
        <time>2022-10-30T10:37:08.000Z</time>
      </trkpt>
      <trkpt lat="48.01442" lon="6.98173">
        <ele>1100.4000244141</ele>
        <time>2022-10-30T10:37:10.000Z</time>
      </trkpt>
      <trkpt lat="48.01446" lon="6.98176">
        <ele>1100.5999755859</ele>
        <time>2022-10-30T10:37:13.000Z</time>
      </trkpt>
      <trkpt lat="48.01447" lon="6.98178">
        <ele>1100.5999755859</ele>
        <time>2022-10-30T10:37:14.000Z</time>
      </trkpt>
      <trkpt lat="48.01447" lon="6.98179">
        <ele>1100.5999755859</ele>
        <time>2022-10-30T10:37:15.000Z</time>
      </trkpt>
      <trkpt lat="48.01451" lon="6.98182">
        <ele>1100.5999755859</ele>
        <time>2022-10-30T10:37:18.000Z</time>
      </trkpt>
      <trkpt lat="48.01454" lon="6.98184">
        <ele>1100.5999755859</ele>
        <time>2022-10-30T10:37:20.000Z</time>
      </trkpt>
      <trkpt lat="48.01458" lon="6.98186">
        <ele>1100.5999755859</ele>
        <time>2022-10-30T10:37:23.000Z</time>
      </trkpt>
      <trkpt lat="48.01466" lon="6.98189">
        <ele>1101</ele>
        <time>2022-10-30T10:37:29.000Z</time>
      </trkpt>
      <trkpt lat="48.01468" lon="6.98192">
        <ele>1101.1999511719</ele>
        <time>2022-10-30T10:37:31.000Z</time>
      </trkpt>
      <trkpt lat="48.01474" lon="6.98197">
        <ele>1101.1999511719</ele>
        <time>2022-10-30T10:37:34.000Z</time>
      </trkpt>
      <trkpt lat="48.01476" lon="6.982">
        <ele>1101.4000244141</ele>
        <time>2022-10-30T10:37:36.000Z</time>
      </trkpt>
      <trkpt lat="48.01483" lon="6.98206">
        <ele>1102.4000244141</ele>
        <time>2022-10-30T10:37:44.000Z</time>
      </trkpt>
      <trkpt lat="48.01488" lon="6.98214">
        <ele>1103.1999511719</ele>
        <time>2022-10-30T10:37:51.000Z</time>
      </trkpt>
      <trkpt lat="48.01488" lon="6.98216">
        <ele>1103.1999511719</ele>
        <time>2022-10-30T10:37:52.000Z</time>
      </trkpt>
      <trkpt lat="48.01489" lon="6.98217">
        <ele>1103.1999511719</ele>
        <time>2022-10-30T10:37:53.000Z</time>
      </trkpt>
      <trkpt lat="48.0149" lon="6.9822">
        <ele>1103.5999755859</ele>
        <time>2022-10-30T10:37:55.000Z</time>
      </trkpt>
      <trkpt lat="48.01492" lon="6.98223">
        <ele>1104</ele>
        <time>2022-10-30T10:37:57.000Z</time>
      </trkpt>
      <trkpt lat="48.01496" lon="6.98227">
        <ele>1104.4000244141</ele>
        <time>2022-10-30T10:38:00.000Z</time>
      </trkpt>
      <trkpt lat="48.01498" lon="6.98228">
        <ele>1104.5999755859</ele>
        <time>2022-10-30T10:38:02.000Z</time>
      </trkpt>
      <trkpt lat="48.01498" lon="6.98232">
        <ele>1104.8000488281</ele>
        <time>2022-10-30T10:38:04.000Z</time>
      </trkpt>
      <trkpt lat="48.01499" lon="6.98236">
        <ele>1104.8000488281</ele>
        <time>2022-10-30T10:38:07.000Z</time>
      </trkpt>
      <trkpt lat="48.01499" lon="6.98239">
        <ele>1104.8000488281</ele>
        <time>2022-10-30T10:38:09.000Z</time>
      </trkpt>
      <trkpt lat="48.015" lon="6.98244">
        <ele>1105.8000488281</ele>
        <time>2022-10-30T10:38:14.000Z</time>
      </trkpt>
      <trkpt lat="48.015" lon="6.98245">
        <ele>1106.1999511719</ele>
        <time>2022-10-30T10:38:15.000Z</time>
      </trkpt>
      <trkpt lat="48.01496" lon="6.98241">
        <ele>1107</ele>
        <time>2022-10-30T10:38:18.000Z</time>
      </trkpt>
      <trkpt lat="48.01495" lon="6.9824">
        <ele>1107.8000488281</ele>
        <time>2022-10-30T10:38:21.000Z</time>
      </trkpt>
      <trkpt lat="48.01494" lon="6.98239">
        <ele>1108.1999511719</ele>
        <time>2022-10-30T10:38:22.000Z</time>
      </trkpt>
      <trkpt lat="48.01491" lon="6.9824">
        <ele>1109.1999511719</ele>
        <time>2022-10-30T10:38:27.000Z</time>
      </trkpt>
      <trkpt lat="48.01489" lon="6.98242">
        <ele>1109.5999755859</ele>
        <time>2022-10-30T10:38:29.000Z</time>
      </trkpt>
      <trkpt lat="48.01486" lon="6.98243">
        <ele>1110.1999511719</ele>
        <time>2022-10-30T10:38:32.000Z</time>
      </trkpt>
      <trkpt lat="48.01486" lon="6.98243">
        <ele>1110.4000244141</ele>
        <time>2022-10-30T10:38:33.000Z</time>
      </trkpt>
      <trkpt lat="48.01484" lon="6.98244">
        <ele>1110.8000488281</ele>
        <time>2022-10-30T10:38:35.000Z</time>
      </trkpt>
      <trkpt lat="48.01483" lon="6.98247">
        <ele>1111.4000244141</ele>
        <time>2022-10-30T10:38:38.000Z</time>
      </trkpt>
      <trkpt lat="48.0148" lon="6.98247">
        <ele>1112.1999511719</ele>
        <time>2022-10-30T10:38:41.000Z</time>
      </trkpt>
      <trkpt lat="48.0148" lon="6.98247">
        <ele>1112.4000244141</ele>
        <time>2022-10-30T10:38:42.000Z</time>
      </trkpt>
      <trkpt lat="48.01481" lon="6.98246">
        <ele>1113</ele>
        <time>2022-10-30T10:38:48.000Z</time>
      </trkpt>
      <trkpt lat="48.01478" lon="6.98249">
        <ele>1113.8000488281</ele>
        <time>2022-10-30T10:38:54.000Z</time>
      </trkpt>
      <trkpt lat="48.01474" lon="6.98249">
        <ele>1114.8000488281</ele>
        <time>2022-10-30T10:39:00.000Z</time>
      </trkpt>
      <trkpt lat="48.01475" lon="6.9825">
        <ele>1115.1999511719</ele>
        <time>2022-10-30T10:39:03.000Z</time>
      </trkpt>
      <trkpt lat="48.01475" lon="6.9825">
        <ele>1115.4000244141</ele>
        <time>2022-10-30T10:39:06.000Z</time>
      </trkpt>
      <trkpt lat="48.01475" lon="6.98252">
        <ele>1116</ele>
        <time>2022-10-30T10:39:09.000Z</time>
      </trkpt>
      <trkpt lat="48.01473" lon="6.98251">
        <ele>1116.1999511719</ele>
        <time>2022-10-30T10:39:13.000Z</time>
      </trkpt>
      <trkpt lat="48.01471" lon="6.98249">
        <ele>1116.4000244141</ele>
        <time>2022-10-30T10:39:16.000Z</time>
      </trkpt>
      <trkpt lat="48.0147" lon="6.98248">
        <ele>1116.5999755859</ele>
        <time>2022-10-30T10:39:17.000Z</time>
      </trkpt>
      <trkpt lat="48.01468" lon="6.98244">
        <ele>1116.8000488281</ele>
        <time>2022-10-30T10:39:20.000Z</time>
      </trkpt>
      <trkpt lat="48.01467" lon="6.98239">
        <ele>1116.8000488281</ele>
        <time>2022-10-30T10:39:22.000Z</time>
      </trkpt>
      <trkpt lat="48.01467" lon="6.98239">
        <ele>1116.8000488281</ele>
        <time>2022-10-30T10:39:26.000Z</time>
      </trkpt>
      <trkpt lat="48.01468" lon="6.9824">
        <ele>1116.8000488281</ele>
        <time>2022-10-30T10:39:34.000Z</time>
      </trkpt>
      <trkpt lat="48.01465" lon="6.98243">
        <ele>1117</ele>
        <time>2022-10-30T10:39:41.000Z</time>
      </trkpt>
      <trkpt lat="48.01465" lon="6.98243">
        <ele>1117</ele>
        <time>2022-10-30T10:39:42.000Z</time>
      </trkpt>
      <trkpt lat="48.01461" lon="6.98244">
        <ele>1117.8000488281</ele>
        <time>2022-10-30T10:39:45.000Z</time>
      </trkpt>
      <trkpt lat="48.0146" lon="6.98244">
        <ele>1118</ele>
        <time>2022-10-30T10:39:46.000Z</time>
      </trkpt>
      <trkpt lat="48.01459" lon="6.98246">
        <ele>1118.5999755859</ele>
        <time>2022-10-30T10:39:48.000Z</time>
      </trkpt>
      <trkpt lat="48.01459" lon="6.98248">
        <ele>1119.1999511719</ele>
        <time>2022-10-30T10:39:51.000Z</time>
      </trkpt>
      <trkpt lat="48.01461" lon="6.98249">
        <ele>1120</ele>
        <time>2022-10-30T10:39:54.000Z</time>
      </trkpt>
      <trkpt lat="48.01461" lon="6.98252">
        <ele>1120.4000244141</ele>
        <time>2022-10-30T10:39:56.000Z</time>
      </trkpt>
      <trkpt lat="48.01463" lon="6.98255">
        <ele>1121.5999755859</ele>
        <time>2022-10-30T10:39:59.000Z</time>
      </trkpt>
      <trkpt lat="48.01464" lon="6.98256">
        <ele>1121.8000488281</ele>
        <time>2022-10-30T10:40:00.000Z</time>
      </trkpt>
      <trkpt lat="48.01466" lon="6.98259">
        <ele>1122.8000488281</ele>
        <time>2022-10-30T10:40:04.000Z</time>
      </trkpt>
      <trkpt lat="48.01467" lon="6.98261">
        <ele>1123.4000244141</ele>
        <time>2022-10-30T10:40:07.000Z</time>
      </trkpt>
      <trkpt lat="48.01467" lon="6.98262">
        <ele>1124</ele>
        <time>2022-10-30T10:40:09.000Z</time>
      </trkpt>
      <trkpt lat="48.0147" lon="6.98265">
        <ele>1124.4000244141</ele>
        <time>2022-10-30T10:40:13.000Z</time>
      </trkpt>
      <trkpt lat="48.01469" lon="6.98264">
        <ele>1125</ele>
        <time>2022-10-30T10:40:15.000Z</time>
      </trkpt>
      <trkpt lat="48.01469" lon="6.98268">
        <ele>1125.5999755859</ele>
        <time>2022-10-30T10:40:20.000Z</time>
      </trkpt>
      <trkpt lat="48.0147" lon="6.98269">
        <ele>1126</ele>
        <time>2022-10-30T10:40:22.000Z</time>
      </trkpt>
      <trkpt lat="48.01469" lon="6.98271">
        <ele>1126.5999755859</ele>
        <time>2022-10-30T10:40:26.000Z</time>
      </trkpt>
      <trkpt lat="48.0147" lon="6.98273">
        <ele>1127.1999511719</ele>
        <time>2022-10-30T10:40:28.000Z</time>
      </trkpt>
      <trkpt lat="48.0147" lon="6.98276">
        <ele>1127.5999755859</ele>
        <time>2022-10-30T10:40:32.000Z</time>
      </trkpt>
      <trkpt lat="48.01471" lon="6.98277">
        <ele>1127.8000488281</ele>
        <time>2022-10-30T10:40:33.000Z</time>
      </trkpt>
      <trkpt lat="48.01472" lon="6.9828">
        <ele>1128.1999511719</ele>
        <time>2022-10-30T10:40:36.000Z</time>
      </trkpt>
      <trkpt lat="48.01469" lon="6.98283">
        <ele>1129.1999511719</ele>
        <time>2022-10-30T10:40:40.000Z</time>
      </trkpt>
      <trkpt lat="48.01465" lon="6.98279">
        <ele>1130</ele>
        <time>2022-10-30T10:40:44.000Z</time>
      </trkpt>
      <trkpt lat="48.01463" lon="6.98277">
        <ele>1130.1999511719</ele>
        <time>2022-10-30T10:40:46.000Z</time>
      </trkpt>
      <trkpt lat="48.0146" lon="6.98276">
        <ele>1131.1999511719</ele>
        <time>2022-10-30T10:40:52.000Z</time>
      </trkpt>
      <trkpt lat="48.01459" lon="6.98276">
        <ele>1131.4000244141</ele>
        <time>2022-10-30T10:40:53.000Z</time>
      </trkpt>
      <trkpt lat="48.01453" lon="6.98275">
        <ele>1132.1999511719</ele>
        <time>2022-10-30T10:40:58.000Z</time>
      </trkpt>
      <trkpt lat="48.01451" lon="6.98273">
        <ele>1132.4000244141</ele>
        <time>2022-10-30T10:40:59.000Z</time>
      </trkpt>
      <trkpt lat="48.01448" lon="6.98272">
        <ele>1133.4000244141</ele>
        <time>2022-10-30T10:41:04.000Z</time>
      </trkpt>
      <trkpt lat="48.01447" lon="6.98271">
        <ele>1133.5999755859</ele>
        <time>2022-10-30T10:41:05.000Z</time>
      </trkpt>
      <trkpt lat="48.01444" lon="6.98268">
        <ele>1134.4000244141</ele>
        <time>2022-10-30T10:41:10.000Z</time>
      </trkpt>
      <trkpt lat="48.01444" lon="6.98268">
        <ele>1134.5999755859</ele>
        <time>2022-10-30T10:41:11.000Z</time>
      </trkpt>
      <trkpt lat="48.01443" lon="6.98272">
        <ele>1135</ele>
        <time>2022-10-30T10:41:15.000Z</time>
      </trkpt>
      <trkpt lat="48.01441" lon="6.98272">
        <ele>1135.5999755859</ele>
        <time>2022-10-30T10:41:18.000Z</time>
      </trkpt>
      <trkpt lat="48.01439" lon="6.98273">
        <ele>1136.4000244141</ele>
        <time>2022-10-30T10:41:24.000Z</time>
      </trkpt>
      <trkpt lat="48.0144" lon="6.98273">
        <ele>1136.8000488281</ele>
        <time>2022-10-30T10:41:25.000Z</time>
      </trkpt>
      <trkpt lat="48.01441" lon="6.98276">
        <ele>1137.5999755859</ele>
        <time>2022-10-30T10:41:30.000Z</time>
      </trkpt>
      <trkpt lat="48.01441" lon="6.98277">
        <ele>1137.8000488281</ele>
        <time>2022-10-30T10:41:31.000Z</time>
      </trkpt>
      <trkpt lat="48.01442" lon="6.98279">
        <ele>1138.8000488281</ele>
        <time>2022-10-30T10:41:35.000Z</time>
      </trkpt>
      <trkpt lat="48.01443" lon="6.98281">
        <ele>1138.8000488281</ele>
        <time>2022-10-30T10:41:36.000Z</time>
      </trkpt>
      <trkpt lat="48.01447" lon="6.98284">
        <ele>1139.5999755859</ele>
        <time>2022-10-30T10:41:40.000Z</time>
      </trkpt>
      <trkpt lat="48.01447" lon="6.98286">
        <ele>1140</ele>
        <time>2022-10-30T10:41:42.000Z</time>
      </trkpt>
      <trkpt lat="48.01447" lon="6.98287">
        <ele>1140.1999511719</ele>
        <time>2022-10-30T10:41:43.000Z</time>
      </trkpt>
      <trkpt lat="48.01449" lon="6.9829">
        <ele>1140.8000488281</ele>
        <time>2022-10-30T10:41:46.000Z</time>
      </trkpt>
      <trkpt lat="48.0145" lon="6.98291">
        <ele>1141.1999511719</ele>
        <time>2022-10-30T10:41:47.000Z</time>
      </trkpt>
      <trkpt lat="48.01453" lon="6.98296">
        <ele>1142.1999511719</ele>
        <time>2022-10-30T10:41:52.000Z</time>
      </trkpt>
      <trkpt lat="48.01454" lon="6.98298">
        <ele>1142.4000244141</ele>
        <time>2022-10-30T10:41:54.000Z</time>
      </trkpt>
      <trkpt lat="48.01456" lon="6.98301">
        <ele>1143.4000244141</ele>
        <time>2022-10-30T10:41:59.000Z</time>
      </trkpt>
      <trkpt lat="48.0146" lon="6.98305">
        <ele>1144.8000488281</ele>
        <time>2022-10-30T10:42:05.000Z</time>
      </trkpt>
      <trkpt lat="48.01461" lon="6.98307">
        <ele>1145</ele>
        <time>2022-10-30T10:42:06.000Z</time>
      </trkpt>
      <trkpt lat="48.01461" lon="6.98309">
        <ele>1145.8000488281</ele>
        <time>2022-10-30T10:42:09.000Z</time>
      </trkpt>
      <trkpt lat="48.01462" lon="6.9831">
        <ele>1146.4000244141</ele>
        <time>2022-10-30T10:42:13.000Z</time>
      </trkpt>
      <trkpt lat="48.01463" lon="6.98311">
        <ele>1147</ele>
        <time>2022-10-30T10:42:19.000Z</time>
      </trkpt>
      <trkpt lat="48.01465" lon="6.98316">
        <ele>1147.5999755859</ele>
        <time>2022-10-30T10:42:25.000Z</time>
      </trkpt>
      <trkpt lat="48.01466" lon="6.98318">
        <ele>1148</ele>
        <time>2022-10-30T10:42:27.000Z</time>
      </trkpt>
      <trkpt lat="48.01466" lon="6.9832">
        <ele>1148.4000244141</ele>
        <time>2022-10-30T10:42:29.000Z</time>
      </trkpt>
      <trkpt lat="48.01466" lon="6.98322">
        <ele>1149</ele>
        <time>2022-10-30T10:42:31.000Z</time>
      </trkpt>
      <trkpt lat="48.01467" lon="6.98324">
        <ele>1149.4000244141</ele>
        <time>2022-10-30T10:42:33.000Z</time>
      </trkpt>
      <trkpt lat="48.0147" lon="6.98328">
        <ele>1150.1999511719</ele>
        <time>2022-10-30T10:42:37.000Z</time>
      </trkpt>
      <trkpt lat="48.01471" lon="6.98329">
        <ele>1150.4000244141</ele>
        <time>2022-10-30T10:42:39.000Z</time>
      </trkpt>
      <trkpt lat="48.01476" lon="6.98338">
        <ele>1151.1999511719</ele>
        <time>2022-10-30T10:42:45.000Z</time>
      </trkpt>
      <trkpt lat="48.01477" lon="6.98342">
        <ele>1151.8000488281</ele>
        <time>2022-10-30T10:42:51.000Z</time>
      </trkpt>
      <trkpt lat="48.01481" lon="6.98348">
        <ele>1152.1999511719</ele>
        <time>2022-10-30T10:42:57.000Z</time>
      </trkpt>
      <trkpt lat="48.01483" lon="6.9835">
        <ele>1152.5999755859</ele>
        <time>2022-10-30T10:42:59.000Z</time>
      </trkpt>
      <trkpt lat="48.01486" lon="6.98354">
        <ele>1153</ele>
        <time>2022-10-30T10:43:02.000Z</time>
      </trkpt>
      <trkpt lat="48.01488" lon="6.98355">
        <ele>1153.1999511719</ele>
        <time>2022-10-30T10:43:04.000Z</time>
      </trkpt>
      <trkpt lat="48.01488" lon="6.98355">
        <ele>1153.4000244141</ele>
        <time>2022-10-30T10:43:05.000Z</time>
      </trkpt>
      <trkpt lat="48.01491" lon="6.9836">
        <ele>1153.5999755859</ele>
        <time>2022-10-30T10:43:10.000Z</time>
      </trkpt>
      <trkpt lat="48.01492" lon="6.98364">
        <ele>1154</ele>
        <time>2022-10-30T10:43:14.000Z</time>
      </trkpt>
      <trkpt lat="48.01493" lon="6.98366">
        <ele>1154.4000244141</ele>
        <time>2022-10-30T10:43:16.000Z</time>
      </trkpt>
      <trkpt lat="48.01493" lon="6.98369">
        <ele>1155.5999755859</ele>
        <time>2022-10-30T10:43:20.000Z</time>
      </trkpt>
      <trkpt lat="48.01494" lon="6.98373">
        <ele>1155.8000488281</ele>
        <time>2022-10-30T10:43:22.000Z</time>
      </trkpt>
      <trkpt lat="48.01497" lon="6.98379">
        <ele>1156.5999755859</ele>
        <time>2022-10-30T10:43:28.000Z</time>
      </trkpt>
      <trkpt lat="48.01498" lon="6.98381">
        <ele>1157</ele>
        <time>2022-10-30T10:43:30.000Z</time>
      </trkpt>
      <trkpt lat="48.015" lon="6.98382">
        <ele>1157.8000488281</ele>
        <time>2022-10-30T10:43:34.000Z</time>
      </trkpt>
      <trkpt lat="48.01501" lon="6.98382">
        <ele>1158</ele>
        <time>2022-10-30T10:43:35.000Z</time>
      </trkpt>
      <trkpt lat="48.01504" lon="6.98382">
        <ele>1159</ele>
        <time>2022-10-30T10:43:41.000Z</time>
      </trkpt>
      <trkpt lat="48.01509" lon="6.98385">
        <ele>1159.8000488281</ele>
        <time>2022-10-30T10:43:47.000Z</time>
      </trkpt>
      <trkpt lat="48.0151" lon="6.98387">
        <ele>1160</ele>
        <time>2022-10-30T10:43:50.000Z</time>
      </trkpt>
      <trkpt lat="48.0151" lon="6.98389">
        <ele>1160.8000488281</ele>
        <time>2022-10-30T10:43:55.000Z</time>
      </trkpt>
      <trkpt lat="48.0151" lon="6.98389">
        <ele>1161</ele>
        <time>2022-10-30T10:43:57.000Z</time>
      </trkpt>
      <trkpt lat="48.0151" lon="6.98389">
        <ele>1161</ele>
        <time>2022-10-30T10:44:01.000Z</time>
      </trkpt>
      <trkpt lat="48.01505" lon="6.98399">
        <ele>1161.1999511719</ele>
        <time>2022-10-30T10:44:07.000Z</time>
      </trkpt>
      <trkpt lat="48.01505" lon="6.984">
        <ele>1161.1999511719</ele>
        <time>2022-10-30T10:44:08.000Z</time>
      </trkpt>
      <trkpt lat="48.01511" lon="6.98405">
        <ele>1161.4000244141</ele>
        <time>2022-10-30T10:44:15.000Z</time>
      </trkpt>
      <trkpt lat="48.01512" lon="6.98406">
        <ele>1161.5999755859</ele>
        <time>2022-10-30T10:44:16.000Z</time>
      </trkpt>
      <trkpt lat="48.01514" lon="6.98411">
        <ele>1162</ele>
        <time>2022-10-30T10:44:20.000Z</time>
      </trkpt>
      <trkpt lat="48.01515" lon="6.98414">
        <ele>1162.1999511719</ele>
        <time>2022-10-30T10:44:23.000Z</time>
      </trkpt>
      <trkpt lat="48.01517" lon="6.98418">
        <ele>1162.4000244141</ele>
        <time>2022-10-30T10:44:25.000Z</time>
      </trkpt>
      <trkpt lat="48.01519" lon="6.98424">
        <ele>1163.1999511719</ele>
        <time>2022-10-30T10:44:28.000Z</time>
      </trkpt>
      <trkpt lat="48.0152" lon="6.98426">
        <ele>1163.4000244141</ele>
        <time>2022-10-30T10:44:29.000Z</time>
      </trkpt>
      <trkpt lat="48.01521" lon="6.9843">
        <ele>1164.1999511719</ele>
        <time>2022-10-30T10:44:32.000Z</time>
      </trkpt>
      <trkpt lat="48.01522" lon="6.98431">
        <ele>1165</ele>
        <time>2022-10-30T10:44:35.000Z</time>
      </trkpt>
      <trkpt lat="48.01523" lon="6.98432">
        <ele>1165.4000244141</ele>
        <time>2022-10-30T10:44:36.000Z</time>
      </trkpt>
      <trkpt lat="48.01527" lon="6.98438">
        <ele>1166.5999755859</ele>
        <time>2022-10-30T10:44:42.000Z</time>
      </trkpt>
      <trkpt lat="48.01528" lon="6.98441">
        <ele>1166.8000488281</ele>
        <time>2022-10-30T10:44:43.000Z</time>
      </trkpt>
      <trkpt lat="48.0153" lon="6.98443">
        <ele>1167.8000488281</ele>
        <time>2022-10-30T10:44:47.000Z</time>
      </trkpt>
      <trkpt lat="48.0153" lon="6.98445">
        <ele>1168.1999511719</ele>
        <time>2022-10-30T10:44:49.000Z</time>
      </trkpt>
      <trkpt lat="48.0153" lon="6.98446">
        <ele>1169</ele>
        <time>2022-10-30T10:44:51.000Z</time>
      </trkpt>
      <trkpt lat="48.01529" lon="6.98449">
        <ele>1169.8000488281</ele>
        <time>2022-10-30T10:44:56.000Z</time>
      </trkpt>
      <trkpt lat="48.01528" lon="6.9845">
        <ele>1170</ele>
        <time>2022-10-30T10:44:57.000Z</time>
      </trkpt>
      <trkpt lat="48.01527" lon="6.98451">
        <ele>1170.1999511719</ele>
        <time>2022-10-30T10:45:03.000Z</time>
      </trkpt>
      <trkpt lat="48.01526" lon="6.98451">
        <ele>1170</ele>
        <time>2022-10-30T10:45:18.000Z</time>
      </trkpt>
      <trkpt lat="48.01526" lon="6.98451">
        <ele>1169.8000488281</ele>
        <time>2022-10-30T10:45:26.000Z</time>
      </trkpt>
      <trkpt lat="48.01525" lon="6.98451">
        <ele>1169.8000488281</ele>
        <time>2022-10-30T10:45:30.000Z</time>
      </trkpt>
      <trkpt lat="48.01525" lon="6.98451">
        <ele>1169.8000488281</ele>
        <time>2022-10-30T10:45:36.000Z</time>
      </trkpt>
      <trkpt lat="48.01519" lon="6.98451">
        <ele>1171</ele>
        <time>2022-10-30T10:45:47.000Z</time>
      </trkpt>
      <trkpt lat="48.01516" lon="6.98452">
        <ele>1171.4000244141</ele>
        <time>2022-10-30T10:45:51.000Z</time>
      </trkpt>
      <trkpt lat="48.01513" lon="6.98452">
        <ele>1172.1999511719</ele>
        <time>2022-10-30T10:45:56.000Z</time>
      </trkpt>
      <trkpt lat="48.01511" lon="6.9845">
        <ele>1172.5999755859</ele>
        <time>2022-10-30T10:45:59.000Z</time>
      </trkpt>
      <trkpt lat="48.01509" lon="6.98449">
        <ele>1173</ele>
        <time>2022-10-30T10:46:02.000Z</time>
      </trkpt>
      <trkpt lat="48.01505" lon="6.98447">
        <ele>1173.1999511719</ele>
        <time>2022-10-30T10:46:05.000Z</time>
      </trkpt>
      <trkpt lat="48.01502" lon="6.98446">
        <ele>1173.5999755859</ele>
        <time>2022-10-30T10:46:10.000Z</time>
      </trkpt>
      <trkpt lat="48.015" lon="6.98445">
        <ele>1174.1999511719</ele>
        <time>2022-10-30T10:46:15.000Z</time>
      </trkpt>
      <trkpt lat="48.01499" lon="6.98445">
        <ele>1174.4000244141</ele>
        <time>2022-10-30T10:46:16.000Z</time>
      </trkpt>
      <trkpt lat="48.01494" lon="6.98445">
        <ele>1175.4000244141</ele>
        <time>2022-10-30T10:46:21.000Z</time>
      </trkpt>
      <trkpt lat="48.01492" lon="6.98446">
        <ele>1175.8000488281</ele>
        <time>2022-10-30T10:46:23.000Z</time>
      </trkpt>
      <trkpt lat="48.01487" lon="6.98443">
        <ele>1176.4000244141</ele>
        <time>2022-10-30T10:46:29.000Z</time>
      </trkpt>
      <trkpt lat="48.01485" lon="6.98442">
        <ele>1176.5999755859</ele>
        <time>2022-10-30T10:46:31.000Z</time>
      </trkpt>
      <trkpt lat="48.01483" lon="6.98443">
        <ele>1177.5999755859</ele>
        <time>2022-10-30T10:46:37.000Z</time>
      </trkpt>
      <trkpt lat="48.01483" lon="6.98444">
        <ele>1177.5999755859</ele>
        <time>2022-10-30T10:46:38.000Z</time>
      </trkpt>
      <trkpt lat="48.01487" lon="6.98443">
        <ele>1177.8000488281</ele>
        <time>2022-10-30T10:46:43.000Z</time>
      </trkpt>
      <trkpt lat="48.01481" lon="6.98445">
        <ele>1178.4000244141</ele>
        <time>2022-10-30T10:46:50.000Z</time>
      </trkpt>
      <trkpt lat="48.01479" lon="6.98445">
        <ele>1178.5999755859</ele>
        <time>2022-10-30T10:46:52.000Z</time>
      </trkpt>
      <trkpt lat="48.01475" lon="6.98443">
        <ele>1179.5999755859</ele>
        <time>2022-10-30T10:46:57.000Z</time>
      </trkpt>
      <trkpt lat="48.01474" lon="6.98443">
        <ele>1179.8000488281</ele>
        <time>2022-10-30T10:46:58.000Z</time>
      </trkpt>
      <trkpt lat="48.0147" lon="6.98442">
        <ele>1180.5999755859</ele>
        <time>2022-10-30T10:47:03.000Z</time>
      </trkpt>
      <trkpt lat="48.01468" lon="6.98443">
        <ele>1181</ele>
        <time>2022-10-30T10:47:05.000Z</time>
      </trkpt>
      <trkpt lat="48.01462" lon="6.98443">
        <ele>1182</ele>
        <time>2022-10-30T10:47:11.000Z</time>
      </trkpt>
      <trkpt lat="48.01462" lon="6.98442">
        <ele>1182.1999511719</ele>
        <time>2022-10-30T10:47:15.000Z</time>
      </trkpt>
      <trkpt lat="48.0146" lon="6.98439">
        <ele>1182.1999511719</ele>
        <time>2022-10-30T10:47:20.000Z</time>
      </trkpt>
      <trkpt lat="48.01459" lon="6.9844">
        <ele>1182.1999511719</ele>
        <time>2022-10-30T10:47:22.000Z</time>
      </trkpt>
      <trkpt lat="48.0146" lon="6.98442">
        <ele>1182.5999755859</ele>
        <time>2022-10-30T10:47:28.000Z</time>
      </trkpt>
      <trkpt lat="48.01461" lon="6.98445">
        <ele>1183</ele>
        <time>2022-10-30T10:47:32.000Z</time>
      </trkpt>
      <trkpt lat="48.01462" lon="6.98448">
        <ele>1183.5999755859</ele>
        <time>2022-10-30T10:47:36.000Z</time>
      </trkpt>
      <trkpt lat="48.01463" lon="6.98449">
        <ele>1184.1999511719</ele>
        <time>2022-10-30T10:47:39.000Z</time>
      </trkpt>
      <trkpt lat="48.01463" lon="6.98455">
        <ele>1185.1999511719</ele>
        <time>2022-10-30T10:47:44.000Z</time>
      </trkpt>
      <trkpt lat="48.01464" lon="6.98457">
        <ele>1185.1999511719</ele>
        <time>2022-10-30T10:47:45.000Z</time>
      </trkpt>
      <trkpt lat="48.01463" lon="6.98459">
        <ele>1185.8000488281</ele>
        <time>2022-10-30T10:47:49.000Z</time>
      </trkpt>
      <trkpt lat="48.01461" lon="6.98458">
        <ele>1186.4000244141</ele>
        <time>2022-10-30T10:47:52.000Z</time>
      </trkpt>
      <trkpt lat="48.01459" lon="6.98461">
        <ele>1186.5999755859</ele>
        <time>2022-10-30T10:47:54.000Z</time>
      </trkpt>
      <trkpt lat="48.01458" lon="6.98463">
        <ele>1187</ele>
        <time>2022-10-30T10:47:56.000Z</time>
      </trkpt>
      <trkpt lat="48.01457" lon="6.98465">
        <ele>1187.4000244141</ele>
        <time>2022-10-30T10:47:58.000Z</time>
      </trkpt>
      <trkpt lat="48.01451" lon="6.98466">
        <ele>1188.5999755859</ele>
        <time>2022-10-30T10:48:04.000Z</time>
      </trkpt>
      <trkpt lat="48.01452" lon="6.98467">
        <ele>1189.4000244141</ele>
        <time>2022-10-30T10:48:09.000Z</time>
      </trkpt>
      <trkpt lat="48.01451" lon="6.98465">
        <ele>1189.5999755859</ele>
        <time>2022-10-30T10:48:10.000Z</time>
      </trkpt>
      <trkpt lat="48.01454" lon="6.98467">
        <ele>1190</ele>
        <time>2022-10-30T10:48:23.000Z</time>
      </trkpt>
      <trkpt lat="48.01454" lon="6.98471">
        <ele>1190.4000244141</ele>
        <time>2022-10-30T10:48:30.000Z</time>
      </trkpt>
      <trkpt lat="48.01455" lon="6.98472">
        <ele>1190.4000244141</ele>
        <time>2022-10-30T10:48:34.000Z</time>
      </trkpt>
      <trkpt lat="48.01456" lon="6.98473">
        <ele>1190.1999511719</ele>
        <time>2022-10-30T10:48:37.000Z</time>
      </trkpt>
      <trkpt lat="48.01457" lon="6.98482">
        <ele>1190.4000244141</ele>
        <time>2022-10-30T10:48:45.000Z</time>
      </trkpt>
      <trkpt lat="48.01462" lon="6.9849">
        <ele>1190</ele>
        <time>2022-10-30T10:48:51.000Z</time>
      </trkpt>
      <trkpt lat="48.01462" lon="6.98491">
        <ele>1190</ele>
        <time>2022-10-30T10:48:52.000Z</time>
      </trkpt>
      <trkpt lat="48.01464" lon="6.98492">
        <ele>1190</ele>
        <time>2022-10-30T10:48:54.000Z</time>
      </trkpt>
      <trkpt lat="48.0147" lon="6.98501">
        <ele>1190</ele>
        <time>2022-10-30T10:49:01.000Z</time>
      </trkpt>
      <trkpt lat="48.01473" lon="6.98509">
        <ele>1190.5999755859</ele>
        <time>2022-10-30T10:49:07.000Z</time>
      </trkpt>
      <trkpt lat="48.01474" lon="6.98512">
        <ele>1191.1999511719</ele>
        <time>2022-10-30T10:49:10.000Z</time>
      </trkpt>
      <trkpt lat="48.01476" lon="6.98519">
        <ele>1191.8000488281</ele>
        <time>2022-10-30T10:49:15.000Z</time>
      </trkpt>
      <trkpt lat="48.01473" lon="6.98524">
        <ele>1192.4000244141</ele>
        <time>2022-10-30T10:49:18.000Z</time>
      </trkpt>
      <trkpt lat="48.0147" lon="6.98529">
        <ele>1193</ele>
        <time>2022-10-30T10:49:22.000Z</time>
      </trkpt>
      <trkpt lat="48.0147" lon="6.9853">
        <ele>1193.1999511719</ele>
        <time>2022-10-30T10:49:23.000Z</time>
      </trkpt>
      <trkpt lat="48.01465" lon="6.98535">
        <ele>1194.1999511719</ele>
        <time>2022-10-30T10:49:29.000Z</time>
      </trkpt>
      <trkpt lat="48.01464" lon="6.98536">
        <ele>1194.1999511719</ele>
        <time>2022-10-30T10:49:30.000Z</time>
      </trkpt>
      <trkpt lat="48.01464" lon="6.98539">
        <ele>1194.4000244141</ele>
        <time>2022-10-30T10:49:32.000Z</time>
      </trkpt>
      <trkpt lat="48.01466" lon="6.98542">
        <ele>1194.8000488281</ele>
        <time>2022-10-30T10:49:35.000Z</time>
      </trkpt>
      <trkpt lat="48.01467" lon="6.98545">
        <ele>1195.1999511719</ele>
        <time>2022-10-30T10:49:38.000Z</time>
      </trkpt>
      <trkpt lat="48.01469" lon="6.98547">
        <ele>1195.1999511719</ele>
        <time>2022-10-30T10:49:41.000Z</time>
      </trkpt>
      <trkpt lat="48.01471" lon="6.98548">
        <ele>1194.8000488281</ele>
        <time>2022-10-30T10:49:44.000Z</time>
      </trkpt>
      <trkpt lat="48.01473" lon="6.98549">
        <ele>1194.5999755859</ele>
        <time>2022-10-30T10:49:49.000Z</time>
      </trkpt>
      <trkpt lat="48.01478" lon="6.98553">
        <ele>1194.4000244141</ele>
        <time>2022-10-30T10:49:54.000Z</time>
      </trkpt>
      <trkpt lat="48.01478" lon="6.98555">
        <ele>1194.4000244141</ele>
        <time>2022-10-30T10:49:55.000Z</time>
      </trkpt>
      <trkpt lat="48.01474" lon="6.98568">
        <ele>1194.1999511719</ele>
        <time>2022-10-30T10:50:02.000Z</time>
      </trkpt>
      <trkpt lat="48.01471" lon="6.98571">
        <ele>1194.4000244141</ele>
        <time>2022-10-30T10:50:06.000Z</time>
      </trkpt>
      <trkpt lat="48.01468" lon="6.9857">
        <ele>1194.5999755859</ele>
        <time>2022-10-30T10:50:08.000Z</time>
      </trkpt>
      <trkpt lat="48.01467" lon="6.98569">
        <ele>1194.5999755859</ele>
        <time>2022-10-30T10:50:09.000Z</time>
      </trkpt>
      <trkpt lat="48.01462" lon="6.98568">
        <ele>1195.4000244141</ele>
        <time>2022-10-30T10:50:16.000Z</time>
      </trkpt>
      <trkpt lat="48.01458" lon="6.98568">
        <ele>1196.1999511719</ele>
        <time>2022-10-30T10:50:23.000Z</time>
      </trkpt>
      <trkpt lat="48.01457" lon="6.98567">
        <ele>1196.4000244141</ele>
        <time>2022-10-30T10:50:24.000Z</time>
      </trkpt>
      <trkpt lat="48.01455" lon="6.98564">
        <ele>1197.4000244141</ele>
        <time>2022-10-30T10:50:29.000Z</time>
      </trkpt>
      <trkpt lat="48.01454" lon="6.98565">
        <ele>1197.4000244141</ele>
        <time>2022-10-30T10:50:30.000Z</time>
      </trkpt>
      <trkpt lat="48.01451" lon="6.98565">
        <ele>1198.1999511719</ele>
        <time>2022-10-30T10:50:35.000Z</time>
      </trkpt>
      <trkpt lat="48.01451" lon="6.98564">
        <ele>1198.4000244141</ele>
        <time>2022-10-30T10:50:36.000Z</time>
      </trkpt>
      <trkpt lat="48.01443" lon="6.98563">
        <ele>1199.4000244141</ele>
        <time>2022-10-30T10:50:44.000Z</time>
      </trkpt>
      <trkpt lat="48.01442" lon="6.98562">
        <ele>1199.4000244141</ele>
        <time>2022-10-30T10:50:45.000Z</time>
      </trkpt>
      <trkpt lat="48.01438" lon="6.98562">
        <ele>1200.1999511719</ele>
        <time>2022-10-30T10:50:51.000Z</time>
      </trkpt>
      <trkpt lat="48.01437" lon="6.98562">
        <ele>1200.1999511719</ele>
        <time>2022-10-30T10:50:58.000Z</time>
      </trkpt>
      <trkpt lat="48.01437" lon="6.98562">
        <ele>1200.1999511719</ele>
        <time>2022-10-30T10:50:59.000Z</time>
      </trkpt>
      <trkpt lat="48.01437" lon="6.98562">
        <ele>1200.1999511719</ele>
        <time>2022-10-30T10:51:01.000Z</time>
      </trkpt>
      <trkpt lat="48.01437" lon="6.98562">
        <ele>1200.5999755859</ele>
        <time>2022-10-30T10:51:16.000Z</time>
      </trkpt>
      <trkpt lat="48.01436" lon="6.98562">
        <ele>1200.5999755859</ele>
        <time>2022-10-30T10:51:17.000Z</time>
      </trkpt>
      <trkpt lat="48.01432" lon="6.98565">
        <ele>1201.1999511719</ele>
        <time>2022-10-30T10:51:21.000Z</time>
      </trkpt>
      <trkpt lat="48.01429" lon="6.98564">
        <ele>1201.5999755859</ele>
        <time>2022-10-30T10:51:24.000Z</time>
      </trkpt>
      <trkpt lat="48.01427" lon="6.98565">
        <ele>1202.1999511719</ele>
        <time>2022-10-30T10:51:27.000Z</time>
      </trkpt>
      <trkpt lat="48.01426" lon="6.98565">
        <ele>1202.5999755859</ele>
        <time>2022-10-30T10:51:29.000Z</time>
      </trkpt>
      <trkpt lat="48.01426" lon="6.98565">
        <ele>1202.5999755859</ele>
        <time>2022-10-30T10:51:30.000Z</time>
      </trkpt>
      <trkpt lat="48.01428" lon="6.98567">
        <ele>1203</ele>
        <time>2022-10-30T10:51:37.000Z</time>
      </trkpt>
      <trkpt lat="48.01429" lon="6.98572">
        <ele>1202.8000488281</ele>
        <time>2022-10-30T10:51:42.000Z</time>
      </trkpt>
      <trkpt lat="48.01425" lon="6.98576">
        <ele>1201.8000488281</ele>
        <time>2022-10-30T10:51:50.000Z</time>
      </trkpt>
      <trkpt lat="48.01425" lon="6.98576">
        <ele>1201.5999755859</ele>
        <time>2022-10-30T10:51:52.000Z</time>
      </trkpt>
      <trkpt lat="48.01424" lon="6.98575">
        <ele>1201.1999511719</ele>
        <time>2022-10-30T10:51:56.000Z</time>
      </trkpt>
      <trkpt lat="48.01424" lon="6.98579">
        <ele>1200.5999755859</ele>
        <time>2022-10-30T10:52:02.000Z</time>
      </trkpt>
      <trkpt lat="48.01425" lon="6.98579">
        <ele>1200.4000244141</ele>
        <time>2022-10-30T10:52:04.000Z</time>
      </trkpt>
      <trkpt lat="48.01426" lon="6.9858">
        <ele>1199.4000244141</ele>
        <time>2022-10-30T10:52:09.000Z</time>
      </trkpt>
      <trkpt lat="48.01426" lon="6.9858">
        <ele>1199</ele>
        <time>2022-10-30T10:52:11.000Z</time>
      </trkpt>
      <trkpt lat="48.01426" lon="6.9858">
        <ele>1196.5999755859</ele>
        <time>2022-10-30T10:52:26.000Z</time>
      </trkpt>
      <trkpt lat="48.01427" lon="6.9858">
        <ele>1196.1999511719</ele>
        <time>2022-10-30T10:52:28.000Z</time>
      </trkpt>
      <trkpt lat="48.01428" lon="6.98583">
        <ele>1195</ele>
        <time>2022-10-30T10:52:33.000Z</time>
      </trkpt>
      <trkpt lat="48.01428" lon="6.9859">
        <ele>1194.5999755859</ele>
        <time>2022-10-30T10:52:59.000Z</time>
      </trkpt>
      <trkpt lat="48.01428" lon="6.9859">
        <ele>1194.5999755859</ele>
        <time>2022-10-30T10:53:04.000Z</time>
      </trkpt>
      <trkpt lat="48.01428" lon="6.9859">
        <ele>1194.1999511719</ele>
        <time>2022-10-30T10:53:15.000Z</time>
      </trkpt>
      <trkpt lat="48.01429" lon="6.9859">
        <ele>1194</ele>
        <time>2022-10-30T10:53:17.000Z</time>
      </trkpt>
      <trkpt lat="48.01432" lon="6.98594">
        <ele>1193.5999755859</ele>
        <time>2022-10-30T10:53:24.000Z</time>
      </trkpt>
      <trkpt lat="48.01435" lon="6.98598">
        <ele>1193.5999755859</ele>
        <time>2022-10-30T10:53:32.000Z</time>
      </trkpt>
      <trkpt lat="48.01436" lon="6.98599">
        <ele>1192.8000488281</ele>
        <time>2022-10-30T10:53:42.000Z</time>
      </trkpt>
      <trkpt lat="48.01432" lon="6.98605">
        <ele>1192.1999511719</ele>
        <time>2022-10-30T10:53:50.000Z</time>
      </trkpt>
      <trkpt lat="48.01427" lon="6.9861">
        <ele>1192</ele>
        <time>2022-10-30T10:53:55.000Z</time>
      </trkpt>
      <trkpt lat="48.01423" lon="6.98615">
        <ele>1192</ele>
        <time>2022-10-30T10:54:01.000Z</time>
      </trkpt>
      <trkpt lat="48.01423" lon="6.98613">
        <ele>1192</ele>
        <time>2022-10-30T10:54:06.000Z</time>
      </trkpt>
      <trkpt lat="48.01422" lon="6.98613">
        <ele>1192</ele>
        <time>2022-10-30T10:54:10.000Z</time>
      </trkpt>
      <trkpt lat="48.01423" lon="6.98611">
        <ele>1192</ele>
        <time>2022-10-30T10:54:15.000Z</time>
      </trkpt>
      <trkpt lat="48.01423" lon="6.98612">
        <ele>1192</ele>
        <time>2022-10-30T10:54:26.000Z</time>
      </trkpt>
      <trkpt lat="48.0142" lon="6.98615">
        <ele>1192</ele>
        <time>2022-10-30T10:54:32.000Z</time>
      </trkpt>
      <trkpt lat="48.01419" lon="6.98616">
        <ele>1191.8000488281</ele>
        <time>2022-10-30T10:54:33.000Z</time>
      </trkpt>
      <trkpt lat="48.01417" lon="6.98618">
        <ele>1191.8000488281</ele>
        <time>2022-10-30T10:54:38.000Z</time>
      </trkpt>
      <trkpt lat="48.01411" lon="6.98619">
        <ele>1191.8000488281</ele>
        <time>2022-10-30T10:54:44.000Z</time>
      </trkpt>
      <trkpt lat="48.01405" lon="6.98624">
        <ele>1191.4000244141</ele>
        <time>2022-10-30T10:54:49.000Z</time>
      </trkpt>
      <trkpt lat="48.01401" lon="6.98628">
        <ele>1191.1999511719</ele>
        <time>2022-10-30T10:54:55.000Z</time>
      </trkpt>
      <trkpt lat="48.01403" lon="6.98624">
        <ele>1191</ele>
        <time>2022-10-30T10:55:00.000Z</time>
      </trkpt>
      <trkpt lat="48.01403" lon="6.98624">
        <ele>1191</ele>
        <time>2022-10-30T10:55:08.000Z</time>
      </trkpt>
      <trkpt lat="48.01403" lon="6.98625">
        <ele>1190.8000488281</ele>
        <time>2022-10-30T10:55:11.000Z</time>
      </trkpt>
      <trkpt lat="48.014" lon="6.98628">
        <ele>1190.4000244141</ele>
        <time>2022-10-30T10:55:15.000Z</time>
      </trkpt>
      <trkpt lat="48.01395" lon="6.98631">
        <ele>1190</ele>
        <time>2022-10-30T10:55:20.000Z</time>
      </trkpt>
      <trkpt lat="48.01394" lon="6.98633">
        <ele>1189.8000488281</ele>
        <time>2022-10-30T10:55:22.000Z</time>
      </trkpt>
      <trkpt lat="48.01391" lon="6.98637">
        <ele>1189.1999511719</ele>
        <time>2022-10-30T10:55:26.000Z</time>
      </trkpt>
      <trkpt lat="48.0139" lon="6.98636">
        <ele>1188.8000488281</ele>
        <time>2022-10-30T10:55:29.000Z</time>
      </trkpt>
      <trkpt lat="48.01384" lon="6.98635">
        <ele>1188.1999511719</ele>
        <time>2022-10-30T10:55:33.000Z</time>
      </trkpt>
      <trkpt lat="48.01384" lon="6.98634">
        <ele>1188.1999511719</ele>
        <time>2022-10-30T10:55:36.000Z</time>
      </trkpt>
      <trkpt lat="48.01385" lon="6.98635">
        <ele>1188.1999511719</ele>
        <time>2022-10-30T10:55:39.000Z</time>
      </trkpt>
      <trkpt lat="48.01386" lon="6.98633">
        <ele>1188.1999511719</ele>
        <time>2022-10-30T10:55:43.000Z</time>
      </trkpt>
      <trkpt lat="48.01382" lon="6.98633">
        <ele>1187.5999755859</ele>
        <time>2022-10-30T10:55:50.000Z</time>
      </trkpt>
      <trkpt lat="48.01377" lon="6.98636">
        <ele>1187</ele>
        <time>2022-10-30T10:55:55.000Z</time>
      </trkpt>
      <trkpt lat="48.01376" lon="6.98636">
        <ele>1187</ele>
        <time>2022-10-30T10:55:56.000Z</time>
      </trkpt>
      <trkpt lat="48.01373" lon="6.98637">
        <ele>1186.5999755859</ele>
        <time>2022-10-30T10:55:59.000Z</time>
      </trkpt>
      <trkpt lat="48.0137" lon="6.9864">
        <ele>1186.4000244141</ele>
        <time>2022-10-30T10:56:04.000Z</time>
      </trkpt>
      <trkpt lat="48.01367" lon="6.98646">
        <ele>1186.1999511719</ele>
        <time>2022-10-30T10:56:11.000Z</time>
      </trkpt>
      <trkpt lat="48.01364" lon="6.98645">
        <ele>1186.1999511719</ele>
        <time>2022-10-30T10:56:15.000Z</time>
      </trkpt>
      <trkpt lat="48.01362" lon="6.98646">
        <ele>1186</ele>
        <time>2022-10-30T10:56:18.000Z</time>
      </trkpt>
      <trkpt lat="48.01358" lon="6.98641">
        <ele>1185.5999755859</ele>
        <time>2022-10-30T10:56:23.000Z</time>
      </trkpt>
      <trkpt lat="48.01358" lon="6.9864">
        <ele>1185.4000244141</ele>
        <time>2022-10-30T10:56:24.000Z</time>
      </trkpt>
      <trkpt lat="48.01353" lon="6.98635">
        <ele>1184.8000488281</ele>
        <time>2022-10-30T10:56:32.000Z</time>
      </trkpt>
      <trkpt lat="48.01352" lon="6.98633">
        <ele>1184.5999755859</ele>
        <time>2022-10-30T10:56:35.000Z</time>
      </trkpt>
      <trkpt lat="48.01352" lon="6.98631">
        <ele>1184.4000244141</ele>
        <time>2022-10-30T10:56:37.000Z</time>
      </trkpt>
      <trkpt lat="48.01346" lon="6.98628">
        <ele>1184</ele>
        <time>2022-10-30T10:56:43.000Z</time>
      </trkpt>
      <trkpt lat="48.01343" lon="6.98625">
        <ele>1183.5999755859</ele>
        <time>2022-10-30T10:56:46.000Z</time>
      </trkpt>
      <trkpt lat="48.01342" lon="6.98623">
        <ele>1183.4000244141</ele>
        <time>2022-10-30T10:56:48.000Z</time>
      </trkpt>
      <trkpt lat="48.0134" lon="6.98618">
        <ele>1183.4000244141</ele>
        <time>2022-10-30T10:56:53.000Z</time>
      </trkpt>
      <trkpt lat="48.01333" lon="6.98619">
        <ele>1183.4000244141</ele>
        <time>2022-10-30T10:56:59.000Z</time>
      </trkpt>
      <trkpt lat="48.01319" lon="6.98616">
        <ele>1183.5999755859</ele>
        <time>2022-10-30T10:57:07.000Z</time>
      </trkpt>
      <trkpt lat="48.01307" lon="6.98605">
        <ele>1184.1999511719</ele>
        <time>2022-10-30T10:57:15.000Z</time>
      </trkpt>
      <trkpt lat="48.01306" lon="6.98603">
        <ele>1184.1999511719</ele>
        <time>2022-10-30T10:57:16.000Z</time>
      </trkpt>
      <trkpt lat="48.01305" lon="6.98603">
        <ele>1184.4000244141</ele>
        <time>2022-10-30T10:57:17.000Z</time>
      </trkpt>
      <trkpt lat="48.01303" lon="6.98603">
        <ele>1184.5999755859</ele>
        <time>2022-10-30T10:57:18.000Z</time>
      </trkpt>
      <trkpt lat="48.01301" lon="6.98602">
        <ele>1184.8000488281</ele>
        <time>2022-10-30T10:57:20.000Z</time>
      </trkpt>
      <trkpt lat="48.01297" lon="6.98598">
        <ele>1185</ele>
        <time>2022-10-30T10:57:26.000Z</time>
      </trkpt>
      <trkpt lat="48.01294" lon="6.98596">
        <ele>1185.4000244141</ele>
        <time>2022-10-30T10:57:29.000Z</time>
      </trkpt>
      <trkpt lat="48.01293" lon="6.98597">
        <ele>1185.4000244141</ele>
        <time>2022-10-30T10:57:30.000Z</time>
      </trkpt>
      <trkpt lat="48.01287" lon="6.986">
        <ele>1185.4000244141</ele>
        <time>2022-10-30T10:57:33.000Z</time>
      </trkpt>
      <trkpt lat="48.01285" lon="6.98599">
        <ele>1185.8000488281</ele>
        <time>2022-10-30T10:57:36.000Z</time>
      </trkpt>
      <trkpt lat="48.01284" lon="6.98598">
        <ele>1185.8000488281</ele>
        <time>2022-10-30T10:57:37.000Z</time>
      </trkpt>
      <trkpt lat="48.01282" lon="6.98596">
        <ele>1186</ele>
        <time>2022-10-30T10:57:39.000Z</time>
      </trkpt>
      <trkpt lat="48.01276" lon="6.98587">
        <ele>1186.4000244141</ele>
        <time>2022-10-30T10:57:47.000Z</time>
      </trkpt>
      <trkpt lat="48.01275" lon="6.98587">
        <ele>1186.4000244141</ele>
        <time>2022-10-30T10:57:48.000Z</time>
      </trkpt>
      <trkpt lat="48.01275" lon="6.98582">
        <ele>1186.8000488281</ele>
        <time>2022-10-30T10:57:52.000Z</time>
      </trkpt>
      <trkpt lat="48.01277" lon="6.9858">
        <ele>1186.8000488281</ele>
        <time>2022-10-30T10:57:54.000Z</time>
      </trkpt>
      <trkpt lat="48.01278" lon="6.98575">
        <ele>1186.8000488281</ele>
        <time>2022-10-30T10:57:58.000Z</time>
      </trkpt>
      <trkpt lat="48.01277" lon="6.98575">
        <ele>1186.8000488281</ele>
        <time>2022-10-30T10:58:00.000Z</time>
      </trkpt>
      <trkpt lat="48.01271" lon="6.98574">
        <ele>1187</ele>
        <time>2022-10-30T10:58:06.000Z</time>
      </trkpt>
      <trkpt lat="48.01267" lon="6.98568">
        <ele>1187.8000488281</ele>
        <time>2022-10-30T10:58:12.000Z</time>
      </trkpt>
      <trkpt lat="48.01266" lon="6.98568">
        <ele>1187.8000488281</ele>
        <time>2022-10-30T10:58:13.000Z</time>
      </trkpt>
      <trkpt lat="48.01262" lon="6.98566">
        <ele>1188.1999511719</ele>
        <time>2022-10-30T10:58:18.000Z</time>
      </trkpt>
      <trkpt lat="48.01256" lon="6.9856">
        <ele>1188.4000244141</ele>
        <time>2022-10-30T10:58:24.000Z</time>
      </trkpt>
      <trkpt lat="48.01255" lon="6.9856">
        <ele>1188.5999755859</ele>
        <time>2022-10-30T10:58:25.000Z</time>
      </trkpt>
      <trkpt lat="48.01252" lon="6.98556">
        <ele>1188.5999755859</ele>
        <time>2022-10-30T10:58:29.000Z</time>
      </trkpt>
      <trkpt lat="48.01245" lon="6.98558">
        <ele>1188.8000488281</ele>
        <time>2022-10-30T10:58:34.000Z</time>
      </trkpt>
      <trkpt lat="48.01244" lon="6.98558">
        <ele>1190</ele>
        <time>2022-10-30T10:58:35.000Z</time>
      </trkpt>
      <trkpt lat="48.01243" lon="6.98558">
        <ele>1190</ele>
        <time>2022-10-30T10:58:37.000Z</time>
      </trkpt>
      <trkpt lat="48.01238" lon="6.98556">
        <ele>1190.4000244141</ele>
        <time>2022-10-30T10:58:43.000Z</time>
      </trkpt>
      <trkpt lat="48.01237" lon="6.98556">
        <ele>1190.4000244141</ele>
        <time>2022-10-30T10:58:44.000Z</time>
      </trkpt>
      <trkpt lat="48.01236" lon="6.98556">
        <ele>1190.4000244141</ele>
        <time>2022-10-30T10:58:46.000Z</time>
      </trkpt>
      <trkpt lat="48.01233" lon="6.98556">
        <ele>1190.1999511719</ele>
        <time>2022-10-30T10:58:49.000Z</time>
      </trkpt>
      <trkpt lat="48.0123" lon="6.98554">
        <ele>1190</ele>
        <time>2022-10-30T10:58:52.000Z</time>
      </trkpt>
      <trkpt lat="48.01229" lon="6.98552">
        <ele>1189.8000488281</ele>
        <time>2022-10-30T10:58:54.000Z</time>
      </trkpt>
      <trkpt lat="48.01221" lon="6.98543">
        <ele>1190</ele>
        <time>2022-10-30T10:59:02.000Z</time>
      </trkpt>
      <trkpt lat="48.01224" lon="6.98537">
        <ele>1190.1999511719</ele>
        <time>2022-10-30T10:59:11.000Z</time>
      </trkpt>
      <trkpt lat="48.01217" lon="6.9854">
        <ele>1190.4000244141</ele>
        <time>2022-10-30T10:59:18.000Z</time>
      </trkpt>
      <trkpt lat="48.01212" lon="6.98535">
        <ele>1190.4000244141</ele>
        <time>2022-10-30T10:59:23.000Z</time>
      </trkpt>
      <trkpt lat="48.01205" lon="6.98529">
        <ele>1190.5999755859</ele>
        <time>2022-10-30T10:59:30.000Z</time>
      </trkpt>
      <trkpt lat="48.01202" lon="6.98525">
        <ele>1190.8000488281</ele>
        <time>2022-10-30T10:59:36.000Z</time>
      </trkpt>
      <trkpt lat="48.012" lon="6.98523">
        <ele>1190.8000488281</ele>
        <time>2022-10-30T10:59:38.000Z</time>
      </trkpt>
      <trkpt lat="48.01198" lon="6.98521">
        <ele>1191</ele>
        <time>2022-10-30T10:59:40.000Z</time>
      </trkpt>
      <trkpt lat="48.01198" lon="6.9852">
        <ele>1191</ele>
        <time>2022-10-30T10:59:41.000Z</time>
      </trkpt>
      <trkpt lat="48.01197" lon="6.98519">
        <ele>1191.1999511719</ele>
        <time>2022-10-30T10:59:42.000Z</time>
      </trkpt>
      <trkpt lat="48.01193" lon="6.98516">
        <ele>1191.4000244141</ele>
        <time>2022-10-30T10:59:46.000Z</time>
      </trkpt>
      <trkpt lat="48.01193" lon="6.98515">
        <ele>1191.4000244141</ele>
        <time>2022-10-30T10:59:47.000Z</time>
      </trkpt>
      <trkpt lat="48.01189" lon="6.98513">
        <ele>1191.4000244141</ele>
        <time>2022-10-30T10:59:50.000Z</time>
      </trkpt>
      <trkpt lat="48.01185" lon="6.98511">
        <ele>1191.4000244141</ele>
        <time>2022-10-30T10:59:54.000Z</time>
      </trkpt>
      <trkpt lat="48.01184" lon="6.98509">
        <ele>1191.4000244141</ele>
        <time>2022-10-30T10:59:56.000Z</time>
      </trkpt>
      <trkpt lat="48.01181" lon="6.985">
        <ele>1191.4000244141</ele>
        <time>2022-10-30T11:00:02.000Z</time>
      </trkpt>
      <trkpt lat="48.0118" lon="6.98499">
        <ele>1191.4000244141</ele>
        <time>2022-10-30T11:00:03.000Z</time>
      </trkpt>
      <trkpt lat="48.0118" lon="6.98498">
        <ele>1191.5999755859</ele>
        <time>2022-10-30T11:00:04.000Z</time>
      </trkpt>
      <trkpt lat="48.01178" lon="6.98494">
        <ele>1191.5999755859</ele>
        <time>2022-10-30T11:00:07.000Z</time>
      </trkpt>
      <trkpt lat="48.01176" lon="6.98492">
        <ele>1191.8000488281</ele>
        <time>2022-10-30T11:00:09.000Z</time>
      </trkpt>
      <trkpt lat="48.01176" lon="6.98491">
        <ele>1191.8000488281</ele>
        <time>2022-10-30T11:00:10.000Z</time>
      </trkpt>
      <trkpt lat="48.01174" lon="6.9849">
        <ele>1191.8000488281</ele>
        <time>2022-10-30T11:00:12.000Z</time>
      </trkpt>
      <trkpt lat="48.01171" lon="6.98487">
        <ele>1192</ele>
        <time>2022-10-30T11:00:15.000Z</time>
      </trkpt>
      <trkpt lat="48.0117" lon="6.98486">
        <ele>1192</ele>
        <time>2022-10-30T11:00:17.000Z</time>
      </trkpt>
      <trkpt lat="48.01168" lon="6.98487">
        <ele>1192.1999511719</ele>
        <time>2022-10-30T11:00:19.000Z</time>
      </trkpt>
      <trkpt lat="48.01167" lon="6.98488">
        <ele>1192.1999511719</ele>
        <time>2022-10-30T11:00:20.000Z</time>
      </trkpt>
      <trkpt lat="48.01166" lon="6.98487">
        <ele>1192.4000244141</ele>
        <time>2022-10-30T11:00:21.000Z</time>
      </trkpt>
      <trkpt lat="48.01164" lon="6.98486">
        <ele>1192.5999755859</ele>
        <time>2022-10-30T11:00:23.000Z</time>
      </trkpt>
      <trkpt lat="48.01162" lon="6.98484">
        <ele>1192.8000488281</ele>
        <time>2022-10-30T11:00:26.000Z</time>
      </trkpt>
      <trkpt lat="48.0116" lon="6.98483">
        <ele>1192.8000488281</ele>
        <time>2022-10-30T11:00:28.000Z</time>
      </trkpt>
      <trkpt lat="48.01159" lon="6.98481">
        <ele>1192.8000488281</ele>
        <time>2022-10-30T11:00:30.000Z</time>
      </trkpt>
      <trkpt lat="48.01159" lon="6.9848">
        <ele>1192.5999755859</ele>
        <time>2022-10-30T11:00:31.000Z</time>
      </trkpt>
      <trkpt lat="48.01157" lon="6.98482">
        <ele>1192.5999755859</ele>
        <time>2022-10-30T11:00:32.000Z</time>
      </trkpt>
      <trkpt lat="48.01153" lon="6.98484">
        <ele>1192.5999755859</ele>
        <time>2022-10-30T11:00:35.000Z</time>
      </trkpt>
      <trkpt lat="48.0115" lon="6.98485">
        <ele>1192.4000244141</ele>
        <time>2022-10-30T11:00:38.000Z</time>
      </trkpt>
      <trkpt lat="48.01148" lon="6.98484">
        <ele>1192.4000244141</ele>
        <time>2022-10-30T11:00:40.000Z</time>
      </trkpt>
      <trkpt lat="48.01147" lon="6.98484">
        <ele>1192.4000244141</ele>
        <time>2022-10-30T11:00:41.000Z</time>
      </trkpt>
      <trkpt lat="48.01145" lon="6.98484">
        <ele>1192.4000244141</ele>
        <time>2022-10-30T11:00:43.000Z</time>
      </trkpt>
      <trkpt lat="48.01143" lon="6.98486">
        <ele>1192.4000244141</ele>
        <time>2022-10-30T11:00:45.000Z</time>
      </trkpt>
      <trkpt lat="48.0114" lon="6.98488">
        <ele>1192.4000244141</ele>
        <time>2022-10-30T11:00:47.000Z</time>
      </trkpt>
      <trkpt lat="48.01136" lon="6.98492">
        <ele>1192.4000244141</ele>
        <time>2022-10-30T11:00:52.000Z</time>
      </trkpt>
      <trkpt lat="48.01134" lon="6.98498">
        <ele>1190</ele>
        <time>2022-10-30T11:00:58.000Z</time>
      </trkpt>
      <trkpt lat="48.01132" lon="6.98501">
        <ele>1190</ele>
        <time>2022-10-30T11:01:00.000Z</time>
      </trkpt>
      <trkpt lat="48.01126" lon="6.98503">
        <ele>1189.5999755859</ele>
        <time>2022-10-30T11:01:04.000Z</time>
      </trkpt>
      <trkpt lat="48.01114" lon="6.98514">
        <ele>1189.4000244141</ele>
        <time>2022-10-30T11:01:16.000Z</time>
      </trkpt>
      <trkpt lat="48.0111" lon="6.98516">
        <ele>1189.1999511719</ele>
        <time>2022-10-30T11:01:20.000Z</time>
      </trkpt>
      <trkpt lat="48.01106" lon="6.98517">
        <ele>1189.4000244141</ele>
        <time>2022-10-30T11:01:24.000Z</time>
      </trkpt>
      <trkpt lat="48.01101" lon="6.98519">
        <ele>1189.1999511719</ele>
        <time>2022-10-30T11:01:30.000Z</time>
      </trkpt>
      <trkpt lat="48.01098" lon="6.98518">
        <ele>1189</ele>
        <time>2022-10-30T11:01:34.000Z</time>
      </trkpt>
      <trkpt lat="48.01097" lon="6.98519">
        <ele>1188.8000488281</ele>
        <time>2022-10-30T11:01:35.000Z</time>
      </trkpt>
      <trkpt lat="48.01095" lon="6.98522">
        <ele>1188.5999755859</ele>
        <time>2022-10-30T11:01:41.000Z</time>
      </trkpt>
      <trkpt lat="48.01094" lon="6.98525">
        <ele>1188.5999755859</ele>
        <time>2022-10-30T11:01:43.000Z</time>
      </trkpt>
      <trkpt lat="48.0109" lon="6.98529">
        <ele>1188.4000244141</ele>
        <time>2022-10-30T11:01:48.000Z</time>
      </trkpt>
      <trkpt lat="48.0109" lon="6.9853">
        <ele>1190</ele>
        <time>2022-10-30T11:01:49.000Z</time>
      </trkpt>
      <trkpt lat="48.01089" lon="6.9853">
        <ele>1190</ele>
        <time>2022-10-30T11:01:50.000Z</time>
      </trkpt>
      <trkpt lat="48.0109" lon="6.98532">
        <ele>1190</ele>
        <time>2022-10-30T11:01:54.000Z</time>
      </trkpt>
      <trkpt lat="48.01086" lon="6.9854">
        <ele>1190.4000244141</ele>
        <time>2022-10-30T11:02:02.000Z</time>
      </trkpt>
      <trkpt lat="48.01083" lon="6.98545">
        <ele>1190.8000488281</ele>
        <time>2022-10-30T11:02:09.000Z</time>
      </trkpt>
      <trkpt lat="48.01082" lon="6.98544">
        <ele>1191</ele>
        <time>2022-10-30T11:02:10.000Z</time>
      </trkpt>
      <trkpt lat="48.01082" lon="6.98544">
        <ele>1191</ele>
        <time>2022-10-30T11:02:11.000Z</time>
      </trkpt>
      <trkpt lat="48.01083" lon="6.98544">
        <ele>1191</ele>
        <time>2022-10-30T11:02:14.000Z</time>
      </trkpt>
      <trkpt lat="48.01083" lon="6.98542">
        <ele>1191.1999511719</ele>
        <time>2022-10-30T11:02:16.000Z</time>
      </trkpt>
      <trkpt lat="48.01082" lon="6.98539">
        <ele>1191.1999511719</ele>
        <time>2022-10-30T11:02:21.000Z</time>
      </trkpt>
      <trkpt lat="48.01082" lon="6.98539">
        <ele>1191.1999511719</ele>
        <time>2022-10-30T11:02:29.000Z</time>
      </trkpt>
      <trkpt lat="48.01082" lon="6.98539">
        <ele>1191</ele>
        <time>2022-10-30T11:02:34.000Z</time>
      </trkpt>
      <trkpt lat="48.01083" lon="6.98539">
        <ele>1190.8000488281</ele>
        <time>2022-10-30T11:02:37.000Z</time>
      </trkpt>
      <trkpt lat="48.01084" lon="6.98544">
        <ele>1191.1999511719</ele>
        <time>2022-10-30T11:02:57.000Z</time>
      </trkpt>
      <trkpt lat="48.01081" lon="6.98549">
        <ele>1191.8000488281</ele>
        <time>2022-10-30T11:03:06.000Z</time>
      </trkpt>
      <trkpt lat="48.01078" lon="6.98552">
        <ele>1192</ele>
        <time>2022-10-30T11:03:08.000Z</time>
      </trkpt>
      <trkpt lat="48.01074" lon="6.98557">
        <ele>1192.1999511719</ele>
        <time>2022-10-30T11:03:11.000Z</time>
      </trkpt>
      <trkpt lat="48.0107" lon="6.98563">
        <ele>1192.1999511719</ele>
        <time>2022-10-30T11:03:14.000Z</time>
      </trkpt>
      <trkpt lat="48.01067" lon="6.98569">
        <ele>1192.1999511719</ele>
        <time>2022-10-30T11:03:20.000Z</time>
      </trkpt>
      <trkpt lat="48.01065" lon="6.98568">
        <ele>1193</ele>
        <time>2022-10-30T11:03:26.000Z</time>
      </trkpt>
      <trkpt lat="48.01065" lon="6.98568">
        <ele>1193.4000244141</ele>
        <time>2022-10-30T11:03:27.000Z</time>
      </trkpt>
      <trkpt lat="48.01063" lon="6.9857">
        <ele>1194.1999511719</ele>
        <time>2022-10-30T11:03:31.000Z</time>
      </trkpt>
      <trkpt lat="48.01063" lon="6.98572">
        <ele>1194.8000488281</ele>
        <time>2022-10-30T11:03:33.000Z</time>
      </trkpt>
      <trkpt lat="48.01063" lon="6.98572">
        <ele>1195</ele>
        <time>2022-10-30T11:03:34.000Z</time>
      </trkpt>
      <trkpt lat="48.01063" lon="6.98572">
        <ele>1195.1999511719</ele>
        <time>2022-10-30T11:03:35.000Z</time>
      </trkpt>
      <trkpt lat="48.01063" lon="6.98573">
        <ele>1195.4000244141</ele>
        <time>2022-10-30T11:03:37.000Z</time>
      </trkpt>
      <trkpt lat="48.01063" lon="6.98575">
        <ele>1195.8000488281</ele>
        <time>2022-10-30T11:03:40.000Z</time>
      </trkpt>
      <trkpt lat="48.01063" lon="6.98576">
        <ele>1196.1999511719</ele>
        <time>2022-10-30T11:03:44.000Z</time>
      </trkpt>
      <trkpt lat="48.01063" lon="6.98576">
        <ele>1197.4000244141</ele>
        <time>2022-10-30T11:03:57.000Z</time>
      </trkpt>
      <trkpt lat="48.01062" lon="6.98577">
        <ele>1197.8000488281</ele>
        <time>2022-10-30T11:03:59.000Z</time>
      </trkpt>
      <trkpt lat="48.01059" lon="6.98582">
        <ele>1198</ele>
        <time>2022-10-30T11:04:02.000Z</time>
      </trkpt>
      <trkpt lat="48.01056" lon="6.98587">
        <ele>1198.4000244141</ele>
        <time>2022-10-30T11:04:06.000Z</time>
      </trkpt>
      <trkpt lat="48.01055" lon="6.98587">
        <ele>1198.5999755859</ele>
        <time>2022-10-30T11:04:07.000Z</time>
      </trkpt>
      <trkpt lat="48.01052" lon="6.98591">
        <ele>1199.4000244141</ele>
        <time>2022-10-30T11:04:15.000Z</time>
      </trkpt>
      <trkpt lat="48.01051" lon="6.98591">
        <ele>1199.5999755859</ele>
        <time>2022-10-30T11:04:16.000Z</time>
      </trkpt>
      <trkpt lat="48.0105" lon="6.98594">
        <ele>1199.4000244141</ele>
        <time>2022-10-30T11:04:22.000Z</time>
      </trkpt>
      <trkpt lat="48.01046" lon="6.98602">
        <ele>1199.5999755859</ele>
        <time>2022-10-30T11:04:29.000Z</time>
      </trkpt>
      <trkpt lat="48.01041" lon="6.98605">
        <ele>1199.8000488281</ele>
        <time>2022-10-30T11:04:35.000Z</time>
      </trkpt>
      <trkpt lat="48.01034" lon="6.98607">
        <ele>1200.1999511719</ele>
        <time>2022-10-30T11:04:41.000Z</time>
      </trkpt>
      <trkpt lat="48.01032" lon="6.98609">
        <ele>1200</ele>
        <time>2022-10-30T11:04:43.000Z</time>
      </trkpt>
      <trkpt lat="48.01028" lon="6.98612">
        <ele>1199.4000244141</ele>
        <time>2022-10-30T11:04:48.000Z</time>
      </trkpt>
      <trkpt lat="48.01025" lon="6.98617">
        <ele>1199</ele>
        <time>2022-10-30T11:04:51.000Z</time>
      </trkpt>
      <trkpt lat="48.01017" lon="6.98618">
        <ele>1198.5999755859</ele>
        <time>2022-10-30T11:04:58.000Z</time>
      </trkpt>
      <trkpt lat="48.01009" lon="6.98624">
        <ele>1199.5999755859</ele>
        <time>2022-10-30T11:05:07.000Z</time>
      </trkpt>
      <trkpt lat="48.01004" lon="6.98625">
        <ele>1200.1999511719</ele>
        <time>2022-10-30T11:05:12.000Z</time>
      </trkpt>
      <trkpt lat="48.01002" lon="6.98626">
        <ele>1200.1999511719</ele>
        <time>2022-10-30T11:05:14.000Z</time>
      </trkpt>
      <trkpt lat="48.01001" lon="6.98629">
        <ele>1200</ele>
        <time>2022-10-30T11:05:17.000Z</time>
      </trkpt>
      <trkpt lat="48.00999" lon="6.98634">
        <ele>1199.8000488281</ele>
        <time>2022-10-30T11:05:24.000Z</time>
      </trkpt>
      <trkpt lat="48.00995" lon="6.98638">
        <ele>1199.5999755859</ele>
        <time>2022-10-30T11:05:29.000Z</time>
      </trkpt>
      <trkpt lat="48.00987" lon="6.98646">
        <ele>1199.5999755859</ele>
        <time>2022-10-30T11:05:35.000Z</time>
      </trkpt>
      <trkpt lat="48.00985" lon="6.98647">
        <ele>1199.5999755859</ele>
        <time>2022-10-30T11:05:40.000Z</time>
      </trkpt>
      <trkpt lat="48.00983" lon="6.9865">
        <ele>1199.5999755859</ele>
        <time>2022-10-30T11:05:42.000Z</time>
      </trkpt>
      <trkpt lat="48.00982" lon="6.98652">
        <ele>1199.5999755859</ele>
        <time>2022-10-30T11:05:43.000Z</time>
      </trkpt>
      <trkpt lat="48.00982" lon="6.98653">
        <ele>1199.5999755859</ele>
        <time>2022-10-30T11:05:44.000Z</time>
      </trkpt>
      <trkpt lat="48.00982" lon="6.98654">
        <ele>1199.5999755859</ele>
        <time>2022-10-30T11:05:45.000Z</time>
      </trkpt>
      <trkpt lat="48.00979" lon="6.9866">
        <ele>1199.5999755859</ele>
        <time>2022-10-30T11:05:49.000Z</time>
      </trkpt>
      <trkpt lat="48.00978" lon="6.98661">
        <ele>1199.5999755859</ele>
        <time>2022-10-30T11:05:51.000Z</time>
      </trkpt>
      <trkpt lat="48.00978" lon="6.98662">
        <ele>1199.5999755859</ele>
        <time>2022-10-30T11:05:52.000Z</time>
      </trkpt>
      <trkpt lat="48.00976" lon="6.98666">
        <ele>1199.5999755859</ele>
        <time>2022-10-30T11:05:54.000Z</time>
      </trkpt>
      <trkpt lat="48.00975" lon="6.98667">
        <ele>1199.5999755859</ele>
        <time>2022-10-30T11:05:55.000Z</time>
      </trkpt>
      <trkpt lat="48.00975" lon="6.98666">
        <ele>1199.5999755859</ele>
        <time>2022-10-30T11:05:57.000Z</time>
      </trkpt>
      <trkpt lat="48.00975" lon="6.98668">
        <ele>1199.5999755859</ele>
        <time>2022-10-30T11:06:01.000Z</time>
      </trkpt>
      <trkpt lat="48.00973" lon="6.98672">
        <ele>1199.5999755859</ele>
        <time>2022-10-30T11:06:04.000Z</time>
      </trkpt>
      <trkpt lat="48.00972" lon="6.98673">
        <ele>1199.5999755859</ele>
        <time>2022-10-30T11:06:05.000Z</time>
      </trkpt>
      <trkpt lat="48.00972" lon="6.98673">
        <ele>1199.5999755859</ele>
        <time>2022-10-30T11:06:06.000Z</time>
      </trkpt>
      <trkpt lat="48.00971" lon="6.98674">
        <ele>1199.5999755859</ele>
        <time>2022-10-30T11:06:08.000Z</time>
      </trkpt>
      <trkpt lat="48.0097" lon="6.98674">
        <ele>1199.5999755859</ele>
        <time>2022-10-30T11:06:09.000Z</time>
      </trkpt>
      <trkpt lat="48.00965" lon="6.98675">
        <ele>1199.5999755859</ele>
        <time>2022-10-30T11:06:13.000Z</time>
      </trkpt>
      <trkpt lat="48.00963" lon="6.98675">
        <ele>1199.5999755859</ele>
        <time>2022-10-30T11:06:16.000Z</time>
      </trkpt>
      <trkpt lat="48.00961" lon="6.98673">
        <ele>1199.5999755859</ele>
        <time>2022-10-30T11:06:22.000Z</time>
      </trkpt>
      <trkpt lat="48.00955" lon="6.98678">
        <ele>1199.5999755859</ele>
        <time>2022-10-30T11:06:30.000Z</time>
      </trkpt>
      <trkpt lat="48.00955" lon="6.98676">
        <ele>1199.5999755859</ele>
        <time>2022-10-30T11:06:35.000Z</time>
      </trkpt>
      <trkpt lat="48.00955" lon="6.98676">
        <ele>1199.5999755859</ele>
        <time>2022-10-30T11:06:39.000Z</time>
      </trkpt>
      <trkpt lat="48.00956" lon="6.98675">
        <ele>1199.5999755859</ele>
        <time>2022-10-30T11:06:46.000Z</time>
      </trkpt>
      <trkpt lat="48.00956" lon="6.98675">
        <ele>1199.5999755859</ele>
        <time>2022-10-30T11:06:50.000Z</time>
      </trkpt>
      <trkpt lat="48.00955" lon="6.98676">
        <ele>1199.5999755859</ele>
        <time>2022-10-30T11:06:58.000Z</time>
      </trkpt>
      <trkpt lat="48.00955" lon="6.98676">
        <ele>1199.5999755859</ele>
        <time>2022-10-30T11:07:01.000Z</time>
      </trkpt>
      <trkpt lat="48.00956" lon="6.98676">
        <ele>1199.5999755859</ele>
        <time>2022-10-30T11:07:30.000Z</time>
      </trkpt>
      <trkpt lat="48.00954" lon="6.98676">
        <ele>1199.5999755859</ele>
        <time>2022-10-30T11:07:42.000Z</time>
      </trkpt>
      <trkpt lat="48.00946" lon="6.9868">
        <ele>1199.5999755859</ele>
        <time>2022-10-30T11:07:54.000Z</time>
      </trkpt>
      <trkpt lat="48.0094" lon="6.98685">
        <ele>1199.5999755859</ele>
        <time>2022-10-30T11:08:01.000Z</time>
      </trkpt>
      <trkpt lat="48.00934" lon="6.98691">
        <ele>1199.5999755859</ele>
        <time>2022-10-30T11:08:08.000Z</time>
      </trkpt>
      <trkpt lat="48.00932" lon="6.9869">
        <ele>1199.5999755859</ele>
        <time>2022-10-30T11:08:15.000Z</time>
      </trkpt>
      <trkpt lat="48.00932" lon="6.9869">
        <ele>1199.5999755859</ele>
        <time>2022-10-30T11:08:21.000Z</time>
      </trkpt>
      <trkpt lat="48.00935" lon="6.98686">
        <ele>1193.8000488281</ele>
        <time>2022-10-30T11:08:28.000Z</time>
      </trkpt>
      <trkpt lat="48.00937" lon="6.98684">
        <ele>1193.8000488281</ele>
        <time>2022-10-30T11:08:31.000Z</time>
      </trkpt>
      <trkpt lat="48.0094" lon="6.98684">
        <ele>1192.5999755859</ele>
        <time>2022-10-30T11:08:38.000Z</time>
      </trkpt>
      <trkpt lat="48.00943" lon="6.98685">
        <ele>1192</ele>
        <time>2022-10-30T11:08:43.000Z</time>
      </trkpt>
      <trkpt lat="48.00946" lon="6.98685">
        <ele>1192</ele>
        <time>2022-10-30T11:08:45.000Z</time>
      </trkpt>
      <trkpt lat="48.00946" lon="6.98686">
        <ele>1192</ele>
        <time>2022-10-30T11:08:48.000Z</time>
      </trkpt>
      <trkpt lat="48.00945" lon="6.98686">
        <ele>1192</ele>
        <time>2022-10-30T11:08:50.000Z</time>
      </trkpt>
      <trkpt lat="48.00945" lon="6.98686">
        <ele>1192</ele>
        <time>2022-10-30T11:08:51.000Z</time>
      </trkpt>
      <trkpt lat="48.00946" lon="6.98686">
        <ele>1191.8000488281</ele>
        <time>2022-10-30T11:08:53.000Z</time>
      </trkpt>
      <trkpt lat="48.0095" lon="6.9869">
        <ele>1191.8000488281</ele>
        <time>2022-10-30T11:09:00.000Z</time>
      </trkpt>
      <trkpt lat="48.00949" lon="6.98692">
        <ele>1191.5999755859</ele>
        <time>2022-10-30T11:09:06.000Z</time>
      </trkpt>
      <trkpt lat="48.00948" lon="6.98693">
        <ele>1191.5999755859</ele>
        <time>2022-10-30T11:09:10.000Z</time>
      </trkpt>
      <trkpt lat="48.00947" lon="6.98693">
        <ele>1191.4000244141</ele>
        <time>2022-10-30T11:09:12.000Z</time>
      </trkpt>
      <trkpt lat="48.00947" lon="6.98693">
        <ele>1190.4000244141</ele>
        <time>2022-10-30T11:09:20.000Z</time>
      </trkpt>
      <trkpt lat="48.00946" lon="6.98694">
        <ele>1189.1999511719</ele>
        <time>2022-10-30T11:09:29.000Z</time>
      </trkpt>
      <trkpt lat="48.00944" lon="6.98695">
        <ele>1188.1999511719</ele>
        <time>2022-10-30T11:09:35.000Z</time>
      </trkpt>
      <trkpt lat="48.00943" lon="6.98696">
        <ele>1188</ele>
        <time>2022-10-30T11:09:37.000Z</time>
      </trkpt>
      <trkpt lat="48.00939" lon="6.98708">
        <ele>1187.1999511719</ele>
        <time>2022-10-30T11:09:45.000Z</time>
      </trkpt>
      <trkpt lat="48.00938" lon="6.9871">
        <ele>1187</ele>
        <time>2022-10-30T11:09:46.000Z</time>
      </trkpt>
      <trkpt lat="48.00933" lon="6.98717">
        <ele>1186.4000244141</ele>
        <time>2022-10-30T11:09:52.000Z</time>
      </trkpt>
      <trkpt lat="48.00931" lon="6.98717">
        <ele>1186</ele>
        <time>2022-10-30T11:09:59.000Z</time>
      </trkpt>
      <trkpt lat="48.0093" lon="6.9872">
        <ele>1186</ele>
        <time>2022-10-30T11:10:05.000Z</time>
      </trkpt>
      <trkpt lat="48.00927" lon="6.98721">
        <ele>1185.8000488281</ele>
        <time>2022-10-30T11:10:09.000Z</time>
      </trkpt>
      <trkpt lat="48.00929" lon="6.98722">
        <ele>1185.4000244141</ele>
        <time>2022-10-30T11:10:15.000Z</time>
      </trkpt>
      <trkpt lat="48.00928" lon="6.98721">
        <ele>1185</ele>
        <time>2022-10-30T11:10:19.000Z</time>
      </trkpt>
      <trkpt lat="48.00927" lon="6.98722">
        <ele>1184.5999755859</ele>
        <time>2022-10-30T11:10:21.000Z</time>
      </trkpt>
      <trkpt lat="48.00929" lon="6.98726">
        <ele>1183.8000488281</ele>
        <time>2022-10-30T11:10:27.000Z</time>
      </trkpt>
      <trkpt lat="48.00929" lon="6.98727">
        <ele>1183.5999755859</ele>
        <time>2022-10-30T11:10:28.000Z</time>
      </trkpt>
      <trkpt lat="48.0093" lon="6.9873">
        <ele>1183.4000244141</ele>
        <time>2022-10-30T11:10:30.000Z</time>
      </trkpt>
      <trkpt lat="48.00932" lon="6.98732">
        <ele>1183</ele>
        <time>2022-10-30T11:10:33.000Z</time>
      </trkpt>
      <trkpt lat="48.00931" lon="6.98733">
        <ele>1182.8000488281</ele>
        <time>2022-10-30T11:10:34.000Z</time>
      </trkpt>
      <trkpt lat="48.0093" lon="6.98735">
        <ele>1182</ele>
        <time>2022-10-30T11:10:39.000Z</time>
      </trkpt>
      <trkpt lat="48.00931" lon="6.98734">
        <ele>1181.5999755859</ele>
        <time>2022-10-30T11:10:42.000Z</time>
      </trkpt>
      <trkpt lat="48.00933" lon="6.98734">
        <ele>1181.4000244141</ele>
        <time>2022-10-30T11:10:45.000Z</time>
      </trkpt>
      <trkpt lat="48.00933" lon="6.98739">
        <ele>1180.4000244141</ele>
        <time>2022-10-30T11:10:50.000Z</time>
      </trkpt>
      <trkpt lat="48.00933" lon="6.98744">
        <ele>1179.4000244141</ele>
        <time>2022-10-30T11:10:55.000Z</time>
      </trkpt>
      <trkpt lat="48.00933" lon="6.98744">
        <ele>1179.4000244141</ele>
        <time>2022-10-30T11:10:56.000Z</time>
      </trkpt>
      <trkpt lat="48.00932" lon="6.98751">
        <ele>1178.5999755859</ele>
        <time>2022-10-30T11:11:02.000Z</time>
      </trkpt>
      <trkpt lat="48.0093" lon="6.98753">
        <ele>1178</ele>
        <time>2022-10-30T11:11:03.000Z</time>
      </trkpt>
      <trkpt lat="48.00929" lon="6.98757">
        <ele>1177.4000244141</ele>
        <time>2022-10-30T11:11:07.000Z</time>
      </trkpt>
      <trkpt lat="48.00927" lon="6.9876">
        <ele>1177.1999511719</ele>
        <time>2022-10-30T11:11:09.000Z</time>
      </trkpt>
      <trkpt lat="48.00925" lon="6.98763">
        <ele>1176.8000488281</ele>
        <time>2022-10-30T11:11:11.000Z</time>
      </trkpt>
      <trkpt lat="48.00925" lon="6.98764">
        <ele>1176.5999755859</ele>
        <time>2022-10-30T11:11:12.000Z</time>
      </trkpt>
      <trkpt lat="48.00925" lon="6.98765">
        <ele>1176.4000244141</ele>
        <time>2022-10-30T11:11:13.000Z</time>
      </trkpt>
      <trkpt lat="48.00924" lon="6.98767">
        <ele>1176.1999511719</ele>
        <time>2022-10-30T11:11:14.000Z</time>
      </trkpt>
      <trkpt lat="48.00924" lon="6.98768">
        <ele>1176</ele>
        <time>2022-10-30T11:11:15.000Z</time>
      </trkpt>
      <trkpt lat="48.00923" lon="6.98772">
        <ele>1175.8000488281</ele>
        <time>2022-10-30T11:11:18.000Z</time>
      </trkpt>
      <trkpt lat="48.00924" lon="6.98773">
        <ele>1175.5999755859</ele>
        <time>2022-10-30T11:11:19.000Z</time>
      </trkpt>
      <trkpt lat="48.00923" lon="6.98774">
        <ele>1175.5999755859</ele>
        <time>2022-10-30T11:11:20.000Z</time>
      </trkpt>
      <trkpt lat="48.00924" lon="6.9878">
        <ele>1174.8000488281</ele>
        <time>2022-10-30T11:11:25.000Z</time>
      </trkpt>
      <trkpt lat="48.00924" lon="6.9878">
        <ele>1174.4000244141</ele>
        <time>2022-10-30T11:11:26.000Z</time>
      </trkpt>
      <trkpt lat="48.00923" lon="6.98784">
        <ele>1174</ele>
        <time>2022-10-30T11:11:30.000Z</time>
      </trkpt>
      <trkpt lat="48.00923" lon="6.98789">
        <ele>1174</ele>
        <time>2022-10-30T11:11:32.000Z</time>
      </trkpt>
      <trkpt lat="48.00923" lon="6.98793">
        <ele>1173.5999755859</ele>
        <time>2022-10-30T11:11:35.000Z</time>
      </trkpt>
      <trkpt lat="48.00921" lon="6.98796">
        <ele>1173.4000244141</ele>
        <time>2022-10-30T11:11:37.000Z</time>
      </trkpt>
      <trkpt lat="48.00918" lon="6.98802">
        <ele>1173</ele>
        <time>2022-10-30T11:11:41.000Z</time>
      </trkpt>
      <trkpt lat="48.00915" lon="6.98806">
        <ele>1172.8000488281</ele>
        <time>2022-10-30T11:11:44.000Z</time>
      </trkpt>
      <trkpt lat="48.00914" lon="6.98808">
        <ele>1172.8000488281</ele>
        <time>2022-10-30T11:11:45.000Z</time>
      </trkpt>
      <trkpt lat="48.00912" lon="6.9881">
        <ele>1172.8000488281</ele>
        <time>2022-10-30T11:11:48.000Z</time>
      </trkpt>
      <trkpt lat="48.0091" lon="6.98811">
        <ele>1172.8000488281</ele>
        <time>2022-10-30T11:11:49.000Z</time>
      </trkpt>
      <trkpt lat="48.00906" lon="6.98814">
        <ele>1173.5999755859</ele>
        <time>2022-10-30T11:11:53.000Z</time>
      </trkpt>
      <trkpt lat="48.00905" lon="6.98815">
        <ele>1174</ele>
        <time>2022-10-30T11:11:58.000Z</time>
      </trkpt>
      <trkpt lat="48.00902" lon="6.98819">
        <ele>1174.5999755859</ele>
        <time>2022-10-30T11:12:02.000Z</time>
      </trkpt>
      <trkpt lat="48.00902" lon="6.98819">
        <ele>1174.5999755859</ele>
        <time>2022-10-30T11:12:03.000Z</time>
      </trkpt>
      <trkpt lat="48.00902" lon="6.9882">
        <ele>1174.8000488281</ele>
        <time>2022-10-30T11:12:05.000Z</time>
      </trkpt>
      <trkpt lat="48.00903" lon="6.98821">
        <ele>1175.1999511719</ele>
        <time>2022-10-30T11:12:08.000Z</time>
      </trkpt>
      <trkpt lat="48.00902" lon="6.98822">
        <ele>1175.1999511719</ele>
        <time>2022-10-30T11:12:11.000Z</time>
      </trkpt>
      <trkpt lat="48.00901" lon="6.98822">
        <ele>1175.1999511719</ele>
        <time>2022-10-30T11:12:12.000Z</time>
      </trkpt>
      <trkpt lat="48.00901" lon="6.9882">
        <ele>1175.1999511719</ele>
        <time>2022-10-30T11:12:18.000Z</time>
      </trkpt>
      <trkpt lat="48.00902" lon="6.98828">
        <ele>1173.5999755859</ele>
        <time>2022-10-30T11:12:25.000Z</time>
      </trkpt>
      <trkpt lat="48.00901" lon="6.98831">
        <ele>1173</ele>
        <time>2022-10-30T11:12:31.000Z</time>
      </trkpt>
      <trkpt lat="48.009" lon="6.98831">
        <ele>1172.8000488281</ele>
        <time>2022-10-30T11:12:32.000Z</time>
      </trkpt>
      <trkpt lat="48.00899" lon="6.98829">
        <ele>1172.5999755859</ele>
        <time>2022-10-30T11:12:34.000Z</time>
      </trkpt>
      <trkpt lat="48.00898" lon="6.98827">
        <ele>1172.5999755859</ele>
        <time>2022-10-30T11:12:35.000Z</time>
      </trkpt>
      <trkpt lat="48.00897" lon="6.98825">
        <ele>1172.4000244141</ele>
        <time>2022-10-30T11:12:39.000Z</time>
      </trkpt>
      <trkpt lat="48.00894" lon="6.98827">
        <ele>1172.5999755859</ele>
        <time>2022-10-30T11:12:44.000Z</time>
      </trkpt>
      <trkpt lat="48.00895" lon="6.98828">
        <ele>1172.1999511719</ele>
        <time>2022-10-30T11:12:49.000Z</time>
      </trkpt>
      <trkpt lat="48.00895" lon="6.98827">
        <ele>1172.1999511719</ele>
        <time>2022-10-30T11:12:51.000Z</time>
      </trkpt>
      <trkpt lat="48.00889" lon="6.98838">
        <ele>1172.1999511719</ele>
        <time>2022-10-30T11:13:18.000Z</time>
      </trkpt>
      <trkpt lat="48.00887" lon="6.98846">
        <ele>1173.1999511719</ele>
        <time>2022-10-30T11:13:23.000Z</time>
      </trkpt>
      <trkpt lat="48.00885" lon="6.98851">
        <ele>1173.5999755859</ele>
        <time>2022-10-30T11:13:26.000Z</time>
      </trkpt>
      <trkpt lat="48.00882" lon="6.98859">
        <ele>1174.4000244141</ele>
        <time>2022-10-30T11:13:31.000Z</time>
      </trkpt>
      <trkpt lat="48.00881" lon="6.98861">
        <ele>1174.5999755859</ele>
        <time>2022-10-30T11:13:33.000Z</time>
      </trkpt>
      <trkpt lat="48.00879" lon="6.98862">
        <ele>1174.8000488281</ele>
        <time>2022-10-30T11:13:35.000Z</time>
      </trkpt>
      <trkpt lat="48.00876" lon="6.98866">
        <ele>1175</ele>
        <time>2022-10-30T11:13:37.000Z</time>
      </trkpt>
      <trkpt lat="48.00877" lon="6.98868">
        <ele>1175.5999755859</ele>
        <time>2022-10-30T11:13:40.000Z</time>
      </trkpt>
      <trkpt lat="48.00879" lon="6.98872">
        <ele>1176.1999511719</ele>
        <time>2022-10-30T11:13:45.000Z</time>
      </trkpt>
      <trkpt lat="48.0088" lon="6.98873">
        <ele>1176</ele>
        <time>2022-10-30T11:13:46.000Z</time>
      </trkpt>
      <trkpt lat="48.00878" lon="6.98877">
        <ele>1175.5999755859</ele>
        <time>2022-10-30T11:13:53.000Z</time>
      </trkpt>
      <trkpt lat="48.00876" lon="6.98885">
        <ele>1174.8000488281</ele>
        <time>2022-10-30T11:13:59.000Z</time>
      </trkpt>
      <trkpt lat="48.00876" lon="6.98886">
        <ele>1174.5999755859</ele>
        <time>2022-10-30T11:14:01.000Z</time>
      </trkpt>
      <trkpt lat="48.00875" lon="6.98888">
        <ele>1174.4000244141</ele>
        <time>2022-10-30T11:14:05.000Z</time>
      </trkpt>
      <trkpt lat="48.00875" lon="6.98888">
        <ele>1173.8000488281</ele>
        <time>2022-10-30T11:14:11.000Z</time>
      </trkpt>
      <trkpt lat="48.00875" lon="6.98886">
        <ele>1173.5999755859</ele>
        <time>2022-10-30T11:14:14.000Z</time>
      </trkpt>
      <trkpt lat="48.00874" lon="6.98887">
        <ele>1173</ele>
        <time>2022-10-30T11:14:19.000Z</time>
      </trkpt>
      <trkpt lat="48.00874" lon="6.98886">
        <ele>1172.4000244141</ele>
        <time>2022-10-30T11:14:37.000Z</time>
      </trkpt>
      <trkpt lat="48.00874" lon="6.98885">
        <ele>1171.4000244141</ele>
        <time>2022-10-30T11:14:41.000Z</time>
      </trkpt>
      <trkpt lat="48.00875" lon="6.98881">
        <ele>1170.1999511719</ele>
        <time>2022-10-30T11:14:51.000Z</time>
      </trkpt>
      <trkpt lat="48.00875" lon="6.98881">
        <ele>1169.8000488281</ele>
        <time>2022-10-30T11:14:55.000Z</time>
      </trkpt>
      <trkpt lat="48.00876" lon="6.98881">
        <ele>1169.1999511719</ele>
        <time>2022-10-30T11:15:00.000Z</time>
      </trkpt>
      <trkpt lat="48.00878" lon="6.98887">
        <ele>1168.4000244141</ele>
        <time>2022-10-30T11:15:11.000Z</time>
      </trkpt>
      <trkpt lat="48.00879" lon="6.98888">
        <ele>1168</ele>
        <time>2022-10-30T11:15:14.000Z</time>
      </trkpt>
      <trkpt lat="48.00879" lon="6.98894">
        <ele>1167</ele>
        <time>2022-10-30T11:15:24.000Z</time>
      </trkpt>
      <trkpt lat="48.00879" lon="6.98903">
        <ele>1165.8000488281</ele>
        <time>2022-10-30T11:15:33.000Z</time>
      </trkpt>
      <trkpt lat="48.00877" lon="6.98918">
        <ele>1165.1999511719</ele>
        <time>2022-10-30T11:15:41.000Z</time>
      </trkpt>
      <trkpt lat="48.00875" lon="6.98925">
        <ele>1164.8000488281</ele>
        <time>2022-10-30T11:15:44.000Z</time>
      </trkpt>
      <trkpt lat="48.00875" lon="6.98929">
        <ele>1164.4000244141</ele>
        <time>2022-10-30T11:15:47.000Z</time>
      </trkpt>
      <trkpt lat="48.00872" lon="6.98936">
        <ele>1163.5999755859</ele>
        <time>2022-10-30T11:15:52.000Z</time>
      </trkpt>
      <trkpt lat="48.00871" lon="6.98939">
        <ele>1163.4000244141</ele>
        <time>2022-10-30T11:15:54.000Z</time>
      </trkpt>
      <trkpt lat="48.00864" lon="6.98945">
        <ele>1162.5999755859</ele>
        <time>2022-10-30T11:16:01.000Z</time>
      </trkpt>
      <trkpt lat="48.00863" lon="6.98944">
        <ele>1162.5999755859</ele>
        <time>2022-10-30T11:16:02.000Z</time>
      </trkpt>
      <trkpt lat="48.00862" lon="6.98943">
        <ele>1162.4000244141</ele>
        <time>2022-10-30T11:16:03.000Z</time>
      </trkpt>
      <trkpt lat="48.00859" lon="6.98939">
        <ele>1161.5999755859</ele>
        <time>2022-10-30T11:16:06.000Z</time>
      </trkpt>
      <trkpt lat="48.00858" lon="6.98938">
        <ele>1161.4000244141</ele>
        <time>2022-10-30T11:16:07.000Z</time>
      </trkpt>
      <trkpt lat="48.00853" lon="6.98937">
        <ele>1161.1999511719</ele>
        <time>2022-10-30T11:16:11.000Z</time>
      </trkpt>
      <trkpt lat="48.00851" lon="6.98936">
        <ele>1161</ele>
        <time>2022-10-30T11:16:13.000Z</time>
      </trkpt>
      <trkpt lat="48.00848" lon="6.98933">
        <ele>1160.4000244141</ele>
        <time>2022-10-30T11:16:17.000Z</time>
      </trkpt>
      <trkpt lat="48.00845" lon="6.98931">
        <ele>1160.1999511719</ele>
        <time>2022-10-30T11:16:19.000Z</time>
      </trkpt>
      <trkpt lat="48.00842" lon="6.98925">
        <ele>1159.8000488281</ele>
        <time>2022-10-30T11:16:23.000Z</time>
      </trkpt>
      <trkpt lat="48.00839" lon="6.98925">
        <ele>1159.5999755859</ele>
        <time>2022-10-30T11:16:25.000Z</time>
      </trkpt>
      <trkpt lat="48.00838" lon="6.98925">
        <ele>1159.1999511719</ele>
        <time>2022-10-30T11:16:26.000Z</time>
      </trkpt>
      <trkpt lat="48.00837" lon="6.98924">
        <ele>1158.4000244141</ele>
        <time>2022-10-30T11:16:30.000Z</time>
      </trkpt>
      <trkpt lat="48.00839" lon="6.98924">
        <ele>1158</ele>
        <time>2022-10-30T11:16:32.000Z</time>
      </trkpt>
      <trkpt lat="48.00842" lon="6.98925">
        <ele>1157.4000244141</ele>
        <time>2022-10-30T11:16:35.000Z</time>
      </trkpt>
      <trkpt lat="48.00842" lon="6.98927">
        <ele>1157.1999511719</ele>
        <time>2022-10-30T11:16:36.000Z</time>
      </trkpt>
      <trkpt lat="48.00843" lon="6.98929">
        <ele>1157</ele>
        <time>2022-10-30T11:16:37.000Z</time>
      </trkpt>
      <trkpt lat="48.00845" lon="6.98934">
        <ele>1156.1999511719</ele>
        <time>2022-10-30T11:16:42.000Z</time>
      </trkpt>
      <trkpt lat="48.00845" lon="6.98935">
        <ele>1156</ele>
        <time>2022-10-30T11:16:44.000Z</time>
      </trkpt>
      <trkpt lat="48.00847" lon="6.98938">
        <ele>1155</ele>
        <time>2022-10-30T11:16:48.000Z</time>
      </trkpt>
      <trkpt lat="48.00848" lon="6.98939">
        <ele>1155</ele>
        <time>2022-10-30T11:16:49.000Z</time>
      </trkpt>
      <trkpt lat="48.0085" lon="6.98946">
        <ele>1154.1999511719</ele>
        <time>2022-10-30T11:16:56.000Z</time>
      </trkpt>
      <trkpt lat="48.00851" lon="6.98949">
        <ele>1154</ele>
        <time>2022-10-30T11:16:58.000Z</time>
      </trkpt>
      <trkpt lat="48.00852" lon="6.98955">
        <ele>1153.1999511719</ele>
        <time>2022-10-30T11:17:03.000Z</time>
      </trkpt>
      <trkpt lat="48.00852" lon="6.98953">
        <ele>1152.8000488281</ele>
        <time>2022-10-30T11:17:07.000Z</time>
      </trkpt>
      <trkpt lat="48.00854" lon="6.98956">
        <ele>1152.5999755859</ele>
        <time>2022-10-30T11:17:13.000Z</time>
      </trkpt>
      <trkpt lat="48.00859" lon="6.98964">
        <ele>1151.8000488281</ele>
        <time>2022-10-30T11:17:19.000Z</time>
      </trkpt>
      <trkpt lat="48.0086" lon="6.98966">
        <ele>1151.5999755859</ele>
        <time>2022-10-30T11:17:20.000Z</time>
      </trkpt>
      <trkpt lat="48.00863" lon="6.98971">
        <ele>1151</ele>
        <time>2022-10-30T11:17:25.000Z</time>
      </trkpt>
      <trkpt lat="48.00865" lon="6.98973">
        <ele>1151</ele>
        <time>2022-10-30T11:17:26.000Z</time>
      </trkpt>
      <trkpt lat="48.00866" lon="6.98974">
        <ele>1150.8000488281</ele>
        <time>2022-10-30T11:17:27.000Z</time>
      </trkpt>
      <trkpt lat="48.00867" lon="6.98975">
        <ele>1150.4000244141</ele>
        <time>2022-10-30T11:17:29.000Z</time>
      </trkpt>
      <trkpt lat="48.00868" lon="6.98977">
        <ele>1150.1999511719</ele>
        <time>2022-10-30T11:17:32.000Z</time>
      </trkpt>
      <trkpt lat="48.00872" lon="6.9898">
        <ele>1149.4000244141</ele>
        <time>2022-10-30T11:17:37.000Z</time>
      </trkpt>
      <trkpt lat="48.00873" lon="6.9898">
        <ele>1149.1999511719</ele>
        <time>2022-10-30T11:17:39.000Z</time>
      </trkpt>
      <trkpt lat="48.00875" lon="6.98978">
        <ele>1148.8000488281</ele>
        <time>2022-10-30T11:17:42.000Z</time>
      </trkpt>
      <trkpt lat="48.0088" lon="6.98976">
        <ele>1148.4000244141</ele>
        <time>2022-10-30T11:17:46.000Z</time>
      </trkpt>
      <trkpt lat="48.0088" lon="6.98976">
        <ele>1148.4000244141</ele>
        <time>2022-10-30T11:17:47.000Z</time>
      </trkpt>
      <trkpt lat="48.00883" lon="6.98975">
        <ele>1147.8000488281</ele>
        <time>2022-10-30T11:17:52.000Z</time>
      </trkpt>
      <trkpt lat="48.00885" lon="6.98973">
        <ele>1147.4000244141</ele>
        <time>2022-10-30T11:17:55.000Z</time>
      </trkpt>
      <trkpt lat="48.00888" lon="6.98971">
        <ele>1146.8000488281</ele>
        <time>2022-10-30T11:17:59.000Z</time>
      </trkpt>
      <trkpt lat="48.00889" lon="6.98966">
        <ele>1146.4000244141</ele>
        <time>2022-10-30T11:18:04.000Z</time>
      </trkpt>
      <trkpt lat="48.0089" lon="6.98965">
        <ele>1146.1999511719</ele>
        <time>2022-10-30T11:18:06.000Z</time>
      </trkpt>
      <trkpt lat="48.00894" lon="6.98961">
        <ele>1145.1999511719</ele>
        <time>2022-10-30T11:18:14.000Z</time>
      </trkpt>
      <trkpt lat="48.00895" lon="6.98961">
        <ele>1145</ele>
        <time>2022-10-30T11:18:15.000Z</time>
      </trkpt>
      <trkpt lat="48.00897" lon="6.98955">
        <ele>1144</ele>
        <time>2022-10-30T11:18:21.000Z</time>
      </trkpt>
      <trkpt lat="48.00897" lon="6.98954">
        <ele>1144</ele>
        <time>2022-10-30T11:18:22.000Z</time>
      </trkpt>
      <trkpt lat="48.00899" lon="6.98942">
        <ele>1143</ele>
        <time>2022-10-30T11:18:30.000Z</time>
      </trkpt>
      <trkpt lat="48.00899" lon="6.98941">
        <ele>1142.8000488281</ele>
        <time>2022-10-30T11:18:31.000Z</time>
      </trkpt>
      <trkpt lat="48.00901" lon="6.98932">
        <ele>1141.8000488281</ele>
        <time>2022-10-30T11:18:36.000Z</time>
      </trkpt>
      <trkpt lat="48.00901" lon="6.98928">
        <ele>1141.5999755859</ele>
        <time>2022-10-30T11:18:39.000Z</time>
      </trkpt>
      <trkpt lat="48.00901" lon="6.98924">
        <ele>1141.1999511719</ele>
        <time>2022-10-30T11:18:43.000Z</time>
      </trkpt>
      <trkpt lat="48.00902" lon="6.98921">
        <ele>1141</ele>
        <time>2022-10-30T11:18:45.000Z</time>
      </trkpt>
      <trkpt lat="48.00902" lon="6.98917">
        <ele>1141</ele>
        <time>2022-10-30T11:18:49.000Z</time>
      </trkpt>
      <trkpt lat="48.00901" lon="6.98916">
        <ele>1140.8000488281</ele>
        <time>2022-10-30T11:18:50.000Z</time>
      </trkpt>
      <trkpt lat="48.00903" lon="6.98914">
        <ele>1140.1999511719</ele>
        <time>2022-10-30T11:18:56.000Z</time>
      </trkpt>
      <trkpt lat="48.00903" lon="6.98912">
        <ele>1139.8000488281</ele>
        <time>2022-10-30T11:18:58.000Z</time>
      </trkpt>
      <trkpt lat="48.00904" lon="6.9891">
        <ele>1139.8000488281</ele>
        <time>2022-10-30T11:18:59.000Z</time>
      </trkpt>
      <trkpt lat="48.00907" lon="6.98905">
        <ele>1139.1999511719</ele>
        <time>2022-10-30T11:19:04.000Z</time>
      </trkpt>
      <trkpt lat="48.00909" lon="6.98902">
        <ele>1138.8000488281</ele>
        <time>2022-10-30T11:19:10.000Z</time>
      </trkpt>
      <trkpt lat="48.0091" lon="6.98901">
        <ele>1138.5999755859</ele>
        <time>2022-10-30T11:19:11.000Z</time>
      </trkpt>
      <trkpt lat="48.00913" lon="6.98902">
        <ele>1138.1999511719</ele>
        <time>2022-10-30T11:19:17.000Z</time>
      </trkpt>
      <trkpt lat="48.00914" lon="6.98905">
        <ele>1137.5999755859</ele>
        <time>2022-10-30T11:19:21.000Z</time>
      </trkpt>
      <trkpt lat="48.00916" lon="6.98908">
        <ele>1137</ele>
        <time>2022-10-30T11:19:24.000Z</time>
      </trkpt>
      <trkpt lat="48.00918" lon="6.9891">
        <ele>1136.4000244141</ele>
        <time>2022-10-30T11:19:28.000Z</time>
      </trkpt>
      <trkpt lat="48.00918" lon="6.98913">
        <ele>1136.1999511719</ele>
        <time>2022-10-30T11:19:30.000Z</time>
      </trkpt>
      <trkpt lat="48.00923" lon="6.98918">
        <ele>1135.1999511719</ele>
        <time>2022-10-30T11:19:36.000Z</time>
      </trkpt>
      <trkpt lat="48.00924" lon="6.98918">
        <ele>1135.1999511719</ele>
        <time>2022-10-30T11:19:37.000Z</time>
      </trkpt>
      <trkpt lat="48.00927" lon="6.98927">
        <ele>1134.1999511719</ele>
        <time>2022-10-30T11:19:43.000Z</time>
      </trkpt>
      <trkpt lat="48.00927" lon="6.98928">
        <ele>1134.1999511719</ele>
        <time>2022-10-30T11:19:44.000Z</time>
      </trkpt>
      <trkpt lat="48.00933" lon="6.98931">
        <ele>1133.4000244141</ele>
        <time>2022-10-30T11:19:51.000Z</time>
      </trkpt>
      <trkpt lat="48.00934" lon="6.98938">
        <ele>1133.1999511719</ele>
        <time>2022-10-30T11:19:56.000Z</time>
      </trkpt>
      <trkpt lat="48.00934" lon="6.9894">
        <ele>1133.1999511719</ele>
        <time>2022-10-30T11:19:58.000Z</time>
      </trkpt>
      <trkpt lat="48.00935" lon="6.98945">
        <ele>1132.5999755859</ele>
        <time>2022-10-30T11:20:01.000Z</time>
      </trkpt>
      <trkpt lat="48.00935" lon="6.98951">
        <ele>1132.1999511719</ele>
        <time>2022-10-30T11:20:05.000Z</time>
      </trkpt>
      <trkpt lat="48.00933" lon="6.98957">
        <ele>1132</ele>
        <time>2022-10-30T11:20:08.000Z</time>
      </trkpt>
      <trkpt lat="48.00932" lon="6.98959">
        <ele>1132</ele>
        <time>2022-10-30T11:20:09.000Z</time>
      </trkpt>
      <trkpt lat="48.00931" lon="6.98966">
        <ele>1132</ele>
        <time>2022-10-30T11:20:13.000Z</time>
      </trkpt>
      <trkpt lat="48.00931" lon="6.98972">
        <ele>1131.4000244141</ele>
        <time>2022-10-30T11:20:17.000Z</time>
      </trkpt>
      <trkpt lat="48.0093" lon="6.98975">
        <ele>1131</ele>
        <time>2022-10-30T11:20:19.000Z</time>
      </trkpt>
      <trkpt lat="48.00932" lon="6.98986">
        <ele>1130</ele>
        <time>2022-10-30T11:20:25.000Z</time>
      </trkpt>
      <trkpt lat="48.00933" lon="6.98988">
        <ele>1129.8000488281</ele>
        <time>2022-10-30T11:20:26.000Z</time>
      </trkpt>
      <trkpt lat="48.00933" lon="6.98989">
        <ele>1129.5999755859</ele>
        <time>2022-10-30T11:20:27.000Z</time>
      </trkpt>
      <trkpt lat="48.00932" lon="6.98993">
        <ele>1129.1999511719</ele>
        <time>2022-10-30T11:20:30.000Z</time>
      </trkpt>
      <trkpt lat="48.00932" lon="6.98995">
        <ele>1128.8000488281</ele>
        <time>2022-10-30T11:20:32.000Z</time>
      </trkpt>
      <trkpt lat="48.00933" lon="6.98998">
        <ele>1128.8000488281</ele>
        <time>2022-10-30T11:20:34.000Z</time>
      </trkpt>
      <trkpt lat="48.00932" lon="6.99001">
        <ele>1128.5999755859</ele>
        <time>2022-10-30T11:20:36.000Z</time>
      </trkpt>
      <trkpt lat="48.00932" lon="6.99004">
        <ele>1128</ele>
        <time>2022-10-30T11:20:39.000Z</time>
      </trkpt>
      <trkpt lat="48.00934" lon="6.9901">
        <ele>1127.8000488281</ele>
        <time>2022-10-30T11:20:42.000Z</time>
      </trkpt>
      <trkpt lat="48.00934" lon="6.99011">
        <ele>1127.4000244141</ele>
        <time>2022-10-30T11:20:43.000Z</time>
      </trkpt>
      <trkpt lat="48.00932" lon="6.99017">
        <ele>1127</ele>
        <time>2022-10-30T11:20:45.000Z</time>
      </trkpt>
      <trkpt lat="48.0093" lon="6.99021">
        <ele>1126.5999755859</ele>
        <time>2022-10-30T11:20:48.000Z</time>
      </trkpt>
      <trkpt lat="48.00928" lon="6.99025">
        <ele>1126.4000244141</ele>
        <time>2022-10-30T11:20:51.000Z</time>
      </trkpt>
      <trkpt lat="48.00927" lon="6.99031">
        <ele>1125.8000488281</ele>
        <time>2022-10-30T11:20:55.000Z</time>
      </trkpt>
      <trkpt lat="48.00926" lon="6.99033">
        <ele>1125.5999755859</ele>
        <time>2022-10-30T11:20:57.000Z</time>
      </trkpt>
      <trkpt lat="48.00923" lon="6.99038">
        <ele>1125.1999511719</ele>
        <time>2022-10-30T11:21:01.000Z</time>
      </trkpt>
      <trkpt lat="48.0092" lon="6.99045">
        <ele>1124.5999755859</ele>
        <time>2022-10-30T11:21:07.000Z</time>
      </trkpt>
      <trkpt lat="48.0092" lon="6.99048">
        <ele>1124</ele>
        <time>2022-10-30T11:21:13.000Z</time>
      </trkpt>
      <trkpt lat="48.00918" lon="6.99053">
        <ele>1123.5999755859</ele>
        <time>2022-10-30T11:21:18.000Z</time>
      </trkpt>
      <trkpt lat="48.00917" lon="6.99055">
        <ele>1123.4000244141</ele>
        <time>2022-10-30T11:21:19.000Z</time>
      </trkpt>
      <trkpt lat="48.00916" lon="6.99058">
        <ele>1123.1999511719</ele>
        <time>2022-10-30T11:21:20.000Z</time>
      </trkpt>
      <trkpt lat="48.00914" lon="6.99061">
        <ele>1123</ele>
        <time>2022-10-30T11:21:22.000Z</time>
      </trkpt>
      <trkpt lat="48.00911" lon="6.99064">
        <ele>1122.8000488281</ele>
        <time>2022-10-30T11:21:25.000Z</time>
      </trkpt>
      <trkpt lat="48.0091" lon="6.99066">
        <ele>1122.4000244141</ele>
        <time>2022-10-30T11:21:27.000Z</time>
      </trkpt>
      <trkpt lat="48.00909" lon="6.9907">
        <ele>1121.8000488281</ele>
        <time>2022-10-30T11:21:31.000Z</time>
      </trkpt>
      <trkpt lat="48.0091" lon="6.99071">
        <ele>1121.8000488281</ele>
        <time>2022-10-30T11:21:32.000Z</time>
      </trkpt>
      <trkpt lat="48.00909" lon="6.99077">
        <ele>1121.1999511719</ele>
        <time>2022-10-30T11:21:36.000Z</time>
      </trkpt>
      <trkpt lat="48.00908" lon="6.99078">
        <ele>1121</ele>
        <time>2022-10-30T11:21:37.000Z</time>
      </trkpt>
      <trkpt lat="48.00908" lon="6.9908">
        <ele>1120.5999755859</ele>
        <time>2022-10-30T11:21:39.000Z</time>
      </trkpt>
      <trkpt lat="48.00908" lon="6.99081">
        <ele>1120.1999511719</ele>
        <time>2022-10-30T11:21:41.000Z</time>
      </trkpt>
      <trkpt lat="48.00907" lon="6.99083">
        <ele>1119.8000488281</ele>
        <time>2022-10-30T11:21:43.000Z</time>
      </trkpt>
      <trkpt lat="48.00906" lon="6.99086">
        <ele>1119.5999755859</ele>
        <time>2022-10-30T11:21:45.000Z</time>
      </trkpt>
      <trkpt lat="48.00905" lon="6.99087">
        <ele>1119.4000244141</ele>
        <time>2022-10-30T11:21:46.000Z</time>
      </trkpt>
      <trkpt lat="48.00903" lon="6.99089">
        <ele>1119</ele>
        <time>2022-10-30T11:21:49.000Z</time>
      </trkpt>
      <trkpt lat="48.00904" lon="6.99089">
        <ele>1118.8000488281</ele>
        <time>2022-10-30T11:21:51.000Z</time>
      </trkpt>
      <trkpt lat="48.00905" lon="6.99087">
        <ele>1118</ele>
        <time>2022-10-30T11:21:56.000Z</time>
      </trkpt>
      <trkpt lat="48.00906" lon="6.99086">
        <ele>1117.8000488281</ele>
        <time>2022-10-30T11:21:57.000Z</time>
      </trkpt>
      <trkpt lat="48.00906" lon="6.99086">
        <ele>1117.8000488281</ele>
        <time>2022-10-30T11:21:58.000Z</time>
      </trkpt>
      <trkpt lat="48.00908" lon="6.99076">
        <ele>1116.8000488281</ele>
        <time>2022-10-30T11:22:04.000Z</time>
      </trkpt>
      <trkpt lat="48.00909" lon="6.99075">
        <ele>1116.5999755859</ele>
        <time>2022-10-30T11:22:05.000Z</time>
      </trkpt>
      <trkpt lat="48.0091" lon="6.99072">
        <ele>1116.4000244141</ele>
        <time>2022-10-30T11:22:07.000Z</time>
      </trkpt>
      <trkpt lat="48.00914" lon="6.99067">
        <ele>1115.8000488281</ele>
        <time>2022-10-30T11:22:13.000Z</time>
      </trkpt>
      <trkpt lat="48.00916" lon="6.99066">
        <ele>1115.1999511719</ele>
        <time>2022-10-30T11:22:16.000Z</time>
      </trkpt>
      <trkpt lat="48.00917" lon="6.99065">
        <ele>1115</ele>
        <time>2022-10-30T11:22:17.000Z</time>
      </trkpt>
      <trkpt lat="48.00918" lon="6.99064">
        <ele>1114.5999755859</ele>
        <time>2022-10-30T11:22:19.000Z</time>
      </trkpt>
      <trkpt lat="48.00921" lon="6.99061">
        <ele>1114.4000244141</ele>
        <time>2022-10-30T11:22:23.000Z</time>
      </trkpt>
      <trkpt lat="48.00922" lon="6.99058">
        <ele>1114.4000244141</ele>
        <time>2022-10-30T11:22:26.000Z</time>
      </trkpt>
      <trkpt lat="48.00925" lon="6.99054">
        <ele>1113.8000488281</ele>
        <time>2022-10-30T11:22:34.000Z</time>
      </trkpt>
      <trkpt lat="48.00926" lon="6.99053">
        <ele>1113.5999755859</ele>
        <time>2022-10-30T11:22:36.000Z</time>
      </trkpt>
      <trkpt lat="48.00928" lon="6.99055">
        <ele>1113.5999755859</ele>
        <time>2022-10-30T11:22:40.000Z</time>
      </trkpt>
      <trkpt lat="48.00928" lon="6.99055">
        <ele>1113.1999511719</ele>
        <time>2022-10-30T11:22:47.000Z</time>
      </trkpt>
      <trkpt lat="48.00928" lon="6.99055">
        <ele>1113.1999511719</ele>
        <time>2022-10-30T11:22:48.000Z</time>
      </trkpt>
      <trkpt lat="48.00929" lon="6.99054">
        <ele>1113</ele>
        <time>2022-10-30T11:22:49.000Z</time>
      </trkpt>
      <trkpt lat="48.00931" lon="6.99052">
        <ele>1112.8000488281</ele>
        <time>2022-10-30T11:22:54.000Z</time>
      </trkpt>
      <trkpt lat="48.00934" lon="6.99048">
        <ele>1112.4000244141</ele>
        <time>2022-10-30T11:23:02.000Z</time>
      </trkpt>
      <trkpt lat="48.00935" lon="6.99046">
        <ele>1112.4000244141</ele>
        <time>2022-10-30T11:23:04.000Z</time>
      </trkpt>
      <trkpt lat="48.00938" lon="6.99041">
        <ele>1111.8000488281</ele>
        <time>2022-10-30T11:23:10.000Z</time>
      </trkpt>
      <trkpt lat="48.00939" lon="6.99039">
        <ele>1111.4000244141</ele>
        <time>2022-10-30T11:23:12.000Z</time>
      </trkpt>
      <trkpt lat="48.00941" lon="6.99035">
        <ele>1111</ele>
        <time>2022-10-30T11:23:16.000Z</time>
      </trkpt>
      <trkpt lat="48.00943" lon="6.99029">
        <ele>1110.4000244141</ele>
        <time>2022-10-30T11:23:21.000Z</time>
      </trkpt>
      <trkpt lat="48.00944" lon="6.99026">
        <ele>1110.1999511719</ele>
        <time>2022-10-30T11:23:23.000Z</time>
      </trkpt>
      <trkpt lat="48.00947" lon="6.9902">
        <ele>1109.4000244141</ele>
        <time>2022-10-30T11:23:30.000Z</time>
      </trkpt>
      <trkpt lat="48.00949" lon="6.99019">
        <ele>1109.1999511719</ele>
        <time>2022-10-30T11:23:31.000Z</time>
      </trkpt>
      <trkpt lat="48.00953" lon="6.99013">
        <ele>1108.8000488281</ele>
        <time>2022-10-30T11:23:38.000Z</time>
      </trkpt>
      <trkpt lat="48.00959" lon="6.9901">
        <ele>1108.5999755859</ele>
        <time>2022-10-30T11:23:45.000Z</time>
      </trkpt>
      <trkpt lat="48.00961" lon="6.99012">
        <ele>1108.1999511719</ele>
        <time>2022-10-30T11:23:47.000Z</time>
      </trkpt>
      <trkpt lat="48.00963" lon="6.99017">
        <ele>1107.5999755859</ele>
        <time>2022-10-30T11:23:51.000Z</time>
      </trkpt>
      <trkpt lat="48.00962" lon="6.99027">
        <ele>1107</ele>
        <time>2022-10-30T11:23:57.000Z</time>
      </trkpt>
      <trkpt lat="48.00962" lon="6.99028">
        <ele>1106.8000488281</ele>
        <time>2022-10-30T11:23:58.000Z</time>
      </trkpt>
      <trkpt lat="48.00962" lon="6.9903">
        <ele>1106.5999755859</ele>
        <time>2022-10-30T11:23:59.000Z</time>
      </trkpt>
      <trkpt lat="48.00961" lon="6.99034">
        <ele>1106.1999511719</ele>
        <time>2022-10-30T11:24:01.000Z</time>
      </trkpt>
      <trkpt lat="48.0096" lon="6.99039">
        <ele>1106</ele>
        <time>2022-10-30T11:24:04.000Z</time>
      </trkpt>
      <trkpt lat="48.0096" lon="6.9904">
        <ele>1105.8000488281</ele>
        <time>2022-10-30T11:24:05.000Z</time>
      </trkpt>
      <trkpt lat="48.00959" lon="6.99043">
        <ele>1105.5999755859</ele>
        <time>2022-10-30T11:24:06.000Z</time>
      </trkpt>
      <trkpt lat="48.00958" lon="6.99053">
        <ele>1105.1999511719</ele>
        <time>2022-10-30T11:24:11.000Z</time>
      </trkpt>
      <trkpt lat="48.00958" lon="6.99056">
        <ele>1104.8000488281</ele>
        <time>2022-10-30T11:24:13.000Z</time>
      </trkpt>
      <trkpt lat="48.00958" lon="6.99057">
        <ele>1104.5999755859</ele>
        <time>2022-10-30T11:24:14.000Z</time>
      </trkpt>
      <trkpt lat="48.00957" lon="6.99062">
        <ele>1103.8000488281</ele>
        <time>2022-10-30T11:24:17.000Z</time>
      </trkpt>
      <trkpt lat="48.00956" lon="6.99063">
        <ele>1103.5999755859</ele>
        <time>2022-10-30T11:24:18.000Z</time>
      </trkpt>
      <trkpt lat="48.00955" lon="6.99066">
        <ele>1102.8000488281</ele>
        <time>2022-10-30T11:24:21.000Z</time>
      </trkpt>
      <trkpt lat="48.00954" lon="6.99069">
        <ele>1102.4000244141</ele>
        <time>2022-10-30T11:24:24.000Z</time>
      </trkpt>
      <trkpt lat="48.00951" lon="6.99075">
        <ele>1101.5999755859</ele>
        <time>2022-10-30T11:24:28.000Z</time>
      </trkpt>
      <trkpt lat="48.00951" lon="6.99078">
        <ele>1101.1999511719</ele>
        <time>2022-10-30T11:24:31.000Z</time>
      </trkpt>
      <trkpt lat="48.00949" lon="6.99084">
        <ele>1101</ele>
        <time>2022-10-30T11:24:34.000Z</time>
      </trkpt>
      <trkpt lat="48.00948" lon="6.99086">
        <ele>1101</ele>
        <time>2022-10-30T11:24:35.000Z</time>
      </trkpt>
      <trkpt lat="48.00946" lon="6.99088">
        <ele>1101</ele>
        <time>2022-10-30T11:24:37.000Z</time>
      </trkpt>
      <trkpt lat="48.00944" lon="6.99091">
        <ele>1100.8000488281</ele>
        <time>2022-10-30T11:24:39.000Z</time>
      </trkpt>
      <trkpt lat="48.00944" lon="6.99095">
        <ele>1100.4000244141</ele>
        <time>2022-10-30T11:24:42.000Z</time>
      </trkpt>
      <trkpt lat="48.00943" lon="6.99098">
        <ele>1099.8000488281</ele>
        <time>2022-10-30T11:24:44.000Z</time>
      </trkpt>
      <trkpt lat="48.00943" lon="6.99099">
        <ele>1099.5999755859</ele>
        <time>2022-10-30T11:24:45.000Z</time>
      </trkpt>
      <trkpt lat="48.00943" lon="6.99103">
        <ele>1099.4000244141</ele>
        <time>2022-10-30T11:24:47.000Z</time>
      </trkpt>
      <trkpt lat="48.0094" lon="6.99109">
        <ele>1099</ele>
        <time>2022-10-30T11:24:51.000Z</time>
      </trkpt>
      <trkpt lat="48.00939" lon="6.9911">
        <ele>1098.8000488281</ele>
        <time>2022-10-30T11:24:52.000Z</time>
      </trkpt>
      <trkpt lat="48.00935" lon="6.99116">
        <ele>1098.1999511719</ele>
        <time>2022-10-30T11:24:56.000Z</time>
      </trkpt>
      <trkpt lat="48.00932" lon="6.9912">
        <ele>1097.8000488281</ele>
        <time>2022-10-30T11:24:59.000Z</time>
      </trkpt>
      <trkpt lat="48.00931" lon="6.99124">
        <ele>1097.4000244141</ele>
        <time>2022-10-30T11:25:03.000Z</time>
      </trkpt>
      <trkpt lat="48.00933" lon="6.99124">
        <ele>1097.4000244141</ele>
        <time>2022-10-30T11:25:06.000Z</time>
      </trkpt>
      <trkpt lat="48.00933" lon="6.99123">
        <ele>1097</ele>
        <time>2022-10-30T11:25:11.000Z</time>
      </trkpt>
      <trkpt lat="48.00934" lon="6.99123">
        <ele>1097</ele>
        <time>2022-10-30T11:25:12.000Z</time>
      </trkpt>
      <trkpt lat="48.00936" lon="6.9912">
        <ele>1096</ele>
        <time>2022-10-30T11:25:18.000Z</time>
      </trkpt>
      <trkpt lat="48.00937" lon="6.99116">
        <ele>1095.4000244141</ele>
        <time>2022-10-30T11:25:22.000Z</time>
      </trkpt>
      <trkpt lat="48.00938" lon="6.99115">
        <ele>1095.4000244141</ele>
        <time>2022-10-30T11:25:23.000Z</time>
      </trkpt>
      <trkpt lat="48.00939" lon="6.9911">
        <ele>1095</ele>
        <time>2022-10-30T11:25:26.000Z</time>
      </trkpt>
      <trkpt lat="48.0094" lon="6.99108">
        <ele>1094.8000488281</ele>
        <time>2022-10-30T11:25:28.000Z</time>
      </trkpt>
      <trkpt lat="48.00941" lon="6.99101">
        <ele>1094</ele>
        <time>2022-10-30T11:25:33.000Z</time>
      </trkpt>
      <trkpt lat="48.00941" lon="6.991">
        <ele>1093.8000488281</ele>
        <time>2022-10-30T11:25:34.000Z</time>
      </trkpt>
      <trkpt lat="48.00942" lon="6.99097">
        <ele>1092.5999755859</ele>
        <time>2022-10-30T11:25:39.000Z</time>
      </trkpt>
      <trkpt lat="48.00941" lon="6.99095">
        <ele>1092.1999511719</ele>
        <time>2022-10-30T11:25:41.000Z</time>
      </trkpt>
      <trkpt lat="48.00944" lon="6.99088">
        <ele>1091.5999755859</ele>
        <time>2022-10-30T11:25:45.000Z</time>
      </trkpt>
      <trkpt lat="48.00946" lon="6.99084">
        <ele>1091.1999511719</ele>
        <time>2022-10-30T11:25:48.000Z</time>
      </trkpt>
      <trkpt lat="48.00947" lon="6.99084">
        <ele>1091.1999511719</ele>
        <time>2022-10-30T11:25:49.000Z</time>
      </trkpt>
      <trkpt lat="48.00952" lon="6.9908">
        <ele>1090.5999755859</ele>
        <time>2022-10-30T11:25:55.000Z</time>
      </trkpt>
      <trkpt lat="48.00955" lon="6.99076">
        <ele>1089.5999755859</ele>
        <time>2022-10-30T11:26:00.000Z</time>
      </trkpt>
      <trkpt lat="48.00956" lon="6.99076">
        <ele>1089.4000244141</ele>
        <time>2022-10-30T11:26:02.000Z</time>
      </trkpt>
      <trkpt lat="48.00961" lon="6.99074">
        <ele>1088.5999755859</ele>
        <time>2022-10-30T11:26:07.000Z</time>
      </trkpt>
      <trkpt lat="48.00962" lon="6.99074">
        <ele>1088.4000244141</ele>
        <time>2022-10-30T11:26:08.000Z</time>
      </trkpt>
      <trkpt lat="48.00967" lon="6.99069">
        <ele>1087.5999755859</ele>
        <time>2022-10-30T11:26:15.000Z</time>
      </trkpt>
      <trkpt lat="48.00967" lon="6.99068">
        <ele>1087.4000244141</ele>
        <time>2022-10-30T11:26:16.000Z</time>
      </trkpt>
      <trkpt lat="48.00968" lon="6.99064">
        <ele>1086.5999755859</ele>
        <time>2022-10-30T11:26:21.000Z</time>
      </trkpt>
      <trkpt lat="48.00973" lon="6.99061">
        <ele>1086.4000244141</ele>
        <time>2022-10-30T11:26:24.000Z</time>
      </trkpt>
      <trkpt lat="48.00976" lon="6.99057">
        <ele>1085.8000488281</ele>
        <time>2022-10-30T11:26:27.000Z</time>
      </trkpt>
      <trkpt lat="48.00979" lon="6.99052">
        <ele>1085.1999511719</ele>
        <time>2022-10-30T11:26:31.000Z</time>
      </trkpt>
      <trkpt lat="48.00982" lon="6.9905">
        <ele>1085</ele>
        <time>2022-10-30T11:26:34.000Z</time>
      </trkpt>
      <trkpt lat="48.00985" lon="6.9905">
        <ele>1084.5999755859</ele>
        <time>2022-10-30T11:26:37.000Z</time>
      </trkpt>
      <trkpt lat="48.00985" lon="6.99049">
        <ele>1084.4000244141</ele>
        <time>2022-10-30T11:26:39.000Z</time>
      </trkpt>
      <trkpt lat="48.00985" lon="6.99048">
        <ele>1084.1999511719</ele>
        <time>2022-10-30T11:26:42.000Z</time>
      </trkpt>
      <trkpt lat="48.00985" lon="6.99047">
        <ele>1084.1999511719</ele>
        <time>2022-10-30T11:26:43.000Z</time>
      </trkpt>
      <trkpt lat="48.00985" lon="6.99046">
        <ele>1084</ele>
        <time>2022-10-30T11:26:44.000Z</time>
      </trkpt>
      <trkpt lat="48.00986" lon="6.99043">
        <ele>1084</ele>
        <time>2022-10-30T11:26:50.000Z</time>
      </trkpt>
      <trkpt lat="48.00989" lon="6.99038">
        <ele>1083.5999755859</ele>
        <time>2022-10-30T11:26:57.000Z</time>
      </trkpt>
      <trkpt lat="48.00989" lon="6.99037">
        <ele>1083.4000244141</ele>
        <time>2022-10-30T11:26:58.000Z</time>
      </trkpt>
      <trkpt lat="48.00991" lon="6.99035">
        <ele>1083.1999511719</ele>
        <time>2022-10-30T11:27:00.000Z</time>
      </trkpt>
      <trkpt lat="48.00993" lon="6.99032">
        <ele>1083</ele>
        <time>2022-10-30T11:27:04.000Z</time>
      </trkpt>
      <trkpt lat="48.00994" lon="6.99031">
        <ele>1082.5999755859</ele>
        <time>2022-10-30T11:27:09.000Z</time>
      </trkpt>
      <trkpt lat="48.00994" lon="6.9903">
        <ele>1082.5999755859</ele>
        <time>2022-10-30T11:27:10.000Z</time>
      </trkpt>
      <trkpt lat="48.00996" lon="6.99028">
        <ele>1082.4000244141</ele>
        <time>2022-10-30T11:27:17.000Z</time>
      </trkpt>
      <trkpt lat="48.00996" lon="6.99029">
        <ele>1082.1999511719</ele>
        <time>2022-10-30T11:27:22.000Z</time>
      </trkpt>
      <trkpt lat="48.00997" lon="6.99031">
        <ele>1082</ele>
        <time>2022-10-30T11:27:24.000Z</time>
      </trkpt>
      <trkpt lat="48.00999" lon="6.99035">
        <ele>1081.4000244141</ele>
        <time>2022-10-30T11:27:28.000Z</time>
      </trkpt>
      <trkpt lat="48.01" lon="6.99038">
        <ele>1081.1999511719</ele>
        <time>2022-10-30T11:27:30.000Z</time>
      </trkpt>
      <trkpt lat="48.01001" lon="6.99042">
        <ele>1081</ele>
        <time>2022-10-30T11:27:32.000Z</time>
      </trkpt>
      <trkpt lat="48.01002" lon="6.99046">
        <ele>1080.4000244141</ele>
        <time>2022-10-30T11:27:36.000Z</time>
      </trkpt>
      <trkpt lat="48.01002" lon="6.99049">
        <ele>1080</ele>
        <time>2022-10-30T11:27:39.000Z</time>
      </trkpt>
      <trkpt lat="48.01002" lon="6.99051">
        <ele>1079.5999755859</ele>
        <time>2022-10-30T11:27:41.000Z</time>
      </trkpt>
      <trkpt lat="48.01002" lon="6.99054">
        <ele>1079.1999511719</ele>
        <time>2022-10-30T11:27:44.000Z</time>
      </trkpt>
      <trkpt lat="48.01002" lon="6.99058">
        <ele>1078.8000488281</ele>
        <time>2022-10-30T11:27:47.000Z</time>
      </trkpt>
      <trkpt lat="48.01003" lon="6.9906">
        <ele>1078.5999755859</ele>
        <time>2022-10-30T11:27:49.000Z</time>
      </trkpt>
      <trkpt lat="48.01007" lon="6.99067">
        <ele>1078.1999511719</ele>
        <time>2022-10-30T11:27:55.000Z</time>
      </trkpt>
      <trkpt lat="48.01008" lon="6.99078">
        <ele>1077.8000488281</ele>
        <time>2022-10-30T11:28:00.000Z</time>
      </trkpt>
      <trkpt lat="48.01009" lon="6.9908">
        <ele>1077.4000244141</ele>
        <time>2022-10-30T11:28:03.000Z</time>
      </trkpt>
      <trkpt lat="48.01008" lon="6.99086">
        <ele>1076.8000488281</ele>
        <time>2022-10-30T11:28:09.000Z</time>
      </trkpt>
      <trkpt lat="48.01007" lon="6.99087">
        <ele>1076.5999755859</ele>
        <time>2022-10-30T11:28:10.000Z</time>
      </trkpt>
      <trkpt lat="48.01005" lon="6.99095">
        <ele>1076</ele>
        <time>2022-10-30T11:28:15.000Z</time>
      </trkpt>
      <trkpt lat="48.01005" lon="6.99098">
        <ele>1075.5999755859</ele>
        <time>2022-10-30T11:28:18.000Z</time>
      </trkpt>
      <trkpt lat="48.01005" lon="6.991">
        <ele>1075.1999511719</ele>
        <time>2022-10-30T11:28:21.000Z</time>
      </trkpt>
      <trkpt lat="48.01008" lon="6.991">
        <ele>1074.5999755859</ele>
        <time>2022-10-30T11:28:25.000Z</time>
      </trkpt>
      <trkpt lat="48.01007" lon="6.99099">
        <ele>1074.4000244141</ele>
        <time>2022-10-30T11:28:26.000Z</time>
      </trkpt>
      <trkpt lat="48.01006" lon="6.99097">
        <ele>1073.8000488281</ele>
        <time>2022-10-30T11:28:30.000Z</time>
      </trkpt>
      <trkpt lat="48.01008" lon="6.99096">
        <ele>1073.4000244141</ele>
        <time>2022-10-30T11:28:32.000Z</time>
      </trkpt>
      <trkpt lat="48.01009" lon="6.99094">
        <ele>1073.1999511719</ele>
        <time>2022-10-30T11:28:35.000Z</time>
      </trkpt>
      <trkpt lat="48.01011" lon="6.99091">
        <ele>1072.4000244141</ele>
        <time>2022-10-30T11:28:40.000Z</time>
      </trkpt>
      <trkpt lat="48.01011" lon="6.9909">
        <ele>1072.1999511719</ele>
        <time>2022-10-30T11:28:41.000Z</time>
      </trkpt>
      <trkpt lat="48.01012" lon="6.99087">
        <ele>1071.8000488281</ele>
        <time>2022-10-30T11:28:46.000Z</time>
      </trkpt>
      <trkpt lat="48.01013" lon="6.99086">
        <ele>1071.5999755859</ele>
        <time>2022-10-30T11:28:47.000Z</time>
      </trkpt>
      <trkpt lat="48.01013" lon="6.99085">
        <ele>1071.4000244141</ele>
        <time>2022-10-30T11:28:50.000Z</time>
      </trkpt>
      <trkpt lat="48.01013" lon="6.9908">
        <ele>1071</ele>
        <time>2022-10-30T11:28:54.000Z</time>
      </trkpt>
      <trkpt lat="48.01018" lon="6.99079">
        <ele>1070.4000244141</ele>
        <time>2022-10-30T11:29:01.000Z</time>
      </trkpt>
      <trkpt lat="48.01019" lon="6.99079">
        <ele>1070.1999511719</ele>
        <time>2022-10-30T11:29:02.000Z</time>
      </trkpt>
      <trkpt lat="48.0102" lon="6.99079">
        <ele>1069.5999755859</ele>
        <time>2022-10-30T11:29:05.000Z</time>
      </trkpt>
      <trkpt lat="48.01021" lon="6.9908">
        <ele>1069.4000244141</ele>
        <time>2022-10-30T11:29:07.000Z</time>
      </trkpt>
      <trkpt lat="48.01021" lon="6.9908">
        <ele>1069</ele>
        <time>2022-10-30T11:29:09.000Z</time>
      </trkpt>
      <trkpt lat="48.01021" lon="6.99081">
        <ele>1068.4000244141</ele>
        <time>2022-10-30T11:29:13.000Z</time>
      </trkpt>
      <trkpt lat="48.01021" lon="6.99081">
        <ele>1067.8000488281</ele>
        <time>2022-10-30T11:29:19.000Z</time>
      </trkpt>
      <trkpt lat="48.01025" lon="6.99087">
        <ele>1067.1999511719</ele>
        <time>2022-10-30T11:29:24.000Z</time>
      </trkpt>
      <trkpt lat="48.01027" lon="6.99093">
        <ele>1066.8000488281</ele>
        <time>2022-10-30T11:29:27.000Z</time>
      </trkpt>
      <trkpt lat="48.01027" lon="6.99095">
        <ele>1066.8000488281</ele>
        <time>2022-10-30T11:29:29.000Z</time>
      </trkpt>
      <trkpt lat="48.01025" lon="6.99099">
        <ele>1066.8000488281</ele>
        <time>2022-10-30T11:29:33.000Z</time>
      </trkpt>
      <trkpt lat="48.01023" lon="6.99107">
        <ele>1067.1999511719</ele>
        <time>2022-10-30T11:29:39.000Z</time>
      </trkpt>
      <trkpt lat="48.01024" lon="6.99104">
        <ele>1067.4000244141</ele>
        <time>2022-10-30T11:29:45.000Z</time>
      </trkpt>
      <trkpt lat="48.01023" lon="6.99103">
        <ele>1067.4000244141</ele>
        <time>2022-10-30T11:29:47.000Z</time>
      </trkpt>
      <trkpt lat="48.01022" lon="6.99103">
        <ele>1067.5999755859</ele>
        <time>2022-10-30T11:29:49.000Z</time>
      </trkpt>
      <trkpt lat="48.01023" lon="6.99104">
        <ele>1067.4000244141</ele>
        <time>2022-10-30T11:29:55.000Z</time>
      </trkpt>
      <trkpt lat="48.01023" lon="6.99105">
        <ele>1067.1999511719</ele>
        <time>2022-10-30T11:30:09.000Z</time>
      </trkpt>
      <trkpt lat="48.01023" lon="6.99105">
        <ele>1067.4000244141</ele>
        <time>2022-10-30T11:30:22.000Z</time>
      </trkpt>
      <trkpt lat="48.01026" lon="6.99109">
        <ele>1067.4000244141</ele>
        <time>2022-10-30T11:30:41.000Z</time>
      </trkpt>
      <trkpt lat="48.01028" lon="6.9911">
        <ele>1067.4000244141</ele>
        <time>2022-10-30T11:30:45.000Z</time>
      </trkpt>
      <trkpt lat="48.01026" lon="6.99118">
        <ele>1067.4000244141</ele>
        <time>2022-10-30T11:31:17.000Z</time>
      </trkpt>
      <trkpt lat="48.01028" lon="6.9912">
        <ele>1067.4000244141</ele>
        <time>2022-10-30T11:31:23.000Z</time>
      </trkpt>
      <trkpt lat="48.01028" lon="6.99121">
        <ele>1067.4000244141</ele>
        <time>2022-10-30T11:31:25.000Z</time>
      </trkpt>
      <trkpt lat="48.01025" lon="6.9912">
        <ele>1067.4000244141</ele>
        <time>2022-10-30T11:31:52.000Z</time>
      </trkpt>
      <trkpt lat="48.01024" lon="6.99118">
        <ele>1067.4000244141</ele>
        <time>2022-10-30T11:31:57.000Z</time>
      </trkpt>
      <trkpt lat="48.01025" lon="6.99115">
        <ele>1067.4000244141</ele>
        <time>2022-10-30T11:32:02.000Z</time>
      </trkpt>
      <trkpt lat="48.01026" lon="6.99115">
        <ele>1067.4000244141</ele>
        <time>2022-10-30T11:32:04.000Z</time>
      </trkpt>
      <trkpt lat="48.01026" lon="6.9911">
        <ele>1067.4000244141</ele>
        <time>2022-10-30T11:32:25.000Z</time>
      </trkpt>
      <trkpt lat="48.01026" lon="6.9911">
        <ele>1067.4000244141</ele>
        <time>2022-10-30T11:32:26.000Z</time>
      </trkpt>
      <trkpt lat="48.01027" lon="6.99107">
        <ele>1067.4000244141</ele>
        <time>2022-10-30T11:32:33.000Z</time>
      </trkpt>
      <trkpt lat="48.01028" lon="6.99103">
        <ele>1067.4000244141</ele>
        <time>2022-10-30T11:32:37.000Z</time>
      </trkpt>
      <trkpt lat="48.01028" lon="6.99101">
        <ele>1067.4000244141</ele>
        <time>2022-10-30T11:32:40.000Z</time>
      </trkpt>
      <trkpt lat="48.01029" lon="6.99095">
        <ele>1067.4000244141</ele>
        <time>2022-10-30T11:32:49.000Z</time>
      </trkpt>
      <trkpt lat="48.01029" lon="6.99094">
        <ele>1067.4000244141</ele>
        <time>2022-10-30T11:32:50.000Z</time>
      </trkpt>
      <trkpt lat="48.01029" lon="6.99092">
        <ele>1062.8000488281</ele>
        <time>2022-10-30T11:32:52.000Z</time>
      </trkpt>
      <trkpt lat="48.01027" lon="6.9907">
        <ele>1061.8000488281</ele>
        <time>2022-10-30T11:33:10.000Z</time>
      </trkpt>
      <trkpt lat="48.01027" lon="6.99063">
        <ele>1060.8000488281</ele>
        <time>2022-10-30T11:33:20.000Z</time>
      </trkpt>
      <trkpt lat="48.01027" lon="6.99062">
        <ele>1060.5999755859</ele>
        <time>2022-10-30T11:33:21.000Z</time>
      </trkpt>
      <trkpt lat="48.01027" lon="6.99053">
        <ele>1059.8000488281</ele>
        <time>2022-10-30T11:33:31.000Z</time>
      </trkpt>
      <trkpt lat="48.01027" lon="6.99049">
        <ele>1059.8000488281</ele>
        <time>2022-10-30T11:33:35.000Z</time>
      </trkpt>
      <trkpt lat="48.01027" lon="6.99044">
        <ele>1059.5999755859</ele>
        <time>2022-10-30T11:33:39.000Z</time>
      </trkpt>
      <trkpt lat="48.01027" lon="6.99043">
        <ele>1058.5999755859</ele>
        <time>2022-10-30T11:33:51.000Z</time>
      </trkpt>
      <trkpt lat="48.01028" lon="6.99041">
        <ele>1057.8000488281</ele>
        <time>2022-10-30T11:33:58.000Z</time>
      </trkpt>
      <trkpt lat="48.01028" lon="6.9904">
        <ele>1057.5999755859</ele>
        <time>2022-10-30T11:33:59.000Z</time>
      </trkpt>
      <trkpt lat="48.01028" lon="6.99037">
        <ele>1056.5999755859</ele>
        <time>2022-10-30T11:34:04.000Z</time>
      </trkpt>
      <trkpt lat="48.01028" lon="6.99034">
        <ele>1055.5999755859</ele>
        <time>2022-10-30T11:34:12.000Z</time>
      </trkpt>
      <trkpt lat="48.01032" lon="6.99034">
        <ele>1054.4000244141</ele>
        <time>2022-10-30T11:34:22.000Z</time>
      </trkpt>
      <trkpt lat="48.01035" lon="6.99035">
        <ele>1053.4000244141</ele>
        <time>2022-10-30T11:34:28.000Z</time>
      </trkpt>
      <trkpt lat="48.01036" lon="6.99031">
        <ele>1052.8000488281</ele>
        <time>2022-10-30T11:34:31.000Z</time>
      </trkpt>
      <trkpt lat="48.01038" lon="6.9903">
        <ele>1052.4000244141</ele>
        <time>2022-10-30T11:34:34.000Z</time>
      </trkpt>
      <trkpt lat="48.01039" lon="6.99029">
        <ele>1052.1999511719</ele>
        <time>2022-10-30T11:34:36.000Z</time>
      </trkpt>
      <trkpt lat="48.01041" lon="6.99035">
        <ele>1052.1999511719</ele>
        <time>2022-10-30T11:34:40.000Z</time>
      </trkpt>
      <trkpt lat="48.01042" lon="6.99037">
        <ele>1051.8000488281</ele>
        <time>2022-10-30T11:34:43.000Z</time>
      </trkpt>
      <trkpt lat="48.01045" lon="6.99039">
        <ele>1051.1999511719</ele>
        <time>2022-10-30T11:34:47.000Z</time>
      </trkpt>
      <trkpt lat="48.01046" lon="6.99041">
        <ele>1051.1999511719</ele>
        <time>2022-10-30T11:34:50.000Z</time>
      </trkpt>
      <trkpt lat="48.01048" lon="6.99042">
        <ele>1050.4000244141</ele>
        <time>2022-10-30T11:34:55.000Z</time>
      </trkpt>
      <trkpt lat="48.01048" lon="6.99042">
        <ele>1050.1999511719</ele>
        <time>2022-10-30T11:34:56.000Z</time>
      </trkpt>
      <trkpt lat="48.01052" lon="6.99041">
        <ele>1049.4000244141</ele>
        <time>2022-10-30T11:35:01.000Z</time>
      </trkpt>
      <trkpt lat="48.01053" lon="6.99041">
        <ele>1049</ele>
        <time>2022-10-30T11:35:04.000Z</time>
      </trkpt>
      <trkpt lat="48.01048" lon="6.99043">
        <ele>1048.4000244141</ele>
        <time>2022-10-30T11:35:09.000Z</time>
      </trkpt>
      <trkpt lat="48.01047" lon="6.99043">
        <ele>1048.1999511719</ele>
        <time>2022-10-30T11:35:20.000Z</time>
      </trkpt>
      <trkpt lat="48.01046" lon="6.99043">
        <ele>1048.1999511719</ele>
        <time>2022-10-30T11:35:28.000Z</time>
      </trkpt>
      <trkpt lat="48.01046" lon="6.99043">
        <ele>1048</ele>
        <time>2022-10-30T11:35:33.000Z</time>
      </trkpt>
      <trkpt lat="48.01045" lon="6.99043">
        <ele>1047.8000488281</ele>
        <time>2022-10-30T11:35:37.000Z</time>
      </trkpt>
      <trkpt lat="48.01044" lon="6.99043">
        <ele>1047</ele>
        <time>2022-10-30T11:35:42.000Z</time>
      </trkpt>
      <trkpt lat="48.01044" lon="6.99043">
        <ele>1046.4000244141</ele>
        <time>2022-10-30T11:35:46.000Z</time>
      </trkpt>
      <trkpt lat="48.01043" lon="6.99043">
        <ele>1045.8000488281</ele>
        <time>2022-10-30T11:35:50.000Z</time>
      </trkpt>
      <trkpt lat="48.01042" lon="6.99037">
        <ele>1044.8000488281</ele>
        <time>2022-10-30T11:35:59.000Z</time>
      </trkpt>
      <trkpt lat="48.0104" lon="6.9903">
        <ele>1043.8000488281</ele>
        <time>2022-10-30T11:36:07.000Z</time>
      </trkpt>
      <trkpt lat="48.01038" lon="6.99017">
        <ele>1043.5999755859</ele>
        <time>2022-10-30T11:36:15.000Z</time>
      </trkpt>
      <trkpt lat="48.01035" lon="6.99">
        <ele>1043.4000244141</ele>
        <time>2022-10-30T11:36:21.000Z</time>
      </trkpt>
      <trkpt lat="48.01036" lon="6.99">
        <ele>1043.4000244141</ele>
        <time>2022-10-30T11:36:23.000Z</time>
      </trkpt>
      <trkpt lat="48.01038" lon="6.99004">
        <ele>1043.4000244141</ele>
        <time>2022-10-30T11:36:26.000Z</time>
      </trkpt>
      <trkpt lat="48.01039" lon="6.99006">
        <ele>1043.5999755859</ele>
        <time>2022-10-30T11:36:35.000Z</time>
      </trkpt>
      <trkpt lat="48.0104" lon="6.99005">
        <ele>1043</ele>
        <time>2022-10-30T11:36:56.000Z</time>
      </trkpt>
      <trkpt lat="48.0104" lon="6.99005">
        <ele>1042.8000488281</ele>
        <time>2022-10-30T11:36:57.000Z</time>
      </trkpt>
      <trkpt lat="48.01038" lon="6.98988">
        <ele>1041.8000488281</ele>
        <time>2022-10-30T11:37:15.000Z</time>
      </trkpt>
      <trkpt lat="48.01038" lon="6.98986">
        <ele>1041.8000488281</ele>
        <time>2022-10-30T11:37:16.000Z</time>
      </trkpt>
      <trkpt lat="48.0104" lon="6.98978">
        <ele>1041.8000488281</ele>
        <time>2022-10-30T11:37:19.000Z</time>
      </trkpt>
      <trkpt lat="48.01039" lon="6.98976">
        <ele>1041.8000488281</ele>
        <time>2022-10-30T11:37:20.000Z</time>
      </trkpt>
      <trkpt lat="48.01037" lon="6.98973">
        <ele>1041.8000488281</ele>
        <time>2022-10-30T11:37:23.000Z</time>
      </trkpt>
      <trkpt lat="48.01036" lon="6.98973">
        <ele>1041.8000488281</ele>
        <time>2022-10-30T11:37:27.000Z</time>
      </trkpt>
      <trkpt lat="48.01036" lon="6.98972">
        <ele>1041.8000488281</ele>
        <time>2022-10-30T11:37:31.000Z</time>
      </trkpt>
      <trkpt lat="48.01036" lon="6.98972">
        <ele>1041.1999511719</ele>
        <time>2022-10-30T11:37:43.000Z</time>
      </trkpt>
      <trkpt lat="48.01037" lon="6.98971">
        <ele>1040.8000488281</ele>
        <time>2022-10-30T11:37:54.000Z</time>
      </trkpt>
      <trkpt lat="48.01044" lon="6.98978">
        <ele>1040.1999511719</ele>
        <time>2022-10-30T11:38:03.000Z</time>
      </trkpt>
      <trkpt lat="48.01048" lon="6.98984">
        <ele>1039.8000488281</ele>
        <time>2022-10-30T11:38:08.000Z</time>
      </trkpt>
      <trkpt lat="48.01048" lon="6.98986">
        <ele>1039.8000488281</ele>
        <time>2022-10-30T11:38:09.000Z</time>
      </trkpt>
      <trkpt lat="48.01049" lon="6.98988">
        <ele>1039.5999755859</ele>
        <time>2022-10-30T11:38:13.000Z</time>
      </trkpt>
      <trkpt lat="48.0105" lon="6.98989">
        <ele>1039.4000244141</ele>
        <time>2022-10-30T11:38:15.000Z</time>
      </trkpt>
      <trkpt lat="48.0105" lon="6.9899">
        <ele>1039.1999511719</ele>
        <time>2022-10-30T11:38:16.000Z</time>
      </trkpt>
      <trkpt lat="48.01051" lon="6.98991">
        <ele>1038.8000488281</ele>
        <time>2022-10-30T11:38:18.000Z</time>
      </trkpt>
      <trkpt lat="48.01052" lon="6.98993">
        <ele>1038.8000488281</ele>
        <time>2022-10-30T11:38:20.000Z</time>
      </trkpt>
      <trkpt lat="48.01052" lon="6.98994">
        <ele>1038.5999755859</ele>
        <time>2022-10-30T11:38:22.000Z</time>
      </trkpt>
      <trkpt lat="48.01053" lon="6.98996">
        <ele>1038.4000244141</ele>
        <time>2022-10-30T11:38:25.000Z</time>
      </trkpt>
      <trkpt lat="48.01053" lon="6.98999">
        <ele>1038.1999511719</ele>
        <time>2022-10-30T11:38:30.000Z</time>
      </trkpt>
      <trkpt lat="48.01056" lon="6.98999">
        <ele>1038.1999511719</ele>
        <time>2022-10-30T11:38:37.000Z</time>
      </trkpt>
      <trkpt lat="48.01057" lon="6.99001">
        <ele>1037.8000488281</ele>
        <time>2022-10-30T11:38:41.000Z</time>
      </trkpt>
      <trkpt lat="48.01057" lon="6.99003">
        <ele>1037.5999755859</ele>
        <time>2022-10-30T11:38:44.000Z</time>
      </trkpt>
      <trkpt lat="48.01058" lon="6.99004">
        <ele>1037.1999511719</ele>
        <time>2022-10-30T11:38:47.000Z</time>
      </trkpt>
      <trkpt lat="48.01055" lon="6.99002">
        <ele>1036.5999755859</ele>
        <time>2022-10-30T11:38:52.000Z</time>
      </trkpt>
      <trkpt lat="48.01054" lon="6.99">
        <ele>1036.5999755859</ele>
        <time>2022-10-30T11:38:53.000Z</time>
      </trkpt>
      <trkpt lat="48.01052" lon="6.98995">
        <ele>1036</ele>
        <time>2022-10-30T11:38:57.000Z</time>
      </trkpt>
      <trkpt lat="48.01051" lon="6.98994">
        <ele>1036</ele>
        <time>2022-10-30T11:38:58.000Z</time>
      </trkpt>
      <trkpt lat="48.0105" lon="6.98989">
        <ele>1035.5999755859</ele>
        <time>2022-10-30T11:39:04.000Z</time>
      </trkpt>
      <trkpt lat="48.01051" lon="6.98989">
        <ele>1034.8000488281</ele>
        <time>2022-10-30T11:39:10.000Z</time>
      </trkpt>
      <trkpt lat="48.01049" lon="6.98994">
        <ele>1034.5999755859</ele>
        <time>2022-10-30T11:39:17.000Z</time>
      </trkpt>
      <trkpt lat="48.01051" lon="6.98993">
        <ele>1034.5999755859</ele>
        <time>2022-10-30T11:39:20.000Z</time>
      </trkpt>
      <trkpt lat="48.01051" lon="6.98992">
        <ele>1034.5999755859</ele>
        <time>2022-10-30T11:39:22.000Z</time>
      </trkpt>
      <trkpt lat="48.0105" lon="6.98989">
        <ele>1034.5999755859</ele>
        <time>2022-10-30T11:39:25.000Z</time>
      </trkpt>
      <trkpt lat="48.01052" lon="6.98985">
        <ele>1034.1999511719</ele>
        <time>2022-10-30T11:39:29.000Z</time>
      </trkpt>
      <trkpt lat="48.01053" lon="6.98978">
        <ele>1033.8000488281</ele>
        <time>2022-10-30T11:39:35.000Z</time>
      </trkpt>
      <trkpt lat="48.01053" lon="6.98977">
        <ele>1033.8000488281</ele>
        <time>2022-10-30T11:39:36.000Z</time>
      </trkpt>
      <trkpt lat="48.01055" lon="6.98973">
        <ele>1033.5999755859</ele>
        <time>2022-10-30T11:39:42.000Z</time>
      </trkpt>
      <trkpt lat="48.01053" lon="6.98971">
        <ele>1033.5999755859</ele>
        <time>2022-10-30T11:39:49.000Z</time>
      </trkpt>
      <trkpt lat="48.01053" lon="6.9897">
        <ele>1033.4000244141</ele>
        <time>2022-10-30T11:39:50.000Z</time>
      </trkpt>
      <trkpt lat="48.01054" lon="6.98969">
        <ele>1033.4000244141</ele>
        <time>2022-10-30T11:39:51.000Z</time>
      </trkpt>
      <trkpt lat="48.01054" lon="6.98964">
        <ele>1033</ele>
        <time>2022-10-30T11:39:56.000Z</time>
      </trkpt>
      <trkpt lat="48.01055" lon="6.98961">
        <ele>1033</ele>
        <time>2022-10-30T11:39:58.000Z</time>
      </trkpt>
      <trkpt lat="48.0106" lon="6.98959">
        <ele>1032.5999755859</ele>
        <time>2022-10-30T11:40:03.000Z</time>
      </trkpt>
      <trkpt lat="48.01059" lon="6.98963">
        <ele>1032.4000244141</ele>
        <time>2022-10-30T11:40:06.000Z</time>
      </trkpt>
      <trkpt lat="48.01058" lon="6.98964">
        <ele>1032.4000244141</ele>
        <time>2022-10-30T11:40:09.000Z</time>
      </trkpt>
      <trkpt lat="48.01058" lon="6.98971">
        <ele>1031.8000488281</ele>
        <time>2022-10-30T11:40:17.000Z</time>
      </trkpt>
      <trkpt lat="48.01059" lon="6.98976">
        <ele>1031.4000244141</ele>
        <time>2022-10-30T11:40:20.000Z</time>
      </trkpt>
      <trkpt lat="48.01062" lon="6.9898">
        <ele>1031.1999511719</ele>
        <time>2022-10-30T11:40:23.000Z</time>
      </trkpt>
      <trkpt lat="48.01063" lon="6.98982">
        <ele>1031</ele>
        <time>2022-10-30T11:40:24.000Z</time>
      </trkpt>
      <trkpt lat="48.01064" lon="6.98984">
        <ele>1031</ele>
        <time>2022-10-30T11:40:25.000Z</time>
      </trkpt>
      <trkpt lat="48.01069" lon="6.98991">
        <ele>1030.5999755859</ele>
        <time>2022-10-30T11:40:30.000Z</time>
      </trkpt>
      <trkpt lat="48.01069" lon="6.98992">
        <ele>1030.4000244141</ele>
        <time>2022-10-30T11:40:31.000Z</time>
      </trkpt>
      <trkpt lat="48.0107" lon="6.98992">
        <ele>1030.4000244141</ele>
        <time>2022-10-30T11:40:32.000Z</time>
      </trkpt>
      <trkpt lat="48.01071" lon="6.98994">
        <ele>1030</ele>
        <time>2022-10-30T11:40:35.000Z</time>
      </trkpt>
      <trkpt lat="48.01074" lon="6.98998">
        <ele>1029.8000488281</ele>
        <time>2022-10-30T11:40:40.000Z</time>
      </trkpt>
      <trkpt lat="48.01075" lon="6.99002">
        <ele>1029.4000244141</ele>
        <time>2022-10-30T11:40:44.000Z</time>
      </trkpt>
      <trkpt lat="48.01074" lon="6.99002">
        <ele>1029.1999511719</ele>
        <time>2022-10-30T11:40:46.000Z</time>
      </trkpt>
      <trkpt lat="48.01073" lon="6.99006">
        <ele>1029</ele>
        <time>2022-10-30T11:40:49.000Z</time>
      </trkpt>
      <trkpt lat="48.01075" lon="6.9901">
        <ele>1028.4000244141</ele>
        <time>2022-10-30T11:40:55.000Z</time>
      </trkpt>
      <trkpt lat="48.01075" lon="6.99013">
        <ele>1028.1999511719</ele>
        <time>2022-10-30T11:40:57.000Z</time>
      </trkpt>
      <trkpt lat="48.01076" lon="6.99017">
        <ele>1027.8000488281</ele>
        <time>2022-10-30T11:41:04.000Z</time>
      </trkpt>
      <trkpt lat="48.01077" lon="6.9902">
        <ele>1027.4000244141</ele>
        <time>2022-10-30T11:41:09.000Z</time>
      </trkpt>
      <trkpt lat="48.01075" lon="6.99015">
        <ele>1027.1999511719</ele>
        <time>2022-10-30T11:41:15.000Z</time>
      </trkpt>
      <trkpt lat="48.01073" lon="6.9901">
        <ele>1027.1999511719</ele>
        <time>2022-10-30T11:41:25.000Z</time>
      </trkpt>
      <trkpt lat="48.01073" lon="6.9901">
        <ele>1026.8000488281</ele>
        <time>2022-10-30T11:41:41.000Z</time>
      </trkpt>
      <trkpt lat="48.01073" lon="6.99011">
        <ele>1026.4000244141</ele>
        <time>2022-10-30T11:41:43.000Z</time>
      </trkpt>
      <trkpt lat="48.01074" lon="6.99016">
        <ele>1026</ele>
        <time>2022-10-30T11:41:54.000Z</time>
      </trkpt>
      <trkpt lat="48.0108" lon="6.99028">
        <ele>1025.5999755859</ele>
        <time>2022-10-30T11:42:07.000Z</time>
      </trkpt>
      <trkpt lat="48.01083" lon="6.99031">
        <ele>1025.4000244141</ele>
        <time>2022-10-30T11:42:09.000Z</time>
      </trkpt>
      <trkpt lat="48.01084" lon="6.99032">
        <ele>1025.4000244141</ele>
        <time>2022-10-30T11:42:10.000Z</time>
      </trkpt>
      <trkpt lat="48.01086" lon="6.99037">
        <ele>1025.1999511719</ele>
        <time>2022-10-30T11:42:13.000Z</time>
      </trkpt>
      <trkpt lat="48.01087" lon="6.99041">
        <ele>1024.8000488281</ele>
        <time>2022-10-30T11:42:17.000Z</time>
      </trkpt>
      <trkpt lat="48.01088" lon="6.99041">
        <ele>1024.1999511719</ele>
        <time>2022-10-30T11:42:23.000Z</time>
      </trkpt>
      <trkpt lat="48.01092" lon="6.99046">
        <ele>1023.5999755859</ele>
        <time>2022-10-30T11:42:32.000Z</time>
      </trkpt>
      <trkpt lat="48.01092" lon="6.99052">
        <ele>1023.1999511719</ele>
        <time>2022-10-30T11:42:37.000Z</time>
      </trkpt>
      <trkpt lat="48.01092" lon="6.99054">
        <ele>1023.1999511719</ele>
        <time>2022-10-30T11:42:39.000Z</time>
      </trkpt>
      <trkpt lat="48.01096" lon="6.99059">
        <ele>1022.8000488281</ele>
        <time>2022-10-30T11:42:45.000Z</time>
      </trkpt>
      <trkpt lat="48.01098" lon="6.99062">
        <ele>1022.5999755859</ele>
        <time>2022-10-30T11:42:48.000Z</time>
      </trkpt>
      <trkpt lat="48.01099" lon="6.99063">
        <ele>1022.4000244141</ele>
        <time>2022-10-30T11:42:49.000Z</time>
      </trkpt>
      <trkpt lat="48.011" lon="6.99065">
        <ele>1022</ele>
        <time>2022-10-30T11:42:52.000Z</time>
      </trkpt>
      <trkpt lat="48.01099" lon="6.99078">
        <ele>1021.4000244141</ele>
        <time>2022-10-30T11:43:00.000Z</time>
      </trkpt>
      <trkpt lat="48.011" lon="6.9908">
        <ele>1021</ele>
        <time>2022-10-30T11:43:03.000Z</time>
      </trkpt>
      <trkpt lat="48.01103" lon="6.99079">
        <ele>1020</ele>
        <time>2022-10-30T11:43:08.000Z</time>
      </trkpt>
      <trkpt lat="48.01102" lon="6.99079">
        <ele>1020</ele>
        <time>2022-10-30T11:43:09.000Z</time>
      </trkpt>
      <trkpt lat="48.01101" lon="6.99076">
        <ele>1019.5999755859</ele>
        <time>2022-10-30T11:43:13.000Z</time>
      </trkpt>
      <trkpt lat="48.01102" lon="6.99072">
        <ele>1019.1999511719</ele>
        <time>2022-10-30T11:43:17.000Z</time>
      </trkpt>
      <trkpt lat="48.01102" lon="6.9907">
        <ele>1019</ele>
        <time>2022-10-30T11:43:19.000Z</time>
      </trkpt>
      <trkpt lat="48.01102" lon="6.99068">
        <ele>1018.8000488281</ele>
        <time>2022-10-30T11:43:21.000Z</time>
      </trkpt>
      <trkpt lat="48.01104" lon="6.9906">
        <ele>1018.1999511719</ele>
        <time>2022-10-30T11:43:27.000Z</time>
      </trkpt>
      <trkpt lat="48.01105" lon="6.9906">
        <ele>1017.8000488281</ele>
        <time>2022-10-30T11:43:29.000Z</time>
      </trkpt>
      <trkpt lat="48.01107" lon="6.99065">
        <ele>1017.5999755859</ele>
        <time>2022-10-30T11:43:32.000Z</time>
      </trkpt>
      <trkpt lat="48.01108" lon="6.99071">
        <ele>1017</ele>
        <time>2022-10-30T11:43:38.000Z</time>
      </trkpt>
      <trkpt lat="48.01108" lon="6.99072">
        <ele>1016.8000488281</ele>
        <time>2022-10-30T11:43:40.000Z</time>
      </trkpt>
      <trkpt lat="48.0111" lon="6.99079">
        <ele>1015.8000488281</ele>
        <time>2022-10-30T11:43:45.000Z</time>
      </trkpt>
      <trkpt lat="48.01112" lon="6.99091">
        <ele>1014.5999755859</ele>
        <time>2022-10-30T11:43:52.000Z</time>
      </trkpt>
      <trkpt lat="48.01113" lon="6.99092">
        <ele>1014.5999755859</ele>
        <time>2022-10-30T11:43:53.000Z</time>
      </trkpt>
      <trkpt lat="48.0111" lon="6.99102">
        <ele>1014.1999511719</ele>
        <time>2022-10-30T11:43:58.000Z</time>
      </trkpt>
      <trkpt lat="48.01113" lon="6.99107">
        <ele>1013.5999755859</ele>
        <time>2022-10-30T11:44:02.000Z</time>
      </trkpt>
      <trkpt lat="48.01113" lon="6.99108">
        <ele>1013.4000244141</ele>
        <time>2022-10-30T11:44:03.000Z</time>
      </trkpt>
      <trkpt lat="48.01113" lon="6.99118">
        <ele>1012.8000488281</ele>
        <time>2022-10-30T11:44:12.000Z</time>
      </trkpt>
      <trkpt lat="48.01113" lon="6.99121">
        <ele>1012.5999755859</ele>
        <time>2022-10-30T11:44:14.000Z</time>
      </trkpt>
      <trkpt lat="48.01115" lon="6.9913">
        <ele>1012.4000244141</ele>
        <time>2022-10-30T11:44:17.000Z</time>
      </trkpt>
      <trkpt lat="48.01116" lon="6.99135">
        <ele>1012.1999511719</ele>
        <time>2022-10-30T11:44:19.000Z</time>
      </trkpt>
      <trkpt lat="48.01117" lon="6.99138">
        <ele>1012</ele>
        <time>2022-10-30T11:44:21.000Z</time>
      </trkpt>
      <trkpt lat="48.01117" lon="6.99141">
        <ele>1011.8000488281</ele>
        <time>2022-10-30T11:44:23.000Z</time>
      </trkpt>
      <trkpt lat="48.01113" lon="6.9914">
        <ele>1011.5999755859</ele>
        <time>2022-10-30T11:44:26.000Z</time>
      </trkpt>
      <trkpt lat="48.01111" lon="6.99139">
        <ele>1011.1999511719</ele>
        <time>2022-10-30T11:44:28.000Z</time>
      </trkpt>
      <trkpt lat="48.0111" lon="6.99138">
        <ele>1010.5999755859</ele>
        <time>2022-10-30T11:44:33.000Z</time>
      </trkpt>
      <trkpt lat="48.0111" lon="6.99138">
        <ele>1010.5999755859</ele>
        <time>2022-10-30T11:44:34.000Z</time>
      </trkpt>
      <trkpt lat="48.01109" lon="6.99137">
        <ele>1010.4000244141</ele>
        <time>2022-10-30T11:44:35.000Z</time>
      </trkpt>
      <trkpt lat="48.01107" lon="6.99138">
        <ele>1010</ele>
        <time>2022-10-30T11:44:39.000Z</time>
      </trkpt>
      <trkpt lat="48.01105" lon="6.99141">
        <ele>1009.4000244141</ele>
        <time>2022-10-30T11:44:42.000Z</time>
      </trkpt>
      <trkpt lat="48.01105" lon="6.99142">
        <ele>1009.4000244141</ele>
        <time>2022-10-30T11:44:43.000Z</time>
      </trkpt>
      <trkpt lat="48.01104" lon="6.99144">
        <ele>1009</ele>
        <time>2022-10-30T11:44:45.000Z</time>
      </trkpt>
      <trkpt lat="48.01105" lon="6.99144">
        <ele>1008.8000488281</ele>
        <time>2022-10-30T11:44:47.000Z</time>
      </trkpt>
      <trkpt lat="48.01106" lon="6.99144">
        <ele>1008.4000244141</ele>
        <time>2022-10-30T11:44:51.000Z</time>
      </trkpt>
      <trkpt lat="48.01104" lon="6.9915">
        <ele>1008.1999511719</ele>
        <time>2022-10-30T11:44:53.000Z</time>
      </trkpt>
      <trkpt lat="48.01102" lon="6.9916">
        <ele>1007.5999755859</ele>
        <time>2022-10-30T11:44:58.000Z</time>
      </trkpt>
      <trkpt lat="48.01101" lon="6.99161">
        <ele>1007.4000244141</ele>
        <time>2022-10-30T11:44:59.000Z</time>
      </trkpt>
      <trkpt lat="48.01098" lon="6.99166">
        <ele>1006.8000488281</ele>
        <time>2022-10-30T11:45:03.000Z</time>
      </trkpt>
      <trkpt lat="48.01093" lon="6.99171">
        <ele>1006.4000244141</ele>
        <time>2022-10-30T11:45:08.000Z</time>
      </trkpt>
      <trkpt lat="48.01092" lon="6.99172">
        <ele>1006.1999511719</ele>
        <time>2022-10-30T11:45:09.000Z</time>
      </trkpt>
      <trkpt lat="48.0109" lon="6.99172">
        <ele>1006.1999511719</ele>
        <time>2022-10-30T11:45:10.000Z</time>
      </trkpt>
      <trkpt lat="48.01088" lon="6.99173">
        <ele>1005.5999755859</ele>
        <time>2022-10-30T11:45:14.000Z</time>
      </trkpt>
      <trkpt lat="48.01088" lon="6.99174">
        <ele>1005.4000244141</ele>
        <time>2022-10-30T11:45:15.000Z</time>
      </trkpt>
      <trkpt lat="48.01083" lon="6.99178">
        <ele>1005.1999511719</ele>
        <time>2022-10-30T11:45:18.000Z</time>
      </trkpt>
      <trkpt lat="48.01082" lon="6.99183">
        <ele>1004.8000488281</ele>
        <time>2022-10-30T11:45:21.000Z</time>
      </trkpt>
      <trkpt lat="48.01081" lon="6.99185">
        <ele>1004.5999755859</ele>
        <time>2022-10-30T11:45:22.000Z</time>
      </trkpt>
      <trkpt lat="48.01078" lon="6.99191">
        <ele>1004</ele>
        <time>2022-10-30T11:45:25.000Z</time>
      </trkpt>
      <trkpt lat="48.01072" lon="6.99198">
        <ele>1003.4000244141</ele>
        <time>2022-10-30T11:45:31.000Z</time>
      </trkpt>
      <trkpt lat="48.01071" lon="6.99202">
        <ele>1003</ele>
        <time>2022-10-30T11:45:34.000Z</time>
      </trkpt>
      <trkpt lat="48.01072" lon="6.99202">
        <ele>1003</ele>
        <time>2022-10-30T11:45:35.000Z</time>
      </trkpt>
      <trkpt lat="48.01073" lon="6.99201">
        <ele>1003</ele>
        <time>2022-10-30T11:45:36.000Z</time>
      </trkpt>
      <trkpt lat="48.0107" lon="6.99203">
        <ele>1002.4000244141</ele>
        <time>2022-10-30T11:45:44.000Z</time>
      </trkpt>
      <trkpt lat="48.01069" lon="6.99207">
        <ele>1002</ele>
        <time>2022-10-30T11:45:50.000Z</time>
      </trkpt>
      <trkpt lat="48.01069" lon="6.99207">
        <ele>1001.4000244141</ele>
        <time>2022-10-30T11:46:08.000Z</time>
      </trkpt>
      <trkpt lat="48.01068" lon="6.99209">
        <ele>1001.4000244141</ele>
        <time>2022-10-30T11:46:12.000Z</time>
      </trkpt>
      <trkpt lat="48.01067" lon="6.99209">
        <ele>1001</ele>
        <time>2022-10-30T11:46:16.000Z</time>
      </trkpt>
      <trkpt lat="48.01068" lon="6.99208">
        <ele>1000.8000488281</ele>
        <time>2022-10-30T11:46:18.000Z</time>
      </trkpt>
      <trkpt lat="48.01066" lon="6.99209">
        <ele>1000.5999755859</ele>
        <time>2022-10-30T11:46:23.000Z</time>
      </trkpt>
      <trkpt lat="48.01063" lon="6.99212">
        <ele>1000.4000244141</ele>
        <time>2022-10-30T11:46:29.000Z</time>
      </trkpt>
      <trkpt lat="48.01062" lon="6.99213">
        <ele>1000.4000244141</ele>
        <time>2022-10-30T11:46:31.000Z</time>
      </trkpt>
      <trkpt lat="48.01061" lon="6.99215">
        <ele>1000.5999755859</ele>
        <time>2022-10-30T11:46:34.000Z</time>
      </trkpt>
      <trkpt lat="48.01062" lon="6.99217">
        <ele>1000.4000244141</ele>
        <time>2022-10-30T11:46:36.000Z</time>
      </trkpt>
      <trkpt lat="48.01065" lon="6.9922">
        <ele>999.80004882812</ele>
        <time>2022-10-30T11:46:38.000Z</time>
      </trkpt>
      <trkpt lat="48.01064" lon="6.99221">
        <ele>999.19995117188</ele>
        <time>2022-10-30T11:46:42.000Z</time>
      </trkpt>
      <trkpt lat="48.01062" lon="6.99223">
        <ele>999</ele>
        <time>2022-10-30T11:46:47.000Z</time>
      </trkpt>
      <trkpt lat="48.01061" lon="6.99224">
        <ele>998.80004882812</ele>
        <time>2022-10-30T11:46:48.000Z</time>
      </trkpt>
      <trkpt lat="48.0106" lon="6.99226">
        <ele>998.59997558594</ele>
        <time>2022-10-30T11:46:51.000Z</time>
      </trkpt>
      <trkpt lat="48.01058" lon="6.99228">
        <ele>997.80004882812</ele>
        <time>2022-10-30T11:46:57.000Z</time>
      </trkpt>
      <trkpt lat="48.01056" lon="6.99231">
        <ele>997.40002441406</ele>
        <time>2022-10-30T11:47:02.000Z</time>
      </trkpt>
      <trkpt lat="48.01054" lon="6.9923">
        <ele>997.40002441406</ele>
        <time>2022-10-30T11:47:09.000Z</time>
      </trkpt>
      <trkpt lat="48.01052" lon="6.99227">
        <ele>997.40002441406</ele>
        <time>2022-10-30T11:47:15.000Z</time>
      </trkpt>
      <trkpt lat="48.01047" lon="6.99228">
        <ele>997.80004882812</ele>
        <time>2022-10-30T11:47:24.000Z</time>
      </trkpt>
      <trkpt lat="48.01044" lon="6.99225">
        <ele>998</ele>
        <time>2022-10-30T11:47:31.000Z</time>
      </trkpt>
      <trkpt lat="48.01044" lon="6.99225">
        <ele>998</ele>
        <time>2022-10-30T11:47:35.000Z</time>
      </trkpt>
      <trkpt lat="48.01042" lon="6.99226">
        <ele>998.19995117188</ele>
        <time>2022-10-30T11:47:42.000Z</time>
      </trkpt>
      <trkpt lat="48.01041" lon="6.99223">
        <ele>998.19995117188</ele>
        <time>2022-10-30T11:47:49.000Z</time>
      </trkpt>
      <trkpt lat="48.01042" lon="6.99223">
        <ele>998.19995117188</ele>
        <time>2022-10-30T11:47:52.000Z</time>
      </trkpt>
      <trkpt lat="48.01039" lon="6.99225">
        <ele>998</ele>
        <time>2022-10-30T11:47:59.000Z</time>
      </trkpt>
      <trkpt lat="48.01034" lon="6.9922">
        <ele>997.80004882812</ele>
        <time>2022-10-30T11:48:06.000Z</time>
      </trkpt>
      <trkpt lat="48.01031" lon="6.99223">
        <ele>997.80004882812</ele>
        <time>2022-10-30T11:48:25.000Z</time>
      </trkpt>
      <trkpt lat="48.01027" lon="6.99225">
        <ele>997.80004882812</ele>
        <time>2022-10-30T11:48:40.000Z</time>
      </trkpt>
      <trkpt lat="48.0102" lon="6.99239">
        <ele>997.80004882812</ele>
        <time>2022-10-30T11:48:49.000Z</time>
      </trkpt>
      <trkpt lat="48.01016" lon="6.99253">
        <ele>997.80004882812</ele>
        <time>2022-10-30T11:48:55.000Z</time>
      </trkpt>
      <trkpt lat="48.01014" lon="6.99257">
        <ele>997.80004882812</ele>
        <time>2022-10-30T11:49:00.000Z</time>
      </trkpt>
      <trkpt lat="48.01013" lon="6.9926">
        <ele>994.40002441406</ele>
        <time>2022-10-30T11:49:08.000Z</time>
      </trkpt>
      <trkpt lat="48.01012" lon="6.99259">
        <ele>994.40002441406</ele>
        <time>2022-10-30T11:49:09.000Z</time>
      </trkpt>
      <trkpt lat="48.01008" lon="6.99262">
        <ele>994.19995117188</ele>
        <time>2022-10-30T11:49:15.000Z</time>
      </trkpt>
      <trkpt lat="48.01006" lon="6.99263">
        <ele>994.19995117188</ele>
        <time>2022-10-30T11:49:22.000Z</time>
      </trkpt>
      <trkpt lat="48.01001" lon="6.99272">
        <ele>994.19995117188</ele>
        <time>2022-10-30T11:49:28.000Z</time>
      </trkpt>
      <trkpt lat="48.01" lon="6.99273">
        <ele>994.40002441406</ele>
        <time>2022-10-30T11:49:30.000Z</time>
      </trkpt>
      <trkpt lat="48.01001" lon="6.99276">
        <ele>994</ele>
        <time>2022-10-30T11:49:37.000Z</time>
      </trkpt>
      <trkpt lat="48.00999" lon="6.99275">
        <ele>994.19995117188</ele>
        <time>2022-10-30T11:49:44.000Z</time>
      </trkpt>
      <trkpt lat="48.01001" lon="6.99278">
        <ele>994.19995117188</ele>
        <time>2022-10-30T11:49:50.000Z</time>
      </trkpt>
      <trkpt lat="48.01004" lon="6.99276">
        <ele>994.19995117188</ele>
        <time>2022-10-30T11:49:54.000Z</time>
      </trkpt>
      <trkpt lat="48.01007" lon="6.99277">
        <ele>994.19995117188</ele>
        <time>2022-10-30T11:50:00.000Z</time>
      </trkpt>
      <trkpt lat="48.01007" lon="6.99276">
        <ele>994</ele>
        <time>2022-10-30T11:50:04.000Z</time>
      </trkpt>
      <trkpt lat="48.01011" lon="6.9927">
        <ele>994</ele>
        <time>2022-10-30T11:50:10.000Z</time>
      </trkpt>
      <trkpt lat="48.01007" lon="6.99269">
        <ele>994</ele>
        <time>2022-10-30T11:50:14.000Z</time>
      </trkpt>
      <trkpt lat="48.01007" lon="6.99264">
        <ele>994</ele>
        <time>2022-10-30T11:50:19.000Z</time>
      </trkpt>
      <trkpt lat="48.01009" lon="6.99265">
        <ele>994</ele>
        <time>2022-10-30T11:50:24.000Z</time>
      </trkpt>
      <trkpt lat="48.0101" lon="6.99266">
        <ele>994.19995117188</ele>
        <time>2022-10-30T11:50:28.000Z</time>
      </trkpt>
      <trkpt lat="48.0101" lon="6.99265">
        <ele>994</ele>
        <time>2022-10-30T11:50:36.000Z</time>
      </trkpt>
      <trkpt lat="48.01009" lon="6.99264">
        <ele>994</ele>
        <time>2022-10-30T11:50:42.000Z</time>
      </trkpt>
      <trkpt lat="48.01007" lon="6.99266">
        <ele>994</ele>
        <time>2022-10-30T11:50:47.000Z</time>
      </trkpt>
      <trkpt lat="48.01003" lon="6.99276">
        <ele>994</ele>
        <time>2022-10-30T11:50:53.000Z</time>
      </trkpt>
      <trkpt lat="48.01007" lon="6.99277">
        <ele>994.19995117188</ele>
        <time>2022-10-30T11:50:58.000Z</time>
      </trkpt>
      <trkpt lat="48.0101" lon="6.99277">
        <ele>994.19995117188</ele>
        <time>2022-10-30T11:51:03.000Z</time>
      </trkpt>
      <trkpt lat="48.01011" lon="6.99276">
        <ele>994.19995117188</ele>
        <time>2022-10-30T11:51:05.000Z</time>
      </trkpt>
      <trkpt lat="48.01008" lon="6.99278">
        <ele>994.19995117188</ele>
        <time>2022-10-30T11:51:09.000Z</time>
      </trkpt>
      <trkpt lat="48.01009" lon="6.99273">
        <ele>994.19995117188</ele>
        <time>2022-10-30T11:51:20.000Z</time>
      </trkpt>
      <trkpt lat="48.01006" lon="6.99275">
        <ele>994.19995117188</ele>
        <time>2022-10-30T11:51:26.000Z</time>
      </trkpt>
      <trkpt lat="48.01003" lon="6.99277">
        <ele>994.19995117188</ele>
        <time>2022-10-30T11:51:30.000Z</time>
      </trkpt>
      <trkpt lat="48.01001" lon="6.99281">
        <ele>994.19995117188</ele>
        <time>2022-10-30T11:51:35.000Z</time>
      </trkpt>
      <trkpt lat="48.00998" lon="6.99285">
        <ele>994.19995117188</ele>
        <time>2022-10-30T11:51:37.000Z</time>
      </trkpt>
      <trkpt lat="48.00995" lon="6.99286">
        <ele>994.19995117188</ele>
        <time>2022-10-30T11:51:39.000Z</time>
      </trkpt>
      <trkpt lat="48.01001" lon="6.99285">
        <ele>994.19995117188</ele>
        <time>2022-10-30T11:51:43.000Z</time>
      </trkpt>
      <trkpt lat="48.01004" lon="6.99286">
        <ele>994.19995117188</ele>
        <time>2022-10-30T11:51:47.000Z</time>
      </trkpt>
      <trkpt lat="48.01004" lon="6.99286">
        <ele>994.19995117188</ele>
        <time>2022-10-30T11:51:48.000Z</time>
      </trkpt>
      <trkpt lat="48.01002" lon="6.99285">
        <ele>994.19995117188</ele>
        <time>2022-10-30T11:51:53.000Z</time>
      </trkpt>
      <trkpt lat="48.00995" lon="6.9929">
        <ele>994.19995117188</ele>
        <time>2022-10-30T11:52:01.000Z</time>
      </trkpt>
      <trkpt lat="48.00992" lon="6.99295">
        <ele>994.19995117188</ele>
        <time>2022-10-30T11:52:07.000Z</time>
      </trkpt>
      <trkpt lat="48.00992" lon="6.99301">
        <ele>991.59997558594</ele>
        <time>2022-10-30T11:52:11.000Z</time>
      </trkpt>
      <trkpt lat="48.0099" lon="6.99303">
        <ele>991.59997558594</ele>
        <time>2022-10-30T11:52:12.000Z</time>
      </trkpt>
      <trkpt lat="48.00989" lon="6.99305">
        <ele>991.59997558594</ele>
        <time>2022-10-30T11:52:13.000Z</time>
      </trkpt>
      <trkpt lat="48.0099" lon="6.99308">
        <ele>991.59997558594</ele>
        <time>2022-10-30T11:52:15.000Z</time>
      </trkpt>
      <trkpt lat="48.00988" lon="6.9931">
        <ele>991.19995117188</ele>
        <time>2022-10-30T11:52:20.000Z</time>
      </trkpt>
      <trkpt lat="48.00986" lon="6.99312">
        <ele>990.80004882812</ele>
        <time>2022-10-30T11:52:25.000Z</time>
      </trkpt>
      <trkpt lat="48.00985" lon="6.99318">
        <ele>990.59997558594</ele>
        <time>2022-10-30T11:52:32.000Z</time>
      </trkpt>
      <trkpt lat="48.00985" lon="6.99319">
        <ele>990.59997558594</ele>
        <time>2022-10-30T11:52:33.000Z</time>
      </trkpt>
      <trkpt lat="48.00982" lon="6.99322">
        <ele>990</ele>
        <time>2022-10-30T11:52:39.000Z</time>
      </trkpt>
      <trkpt lat="48.00976" lon="6.99329">
        <ele>989.59997558594</ele>
        <time>2022-10-30T11:52:45.000Z</time>
      </trkpt>
      <trkpt lat="48.00976" lon="6.9933">
        <ele>989.59997558594</ele>
        <time>2022-10-30T11:52:47.000Z</time>
      </trkpt>
      <trkpt lat="48.00976" lon="6.99329">
        <ele>989.40002441406</ele>
        <time>2022-10-30T11:52:48.000Z</time>
      </trkpt>
      <trkpt lat="48.00972" lon="6.9933">
        <ele>989.40002441406</ele>
        <time>2022-10-30T11:52:51.000Z</time>
      </trkpt>
      <trkpt lat="48.00972" lon="6.99331">
        <ele>989.19995117188</ele>
        <time>2022-10-30T11:52:52.000Z</time>
      </trkpt>
      <trkpt lat="48.00972" lon="6.99332">
        <ele>989.19995117188</ele>
        <time>2022-10-30T11:52:53.000Z</time>
      </trkpt>
      <trkpt lat="48.00973" lon="6.99335">
        <ele>989</ele>
        <time>2022-10-30T11:52:55.000Z</time>
      </trkpt>
      <trkpt lat="48.00974" lon="6.99338">
        <ele>989</ele>
        <time>2022-10-30T11:52:59.000Z</time>
      </trkpt>
      <trkpt lat="48.00975" lon="6.99337">
        <ele>989</ele>
        <time>2022-10-30T11:53:00.000Z</time>
      </trkpt>
      <trkpt lat="48.00977" lon="6.99334">
        <ele>988.40002441406</ele>
        <time>2022-10-30T11:53:04.000Z</time>
      </trkpt>
      <trkpt lat="48.00977" lon="6.99333">
        <ele>988.40002441406</ele>
        <time>2022-10-30T11:53:05.000Z</time>
      </trkpt>
      <trkpt lat="48.00975" lon="6.99325">
        <ele>987.80004882812</ele>
        <time>2022-10-30T11:53:09.000Z</time>
      </trkpt>
      <trkpt lat="48.00975" lon="6.99324">
        <ele>987.59997558594</ele>
        <time>2022-10-30T11:53:12.000Z</time>
      </trkpt>
      <trkpt lat="48.00975" lon="6.99324">
        <ele>987.59997558594</ele>
        <time>2022-10-30T11:53:14.000Z</time>
      </trkpt>
      <trkpt lat="48.00974" lon="6.99324">
        <ele>987.59997558594</ele>
        <time>2022-10-30T11:53:18.000Z</time>
      </trkpt>
      <trkpt lat="48.00974" lon="6.99325">
        <ele>987.40002441406</ele>
        <time>2022-10-30T11:53:19.000Z</time>
      </trkpt>
      <trkpt lat="48.00975" lon="6.99325">
        <ele>987.40002441406</ele>
        <time>2022-10-30T11:53:20.000Z</time>
      </trkpt>
      <trkpt lat="48.00976" lon="6.99325">
        <ele>987.40002441406</ele>
        <time>2022-10-30T11:53:22.000Z</time>
      </trkpt>
      <trkpt lat="48.00977" lon="6.99324">
        <ele>986.40002441406</ele>
        <time>2022-10-30T11:53:33.000Z</time>
      </trkpt>
      <trkpt lat="48.00977" lon="6.99324">
        <ele>985.80004882812</ele>
        <time>2022-10-30T11:53:40.000Z</time>
      </trkpt>
      <trkpt lat="48.00979" lon="6.99322">
        <ele>985.40002441406</ele>
        <time>2022-10-30T11:53:45.000Z</time>
      </trkpt>
      <trkpt lat="48.00979" lon="6.99321">
        <ele>985.19995117188</ele>
        <time>2022-10-30T11:53:47.000Z</time>
      </trkpt>
      <trkpt lat="48.00981" lon="6.99312">
        <ele>984.19995117188</ele>
        <time>2022-10-30T11:53:56.000Z</time>
      </trkpt>
      <trkpt lat="48.00984" lon="6.99304">
        <ele>983.80004882812</ele>
        <time>2022-10-30T11:54:00.000Z</time>
      </trkpt>
      <trkpt lat="48.00992" lon="6.99294">
        <ele>983.40002441406</ele>
        <time>2022-10-30T11:54:06.000Z</time>
      </trkpt>
      <trkpt lat="48.00995" lon="6.99296">
        <ele>983.19995117188</ele>
        <time>2022-10-30T11:54:09.000Z</time>
      </trkpt>
      <trkpt lat="48.00996" lon="6.99298">
        <ele>983</ele>
        <time>2022-10-30T11:54:11.000Z</time>
      </trkpt>
      <trkpt lat="48.00998" lon="6.99296">
        <ele>982.80004882812</ele>
        <time>2022-10-30T11:54:17.000Z</time>
      </trkpt>
      <trkpt lat="48.01" lon="6.99296">
        <ele>982.40002441406</ele>
        <time>2022-10-30T11:54:22.000Z</time>
      </trkpt>
      <trkpt lat="48.01003" lon="6.99292">
        <ele>982.19995117188</ele>
        <time>2022-10-30T11:54:27.000Z</time>
      </trkpt>
      <trkpt lat="48.01003" lon="6.99291">
        <ele>982.19995117188</ele>
        <time>2022-10-30T11:54:28.000Z</time>
      </trkpt>
      <trkpt lat="48.01006" lon="6.99288">
        <ele>981.80004882812</ele>
        <time>2022-10-30T11:54:34.000Z</time>
      </trkpt>
      <trkpt lat="48.01009" lon="6.99284">
        <ele>981.40002441406</ele>
        <time>2022-10-30T11:54:39.000Z</time>
      </trkpt>
      <trkpt lat="48.01009" lon="6.99281">
        <ele>981</ele>
        <time>2022-10-30T11:54:41.000Z</time>
      </trkpt>
      <trkpt lat="48.01014" lon="6.99278">
        <ele>980.59997558594</ele>
        <time>2022-10-30T11:54:45.000Z</time>
      </trkpt>
      <trkpt lat="48.01021" lon="6.99277">
        <ele>980</ele>
        <time>2022-10-30T11:54:50.000Z</time>
      </trkpt>
      <trkpt lat="48.01024" lon="6.99279">
        <ele>979.80004882812</ele>
        <time>2022-10-30T11:54:53.000Z</time>
      </trkpt>
      <trkpt lat="48.01024" lon="6.99283">
        <ele>979.19995117188</ele>
        <time>2022-10-30T11:54:58.000Z</time>
      </trkpt>
      <trkpt lat="48.01025" lon="6.99285">
        <ele>979</ele>
        <time>2022-10-30T11:55:00.000Z</time>
      </trkpt>
      <trkpt lat="48.01026" lon="6.99286">
        <ele>979</ele>
        <time>2022-10-30T11:55:01.000Z</time>
      </trkpt>
      <trkpt lat="48.01028" lon="6.9929">
        <ele>978.19995117188</ele>
        <time>2022-10-30T11:55:06.000Z</time>
      </trkpt>
      <trkpt lat="48.01029" lon="6.99297">
        <ele>978</ele>
        <time>2022-10-30T11:55:10.000Z</time>
      </trkpt>
      <trkpt lat="48.0103" lon="6.99299">
        <ele>978</ele>
        <time>2022-10-30T11:55:11.000Z</time>
      </trkpt>
      <trkpt lat="48.01031" lon="6.99301">
        <ele>978</ele>
        <time>2022-10-30T11:55:13.000Z</time>
      </trkpt>
      <trkpt lat="48.01032" lon="6.99306">
        <ele>977.80004882812</ele>
        <time>2022-10-30T11:55:18.000Z</time>
      </trkpt>
      <trkpt lat="48.01035" lon="6.99307">
        <ele>977.40002441406</ele>
        <time>2022-10-30T11:55:22.000Z</time>
      </trkpt>
      <trkpt lat="48.01035" lon="6.99307">
        <ele>977.40002441406</ele>
        <time>2022-10-30T11:55:23.000Z</time>
      </trkpt>
      <trkpt lat="48.01035" lon="6.9931">
        <ele>977</ele>
        <time>2022-10-30T11:55:26.000Z</time>
      </trkpt>
      <trkpt lat="48.01035" lon="6.99311">
        <ele>977</ele>
        <time>2022-10-30T11:55:27.000Z</time>
      </trkpt>
      <trkpt lat="48.01036" lon="6.99313">
        <ele>976.80004882812</ele>
        <time>2022-10-30T11:55:29.000Z</time>
      </trkpt>
      <trkpt lat="48.01037" lon="6.99314">
        <ele>976.40002441406</ele>
        <time>2022-10-30T11:55:31.000Z</time>
      </trkpt>
      <trkpt lat="48.01039" lon="6.99319">
        <ele>976</ele>
        <time>2022-10-30T11:55:35.000Z</time>
      </trkpt>
      <trkpt lat="48.0104" lon="6.99321">
        <ele>975.80004882812</ele>
        <time>2022-10-30T11:55:37.000Z</time>
      </trkpt>
      <trkpt lat="48.01045" lon="6.99333">
        <ele>975</ele>
        <time>2022-10-30T11:55:44.000Z</time>
      </trkpt>
      <trkpt lat="48.01045" lon="6.99334">
        <ele>975</ele>
        <time>2022-10-30T11:55:45.000Z</time>
      </trkpt>
      <trkpt lat="48.01046" lon="6.99336">
        <ele>974.80004882812</ele>
        <time>2022-10-30T11:55:47.000Z</time>
      </trkpt>
      <trkpt lat="48.01048" lon="6.99336">
        <ele>974.40002441406</ele>
        <time>2022-10-30T11:55:50.000Z</time>
      </trkpt>
      <trkpt lat="48.01049" lon="6.99337">
        <ele>973.80004882812</ele>
        <time>2022-10-30T11:55:54.000Z</time>
      </trkpt>
      <trkpt lat="48.01049" lon="6.99339">
        <ele>973.59997558594</ele>
        <time>2022-10-30T11:55:56.000Z</time>
      </trkpt>
      <trkpt lat="48.01049" lon="6.99343">
        <ele>972.80004882812</ele>
        <time>2022-10-30T11:56:03.000Z</time>
      </trkpt>
      <trkpt lat="48.01055" lon="6.9935">
        <ele>972</ele>
        <time>2022-10-30T11:56:09.000Z</time>
      </trkpt>
      <trkpt lat="48.01057" lon="6.99353">
        <ele>971.59997558594</ele>
        <time>2022-10-30T11:56:11.000Z</time>
      </trkpt>
      <trkpt lat="48.01057" lon="6.99357">
        <ele>971.40002441406</ele>
        <time>2022-10-30T11:56:15.000Z</time>
      </trkpt>
      <trkpt lat="48.0106" lon="6.99365">
        <ele>970.80004882812</ele>
        <time>2022-10-30T11:56:21.000Z</time>
      </trkpt>
      <trkpt lat="48.01062" lon="6.99366">
        <ele>970.59997558594</ele>
        <time>2022-10-30T11:56:23.000Z</time>
      </trkpt>
      <trkpt lat="48.01066" lon="6.9937">
        <ele>970.40002441406</ele>
        <time>2022-10-30T11:56:26.000Z</time>
      </trkpt>
      <trkpt lat="48.01069" lon="6.99373">
        <ele>970.19995117188</ele>
        <time>2022-10-30T11:56:28.000Z</time>
      </trkpt>
      <trkpt lat="48.01073" lon="6.99378">
        <ele>969.59997558594</ele>
        <time>2022-10-30T11:56:32.000Z</time>
      </trkpt>
      <trkpt lat="48.01076" lon="6.99383">
        <ele>969.40002441406</ele>
        <time>2022-10-30T11:56:35.000Z</time>
      </trkpt>
      <trkpt lat="48.0108" lon="6.99382">
        <ele>968.59997558594</ele>
        <time>2022-10-30T11:56:40.000Z</time>
      </trkpt>
      <trkpt lat="48.0108" lon="6.99383">
        <ele>968.59997558594</ele>
        <time>2022-10-30T11:56:41.000Z</time>
      </trkpt>
      <trkpt lat="48.0108" lon="6.99388">
        <ele>968</ele>
        <time>2022-10-30T11:56:46.000Z</time>
      </trkpt>
      <trkpt lat="48.01079" lon="6.99389">
        <ele>967.80004882812</ele>
        <time>2022-10-30T11:56:48.000Z</time>
      </trkpt>
      <trkpt lat="48.01077" lon="6.99391">
        <ele>967.59997558594</ele>
        <time>2022-10-30T11:56:54.000Z</time>
      </trkpt>
      <trkpt lat="48.01076" lon="6.99391">
        <ele>967.40002441406</ele>
        <time>2022-10-30T11:56:56.000Z</time>
      </trkpt>
      <trkpt lat="48.01077" lon="6.99394">
        <ele>967.19995117188</ele>
        <time>2022-10-30T11:57:01.000Z</time>
      </trkpt>
      <trkpt lat="48.0108" lon="6.99398">
        <ele>966.80004882812</ele>
        <time>2022-10-30T11:57:06.000Z</time>
      </trkpt>
      <trkpt lat="48.01079" lon="6.99399">
        <ele>966.59997558594</ele>
        <time>2022-10-30T11:57:08.000Z</time>
      </trkpt>
      <trkpt lat="48.01081" lon="6.994">
        <ele>966.40002441406</ele>
        <time>2022-10-30T11:57:10.000Z</time>
      </trkpt>
      <trkpt lat="48.01083" lon="6.99403">
        <ele>965.59997558594</ele>
        <time>2022-10-30T11:57:14.000Z</time>
      </trkpt>
      <trkpt lat="48.01083" lon="6.99404">
        <ele>965.40002441406</ele>
        <time>2022-10-30T11:57:15.000Z</time>
      </trkpt>
      <trkpt lat="48.01083" lon="6.99406">
        <ele>964.80004882812</ele>
        <time>2022-10-30T11:57:18.000Z</time>
      </trkpt>
      <trkpt lat="48.01083" lon="6.99408">
        <ele>964.40002441406</ele>
        <time>2022-10-30T11:57:20.000Z</time>
      </trkpt>
      <trkpt lat="48.01085" lon="6.99409">
        <ele>964</ele>
        <time>2022-10-30T11:57:23.000Z</time>
      </trkpt>
      <trkpt lat="48.01086" lon="6.99415">
        <ele>963.40002441406</ele>
        <time>2022-10-30T11:57:29.000Z</time>
      </trkpt>
      <trkpt lat="48.01085" lon="6.99417">
        <ele>963.19995117188</ele>
        <time>2022-10-30T11:57:31.000Z</time>
      </trkpt>
      <trkpt lat="48.01087" lon="6.9942">
        <ele>963</ele>
        <time>2022-10-30T11:57:35.000Z</time>
      </trkpt>
      <trkpt lat="48.01088" lon="6.99424">
        <ele>962.40002441406</ele>
        <time>2022-10-30T11:57:39.000Z</time>
      </trkpt>
      <trkpt lat="48.01088" lon="6.99426">
        <ele>962.19995117188</ele>
        <time>2022-10-30T11:57:42.000Z</time>
      </trkpt>
      <trkpt lat="48.01088" lon="6.9943">
        <ele>962</ele>
        <time>2022-10-30T11:57:47.000Z</time>
      </trkpt>
      <trkpt lat="48.0109" lon="6.99438">
        <ele>961.40002441406</ele>
        <time>2022-10-30T11:57:54.000Z</time>
      </trkpt>
      <trkpt lat="48.01091" lon="6.99445">
        <ele>961</ele>
        <time>2022-10-30T11:57:57.000Z</time>
      </trkpt>
      <trkpt lat="48.01091" lon="6.99447">
        <ele>961</ele>
        <time>2022-10-30T11:57:59.000Z</time>
      </trkpt>
      <trkpt lat="48.01091" lon="6.99452">
        <ele>960.40002441406</ele>
        <time>2022-10-30T11:58:06.000Z</time>
      </trkpt>
      <trkpt lat="48.01092" lon="6.99453">
        <ele>960.40002441406</ele>
        <time>2022-10-30T11:58:07.000Z</time>
      </trkpt>
      <trkpt lat="48.01092" lon="6.99461">
        <ele>959.40002441406</ele>
        <time>2022-10-30T11:58:12.000Z</time>
      </trkpt>
      <trkpt lat="48.01091" lon="6.99465">
        <ele>959.19995117188</ele>
        <time>2022-10-30T11:58:14.000Z</time>
      </trkpt>
      <trkpt lat="48.01091" lon="6.99468">
        <ele>958.80004882812</ele>
        <time>2022-10-30T11:58:17.000Z</time>
      </trkpt>
      <trkpt lat="48.0109" lon="6.99471">
        <ele>958.19995117188</ele>
        <time>2022-10-30T11:58:21.000Z</time>
      </trkpt>
      <trkpt lat="48.0109" lon="6.99475">
        <ele>957.19995117188</ele>
        <time>2022-10-30T11:58:25.000Z</time>
      </trkpt>
      <trkpt lat="48.0109" lon="6.99476">
        <ele>957.19995117188</ele>
        <time>2022-10-30T11:58:26.000Z</time>
      </trkpt>
      <trkpt lat="48.01089" lon="6.99483">
        <ele>956.40002441406</ele>
        <time>2022-10-30T11:58:31.000Z</time>
      </trkpt>
      <trkpt lat="48.01089" lon="6.99487">
        <ele>956.19995117188</ele>
        <time>2022-10-30T11:58:33.000Z</time>
      </trkpt>
      <trkpt lat="48.01088" lon="6.99491">
        <ele>956</ele>
        <time>2022-10-30T11:58:35.000Z</time>
      </trkpt>
      <trkpt lat="48.01087" lon="6.99492">
        <ele>956</ele>
        <time>2022-10-30T11:58:36.000Z</time>
      </trkpt>
      <trkpt lat="48.01088" lon="6.99493">
        <ele>955.80004882812</ele>
        <time>2022-10-30T11:58:39.000Z</time>
      </trkpt>
      <trkpt lat="48.01089" lon="6.99494">
        <ele>955.59997558594</ele>
        <time>2022-10-30T11:58:40.000Z</time>
      </trkpt>
      <trkpt lat="48.01087" lon="6.99499">
        <ele>954.80004882812</ele>
        <time>2022-10-30T11:58:44.000Z</time>
      </trkpt>
      <trkpt lat="48.01087" lon="6.995">
        <ele>954.59997558594</ele>
        <time>2022-10-30T11:58:45.000Z</time>
      </trkpt>
      <trkpt lat="48.01087" lon="6.99501">
        <ele>954.19995117188</ele>
        <time>2022-10-30T11:58:48.000Z</time>
      </trkpt>
      <trkpt lat="48.01087" lon="6.99502">
        <ele>953.80004882812</ele>
        <time>2022-10-30T11:58:53.000Z</time>
      </trkpt>
      <trkpt lat="48.01085" lon="6.99505">
        <ele>953.59997558594</ele>
        <time>2022-10-30T11:58:55.000Z</time>
      </trkpt>
      <trkpt lat="48.01082" lon="6.99508">
        <ele>953</ele>
        <time>2022-10-30T11:59:00.000Z</time>
      </trkpt>
      <trkpt lat="48.01081" lon="6.99509">
        <ele>952.59997558594</ele>
        <time>2022-10-30T11:59:02.000Z</time>
      </trkpt>
      <trkpt lat="48.01083" lon="6.99513">
        <ele>952.19995117188</ele>
        <time>2022-10-30T11:59:06.000Z</time>
      </trkpt>
      <trkpt lat="48.01085" lon="6.99516">
        <ele>951.59997558594</ele>
        <time>2022-10-30T11:59:10.000Z</time>
      </trkpt>
      <trkpt lat="48.01084" lon="6.99518">
        <ele>951.40002441406</ele>
        <time>2022-10-30T11:59:11.000Z</time>
      </trkpt>
      <trkpt lat="48.01082" lon="6.99518">
        <ele>951</ele>
        <time>2022-10-30T11:59:17.000Z</time>
      </trkpt>
      <trkpt lat="48.01078" lon="6.99518">
        <ele>950.59997558594</ele>
        <time>2022-10-30T11:59:24.000Z</time>
      </trkpt>
      <trkpt lat="48.0107" lon="6.99514">
        <ele>950.40002441406</ele>
        <time>2022-10-30T11:59:32.000Z</time>
      </trkpt>
      <trkpt lat="48.0107" lon="6.99511">
        <ele>950.40002441406</ele>
        <time>2022-10-30T11:59:34.000Z</time>
      </trkpt>
      <trkpt lat="48.01067" lon="6.99514">
        <ele>950.19995117188</ele>
        <time>2022-10-30T11:59:40.000Z</time>
      </trkpt>
      <trkpt lat="48.01069" lon="6.99515">
        <ele>949.59997558594</ele>
        <time>2022-10-30T11:59:46.000Z</time>
      </trkpt>
      <trkpt lat="48.01069" lon="6.99519">
        <ele>949.19995117188</ele>
        <time>2022-10-30T11:59:52.000Z</time>
      </trkpt>
      <trkpt lat="48.01066" lon="6.99524">
        <ele>948.59997558594</ele>
        <time>2022-10-30T11:59:58.000Z</time>
      </trkpt>
      <trkpt lat="48.01066" lon="6.99525">
        <ele>948.59997558594</ele>
        <time>2022-10-30T11:59:59.000Z</time>
      </trkpt>
      <trkpt lat="48.01066" lon="6.9953">
        <ele>947.80004882812</ele>
        <time>2022-10-30T12:00:05.000Z</time>
      </trkpt>
      <trkpt lat="48.01067" lon="6.99534">
        <ele>947.40002441406</ele>
        <time>2022-10-30T12:00:07.000Z</time>
      </trkpt>
      <trkpt lat="48.01067" lon="6.9954">
        <ele>947</ele>
        <time>2022-10-30T12:00:11.000Z</time>
      </trkpt>
      <trkpt lat="48.01066" lon="6.99545">
        <ele>946.40002441406</ele>
        <time>2022-10-30T12:00:14.000Z</time>
      </trkpt>
      <trkpt lat="48.01068" lon="6.99551">
        <ele>946</ele>
        <time>2022-10-30T12:00:18.000Z</time>
      </trkpt>
      <trkpt lat="48.01068" lon="6.9956">
        <ele>945.40002441406</ele>
        <time>2022-10-30T12:00:22.000Z</time>
      </trkpt>
      <trkpt lat="48.01067" lon="6.99562">
        <ele>945.19995117188</ele>
        <time>2022-10-30T12:00:23.000Z</time>
      </trkpt>
      <trkpt lat="48.01067" lon="6.99563">
        <ele>945.19995117188</ele>
        <time>2022-10-30T12:00:24.000Z</time>
      </trkpt>
      <trkpt lat="48.01067" lon="6.99568">
        <ele>944.40002441406</ele>
        <time>2022-10-30T12:00:30.000Z</time>
      </trkpt>
      <trkpt lat="48.01067" lon="6.99569">
        <ele>944.19995117188</ele>
        <time>2022-10-30T12:00:31.000Z</time>
      </trkpt>
      <trkpt lat="48.01065" lon="6.99574">
        <ele>943.59997558594</ele>
        <time>2022-10-30T12:00:35.000Z</time>
      </trkpt>
      <trkpt lat="48.01064" lon="6.99577">
        <ele>943.40002441406</ele>
        <time>2022-10-30T12:00:37.000Z</time>
      </trkpt>
      <trkpt lat="48.01065" lon="6.99589">
        <ele>942.59997558594</ele>
        <time>2022-10-30T12:00:43.000Z</time>
      </trkpt>
      <trkpt lat="48.01065" lon="6.99592">
        <ele>942.40002441406</ele>
        <time>2022-10-30T12:00:45.000Z</time>
      </trkpt>
      <trkpt lat="48.01069" lon="6.99599">
        <ele>941.80004882812</ele>
        <time>2022-10-30T12:00:49.000Z</time>
      </trkpt>
      <trkpt lat="48.0107" lon="6.99603">
        <ele>941.19995117188</ele>
        <time>2022-10-30T12:00:52.000Z</time>
      </trkpt>
      <trkpt lat="48.01069" lon="6.99606">
        <ele>941.19995117188</ele>
        <time>2022-10-30T12:00:54.000Z</time>
      </trkpt>
      <trkpt lat="48.0107" lon="6.99609">
        <ele>941</ele>
        <time>2022-10-30T12:00:56.000Z</time>
      </trkpt>
      <trkpt lat="48.0107" lon="6.99614">
        <ele>941</ele>
        <time>2022-10-30T12:00:59.000Z</time>
      </trkpt>
      <trkpt lat="48.01071" lon="6.99612">
        <ele>941</ele>
        <time>2022-10-30T12:01:04.000Z</time>
      </trkpt>
      <trkpt lat="48.0107" lon="6.99611">
        <ele>940.80004882812</ele>
        <time>2022-10-30T12:01:12.000Z</time>
      </trkpt>
      <trkpt lat="48.01068" lon="6.99617">
        <ele>939.19995117188</ele>
        <time>2022-10-30T12:01:39.000Z</time>
      </trkpt>
      <trkpt lat="48.01067" lon="6.99618">
        <ele>939</ele>
        <time>2022-10-30T12:01:40.000Z</time>
      </trkpt>
      <trkpt lat="48.01066" lon="6.99634">
        <ele>938.19995117188</ele>
        <time>2022-10-30T12:01:46.000Z</time>
      </trkpt>
      <trkpt lat="48.01065" lon="6.99635">
        <ele>938</ele>
        <time>2022-10-30T12:01:47.000Z</time>
      </trkpt>
      <trkpt lat="48.01063" lon="6.99637">
        <ele>937.80004882812</ele>
        <time>2022-10-30T12:01:50.000Z</time>
      </trkpt>
      <trkpt lat="48.01063" lon="6.9964">
        <ele>937.59997558594</ele>
        <time>2022-10-30T12:01:52.000Z</time>
      </trkpt>
      <trkpt lat="48.01061" lon="6.99645">
        <ele>937.59997558594</ele>
        <time>2022-10-30T12:01:55.000Z</time>
      </trkpt>
      <trkpt lat="48.01063" lon="6.99647">
        <ele>937.40002441406</ele>
        <time>2022-10-30T12:01:58.000Z</time>
      </trkpt>
      <trkpt lat="48.01067" lon="6.99653">
        <ele>937.19995117188</ele>
        <time>2022-10-30T12:02:04.000Z</time>
      </trkpt>
      <trkpt lat="48.01074" lon="6.99658">
        <ele>937.19995117188</ele>
        <time>2022-10-30T12:02:10.000Z</time>
      </trkpt>
      <trkpt lat="48.01075" lon="6.99658">
        <ele>937</ele>
        <time>2022-10-30T12:02:11.000Z</time>
      </trkpt>
      <trkpt lat="48.01075" lon="6.99658">
        <ele>937</ele>
        <time>2022-10-30T12:02:12.000Z</time>
      </trkpt>
      <trkpt lat="48.01073" lon="6.99656">
        <ele>937</ele>
        <time>2022-10-30T12:02:15.000Z</time>
      </trkpt>
      <trkpt lat="48.01071" lon="6.99655">
        <ele>937</ele>
        <time>2022-10-30T12:02:22.000Z</time>
      </trkpt>
      <trkpt lat="48.01071" lon="6.99655">
        <ele>937</ele>
        <time>2022-10-30T12:02:38.000Z</time>
      </trkpt>
      <trkpt lat="48.01069" lon="6.99655">
        <ele>936.80004882812</ele>
        <time>2022-10-30T12:02:43.000Z</time>
      </trkpt>
      <trkpt lat="48.01066" lon="6.99658">
        <ele>936.19995117188</ele>
        <time>2022-10-30T12:02:52.000Z</time>
      </trkpt>
      <trkpt lat="48.01066" lon="6.99658">
        <ele>936</ele>
        <time>2022-10-30T12:02:55.000Z</time>
      </trkpt>
      <trkpt lat="48.01066" lon="6.99668">
        <ele>935.59997558594</ele>
        <time>2022-10-30T12:03:04.000Z</time>
      </trkpt>
      <trkpt lat="48.01068" lon="6.99682">
        <ele>935.40002441406</ele>
        <time>2022-10-30T12:03:09.000Z</time>
      </trkpt>
      <trkpt lat="48.01068" lon="6.99688">
        <ele>935.19995117188</ele>
        <time>2022-10-30T12:03:15.000Z</time>
      </trkpt>
      <trkpt lat="48.01066" lon="6.99692">
        <ele>935.19995117188</ele>
        <time>2022-10-30T12:03:20.000Z</time>
      </trkpt>
      <trkpt lat="48.0107" lon="6.99696">
        <ele>935.19995117188</ele>
        <time>2022-10-30T12:03:27.000Z</time>
      </trkpt>
      <trkpt lat="48.01073" lon="6.99703">
        <ele>935</ele>
        <time>2022-10-30T12:03:32.000Z</time>
      </trkpt>
      <trkpt lat="48.01075" lon="6.99709">
        <ele>934.80004882812</ele>
        <time>2022-10-30T12:03:36.000Z</time>
      </trkpt>
      <trkpt lat="48.01076" lon="6.99713">
        <ele>934.80004882812</ele>
        <time>2022-10-30T12:03:42.000Z</time>
      </trkpt>
      <trkpt lat="48.01075" lon="6.99718">
        <ele>935</ele>
        <time>2022-10-30T12:03:49.000Z</time>
      </trkpt>
      <trkpt lat="48.01077" lon="6.99713">
        <ele>934.80004882812</ele>
        <time>2022-10-30T12:03:57.000Z</time>
      </trkpt>
      <trkpt lat="48.01077" lon="6.99712">
        <ele>934.40002441406</ele>
        <time>2022-10-30T12:04:02.000Z</time>
      </trkpt>
      <trkpt lat="48.01076" lon="6.99711">
        <ele>934.19995117188</ele>
        <time>2022-10-30T12:04:09.000Z</time>
      </trkpt>
      <trkpt lat="48.01077" lon="6.99711">
        <ele>934</ele>
        <time>2022-10-30T12:04:11.000Z</time>
      </trkpt>
      <trkpt lat="48.01076" lon="6.99708">
        <ele>933.59997558594</ele>
        <time>2022-10-30T12:04:17.000Z</time>
      </trkpt>
      <trkpt lat="48.01076" lon="6.99709">
        <ele>933.19995117188</ele>
        <time>2022-10-30T12:04:35.000Z</time>
      </trkpt>
      <trkpt lat="48.01076" lon="6.99709">
        <ele>933.19995117188</ele>
        <time>2022-10-30T12:04:38.000Z</time>
      </trkpt>
      <trkpt lat="48.01077" lon="6.99708">
        <ele>933.19995117188</ele>
        <time>2022-10-30T12:05:15.000Z</time>
      </trkpt>
      <trkpt lat="48.01077" lon="6.99708">
        <ele>933.19995117188</ele>
        <time>2022-10-30T12:05:32.000Z</time>
      </trkpt>
      <trkpt lat="48.0108" lon="6.99721">
        <ele>933.19995117188</ele>
        <time>2022-10-30T12:05:58.000Z</time>
      </trkpt>
      <trkpt lat="48.01084" lon="6.99734">
        <ele>933.19995117188</ele>
        <time>2022-10-30T12:06:03.000Z</time>
      </trkpt>
      <trkpt lat="48.01085" lon="6.99737">
        <ele>933.19995117188</ele>
        <time>2022-10-30T12:06:05.000Z</time>
      </trkpt>
      <trkpt lat="48.01088" lon="6.99743">
        <ele>933.19995117188</ele>
        <time>2022-10-30T12:06:08.000Z</time>
      </trkpt>
      <trkpt lat="48.0109" lon="6.9975">
        <ele>933.19995117188</ele>
        <time>2022-10-30T12:06:12.000Z</time>
      </trkpt>
      <trkpt lat="48.01094" lon="6.99759">
        <ele>933.19995117188</ele>
        <time>2022-10-30T12:06:19.000Z</time>
      </trkpt>
      <trkpt lat="48.01095" lon="6.99759">
        <ele>933.19995117188</ele>
        <time>2022-10-30T12:06:20.000Z</time>
      </trkpt>
      <trkpt lat="48.01093" lon="6.99757">
        <ele>933.19995117188</ele>
        <time>2022-10-30T12:06:26.000Z</time>
      </trkpt>
      <trkpt lat="48.01091" lon="6.99757">
        <ele>933.19995117188</ele>
        <time>2022-10-30T12:06:33.000Z</time>
      </trkpt>
      <trkpt lat="48.01092" lon="6.99757">
        <ele>933.19995117188</ele>
        <time>2022-10-30T12:06:46.000Z</time>
      </trkpt>
      <trkpt lat="48.01092" lon="6.99757">
        <ele>933.19995117188</ele>
        <time>2022-10-30T12:06:49.000Z</time>
      </trkpt>
      <trkpt lat="48.01094" lon="6.99755">
        <ele>933.19995117188</ele>
        <time>2022-10-30T12:06:58.000Z</time>
      </trkpt>
      <trkpt lat="48.01096" lon="6.99764">
        <ele>933.19995117188</ele>
        <time>2022-10-30T12:07:26.000Z</time>
      </trkpt>
      <trkpt lat="48.01096" lon="6.99771">
        <ele>933.19995117188</ele>
        <time>2022-10-30T12:07:29.000Z</time>
      </trkpt>
      <trkpt lat="48.01096" lon="6.99774">
        <ele>933.19995117188</ele>
        <time>2022-10-30T12:07:32.000Z</time>
      </trkpt>
      <trkpt lat="48.01095" lon="6.99773">
        <ele>933.19995117188</ele>
        <time>2022-10-30T12:07:33.000Z</time>
      </trkpt>
      <trkpt lat="48.01096" lon="6.99771">
        <ele>933.19995117188</ele>
        <time>2022-10-30T12:07:37.000Z</time>
      </trkpt>
      <trkpt lat="48.01098" lon="6.99769">
        <ele>933.19995117188</ele>
        <time>2022-10-30T12:07:42.000Z</time>
      </trkpt>
      <trkpt lat="48.01097" lon="6.99763">
        <ele>933.19995117188</ele>
        <time>2022-10-30T12:07:48.000Z</time>
      </trkpt>
      <trkpt lat="48.01097" lon="6.99761">
        <ele>933.19995117188</ele>
        <time>2022-10-30T12:08:06.000Z</time>
      </trkpt>
      <trkpt lat="48.01101" lon="6.99761">
        <ele>933.19995117188</ele>
        <time>2022-10-30T12:08:20.000Z</time>
      </trkpt>
      <trkpt lat="48.01107" lon="6.99764">
        <ele>933.19995117188</ele>
        <time>2022-10-30T12:08:27.000Z</time>
      </trkpt>
      <trkpt lat="48.01109" lon="6.99766">
        <ele>933.19995117188</ele>
        <time>2022-10-30T12:08:32.000Z</time>
      </trkpt>
      <trkpt lat="48.01108" lon="6.99766">
        <ele>933.19995117188</ele>
        <time>2022-10-30T12:08:37.000Z</time>
      </trkpt>
      <trkpt lat="48.01107" lon="6.99766">
        <ele>933.19995117188</ele>
        <time>2022-10-30T12:08:41.000Z</time>
      </trkpt>
      <trkpt lat="48.01108" lon="6.99766">
        <ele>933.19995117188</ele>
        <time>2022-10-30T12:08:42.000Z</time>
      </trkpt>
      <trkpt lat="48.01108" lon="6.99765">
        <ele>933.19995117188</ele>
        <time>2022-10-30T12:08:45.000Z</time>
      </trkpt>
      <trkpt lat="48.01108" lon="6.99766">
        <ele>933.19995117188</ele>
        <time>2022-10-30T12:08:48.000Z</time>
      </trkpt>
      <trkpt lat="48.01109" lon="6.99763">
        <ele>933.19995117188</ele>
        <time>2022-10-30T12:08:54.000Z</time>
      </trkpt>
      <trkpt lat="48.01115" lon="6.99759">
        <ele>933.19995117188</ele>
        <time>2022-10-30T12:09:00.000Z</time>
      </trkpt>
      <trkpt lat="48.01119" lon="6.99758">
        <ele>933.19995117188</ele>
        <time>2022-10-30T12:09:04.000Z</time>
      </trkpt>
      <trkpt lat="48.01122" lon="6.99761">
        <ele>933.19995117188</ele>
        <time>2022-10-30T12:09:07.000Z</time>
      </trkpt>
      <trkpt lat="48.01123" lon="6.99762">
        <ele>933.19995117188</ele>
        <time>2022-10-30T12:09:08.000Z</time>
      </trkpt>
      <trkpt lat="48.01123" lon="6.99763">
        <ele>933.19995117188</ele>
        <time>2022-10-30T12:09:12.000Z</time>
      </trkpt>
      <trkpt lat="48.01121" lon="6.99761">
        <ele>933.19995117188</ele>
        <time>2022-10-30T12:09:17.000Z</time>
      </trkpt>
      <trkpt lat="48.0112" lon="6.99762">
        <ele>933.19995117188</ele>
        <time>2022-10-30T12:09:22.000Z</time>
      </trkpt>
      <trkpt lat="48.01118" lon="6.99759">
        <ele>933.19995117188</ele>
        <time>2022-10-30T12:09:27.000Z</time>
      </trkpt>
      <trkpt lat="48.01117" lon="6.99758">
        <ele>933.19995117188</ele>
        <time>2022-10-30T12:09:34.000Z</time>
      </trkpt>
      <trkpt lat="48.01117" lon="6.99758">
        <ele>933.19995117188</ele>
        <time>2022-10-30T12:09:45.000Z</time>
      </trkpt>
      <trkpt lat="48.01117" lon="6.99757">
        <ele>933.19995117188</ele>
        <time>2022-10-30T12:09:53.000Z</time>
      </trkpt>
      <trkpt lat="48.01117" lon="6.99754">
        <ele>933.19995117188</ele>
        <time>2022-10-30T12:10:02.000Z</time>
      </trkpt>
      <trkpt lat="48.01117" lon="6.99753">
        <ele>933.19995117188</ele>
        <time>2022-10-30T12:10:08.000Z</time>
      </trkpt>
      <trkpt lat="48.01117" lon="6.99753">
        <ele>933.19995117188</ele>
        <time>2022-10-30T12:10:09.000Z</time>
      </trkpt>
      <trkpt lat="48.01118" lon="6.99754">
        <ele>933.19995117188</ele>
        <time>2022-10-30T12:10:26.000Z</time>
      </trkpt>
      <trkpt lat="48.01118" lon="6.99754">
        <ele>929</ele>
        <time>2022-10-30T12:10:29.000Z</time>
      </trkpt>
      <trkpt lat="48.01119" lon="6.99755">
        <ele>929</ele>
        <time>2022-10-30T12:11:01.000Z</time>
      </trkpt>
      <trkpt lat="48.0112" lon="6.99755">
        <ele>929</ele>
        <time>2022-10-30T12:11:04.000Z</time>
      </trkpt>
      <trkpt lat="48.01121" lon="6.99755">
        <ele>929.40002441406</ele>
        <time>2022-10-30T12:11:22.000Z</time>
      </trkpt>
      <trkpt lat="48.0104" lon="6.99883">
        <ele>936.59997558594</ele>
        <time>2022-10-30T13:05:05.000Z</time>
      </trkpt>
      <trkpt lat="48.01045" lon="6.99884">
        <ele>937</ele>
        <time>2022-10-30T13:05:09.000Z</time>
      </trkpt>
      <trkpt lat="48.01043" lon="6.99885">
        <ele>937</ele>
        <time>2022-10-30T13:05:10.000Z</time>
      </trkpt>
      <trkpt lat="48.01036" lon="6.99868">
        <ele>938</ele>
        <time>2022-10-30T13:05:17.000Z</time>
      </trkpt>
      <trkpt lat="48.01033" lon="6.9987">
        <ele>938</ele>
        <time>2022-10-30T13:05:18.000Z</time>
      </trkpt>
      <trkpt lat="48.01031" lon="6.99872">
        <ele>938</ele>
        <time>2022-10-30T13:05:20.000Z</time>
      </trkpt>
      <trkpt lat="48.01031" lon="6.99874">
        <ele>938.19995117188</ele>
        <time>2022-10-30T13:05:23.000Z</time>
      </trkpt>
      <trkpt lat="48.0103" lon="6.99876">
        <ele>938.59997558594</ele>
        <time>2022-10-30T13:05:26.000Z</time>
      </trkpt>
      <trkpt lat="48.0103" lon="6.99879">
        <ele>939</ele>
        <time>2022-10-30T13:05:32.000Z</time>
      </trkpt>
      <trkpt lat="48.0103" lon="6.99876">
        <ele>939.19995117188</ele>
        <time>2022-10-30T13:05:33.000Z</time>
      </trkpt>
      <trkpt lat="48.01029" lon="6.99873">
        <ele>940</ele>
        <time>2022-10-30T13:05:44.000Z</time>
      </trkpt>
      <trkpt lat="48.01029" lon="6.99873">
        <ele>940</ele>
        <time>2022-10-30T13:05:46.000Z</time>
      </trkpt>
      <trkpt lat="48.01024" lon="6.99877">
        <ele>940.59997558594</ele>
        <time>2022-10-30T13:05:52.000Z</time>
      </trkpt>
      <trkpt lat="48.01022" lon="6.99878">
        <ele>940.80004882812</ele>
        <time>2022-10-30T13:05:54.000Z</time>
      </trkpt>
      <trkpt lat="48.01022" lon="6.99878">
        <ele>941</ele>
        <time>2022-10-30T13:05:55.000Z</time>
      </trkpt>
      <trkpt lat="48.01021" lon="6.99889">
        <ele>942</ele>
        <time>2022-10-30T13:06:12.000Z</time>
      </trkpt>
      <trkpt lat="48.01021" lon="6.99892">
        <ele>942</ele>
        <time>2022-10-30T13:06:16.000Z</time>
      </trkpt>
      <trkpt lat="48.01021" lon="6.99898">
        <ele>943</ele>
        <time>2022-10-30T13:06:30.000Z</time>
      </trkpt>
      <trkpt lat="48.0102" lon="6.99908">
        <ele>944.19995117188</ele>
        <time>2022-10-30T13:06:42.000Z</time>
      </trkpt>
      <trkpt lat="48.01024" lon="6.9992">
        <ele>944.80004882812</ele>
        <time>2022-10-30T13:06:50.000Z</time>
      </trkpt>
      <trkpt lat="48.01026" lon="6.99928">
        <ele>945.19995117188</ele>
        <time>2022-10-30T13:06:55.000Z</time>
      </trkpt>
      <trkpt lat="48.01026" lon="6.9993">
        <ele>945.19995117188</ele>
        <time>2022-10-30T13:06:57.000Z</time>
      </trkpt>
      <trkpt lat="48.01028" lon="6.99936">
        <ele>945.59997558594</ele>
        <time>2022-10-30T13:07:04.000Z</time>
      </trkpt>
      <trkpt lat="48.01028" lon="6.99941">
        <ele>946</ele>
        <time>2022-10-30T13:07:10.000Z</time>
      </trkpt>
      <trkpt lat="48.01028" lon="6.99943">
        <ele>946</ele>
        <time>2022-10-30T13:07:15.000Z</time>
      </trkpt>
      <trkpt lat="48.01031" lon="6.99949">
        <ele>946.19995117188</ele>
        <time>2022-10-30T13:07:20.000Z</time>
      </trkpt>
      <trkpt lat="48.01031" lon="6.99951">
        <ele>946.40002441406</ele>
        <time>2022-10-30T13:07:22.000Z</time>
      </trkpt>
      <trkpt lat="48.01032" lon="6.99955">
        <ele>946.59997558594</ele>
        <time>2022-10-30T13:07:27.000Z</time>
      </trkpt>
      <trkpt lat="48.01032" lon="6.9996">
        <ele>947.19995117188</ele>
        <time>2022-10-30T13:07:33.000Z</time>
      </trkpt>
      <trkpt lat="48.01032" lon="6.99964">
        <ele>947.40002441406</ele>
        <time>2022-10-30T13:07:36.000Z</time>
      </trkpt>
      <trkpt lat="48.01032" lon="6.99965">
        <ele>947.59997558594</ele>
        <time>2022-10-30T13:07:37.000Z</time>
      </trkpt>
      <trkpt lat="48.01035" lon="6.99973">
        <ele>948.19995117188</ele>
        <time>2022-10-30T13:07:43.000Z</time>
      </trkpt>
      <trkpt lat="48.01035" lon="6.99974">
        <ele>948.40002441406</ele>
        <time>2022-10-30T13:07:44.000Z</time>
      </trkpt>
      <trkpt lat="48.01039" lon="6.99981">
        <ele>949.19995117188</ele>
        <time>2022-10-30T13:07:50.000Z</time>
      </trkpt>
      <trkpt lat="48.01038" lon="6.9998">
        <ele>949.40002441406</ele>
        <time>2022-10-30T13:07:51.000Z</time>
      </trkpt>
      <trkpt lat="48.01038" lon="6.99979">
        <ele>949.40002441406</ele>
        <time>2022-10-30T13:07:53.000Z</time>
      </trkpt>
      <trkpt lat="48.01039" lon="6.99979">
        <ele>949.40002441406</ele>
        <time>2022-10-30T13:07:56.000Z</time>
      </trkpt>
      <trkpt lat="48.01044" lon="6.9999">
        <ele>949.80004882812</ele>
        <time>2022-10-30T13:08:03.000Z</time>
      </trkpt>
      <trkpt lat="48.01045" lon="6.99995">
        <ele>950.19995117188</ele>
        <time>2022-10-30T13:08:07.000Z</time>
      </trkpt>
      <trkpt lat="48.01046" lon="6.99996">
        <ele>950.40002441406</ele>
        <time>2022-10-30T13:08:08.000Z</time>
      </trkpt>
      <trkpt lat="48.01049" lon="7.00003">
        <ele>951</ele>
        <time>2022-10-30T13:08:13.000Z</time>
      </trkpt>
      <trkpt lat="48.01049" lon="7.00007">
        <ele>951.40002441406</ele>
        <time>2022-10-30T13:08:17.000Z</time>
      </trkpt>
      <trkpt lat="48.01048" lon="7.00009">
        <ele>951.59997558594</ele>
        <time>2022-10-30T13:08:18.000Z</time>
      </trkpt>
      <trkpt lat="48.01049" lon="7.00017">
        <ele>952.19995117188</ele>
        <time>2022-10-30T13:08:22.000Z</time>
      </trkpt>
      <trkpt lat="48.0105" lon="7.0002">
        <ele>952.40002441406</ele>
        <time>2022-10-30T13:08:24.000Z</time>
      </trkpt>
      <trkpt lat="48.01052" lon="7.00024">
        <ele>952.40002441406</ele>
        <time>2022-10-30T13:08:26.000Z</time>
      </trkpt>
      <trkpt lat="48.01052" lon="7.00026">
        <ele>952.80004882812</ele>
        <time>2022-10-30T13:08:30.000Z</time>
      </trkpt>
      <trkpt lat="48.01051" lon="7.00025">
        <ele>953.19995117188</ele>
        <time>2022-10-30T13:08:38.000Z</time>
      </trkpt>
      <trkpt lat="48.01052" lon="7.00029">
        <ele>953.59997558594</ele>
        <time>2022-10-30T13:08:43.000Z</time>
      </trkpt>
      <trkpt lat="48.01053" lon="7.0003">
        <ele>953.80004882812</ele>
        <time>2022-10-30T13:08:44.000Z</time>
      </trkpt>
      <trkpt lat="48.01055" lon="7.00036">
        <ele>954.40002441406</ele>
        <time>2022-10-30T13:08:51.000Z</time>
      </trkpt>
      <trkpt lat="48.01056" lon="7.00037">
        <ele>954.80004882812</ele>
        <time>2022-10-30T13:08:54.000Z</time>
      </trkpt>
      <trkpt lat="48.01059" lon="7.00042">
        <ele>955.19995117188</ele>
        <time>2022-10-30T13:08:59.000Z</time>
      </trkpt>
      <trkpt lat="48.01061" lon="7.00045">
        <ele>955.59997558594</ele>
        <time>2022-10-30T13:09:03.000Z</time>
      </trkpt>
      <trkpt lat="48.01061" lon="7.00046">
        <ele>955.80004882812</ele>
        <time>2022-10-30T13:09:05.000Z</time>
      </trkpt>
      <trkpt lat="48.01061" lon="7.00047">
        <ele>955.80004882812</ele>
        <time>2022-10-30T13:09:06.000Z</time>
      </trkpt>
      <trkpt lat="48.01063" lon="7.00052">
        <ele>956.40002441406</ele>
        <time>2022-10-30T13:09:11.000Z</time>
      </trkpt>
      <trkpt lat="48.01067" lon="7.00056">
        <ele>956.80004882812</ele>
        <time>2022-10-30T13:09:14.000Z</time>
      </trkpt>
      <trkpt lat="48.01068" lon="7.00059">
        <ele>957</ele>
        <time>2022-10-30T13:09:17.000Z</time>
      </trkpt>
      <trkpt lat="48.01071" lon="7.00067">
        <ele>957.59997558594</ele>
        <time>2022-10-30T13:09:23.000Z</time>
      </trkpt>
      <trkpt lat="48.01074" lon="7.00072">
        <ele>957.80004882812</ele>
        <time>2022-10-30T13:09:29.000Z</time>
      </trkpt>
      <trkpt lat="48.01075" lon="7.00075">
        <ele>958.19995117188</ele>
        <time>2022-10-30T13:09:31.000Z</time>
      </trkpt>
      <trkpt lat="48.01078" lon="7.00079">
        <ele>958.59997558594</ele>
        <time>2022-10-30T13:09:38.000Z</time>
      </trkpt>
      <trkpt lat="48.0108" lon="7.0008">
        <ele>958.80004882812</ele>
        <time>2022-10-30T13:09:44.000Z</time>
      </trkpt>
      <trkpt lat="48.01083" lon="7.00084">
        <ele>958.80004882812</ele>
        <time>2022-10-30T13:09:48.000Z</time>
      </trkpt>
      <trkpt lat="48.01086" lon="7.00087">
        <ele>959</ele>
        <time>2022-10-30T13:09:51.000Z</time>
      </trkpt>
      <trkpt lat="48.0109" lon="7.00092">
        <ele>959.40002441406</ele>
        <time>2022-10-30T13:09:57.000Z</time>
      </trkpt>
      <trkpt lat="48.01092" lon="7.00099">
        <ele>959.40002441406</ele>
        <time>2022-10-30T13:10:03.000Z</time>
      </trkpt>
      <trkpt lat="48.01092" lon="7.00101">
        <ele>959.40002441406</ele>
        <time>2022-10-30T13:10:05.000Z</time>
      </trkpt>
      <trkpt lat="48.01093" lon="7.00105">
        <ele>959.80004882812</ele>
        <time>2022-10-30T13:10:09.000Z</time>
      </trkpt>
      <trkpt lat="48.01094" lon="7.00106">
        <ele>960</ele>
        <time>2022-10-30T13:10:11.000Z</time>
      </trkpt>
      <trkpt lat="48.01095" lon="7.00107">
        <ele>960.19995117188</ele>
        <time>2022-10-30T13:10:12.000Z</time>
      </trkpt>
      <trkpt lat="48.01098" lon="7.0011">
        <ele>961</ele>
        <time>2022-10-30T13:10:18.000Z</time>
      </trkpt>
      <trkpt lat="48.011" lon="7.00113">
        <ele>961.59997558594</ele>
        <time>2022-10-30T13:10:22.000Z</time>
      </trkpt>
      <trkpt lat="48.01101" lon="7.00115">
        <ele>962.19995117188</ele>
        <time>2022-10-30T13:10:25.000Z</time>
      </trkpt>
      <trkpt lat="48.01101" lon="7.00117">
        <ele>963</ele>
        <time>2022-10-30T13:10:31.000Z</time>
      </trkpt>
      <trkpt lat="48.01102" lon="7.00117">
        <ele>963.19995117188</ele>
        <time>2022-10-30T13:10:34.000Z</time>
      </trkpt>
      <trkpt lat="48.01102" lon="7.00116">
        <ele>963.59997558594</ele>
        <time>2022-10-30T13:10:37.000Z</time>
      </trkpt>
      <trkpt lat="48.01103" lon="7.00117">
        <ele>963.59997558594</ele>
        <time>2022-10-30T13:10:44.000Z</time>
      </trkpt>
      <trkpt lat="48.01102" lon="7.00116">
        <ele>964.40002441406</ele>
        <time>2022-10-30T13:10:49.000Z</time>
      </trkpt>
      <trkpt lat="48.01102" lon="7.00116">
        <ele>964.59997558594</ele>
        <time>2022-10-30T13:10:52.000Z</time>
      </trkpt>
      <trkpt lat="48.011" lon="7.00116">
        <ele>964.80004882812</ele>
        <time>2022-10-30T13:10:55.000Z</time>
      </trkpt>
      <trkpt lat="48.01099" lon="7.00115">
        <ele>965.40002441406</ele>
        <time>2022-10-30T13:10:58.000Z</time>
      </trkpt>
      <trkpt lat="48.01098" lon="7.00115">
        <ele>965.59997558594</ele>
        <time>2022-10-30T13:10:59.000Z</time>
      </trkpt>
      <trkpt lat="48.01096" lon="7.00109">
        <ele>966.40002441406</ele>
        <time>2022-10-30T13:11:06.000Z</time>
      </trkpt>
      <trkpt lat="48.01096" lon="7.00108">
        <ele>966.40002441406</ele>
        <time>2022-10-30T13:11:07.000Z</time>
      </trkpt>
      <trkpt lat="48.01094" lon="7.00101">
        <ele>967</ele>
        <time>2022-10-30T13:11:13.000Z</time>
      </trkpt>
      <trkpt lat="48.01094" lon="7.00092">
        <ele>967.40002441406</ele>
        <time>2022-10-30T13:11:20.000Z</time>
      </trkpt>
      <trkpt lat="48.01094" lon="7.00088">
        <ele>967.59997558594</ele>
        <time>2022-10-30T13:11:23.000Z</time>
      </trkpt>
      <trkpt lat="48.01091" lon="7.00084">
        <ele>968</ele>
        <time>2022-10-30T13:11:27.000Z</time>
      </trkpt>
      <trkpt lat="48.01091" lon="7.00079">
        <ele>968.59997558594</ele>
        <time>2022-10-30T13:11:33.000Z</time>
      </trkpt>
      <trkpt lat="48.01091" lon="7.00077">
        <ele>968.80004882812</ele>
        <time>2022-10-30T13:11:34.000Z</time>
      </trkpt>
      <trkpt lat="48.01087" lon="7.00066">
        <ele>969.40002441406</ele>
        <time>2022-10-30T13:11:40.000Z</time>
      </trkpt>
      <trkpt lat="48.01087" lon="7.00062">
        <ele>969.80004882812</ele>
        <time>2022-10-30T13:11:43.000Z</time>
      </trkpt>
      <trkpt lat="48.01088" lon="7.0006">
        <ele>970</ele>
        <time>2022-10-30T13:11:46.000Z</time>
      </trkpt>
      <trkpt lat="48.01088" lon="7.00052">
        <ele>970.40002441406</ele>
        <time>2022-10-30T13:11:52.000Z</time>
      </trkpt>
      <trkpt lat="48.01089" lon="7.0005">
        <ele>970.80004882812</ele>
        <time>2022-10-30T13:11:55.000Z</time>
      </trkpt>
      <trkpt lat="48.01089" lon="7.00051">
        <ele>971.59997558594</ele>
        <time>2022-10-30T13:12:00.000Z</time>
      </trkpt>
      <trkpt lat="48.01089" lon="7.00046">
        <ele>971.59997558594</ele>
        <time>2022-10-30T13:12:08.000Z</time>
      </trkpt>
      <trkpt lat="48.01089" lon="7.00044">
        <ele>971.80004882812</ele>
        <time>2022-10-30T13:12:10.000Z</time>
      </trkpt>
      <trkpt lat="48.0109" lon="7.0004">
        <ele>972.40002441406</ele>
        <time>2022-10-30T13:12:15.000Z</time>
      </trkpt>
      <trkpt lat="48.01089" lon="7.00036">
        <ele>972.80004882812</ele>
        <time>2022-10-30T13:12:21.000Z</time>
      </trkpt>
      <trkpt lat="48.01088" lon="7.00035">
        <ele>972.80004882812</ele>
        <time>2022-10-30T13:12:22.000Z</time>
      </trkpt>
      <trkpt lat="48.01085" lon="7.00028">
        <ele>973.40002441406</ele>
        <time>2022-10-30T13:12:28.000Z</time>
      </trkpt>
      <trkpt lat="48.01084" lon="7.00023">
        <ele>974</ele>
        <time>2022-10-30T13:12:32.000Z</time>
      </trkpt>
      <trkpt lat="48.01083" lon="7.00019">
        <ele>974.40002441406</ele>
        <time>2022-10-30T13:12:37.000Z</time>
      </trkpt>
      <trkpt lat="48.01082" lon="7.00011">
        <ele>975</ele>
        <time>2022-10-30T13:12:45.000Z</time>
      </trkpt>
      <trkpt lat="48.01081" lon="7.00009">
        <ele>975</ele>
        <time>2022-10-30T13:12:46.000Z</time>
      </trkpt>
      <trkpt lat="48.01081" lon="7.00004">
        <ele>975.19995117188</ele>
        <time>2022-10-30T13:12:49.000Z</time>
      </trkpt>
      <trkpt lat="48.01083" lon="7.00002">
        <ele>975.40002441406</ele>
        <time>2022-10-30T13:12:51.000Z</time>
      </trkpt>
      <trkpt lat="48.01085" lon="6.99994">
        <ele>975.80004882812</ele>
        <time>2022-10-30T13:12:57.000Z</time>
      </trkpt>
      <trkpt lat="48.01086" lon="6.99991">
        <ele>976</ele>
        <time>2022-10-30T13:12:59.000Z</time>
      </trkpt>
      <trkpt lat="48.0109" lon="6.99986">
        <ele>976.40002441406</ele>
        <time>2022-10-30T13:13:05.000Z</time>
      </trkpt>
      <trkpt lat="48.01093" lon="6.99978">
        <ele>977</ele>
        <time>2022-10-30T13:13:10.000Z</time>
      </trkpt>
      <trkpt lat="48.01094" lon="6.9997">
        <ele>977.19995117188</ele>
        <time>2022-10-30T13:13:12.000Z</time>
      </trkpt>
      <trkpt lat="48.01096" lon="6.99965">
        <ele>977.59997558594</ele>
        <time>2022-10-30T13:13:16.000Z</time>
      </trkpt>
      <trkpt lat="48.01099" lon="6.99959">
        <ele>978.19995117188</ele>
        <time>2022-10-30T13:13:23.000Z</time>
      </trkpt>
      <trkpt lat="48.01103" lon="6.99957">
        <ele>978</ele>
        <time>2022-10-30T13:13:29.000Z</time>
      </trkpt>
      <trkpt lat="48.01105" lon="6.99955">
        <ele>978.19995117188</ele>
        <time>2022-10-30T13:13:31.000Z</time>
      </trkpt>
      <trkpt lat="48.01105" lon="6.99955">
        <ele>978.19995117188</ele>
        <time>2022-10-30T13:13:41.000Z</time>
      </trkpt>
      <trkpt lat="48.01105" lon="6.99955">
        <ele>978</ele>
        <time>2022-10-30T13:13:51.000Z</time>
      </trkpt>
      <trkpt lat="48.01104" lon="6.99953">
        <ele>978</ele>
        <time>2022-10-30T13:13:54.000Z</time>
      </trkpt>
      <trkpt lat="48.01104" lon="6.9995">
        <ele>978</ele>
        <time>2022-10-30T13:13:56.000Z</time>
      </trkpt>
      <trkpt lat="48.01104" lon="6.99946">
        <ele>978</ele>
        <time>2022-10-30T13:14:00.000Z</time>
      </trkpt>
      <trkpt lat="48.01103" lon="6.99939">
        <ele>978.80004882812</ele>
        <time>2022-10-30T13:14:07.000Z</time>
      </trkpt>
      <trkpt lat="48.01101" lon="6.99933">
        <ele>979.19995117188</ele>
        <time>2022-10-30T13:14:13.000Z</time>
      </trkpt>
      <trkpt lat="48.01101" lon="6.99932">
        <ele>979.40002441406</ele>
        <time>2022-10-30T13:14:14.000Z</time>
      </trkpt>
      <trkpt lat="48.01101" lon="6.99926">
        <ele>979.80004882812</ele>
        <time>2022-10-30T13:14:21.000Z</time>
      </trkpt>
      <trkpt lat="48.011" lon="6.99924">
        <ele>979.80004882812</ele>
        <time>2022-10-30T13:14:23.000Z</time>
      </trkpt>
      <trkpt lat="48.01101" lon="6.9992">
        <ele>980.40002441406</ele>
        <time>2022-10-30T13:14:26.000Z</time>
      </trkpt>
      <trkpt lat="48.01099" lon="6.99919">
        <ele>980.80004882812</ele>
        <time>2022-10-30T13:14:28.000Z</time>
      </trkpt>
      <trkpt lat="48.01099" lon="6.99915">
        <ele>981.40002441406</ele>
        <time>2022-10-30T13:14:33.000Z</time>
      </trkpt>
      <trkpt lat="48.01102" lon="6.99914">
        <ele>981.80004882812</ele>
        <time>2022-10-30T13:14:37.000Z</time>
      </trkpt>
      <trkpt lat="48.01103" lon="6.99909">
        <ele>982.19995117188</ele>
        <time>2022-10-30T13:14:46.000Z</time>
      </trkpt>
      <trkpt lat="48.01105" lon="6.99906">
        <ele>982.40002441406</ele>
        <time>2022-10-30T13:14:51.000Z</time>
      </trkpt>
      <trkpt lat="48.01106" lon="6.99905">
        <ele>982.59997558594</ele>
        <time>2022-10-30T13:14:53.000Z</time>
      </trkpt>
      <trkpt lat="48.0111" lon="6.999">
        <ele>983</ele>
        <time>2022-10-30T13:14:59.000Z</time>
      </trkpt>
      <trkpt lat="48.01118" lon="6.99893">
        <ele>983.40002441406</ele>
        <time>2022-10-30T13:15:05.000Z</time>
      </trkpt>
      <trkpt lat="48.0112" lon="6.9989">
        <ele>983.80004882812</ele>
        <time>2022-10-30T13:15:09.000Z</time>
      </trkpt>
      <trkpt lat="48.01126" lon="6.99886">
        <ele>984.59997558594</ele>
        <time>2022-10-30T13:15:20.000Z</time>
      </trkpt>
      <trkpt lat="48.01128" lon="6.99883">
        <ele>984.80004882812</ele>
        <time>2022-10-30T13:15:25.000Z</time>
      </trkpt>
      <trkpt lat="48.01127" lon="6.99878">
        <ele>984.59997558594</ele>
        <time>2022-10-30T13:15:33.000Z</time>
      </trkpt>
      <trkpt lat="48.01128" lon="6.99875">
        <ele>984.59997558594</ele>
        <time>2022-10-30T13:15:36.000Z</time>
      </trkpt>
      <trkpt lat="48.0113" lon="6.99873">
        <ele>984.80004882812</ele>
        <time>2022-10-30T13:15:40.000Z</time>
      </trkpt>
      <trkpt lat="48.0113" lon="6.99873">
        <ele>984.80004882812</ele>
        <time>2022-10-30T13:15:41.000Z</time>
      </trkpt>
      <trkpt lat="48.01133" lon="6.99868">
        <ele>985.59997558594</ele>
        <time>2022-10-30T13:15:48.000Z</time>
      </trkpt>
      <trkpt lat="48.01133" lon="6.99868">
        <ele>985.80004882812</ele>
        <time>2022-10-30T13:15:49.000Z</time>
      </trkpt>
      <trkpt lat="48.01137" lon="6.99865">
        <ele>986.59997558594</ele>
        <time>2022-10-30T13:15:57.000Z</time>
      </trkpt>
      <trkpt lat="48.01138" lon="6.99865">
        <ele>986.80004882812</ele>
        <time>2022-10-30T13:15:58.000Z</time>
      </trkpt>
      <trkpt lat="48.0114" lon="6.99865">
        <ele>986.80004882812</ele>
        <time>2022-10-30T13:15:59.000Z</time>
      </trkpt>
      <trkpt lat="48.01143" lon="6.99862">
        <ele>987.59997558594</ele>
        <time>2022-10-30T13:16:04.000Z</time>
      </trkpt>
      <trkpt lat="48.01144" lon="6.99862">
        <ele>987.80004882812</ele>
        <time>2022-10-30T13:16:06.000Z</time>
      </trkpt>
      <trkpt lat="48.01144" lon="6.99859">
        <ele>988.19995117188</ele>
        <time>2022-10-30T13:16:10.000Z</time>
      </trkpt>
      <trkpt lat="48.01149" lon="6.99859">
        <ele>988.59997558594</ele>
        <time>2022-10-30T13:16:17.000Z</time>
      </trkpt>
      <trkpt lat="48.0115" lon="6.99859">
        <ele>988.80004882812</ele>
        <time>2022-10-30T13:16:19.000Z</time>
      </trkpt>
      <trkpt lat="48.01154" lon="6.99862">
        <ele>989.59997558594</ele>
        <time>2022-10-30T13:16:24.000Z</time>
      </trkpt>
      <trkpt lat="48.01156" lon="6.99863">
        <ele>990</ele>
        <time>2022-10-30T13:16:26.000Z</time>
      </trkpt>
      <trkpt lat="48.0116" lon="6.99869">
        <ele>990.19995117188</ele>
        <time>2022-10-30T13:16:30.000Z</time>
      </trkpt>
      <trkpt lat="48.0116" lon="6.99873">
        <ele>991</ele>
        <time>2022-10-30T13:16:37.000Z</time>
      </trkpt>
      <trkpt lat="48.0116" lon="6.99874">
        <ele>991</ele>
        <time>2022-10-30T13:16:38.000Z</time>
      </trkpt>
      <trkpt lat="48.01161" lon="6.99875">
        <ele>991.19995117188</ele>
        <time>2022-10-30T13:16:44.000Z</time>
      </trkpt>
      <trkpt lat="48.01162" lon="6.99873">
        <ele>991.19995117188</ele>
        <time>2022-10-30T13:16:46.000Z</time>
      </trkpt>
      <trkpt lat="48.01168" lon="6.99873">
        <ele>992</ele>
        <time>2022-10-30T13:16:53.000Z</time>
      </trkpt>
      <trkpt lat="48.0117" lon="6.99869">
        <ele>992.40002441406</ele>
        <time>2022-10-30T13:16:57.000Z</time>
      </trkpt>
      <trkpt lat="48.01172" lon="6.99867">
        <ele>992.59997558594</ele>
        <time>2022-10-30T13:17:00.000Z</time>
      </trkpt>
      <trkpt lat="48.01175" lon="6.99867">
        <ele>993.19995117188</ele>
        <time>2022-10-30T13:17:03.000Z</time>
      </trkpt>
      <trkpt lat="48.01174" lon="6.99866">
        <ele>993.40002441406</ele>
        <time>2022-10-30T13:17:05.000Z</time>
      </trkpt>
      <trkpt lat="48.01174" lon="6.99869">
        <ele>993.40002441406</ele>
        <time>2022-10-30T13:17:11.000Z</time>
      </trkpt>
      <trkpt lat="48.01174" lon="6.99868">
        <ele>994</ele>
        <time>2022-10-30T13:17:25.000Z</time>
      </trkpt>
      <trkpt lat="48.01174" lon="6.99866">
        <ele>994.19995117188</ele>
        <time>2022-10-30T13:17:28.000Z</time>
      </trkpt>
      <trkpt lat="48.01175" lon="6.99866">
        <ele>994.59997558594</ele>
        <time>2022-10-30T13:17:34.000Z</time>
      </trkpt>
      <trkpt lat="48.01182" lon="6.99866">
        <ele>995</ele>
        <time>2022-10-30T13:17:46.000Z</time>
      </trkpt>
      <trkpt lat="48.01187" lon="6.99871">
        <ele>995.19995117188</ele>
        <time>2022-10-30T13:18:03.000Z</time>
      </trkpt>
      <trkpt lat="48.01197" lon="6.99865">
        <ele>995.80004882812</ele>
        <time>2022-10-30T13:18:12.000Z</time>
      </trkpt>
      <trkpt lat="48.01203" lon="6.99858">
        <ele>996.40002441406</ele>
        <time>2022-10-30T13:18:17.000Z</time>
      </trkpt>
      <trkpt lat="48.01205" lon="6.99855">
        <ele>996.59997558594</ele>
        <time>2022-10-30T13:18:19.000Z</time>
      </trkpt>
      <trkpt lat="48.01208" lon="6.99854">
        <ele>997</ele>
        <time>2022-10-30T13:18:23.000Z</time>
      </trkpt>
      <trkpt lat="48.01209" lon="6.99853">
        <ele>997</ele>
        <time>2022-10-30T13:18:25.000Z</time>
      </trkpt>
      <trkpt lat="48.01211" lon="6.99852">
        <ele>997.59997558594</ele>
        <time>2022-10-30T13:18:28.000Z</time>
      </trkpt>
      <trkpt lat="48.01211" lon="6.99851">
        <ele>997.80004882812</ele>
        <time>2022-10-30T13:18:30.000Z</time>
      </trkpt>
      <trkpt lat="48.01208" lon="6.99851">
        <ele>998.19995117188</ele>
        <time>2022-10-30T13:18:37.000Z</time>
      </trkpt>
      <trkpt lat="48.01208" lon="6.99851">
        <ele>998.19995117188</ele>
        <time>2022-10-30T13:18:42.000Z</time>
      </trkpt>
      <trkpt lat="48.01207" lon="6.99854">
        <ele>998.19995117188</ele>
        <time>2022-10-30T13:18:48.000Z</time>
      </trkpt>
      <trkpt lat="48.01206" lon="6.99854">
        <ele>998.19995117188</ele>
        <time>2022-10-30T13:19:01.000Z</time>
      </trkpt>
      <trkpt lat="48.0121" lon="6.99851">
        <ele>998.40002441406</ele>
        <time>2022-10-30T13:19:05.000Z</time>
      </trkpt>
      <trkpt lat="48.01213" lon="6.99849">
        <ele>998.59997558594</ele>
        <time>2022-10-30T13:19:07.000Z</time>
      </trkpt>
      <trkpt lat="48.01215" lon="6.99849">
        <ele>998.80004882812</ele>
        <time>2022-10-30T13:19:09.000Z</time>
      </trkpt>
      <trkpt lat="48.01218" lon="6.99847">
        <ele>999</ele>
        <time>2022-10-30T13:19:11.000Z</time>
      </trkpt>
      <trkpt lat="48.01223" lon="6.99847">
        <ele>999.59997558594</ele>
        <time>2022-10-30T13:19:17.000Z</time>
      </trkpt>
      <trkpt lat="48.01224" lon="6.99846">
        <ele>999.59997558594</ele>
        <time>2022-10-30T13:19:18.000Z</time>
      </trkpt>
      <trkpt lat="48.01228" lon="6.99844">
        <ele>1000.1999511719</ele>
        <time>2022-10-30T13:19:22.000Z</time>
      </trkpt>
      <trkpt lat="48.0123" lon="6.99843">
        <ele>1000.5999755859</ele>
        <time>2022-10-30T13:19:26.000Z</time>
      </trkpt>
      <trkpt lat="48.01231" lon="6.99843">
        <ele>1000.8000488281</ele>
        <time>2022-10-30T13:19:27.000Z</time>
      </trkpt>
      <trkpt lat="48.01238" lon="6.99838">
        <ele>1001.5999755859</ele>
        <time>2022-10-30T13:19:35.000Z</time>
      </trkpt>
      <trkpt lat="48.01239" lon="6.99838">
        <ele>1001.8000488281</ele>
        <time>2022-10-30T13:19:37.000Z</time>
      </trkpt>
      <trkpt lat="48.01241" lon="6.99838">
        <ele>1002.1999511719</ele>
        <time>2022-10-30T13:19:41.000Z</time>
      </trkpt>
      <trkpt lat="48.01244" lon="6.99838">
        <ele>1002.8000488281</ele>
        <time>2022-10-30T13:19:46.000Z</time>
      </trkpt>
      <trkpt lat="48.01243" lon="6.99837">
        <ele>1003</ele>
        <time>2022-10-30T13:19:47.000Z</time>
      </trkpt>
      <trkpt lat="48.01244" lon="6.99835">
        <ele>1003.1999511719</ele>
        <time>2022-10-30T13:19:52.000Z</time>
      </trkpt>
      <trkpt lat="48.01245" lon="6.99836">
        <ele>1003.5999755859</ele>
        <time>2022-10-30T13:20:07.000Z</time>
      </trkpt>
      <trkpt lat="48.01247" lon="6.99832">
        <ele>1004</ele>
        <time>2022-10-30T13:20:12.000Z</time>
      </trkpt>
      <trkpt lat="48.01251" lon="6.9983">
        <ele>1004.1999511719</ele>
        <time>2022-10-30T13:20:14.000Z</time>
      </trkpt>
      <trkpt lat="48.01255" lon="6.99823">
        <ele>1004.8000488281</ele>
        <time>2022-10-30T13:20:20.000Z</time>
      </trkpt>
      <trkpt lat="48.01256" lon="6.99822">
        <ele>1005</ele>
        <time>2022-10-30T13:20:21.000Z</time>
      </trkpt>
      <trkpt lat="48.01257" lon="6.99821">
        <ele>1005.1999511719</ele>
        <time>2022-10-30T13:20:23.000Z</time>
      </trkpt>
      <trkpt lat="48.01259" lon="6.99819">
        <ele>1005.4000244141</ele>
        <time>2022-10-30T13:20:26.000Z</time>
      </trkpt>
      <trkpt lat="48.01263" lon="6.99814">
        <ele>1006</ele>
        <time>2022-10-30T13:20:31.000Z</time>
      </trkpt>
      <trkpt lat="48.01262" lon="6.99814">
        <ele>1006</ele>
        <time>2022-10-30T13:20:32.000Z</time>
      </trkpt>
      <trkpt lat="48.01264" lon="6.9981">
        <ele>1006.5999755859</ele>
        <time>2022-10-30T13:20:36.000Z</time>
      </trkpt>
      <trkpt lat="48.01265" lon="6.9981">
        <ele>1006.8000488281</ele>
        <time>2022-10-30T13:20:37.000Z</time>
      </trkpt>
      <trkpt lat="48.01267" lon="6.99808">
        <ele>1007.1999511719</ele>
        <time>2022-10-30T13:20:40.000Z</time>
      </trkpt>
      <trkpt lat="48.01269" lon="6.99805">
        <ele>1007.1999511719</ele>
        <time>2022-10-30T13:20:43.000Z</time>
      </trkpt>
      <trkpt lat="48.01274" lon="6.99796">
        <ele>1007.5999755859</ele>
        <time>2022-10-30T13:20:50.000Z</time>
      </trkpt>
      <trkpt lat="48.01274" lon="6.99796">
        <ele>1007.5999755859</ele>
        <time>2022-10-30T13:20:51.000Z</time>
      </trkpt>
      <trkpt lat="48.01275" lon="6.99788">
        <ele>1007.8000488281</ele>
        <time>2022-10-30T13:20:56.000Z</time>
      </trkpt>
      <trkpt lat="48.01278" lon="6.99784">
        <ele>1008.1999511719</ele>
        <time>2022-10-30T13:21:00.000Z</time>
      </trkpt>
      <trkpt lat="48.01278" lon="6.99782">
        <ele>1008.5999755859</ele>
        <time>2022-10-30T13:21:03.000Z</time>
      </trkpt>
      <trkpt lat="48.0128" lon="6.99777">
        <ele>1008.8000488281</ele>
        <time>2022-10-30T13:21:08.000Z</time>
      </trkpt>
      <trkpt lat="48.01283" lon="6.99779">
        <ele>1009</ele>
        <time>2022-10-30T13:21:15.000Z</time>
      </trkpt>
      <trkpt lat="48.01283" lon="6.99778">
        <ele>1008.5999755859</ele>
        <time>2022-10-30T13:21:22.000Z</time>
      </trkpt>
      <trkpt lat="48.01284" lon="6.99779">
        <ele>1008.4000244141</ele>
        <time>2022-10-30T13:21:28.000Z</time>
      </trkpt>
      <trkpt lat="48.01289" lon="6.99771">
        <ele>1009.1999511719</ele>
        <time>2022-10-30T13:21:37.000Z</time>
      </trkpt>
      <trkpt lat="48.01289" lon="6.99771">
        <ele>1009.4000244141</ele>
        <time>2022-10-30T13:21:38.000Z</time>
      </trkpt>
      <trkpt lat="48.01295" lon="6.99769">
        <ele>1010</ele>
        <time>2022-10-30T13:21:45.000Z</time>
      </trkpt>
      <trkpt lat="48.01299" lon="6.99762">
        <ele>1010.1999511719</ele>
        <time>2022-10-30T13:21:53.000Z</time>
      </trkpt>
      <trkpt lat="48.01299" lon="6.99762">
        <ele>1010.4000244141</ele>
        <time>2022-10-30T13:21:55.000Z</time>
      </trkpt>
      <trkpt lat="48.01299" lon="6.99769">
        <ele>1010.8000488281</ele>
        <time>2022-10-30T13:22:02.000Z</time>
      </trkpt>
      <trkpt lat="48.01306" lon="6.99764">
        <ele>1012.1999511719</ele>
        <time>2022-10-30T13:22:21.000Z</time>
      </trkpt>
      <trkpt lat="48.01308" lon="6.99761">
        <ele>1012.4000244141</ele>
        <time>2022-10-30T13:22:23.000Z</time>
      </trkpt>
      <trkpt lat="48.01312" lon="6.99762">
        <ele>1012.5999755859</ele>
        <time>2022-10-30T13:22:26.000Z</time>
      </trkpt>
      <trkpt lat="48.01314" lon="6.99765">
        <ele>1012.8000488281</ele>
        <time>2022-10-30T13:22:35.000Z</time>
      </trkpt>
      <trkpt lat="48.01316" lon="6.99766">
        <ele>1013</ele>
        <time>2022-10-30T13:22:44.000Z</time>
      </trkpt>
      <trkpt lat="48.01319" lon="6.99767">
        <ele>1013.8000488281</ele>
        <time>2022-10-30T13:22:58.000Z</time>
      </trkpt>
      <trkpt lat="48.01323" lon="6.99766">
        <ele>1014.1999511719</ele>
        <time>2022-10-30T13:23:04.000Z</time>
      </trkpt>
      <trkpt lat="48.01324" lon="6.99762">
        <ele>1014.4000244141</ele>
        <time>2022-10-30T13:23:09.000Z</time>
      </trkpt>
      <trkpt lat="48.01324" lon="6.99761">
        <ele>1014.5999755859</ele>
        <time>2022-10-30T13:23:10.000Z</time>
      </trkpt>
      <trkpt lat="48.01326" lon="6.99759">
        <ele>1015.4000244141</ele>
        <time>2022-10-30T13:23:17.000Z</time>
      </trkpt>
      <trkpt lat="48.01326" lon="6.99759">
        <ele>1015.4000244141</ele>
        <time>2022-10-30T13:23:18.000Z</time>
      </trkpt>
      <trkpt lat="48.01327" lon="6.99758">
        <ele>1015.5999755859</ele>
        <time>2022-10-30T13:23:19.000Z</time>
      </trkpt>
      <trkpt lat="48.01329" lon="6.99758">
        <ele>1015.8000488281</ele>
        <time>2022-10-30T13:23:22.000Z</time>
      </trkpt>
      <trkpt lat="48.0133" lon="6.99755">
        <ele>1016.1999511719</ele>
        <time>2022-10-30T13:23:26.000Z</time>
      </trkpt>
      <trkpt lat="48.01331" lon="6.99755">
        <ele>1016.4000244141</ele>
        <time>2022-10-30T13:23:28.000Z</time>
      </trkpt>
      <trkpt lat="48.01332" lon="6.99754">
        <ele>1016.8000488281</ele>
        <time>2022-10-30T13:23:29.000Z</time>
      </trkpt>
      <trkpt lat="48.01334" lon="6.99753">
        <ele>1017.1999511719</ele>
        <time>2022-10-30T13:23:33.000Z</time>
      </trkpt>
      <trkpt lat="48.01336" lon="6.99751">
        <ele>1017.8000488281</ele>
        <time>2022-10-30T13:23:37.000Z</time>
      </trkpt>
      <trkpt lat="48.01337" lon="6.99751">
        <ele>1018</ele>
        <time>2022-10-30T13:23:39.000Z</time>
      </trkpt>
      <trkpt lat="48.01337" lon="6.99751">
        <ele>1018.1999511719</ele>
        <time>2022-10-30T13:23:41.000Z</time>
      </trkpt>
      <trkpt lat="48.01338" lon="6.99753">
        <ele>1018.1999511719</ele>
        <time>2022-10-30T13:23:46.000Z</time>
      </trkpt>
      <trkpt lat="48.01338" lon="6.99755">
        <ele>1018.1999511719</ele>
        <time>2022-10-30T13:23:47.000Z</time>
      </trkpt>
      <trkpt lat="48.01337" lon="6.99756">
        <ele>1018.4000244141</ele>
        <time>2022-10-30T13:23:55.000Z</time>
      </trkpt>
      <trkpt lat="48.01337" lon="6.99756">
        <ele>1018.8000488281</ele>
        <time>2022-10-30T13:24:10.000Z</time>
      </trkpt>
      <trkpt lat="48.01341" lon="6.99747">
        <ele>1020</ele>
        <time>2022-10-30T13:24:20.000Z</time>
      </trkpt>
      <trkpt lat="48.01342" lon="6.99745">
        <ele>1020</ele>
        <time>2022-10-30T13:24:21.000Z</time>
      </trkpt>
      <trkpt lat="48.01343" lon="6.99742">
        <ele>1020.1999511719</ele>
        <time>2022-10-30T13:24:22.000Z</time>
      </trkpt>
      <trkpt lat="48.01348" lon="6.99732">
        <ele>1020.5999755859</ele>
        <time>2022-10-30T13:24:26.000Z</time>
      </trkpt>
      <trkpt lat="48.0135" lon="6.99731">
        <ele>1021</ele>
        <time>2022-10-30T13:24:28.000Z</time>
      </trkpt>
      <trkpt lat="48.01352" lon="6.99726">
        <ele>1021.4000244141</ele>
        <time>2022-10-30T13:24:33.000Z</time>
      </trkpt>
      <trkpt lat="48.01354" lon="6.99723">
        <ele>1022</ele>
        <time>2022-10-30T13:24:41.000Z</time>
      </trkpt>
      <trkpt lat="48.01352" lon="6.99723">
        <ele>1022.4000244141</ele>
        <time>2022-10-30T13:25:02.000Z</time>
      </trkpt>
      <trkpt lat="48.01351" lon="6.99723">
        <ele>1022.4000244141</ele>
        <time>2022-10-30T13:25:08.000Z</time>
      </trkpt>
      <trkpt lat="48.01348" lon="6.9972">
        <ele>1021.8000488281</ele>
        <time>2022-10-30T13:25:23.000Z</time>
      </trkpt>
      <trkpt lat="48.01347" lon="6.99718">
        <ele>1021.8000488281</ele>
        <time>2022-10-30T13:25:27.000Z</time>
      </trkpt>
      <trkpt lat="48.01348" lon="6.99717">
        <ele>1021.8000488281</ele>
        <time>2022-10-30T13:25:38.000Z</time>
      </trkpt>
      <trkpt lat="48.0135" lon="6.99715">
        <ele>1021.8000488281</ele>
        <time>2022-10-30T13:25:41.000Z</time>
      </trkpt>
      <trkpt lat="48.01354" lon="6.99711">
        <ele>1021.8000488281</ele>
        <time>2022-10-30T13:25:43.000Z</time>
      </trkpt>
      <trkpt lat="48.01358" lon="6.99709">
        <ele>1021.8000488281</ele>
        <time>2022-10-30T13:25:45.000Z</time>
      </trkpt>
      <trkpt lat="48.01362" lon="6.99705">
        <ele>1021.8000488281</ele>
        <time>2022-10-30T13:25:48.000Z</time>
      </trkpt>
      <trkpt lat="48.01363" lon="6.99705">
        <ele>1021.8000488281</ele>
        <time>2022-10-30T13:25:52.000Z</time>
      </trkpt>
      <trkpt lat="48.01364" lon="6.99702">
        <ele>1021.8000488281</ele>
        <time>2022-10-30T13:25:57.000Z</time>
      </trkpt>
      <trkpt lat="48.01367" lon="6.99697">
        <ele>1021.8000488281</ele>
        <time>2022-10-30T13:26:03.000Z</time>
      </trkpt>
      <trkpt lat="48.01369" lon="6.99698">
        <ele>1021.8000488281</ele>
        <time>2022-10-30T13:26:05.000Z</time>
      </trkpt>
      <trkpt lat="48.01372" lon="6.99699">
        <ele>1021.8000488281</ele>
        <time>2022-10-30T13:26:10.000Z</time>
      </trkpt>
      <trkpt lat="48.01375" lon="6.99694">
        <ele>1021.8000488281</ele>
        <time>2022-10-30T13:26:16.000Z</time>
      </trkpt>
      <trkpt lat="48.01378" lon="6.99693">
        <ele>1021.8000488281</ele>
        <time>2022-10-30T13:26:21.000Z</time>
      </trkpt>
      <trkpt lat="48.01379" lon="6.99692">
        <ele>1021.8000488281</ele>
        <time>2022-10-30T13:26:23.000Z</time>
      </trkpt>
      <trkpt lat="48.01381" lon="6.9969">
        <ele>1021.8000488281</ele>
        <time>2022-10-30T13:26:26.000Z</time>
      </trkpt>
      <trkpt lat="48.01384" lon="6.99687">
        <ele>1021.8000488281</ele>
        <time>2022-10-30T13:26:31.000Z</time>
      </trkpt>
      <trkpt lat="48.01387" lon="6.99685">
        <ele>1027.8000488281</ele>
        <time>2022-10-30T13:26:35.000Z</time>
      </trkpt>
      <trkpt lat="48.01387" lon="6.99681">
        <ele>1027.8000488281</ele>
        <time>2022-10-30T13:26:38.000Z</time>
      </trkpt>
      <trkpt lat="48.01389" lon="6.99679">
        <ele>1028.5999755859</ele>
        <time>2022-10-30T13:26:43.000Z</time>
      </trkpt>
      <trkpt lat="48.0139" lon="6.99677">
        <ele>1029</ele>
        <time>2022-10-30T13:26:46.000Z</time>
      </trkpt>
      <trkpt lat="48.01392" lon="6.99676">
        <ele>1029.4000244141</ele>
        <time>2022-10-30T13:26:50.000Z</time>
      </trkpt>
      <trkpt lat="48.01395" lon="6.99676">
        <ele>1030</ele>
        <time>2022-10-30T13:26:54.000Z</time>
      </trkpt>
      <trkpt lat="48.01397" lon="6.99673">
        <ele>1030.4000244141</ele>
        <time>2022-10-30T13:26:58.000Z</time>
      </trkpt>
      <trkpt lat="48.01396" lon="6.99673">
        <ele>1031</ele>
        <time>2022-10-30T13:27:05.000Z</time>
      </trkpt>
      <trkpt lat="48.01396" lon="6.99672">
        <ele>1030.8000488281</ele>
        <time>2022-10-30T13:27:15.000Z</time>
      </trkpt>
      <trkpt lat="48.01396" lon="6.99672">
        <ele>1031.1999511719</ele>
        <time>2022-10-30T13:27:23.000Z</time>
      </trkpt>
      <trkpt lat="48.01398" lon="6.99669">
        <ele>1031.8000488281</ele>
        <time>2022-10-30T13:27:27.000Z</time>
      </trkpt>
      <trkpt lat="48.01402" lon="6.99663">
        <ele>1032.4000244141</ele>
        <time>2022-10-30T13:27:33.000Z</time>
      </trkpt>
      <trkpt lat="48.01403" lon="6.99662">
        <ele>1032.5999755859</ele>
        <time>2022-10-30T13:27:35.000Z</time>
      </trkpt>
      <trkpt lat="48.01406" lon="6.99654">
        <ele>1033</ele>
        <time>2022-10-30T13:27:42.000Z</time>
      </trkpt>
      <trkpt lat="48.01406" lon="6.99654">
        <ele>1033</ele>
        <time>2022-10-30T13:27:43.000Z</time>
      </trkpt>
      <trkpt lat="48.01409" lon="6.99655">
        <ele>1033.4000244141</ele>
        <time>2022-10-30T13:27:46.000Z</time>
      </trkpt>
      <trkpt lat="48.0141" lon="6.99655">
        <ele>1034</ele>
        <time>2022-10-30T13:27:49.000Z</time>
      </trkpt>
      <trkpt lat="48.01412" lon="6.99653">
        <ele>1034.5999755859</ele>
        <time>2022-10-30T13:27:53.000Z</time>
      </trkpt>
      <trkpt lat="48.01412" lon="6.99653">
        <ele>1034.5999755859</ele>
        <time>2022-10-30T13:27:54.000Z</time>
      </trkpt>
      <trkpt lat="48.01414" lon="6.9965">
        <ele>1035</ele>
        <time>2022-10-30T13:27:59.000Z</time>
      </trkpt>
      <trkpt lat="48.01418" lon="6.99649">
        <ele>1035.5999755859</ele>
        <time>2022-10-30T13:28:05.000Z</time>
      </trkpt>
      <trkpt lat="48.01419" lon="6.99647">
        <ele>1035.5999755859</ele>
        <time>2022-10-30T13:28:06.000Z</time>
      </trkpt>
      <trkpt lat="48.01421" lon="6.99643">
        <ele>1036</ele>
        <time>2022-10-30T13:28:09.000Z</time>
      </trkpt>
      <trkpt lat="48.01426" lon="6.99641">
        <ele>1036.5999755859</ele>
        <time>2022-10-30T13:28:14.000Z</time>
      </trkpt>
      <trkpt lat="48.01428" lon="6.9964">
        <ele>1036.8000488281</ele>
        <time>2022-10-30T13:28:15.000Z</time>
      </trkpt>
      <trkpt lat="48.01428" lon="6.99638">
        <ele>1037</ele>
        <time>2022-10-30T13:28:17.000Z</time>
      </trkpt>
      <trkpt lat="48.01429" lon="6.99636">
        <ele>1037.5999755859</ele>
        <time>2022-10-30T13:28:20.000Z</time>
      </trkpt>
      <trkpt lat="48.01429" lon="6.99635">
        <ele>1037.8000488281</ele>
        <time>2022-10-30T13:28:21.000Z</time>
      </trkpt>
      <trkpt lat="48.01432" lon="6.99632">
        <ele>1038.1999511719</ele>
        <time>2022-10-30T13:28:27.000Z</time>
      </trkpt>
      <trkpt lat="48.01437" lon="6.99635">
        <ele>1038.8000488281</ele>
        <time>2022-10-30T13:28:32.000Z</time>
      </trkpt>
      <trkpt lat="48.01439" lon="6.99636">
        <ele>1039.4000244141</ele>
        <time>2022-10-30T13:28:37.000Z</time>
      </trkpt>
      <trkpt lat="48.0144" lon="6.99639">
        <ele>1039.4000244141</ele>
        <time>2022-10-30T13:28:41.000Z</time>
      </trkpt>
      <trkpt lat="48.01439" lon="6.9964">
        <ele>1039.4000244141</ele>
        <time>2022-10-30T13:28:42.000Z</time>
      </trkpt>
      <trkpt lat="48.01438" lon="6.99646">
        <ele>1040</ele>
        <time>2022-10-30T13:28:47.000Z</time>
      </trkpt>
      <trkpt lat="48.01437" lon="6.99646">
        <ele>1040</ele>
        <time>2022-10-30T13:28:48.000Z</time>
      </trkpt>
      <trkpt lat="48.01434" lon="6.99648">
        <ele>1040.4000244141</ele>
        <time>2022-10-30T13:28:53.000Z</time>
      </trkpt>
      <trkpt lat="48.01433" lon="6.99649">
        <ele>1040.4000244141</ele>
        <time>2022-10-30T13:28:54.000Z</time>
      </trkpt>
      <trkpt lat="48.01428" lon="6.99653">
        <ele>1040.8000488281</ele>
        <time>2022-10-30T13:29:01.000Z</time>
      </trkpt>
      <trkpt lat="48.01426" lon="6.99655">
        <ele>1040.8000488281</ele>
        <time>2022-10-30T13:29:07.000Z</time>
      </trkpt>
      <trkpt lat="48.01426" lon="6.99657">
        <ele>1041</ele>
        <time>2022-10-30T13:29:10.000Z</time>
      </trkpt>
      <trkpt lat="48.01424" lon="6.99662">
        <ele>1041.1999511719</ele>
        <time>2022-10-30T13:29:15.000Z</time>
      </trkpt>
      <trkpt lat="48.01422" lon="6.9967">
        <ele>1041</ele>
        <time>2022-10-30T13:29:22.000Z</time>
      </trkpt>
      <trkpt lat="48.01422" lon="6.99671">
        <ele>1041</ele>
        <time>2022-10-30T13:29:23.000Z</time>
      </trkpt>
      <trkpt lat="48.0142" lon="6.99674">
        <ele>1041.1999511719</ele>
        <time>2022-10-30T13:29:29.000Z</time>
      </trkpt>
      <trkpt lat="48.0142" lon="6.99678">
        <ele>1041.5999755859</ele>
        <time>2022-10-30T13:29:34.000Z</time>
      </trkpt>
      <trkpt lat="48.01421" lon="6.99677">
        <ele>1042</ele>
        <time>2022-10-30T13:29:39.000Z</time>
      </trkpt>
      <trkpt lat="48.01421" lon="6.99676">
        <ele>1042.1999511719</ele>
        <time>2022-10-30T13:29:41.000Z</time>
      </trkpt>
      <trkpt lat="48.01423" lon="6.99675">
        <ele>1043.1999511719</ele>
        <time>2022-10-30T13:29:46.000Z</time>
      </trkpt>
      <trkpt lat="48.01423" lon="6.99673">
        <ele>1043.1999511719</ele>
        <time>2022-10-30T13:29:47.000Z</time>
      </trkpt>
      <trkpt lat="48.01422" lon="6.99667">
        <ele>1043.8000488281</ele>
        <time>2022-10-30T13:29:52.000Z</time>
      </trkpt>
      <trkpt lat="48.01424" lon="6.99666">
        <ele>1044.1999511719</ele>
        <time>2022-10-30T13:29:55.000Z</time>
      </trkpt>
      <trkpt lat="48.01426" lon="6.99665">
        <ele>1045</ele>
        <time>2022-10-30T13:30:00.000Z</time>
      </trkpt>
      <trkpt lat="48.01427" lon="6.99663">
        <ele>1045.1999511719</ele>
        <time>2022-10-30T13:30:02.000Z</time>
      </trkpt>
      <trkpt lat="48.01427" lon="6.99659">
        <ele>1045.8000488281</ele>
        <time>2022-10-30T13:30:06.000Z</time>
      </trkpt>
      <trkpt lat="48.01427" lon="6.99657">
        <ele>1046.1999511719</ele>
        <time>2022-10-30T13:30:07.000Z</time>
      </trkpt>
      <trkpt lat="48.01427" lon="6.99655">
        <ele>1046.1999511719</ele>
        <time>2022-10-30T13:30:08.000Z</time>
      </trkpt>
      <trkpt lat="48.01429" lon="6.99651">
        <ele>1047</ele>
        <time>2022-10-30T13:30:13.000Z</time>
      </trkpt>
      <trkpt lat="48.01431" lon="6.9965">
        <ele>1047.4000244141</ele>
        <time>2022-10-30T13:30:15.000Z</time>
      </trkpt>
      <trkpt lat="48.01434" lon="6.99649">
        <ele>1047.5999755859</ele>
        <time>2022-10-30T13:30:18.000Z</time>
      </trkpt>
      <trkpt lat="48.01438" lon="6.99649">
        <ele>1048.4000244141</ele>
        <time>2022-10-30T13:30:24.000Z</time>
      </trkpt>
      <trkpt lat="48.01439" lon="6.99649">
        <ele>1048.4000244141</ele>
        <time>2022-10-30T13:30:25.000Z</time>
      </trkpt>
      <trkpt lat="48.0144" lon="6.99648">
        <ele>1048.5999755859</ele>
        <time>2022-10-30T13:30:28.000Z</time>
      </trkpt>
      <trkpt lat="48.01442" lon="6.99648">
        <ele>1049.1999511719</ele>
        <time>2022-10-30T13:30:34.000Z</time>
      </trkpt>
      <trkpt lat="48.01445" lon="6.99648">
        <ele>1049.5999755859</ele>
        <time>2022-10-30T13:30:38.000Z</time>
      </trkpt>
      <trkpt lat="48.01447" lon="6.99648">
        <ele>1050</ele>
        <time>2022-10-30T13:30:41.000Z</time>
      </trkpt>
      <trkpt lat="48.01449" lon="6.99644">
        <ele>1050.5999755859</ele>
        <time>2022-10-30T13:30:46.000Z</time>
      </trkpt>
      <trkpt lat="48.0145" lon="6.99644">
        <ele>1050.8000488281</ele>
        <time>2022-10-30T13:30:48.000Z</time>
      </trkpt>
      <trkpt lat="48.0145" lon="6.99644">
        <ele>1051.1999511719</ele>
        <time>2022-10-30T13:30:54.000Z</time>
      </trkpt>
      <trkpt lat="48.01451" lon="6.99646">
        <ele>1051.4000244141</ele>
        <time>2022-10-30T13:30:59.000Z</time>
      </trkpt>
      <trkpt lat="48.0145" lon="6.99647">
        <ele>1051.4000244141</ele>
        <time>2022-10-30T13:31:06.000Z</time>
      </trkpt>
      <trkpt lat="48.01448" lon="6.99647">
        <ele>1051.4000244141</ele>
        <time>2022-10-30T13:31:16.000Z</time>
      </trkpt>
      <trkpt lat="48.01446" lon="6.99645">
        <ele>1051.4000244141</ele>
        <time>2022-10-30T13:31:19.000Z</time>
      </trkpt>
      <trkpt lat="48.01443" lon="6.99641">
        <ele>1051.4000244141</ele>
        <time>2022-10-30T13:31:22.000Z</time>
      </trkpt>
      <trkpt lat="48.01439" lon="6.99637">
        <ele>1051.4000244141</ele>
        <time>2022-10-30T13:31:25.000Z</time>
      </trkpt>
      <trkpt lat="48.0144" lon="6.99638">
        <ele>1051.1999511719</ele>
        <time>2022-10-30T13:31:31.000Z</time>
      </trkpt>
      <trkpt lat="48.01442" lon="6.9964">
        <ele>1051.5999755859</ele>
        <time>2022-10-30T13:31:42.000Z</time>
      </trkpt>
      <trkpt lat="48.01446" lon="6.99637">
        <ele>1051.8000488281</ele>
        <time>2022-10-30T13:31:59.000Z</time>
      </trkpt>
      <trkpt lat="48.01453" lon="6.99631">
        <ele>1052.5999755859</ele>
        <time>2022-10-30T13:32:05.000Z</time>
      </trkpt>
      <trkpt lat="48.01454" lon="6.9963">
        <ele>1052.8000488281</ele>
        <time>2022-10-30T13:32:06.000Z</time>
      </trkpt>
      <trkpt lat="48.01458" lon="6.99626">
        <ele>1053.4000244141</ele>
        <time>2022-10-30T13:32:11.000Z</time>
      </trkpt>
      <trkpt lat="48.01462" lon="6.99629">
        <ele>1054</ele>
        <time>2022-10-30T13:32:15.000Z</time>
      </trkpt>
      <trkpt lat="48.01464" lon="6.99627">
        <ele>1054.1999511719</ele>
        <time>2022-10-30T13:32:19.000Z</time>
      </trkpt>
      <trkpt lat="48.01468" lon="6.99624">
        <ele>1054.8000488281</ele>
        <time>2022-10-30T13:32:25.000Z</time>
      </trkpt>
      <trkpt lat="48.01468" lon="6.99623">
        <ele>1054.8000488281</ele>
        <time>2022-10-30T13:32:26.000Z</time>
      </trkpt>
      <trkpt lat="48.01469" lon="6.99623">
        <ele>1055</ele>
        <time>2022-10-30T13:32:27.000Z</time>
      </trkpt>
      <trkpt lat="48.0147" lon="6.99622">
        <ele>1055.1999511719</ele>
        <time>2022-10-30T13:32:29.000Z</time>
      </trkpt>
      <trkpt lat="48.01473" lon="6.9962">
        <ele>1055.4000244141</ele>
        <time>2022-10-30T13:32:32.000Z</time>
      </trkpt>
      <trkpt lat="48.01474" lon="6.99615">
        <ele>1055.5999755859</ele>
        <time>2022-10-30T13:32:34.000Z</time>
      </trkpt>
      <trkpt lat="48.01475" lon="6.99612">
        <ele>1056</ele>
        <time>2022-10-30T13:32:37.000Z</time>
      </trkpt>
      <trkpt lat="48.01474" lon="6.99607">
        <ele>1056</ele>
        <time>2022-10-30T13:32:39.000Z</time>
      </trkpt>
      <trkpt lat="48.01473" lon="6.99602">
        <ele>1056.1999511719</ele>
        <time>2022-10-30T13:32:43.000Z</time>
      </trkpt>
      <trkpt lat="48.0147" lon="6.99602">
        <ele>1056.1999511719</ele>
        <time>2022-10-30T13:32:48.000Z</time>
      </trkpt>
      <trkpt lat="48.01471" lon="6.99598">
        <ele>1056.4000244141</ele>
        <time>2022-10-30T13:32:53.000Z</time>
      </trkpt>
      <trkpt lat="48.01473" lon="6.99595">
        <ele>1057</ele>
        <time>2022-10-30T13:32:58.000Z</time>
      </trkpt>
      <trkpt lat="48.01472" lon="6.99594">
        <ele>1057.1999511719</ele>
        <time>2022-10-30T13:32:59.000Z</time>
      </trkpt>
      <trkpt lat="48.01475" lon="6.99594">
        <ele>1057.1999511719</ele>
        <time>2022-10-30T13:33:04.000Z</time>
      </trkpt>
      <trkpt lat="48.0148" lon="6.99597">
        <ele>1057.1999511719</ele>
        <time>2022-10-30T13:33:12.000Z</time>
      </trkpt>
      <trkpt lat="48.01481" lon="6.99596">
        <ele>1057.4000244141</ele>
        <time>2022-10-30T13:33:19.000Z</time>
      </trkpt>
      <trkpt lat="48.0148" lon="6.99596">
        <ele>1057.4000244141</ele>
        <time>2022-10-30T13:33:22.000Z</time>
      </trkpt>
      <trkpt lat="48.0148" lon="6.99596">
        <ele>1057.8000488281</ele>
        <time>2022-10-30T13:33:40.000Z</time>
      </trkpt>
      <trkpt lat="48.0148" lon="6.99596">
        <ele>1058.1999511719</ele>
        <time>2022-10-30T13:33:43.000Z</time>
      </trkpt>
      <trkpt lat="48.01485" lon="6.99591">
        <ele>1058.8000488281</ele>
        <time>2022-10-30T13:33:50.000Z</time>
      </trkpt>
      <trkpt lat="48.01488" lon="6.99586">
        <ele>1059.1999511719</ele>
        <time>2022-10-30T13:33:53.000Z</time>
      </trkpt>
      <trkpt lat="48.01489" lon="6.99582">
        <ele>1059.4000244141</ele>
        <time>2022-10-30T13:33:55.000Z</time>
      </trkpt>
      <trkpt lat="48.01492" lon="6.99575">
        <ele>1060.1999511719</ele>
        <time>2022-10-30T13:34:02.000Z</time>
      </trkpt>
      <trkpt lat="48.01494" lon="6.9957">
        <ele>1060.5999755859</ele>
        <time>2022-10-30T13:34:07.000Z</time>
      </trkpt>
      <trkpt lat="48.01494" lon="6.99565">
        <ele>1061.4000244141</ele>
        <time>2022-10-30T13:34:14.000Z</time>
      </trkpt>
      <trkpt lat="48.01493" lon="6.9956">
        <ele>1061.8000488281</ele>
        <time>2022-10-30T13:34:18.000Z</time>
      </trkpt>
      <trkpt lat="48.01494" lon="6.99557">
        <ele>1062</ele>
        <time>2022-10-30T13:34:21.000Z</time>
      </trkpt>
      <trkpt lat="48.01495" lon="6.99556">
        <ele>1062</ele>
        <time>2022-10-30T13:34:23.000Z</time>
      </trkpt>
      <trkpt lat="48.01499" lon="6.99553">
        <ele>1062.1999511719</ele>
        <time>2022-10-30T13:34:26.000Z</time>
      </trkpt>
      <trkpt lat="48.01502" lon="6.9955">
        <ele>1062.4000244141</ele>
        <time>2022-10-30T13:34:28.000Z</time>
      </trkpt>
      <trkpt lat="48.01502" lon="6.9955">
        <ele>1062.5999755859</ele>
        <time>2022-10-30T13:34:29.000Z</time>
      </trkpt>
      <trkpt lat="48.01503" lon="6.99555">
        <ele>1063.1999511719</ele>
        <time>2022-10-30T13:34:35.000Z</time>
      </trkpt>
      <trkpt lat="48.01502" lon="6.99558">
        <ele>1063.1999511719</ele>
        <time>2022-10-30T13:34:39.000Z</time>
      </trkpt>
      <trkpt lat="48.015" lon="6.99561">
        <ele>1063.4000244141</ele>
        <time>2022-10-30T13:34:44.000Z</time>
      </trkpt>
      <trkpt lat="48.015" lon="6.99562">
        <ele>1063.4000244141</ele>
        <time>2022-10-30T13:34:46.000Z</time>
      </trkpt>
      <trkpt lat="48.015" lon="6.99562">
        <ele>1063.5999755859</ele>
        <time>2022-10-30T13:34:49.000Z</time>
      </trkpt>
      <trkpt lat="48.01501" lon="6.99565">
        <ele>1063.5999755859</ele>
        <time>2022-10-30T13:34:55.000Z</time>
      </trkpt>
      <trkpt lat="48.01502" lon="6.99569">
        <ele>1063.8000488281</ele>
        <time>2022-10-30T13:35:00.000Z</time>
      </trkpt>
      <trkpt lat="48.01502" lon="6.9957">
        <ele>1063.8000488281</ele>
        <time>2022-10-30T13:35:02.000Z</time>
      </trkpt>
      <trkpt lat="48.01502" lon="6.99572">
        <ele>1063.8000488281</ele>
        <time>2022-10-30T13:35:04.000Z</time>
      </trkpt>
      <trkpt lat="48.01504" lon="6.99573">
        <ele>1063.8000488281</ele>
        <time>2022-10-30T13:35:06.000Z</time>
      </trkpt>
      <trkpt lat="48.01504" lon="6.99575">
        <ele>1063.8000488281</ele>
        <time>2022-10-30T13:35:11.000Z</time>
      </trkpt>
      <trkpt lat="48.01504" lon="6.99576">
        <ele>1064</ele>
        <time>2022-10-30T13:35:13.000Z</time>
      </trkpt>
      <trkpt lat="48.01505" lon="6.99576">
        <ele>1064</ele>
        <time>2022-10-30T13:35:16.000Z</time>
      </trkpt>
      <trkpt lat="48.01505" lon="6.99575">
        <ele>1064</ele>
        <time>2022-10-30T13:35:17.000Z</time>
      </trkpt>
      <trkpt lat="48.01507" lon="6.99574">
        <ele>1064.1999511719</ele>
        <time>2022-10-30T13:35:22.000Z</time>
      </trkpt>
      <trkpt lat="48.01509" lon="6.99577">
        <ele>1064.4000244141</ele>
        <time>2022-10-30T13:35:27.000Z</time>
      </trkpt>
      <trkpt lat="48.01509" lon="6.99578">
        <ele>1064.5999755859</ele>
        <time>2022-10-30T13:35:28.000Z</time>
      </trkpt>
      <trkpt lat="48.01508" lon="6.99578">
        <ele>1065</ele>
        <time>2022-10-30T13:35:32.000Z</time>
      </trkpt>
      <trkpt lat="48.01509" lon="6.99579">
        <ele>1065.5999755859</ele>
        <time>2022-10-30T13:35:36.000Z</time>
      </trkpt>
      <trkpt lat="48.01511" lon="6.99578">
        <ele>1066.1999511719</ele>
        <time>2022-10-30T13:35:38.000Z</time>
      </trkpt>
      <trkpt lat="48.01512" lon="6.99576">
        <ele>1066.8000488281</ele>
        <time>2022-10-30T13:35:41.000Z</time>
      </trkpt>
      <trkpt lat="48.01512" lon="6.99571">
        <ele>1067.1999511719</ele>
        <time>2022-10-30T13:35:45.000Z</time>
      </trkpt>
      <trkpt lat="48.01508" lon="6.99563">
        <ele>1067.5999755859</ele>
        <time>2022-10-30T13:35:50.000Z</time>
      </trkpt>
      <trkpt lat="48.01508" lon="6.99562">
        <ele>1067.8000488281</ele>
        <time>2022-10-30T13:35:51.000Z</time>
      </trkpt>
      <trkpt lat="48.01507" lon="6.99558">
        <ele>1067.8000488281</ele>
        <time>2022-10-30T13:35:53.000Z</time>
      </trkpt>
      <trkpt lat="48.01504" lon="6.99554">
        <ele>1068</ele>
        <time>2022-10-30T13:35:57.000Z</time>
      </trkpt>
      <trkpt lat="48.01503" lon="6.99551">
        <ele>1068.1999511719</ele>
        <time>2022-10-30T13:36:00.000Z</time>
      </trkpt>
      <trkpt lat="48.01504" lon="6.99552">
        <ele>1068.1999511719</ele>
        <time>2022-10-30T13:36:01.000Z</time>
      </trkpt>
      <trkpt lat="48.01503" lon="6.99553">
        <ele>1068.1999511719</ele>
        <time>2022-10-30T13:36:03.000Z</time>
      </trkpt>
      <trkpt lat="48.01503" lon="6.99554">
        <ele>1068.1999511719</ele>
        <time>2022-10-30T13:36:09.000Z</time>
      </trkpt>
      <trkpt lat="48.01503" lon="6.9955">
        <ele>1068</ele>
        <time>2022-10-30T13:36:14.000Z</time>
      </trkpt>
      <trkpt lat="48.01504" lon="6.99547">
        <ele>1068.1999511719</ele>
        <time>2022-10-30T13:36:16.000Z</time>
      </trkpt>
      <trkpt lat="48.01504" lon="6.99541">
        <ele>1068.8000488281</ele>
        <time>2022-10-30T13:36:21.000Z</time>
      </trkpt>
      <trkpt lat="48.01505" lon="6.99537">
        <ele>1069.4000244141</ele>
        <time>2022-10-30T13:36:25.000Z</time>
      </trkpt>
      <trkpt lat="48.01504" lon="6.9953">
        <ele>1069.8000488281</ele>
        <time>2022-10-30T13:36:30.000Z</time>
      </trkpt>
      <trkpt lat="48.01504" lon="6.99527">
        <ele>1070.1999511719</ele>
        <time>2022-10-30T13:36:34.000Z</time>
      </trkpt>
      <trkpt lat="48.01505" lon="6.99526">
        <ele>1070.4000244141</ele>
        <time>2022-10-30T13:36:35.000Z</time>
      </trkpt>
      <trkpt lat="48.01507" lon="6.99524">
        <ele>1070.8000488281</ele>
        <time>2022-10-30T13:36:40.000Z</time>
      </trkpt>
      <trkpt lat="48.01507" lon="6.99523">
        <ele>1070.8000488281</ele>
        <time>2022-10-30T13:36:41.000Z</time>
      </trkpt>
      <trkpt lat="48.0151" lon="6.99522">
        <ele>1071.4000244141</ele>
        <time>2022-10-30T13:36:46.000Z</time>
      </trkpt>
      <trkpt lat="48.0151" lon="6.99524">
        <ele>1071.5999755859</ele>
        <time>2022-10-30T13:36:49.000Z</time>
      </trkpt>
      <trkpt lat="48.0151" lon="6.99525">
        <ele>1071.4000244141</ele>
        <time>2022-10-30T13:36:52.000Z</time>
      </trkpt>
      <trkpt lat="48.0151" lon="6.99527">
        <ele>1071</ele>
        <time>2022-10-30T13:36:55.000Z</time>
      </trkpt>
      <trkpt lat="48.01509" lon="6.99527">
        <ele>1070.4000244141</ele>
        <time>2022-10-30T13:36:58.000Z</time>
      </trkpt>
      <trkpt lat="48.01509" lon="6.99522">
        <ele>1069.8000488281</ele>
        <time>2022-10-30T13:37:03.000Z</time>
      </trkpt>
      <trkpt lat="48.01508" lon="6.9952">
        <ele>1069.5999755859</ele>
        <time>2022-10-30T13:37:05.000Z</time>
      </trkpt>
      <trkpt lat="48.01508" lon="6.99516">
        <ele>1069.5999755859</ele>
        <time>2022-10-30T13:37:14.000Z</time>
      </trkpt>
      <trkpt lat="48.01508" lon="6.99516">
        <ele>1069.1999511719</ele>
        <time>2022-10-30T13:37:29.000Z</time>
      </trkpt>
      <trkpt lat="48.01508" lon="6.99516">
        <ele>1069.1999511719</ele>
        <time>2022-10-30T13:37:30.000Z</time>
      </trkpt>
      <trkpt lat="48.01508" lon="6.99517">
        <ele>1069.8000488281</ele>
        <time>2022-10-30T13:37:37.000Z</time>
      </trkpt>
      <trkpt lat="48.01508" lon="6.99519">
        <ele>1070.1999511719</ele>
        <time>2022-10-30T13:37:40.000Z</time>
      </trkpt>
      <trkpt lat="48.0151" lon="6.99519">
        <ele>1070.8000488281</ele>
        <time>2022-10-30T13:37:45.000Z</time>
      </trkpt>
      <trkpt lat="48.01512" lon="6.99518">
        <ele>1071.8000488281</ele>
        <time>2022-10-30T13:37:47.000Z</time>
      </trkpt>
      <trkpt lat="48.01515" lon="6.99516">
        <ele>1071.8000488281</ele>
        <time>2022-10-30T13:37:52.000Z</time>
      </trkpt>
      <trkpt lat="48.01517" lon="6.99512">
        <ele>1071.8000488281</ele>
        <time>2022-10-30T13:37:57.000Z</time>
      </trkpt>
      <trkpt lat="48.01519" lon="6.99511">
        <ele>1071.8000488281</ele>
        <time>2022-10-30T13:38:00.000Z</time>
      </trkpt>
      <trkpt lat="48.01519" lon="6.99509">
        <ele>1071.8000488281</ele>
        <time>2022-10-30T13:38:02.000Z</time>
      </trkpt>
      <trkpt lat="48.01519" lon="6.99507">
        <ele>1071.8000488281</ele>
        <time>2022-10-30T13:38:08.000Z</time>
      </trkpt>
      <trkpt lat="48.01519" lon="6.99502">
        <ele>1071.8000488281</ele>
        <time>2022-10-30T13:38:14.000Z</time>
      </trkpt>
      <trkpt lat="48.01519" lon="6.99499">
        <ele>1071.8000488281</ele>
        <time>2022-10-30T13:38:16.000Z</time>
      </trkpt>
      <trkpt lat="48.0152" lon="6.99495">
        <ele>1071.8000488281</ele>
        <time>2022-10-30T13:38:20.000Z</time>
      </trkpt>
      <trkpt lat="48.0152" lon="6.99494">
        <ele>1071.8000488281</ele>
        <time>2022-10-30T13:38:23.000Z</time>
      </trkpt>
      <trkpt lat="48.0152" lon="6.99488">
        <ele>1071.8000488281</ele>
        <time>2022-10-30T13:38:30.000Z</time>
      </trkpt>
      <trkpt lat="48.01524" lon="6.99488">
        <ele>1071.8000488281</ele>
        <time>2022-10-30T13:38:38.000Z</time>
      </trkpt>
      <trkpt lat="48.01523" lon="6.99488">
        <ele>1076.8000488281</ele>
        <time>2022-10-30T13:38:47.000Z</time>
      </trkpt>
      <trkpt lat="48.01523" lon="6.99488">
        <ele>1076.8000488281</ele>
        <time>2022-10-30T13:38:48.000Z</time>
      </trkpt>
      <trkpt lat="48.01523" lon="6.99488">
        <ele>1076.8000488281</ele>
        <time>2022-10-30T13:38:53.000Z</time>
      </trkpt>
      <trkpt lat="48.01527" lon="6.99492">
        <ele>1076.8000488281</ele>
        <time>2022-10-30T13:39:14.000Z</time>
      </trkpt>
      <trkpt lat="48.0153" lon="6.99495">
        <ele>1077</ele>
        <time>2022-10-30T13:39:23.000Z</time>
      </trkpt>
      <trkpt lat="48.01531" lon="6.99498">
        <ele>1077.1999511719</ele>
        <time>2022-10-30T13:39:25.000Z</time>
      </trkpt>
      <trkpt lat="48.01537" lon="6.99504">
        <ele>1077.8000488281</ele>
        <time>2022-10-30T13:39:30.000Z</time>
      </trkpt>
      <trkpt lat="48.01538" lon="6.99505">
        <ele>1077.8000488281</ele>
        <time>2022-10-30T13:39:31.000Z</time>
      </trkpt>
      <trkpt lat="48.01539" lon="6.99508">
        <ele>1078</ele>
        <time>2022-10-30T13:39:33.000Z</time>
      </trkpt>
      <trkpt lat="48.0154" lon="6.99514">
        <ele>1078.1999511719</ele>
        <time>2022-10-30T13:39:37.000Z</time>
      </trkpt>
      <trkpt lat="48.01541" lon="6.99519">
        <ele>1078.8000488281</ele>
        <time>2022-10-30T13:39:42.000Z</time>
      </trkpt>
      <trkpt lat="48.01541" lon="6.9952">
        <ele>1079</ele>
        <time>2022-10-30T13:39:43.000Z</time>
      </trkpt>
      <trkpt lat="48.01545" lon="6.99521">
        <ele>1079.1999511719</ele>
        <time>2022-10-30T13:39:47.000Z</time>
      </trkpt>
      <trkpt lat="48.01546" lon="6.9952">
        <ele>1079.1999511719</ele>
        <time>2022-10-30T13:39:49.000Z</time>
      </trkpt>
      <trkpt lat="48.01544" lon="6.99518">
        <ele>1079.5999755859</ele>
        <time>2022-10-30T13:39:52.000Z</time>
      </trkpt>
      <trkpt lat="48.01542" lon="6.99516">
        <ele>1080</ele>
        <time>2022-10-30T13:39:55.000Z</time>
      </trkpt>
      <trkpt lat="48.01541" lon="6.99514">
        <ele>1080</ele>
        <time>2022-10-30T13:39:56.000Z</time>
      </trkpt>
      <trkpt lat="48.0154" lon="6.99513">
        <ele>1080.1999511719</ele>
        <time>2022-10-30T13:39:57.000Z</time>
      </trkpt>
      <trkpt lat="48.01538" lon="6.99506">
        <ele>1080.5999755859</ele>
        <time>2022-10-30T13:40:01.000Z</time>
      </trkpt>
      <trkpt lat="48.01536" lon="6.99499">
        <ele>1081</ele>
        <time>2022-10-30T13:40:06.000Z</time>
      </trkpt>
      <trkpt lat="48.01535" lon="6.99498">
        <ele>1081.1999511719</ele>
        <time>2022-10-30T13:40:07.000Z</time>
      </trkpt>
      <trkpt lat="48.01536" lon="6.99493">
        <ele>1081.4000244141</ele>
        <time>2022-10-30T13:40:13.000Z</time>
      </trkpt>
      <trkpt lat="48.0154" lon="6.99487">
        <ele>1082</ele>
        <time>2022-10-30T13:40:20.000Z</time>
      </trkpt>
      <trkpt lat="48.0154" lon="6.99487">
        <ele>1082.1999511719</ele>
        <time>2022-10-30T13:40:21.000Z</time>
      </trkpt>
      <trkpt lat="48.01537" lon="6.99489">
        <ele>1082</ele>
        <time>2022-10-30T13:40:27.000Z</time>
      </trkpt>
      <trkpt lat="48.01536" lon="6.9949">
        <ele>1082</ele>
        <time>2022-10-30T13:40:32.000Z</time>
      </trkpt>
      <trkpt lat="48.01537" lon="6.99488">
        <ele>1082.1999511719</ele>
        <time>2022-10-30T13:40:38.000Z</time>
      </trkpt>
      <trkpt lat="48.01539" lon="6.99481">
        <ele>1082.5999755859</ele>
        <time>2022-10-30T13:40:45.000Z</time>
      </trkpt>
      <trkpt lat="48.01544" lon="6.99478">
        <ele>1082.8000488281</ele>
        <time>2022-10-30T13:40:53.000Z</time>
      </trkpt>
      <trkpt lat="48.01548" lon="6.99473">
        <ele>1083</ele>
        <time>2022-10-30T13:41:00.000Z</time>
      </trkpt>
      <trkpt lat="48.01548" lon="6.99472">
        <ele>1083</ele>
        <time>2022-10-30T13:41:01.000Z</time>
      </trkpt>
      <trkpt lat="48.01551" lon="6.99472">
        <ele>1083.4000244141</ele>
        <time>2022-10-30T13:41:05.000Z</time>
      </trkpt>
      <trkpt lat="48.01555" lon="6.99467">
        <ele>1083.5999755859</ele>
        <time>2022-10-30T13:41:10.000Z</time>
      </trkpt>
      <trkpt lat="48.01565" lon="6.99466">
        <ele>1084</ele>
        <time>2022-10-30T13:41:17.000Z</time>
      </trkpt>
      <trkpt lat="48.01567" lon="6.99465">
        <ele>1084.1999511719</ele>
        <time>2022-10-30T13:41:19.000Z</time>
      </trkpt>
      <trkpt lat="48.01571" lon="6.99466">
        <ele>1084.1999511719</ele>
        <time>2022-10-30T13:41:22.000Z</time>
      </trkpt>
      <trkpt lat="48.01573" lon="6.99467">
        <ele>1084.4000244141</ele>
        <time>2022-10-30T13:41:26.000Z</time>
      </trkpt>
      <trkpt lat="48.01576" lon="6.99462">
        <ele>1084.8000488281</ele>
        <time>2022-10-30T13:41:31.000Z</time>
      </trkpt>
      <trkpt lat="48.01579" lon="6.99458">
        <ele>1085.1999511719</ele>
        <time>2022-10-30T13:41:37.000Z</time>
      </trkpt>
      <trkpt lat="48.01586" lon="6.99453">
        <ele>1085.5999755859</ele>
        <time>2022-10-30T13:41:44.000Z</time>
      </trkpt>
      <trkpt lat="48.01589" lon="6.99448">
        <ele>1086</ele>
        <time>2022-10-30T13:41:49.000Z</time>
      </trkpt>
      <trkpt lat="48.01587" lon="6.99446">
        <ele>1086.1999511719</ele>
        <time>2022-10-30T13:41:54.000Z</time>
      </trkpt>
      <trkpt lat="48.01587" lon="6.99446">
        <ele>1086.4000244141</ele>
        <time>2022-10-30T13:41:55.000Z</time>
      </trkpt>
      <trkpt lat="48.01587" lon="6.9945">
        <ele>1086.5999755859</ele>
        <time>2022-10-30T13:42:01.000Z</time>
      </trkpt>
      <trkpt lat="48.01587" lon="6.99451">
        <ele>1087</ele>
        <time>2022-10-30T13:42:20.000Z</time>
      </trkpt>
      <trkpt lat="48.01587" lon="6.99451">
        <ele>1087</ele>
        <time>2022-10-30T13:42:24.000Z</time>
      </trkpt>
      <trkpt lat="48.01587" lon="6.99457">
        <ele>1087.1999511719</ele>
        <time>2022-10-30T13:42:38.000Z</time>
      </trkpt>
      <trkpt lat="48.01588" lon="6.99456">
        <ele>1088.4000244141</ele>
        <time>2022-10-30T13:42:53.000Z</time>
      </trkpt>
      <trkpt lat="48.01589" lon="6.99454">
        <ele>1089</ele>
        <time>2022-10-30T13:43:00.000Z</time>
      </trkpt>
      <trkpt lat="48.01592" lon="6.99451">
        <ele>1089.4000244141</ele>
        <time>2022-10-30T13:43:06.000Z</time>
      </trkpt>
      <trkpt lat="48.01594" lon="6.99445">
        <ele>1089.5999755859</ele>
        <time>2022-10-30T13:43:11.000Z</time>
      </trkpt>
      <trkpt lat="48.01601" lon="6.9944">
        <ele>1090.5999755859</ele>
        <time>2022-10-30T13:43:24.000Z</time>
      </trkpt>
      <trkpt lat="48.01614" lon="6.99433">
        <ele>1091.4000244141</ele>
        <time>2022-10-30T13:43:36.000Z</time>
      </trkpt>
      <trkpt lat="48.01618" lon="6.99432">
        <ele>1091.5999755859</ele>
        <time>2022-10-30T13:43:38.000Z</time>
      </trkpt>
      <trkpt lat="48.01627" lon="6.99424">
        <ele>1091.8000488281</ele>
        <time>2022-10-30T13:43:42.000Z</time>
      </trkpt>
      <trkpt lat="48.01632" lon="6.99416">
        <ele>1092.1999511719</ele>
        <time>2022-10-30T13:43:47.000Z</time>
      </trkpt>
      <trkpt lat="48.01633" lon="6.99411">
        <ele>1092.5999755859</ele>
        <time>2022-10-30T13:43:52.000Z</time>
      </trkpt>
      <trkpt lat="48.01632" lon="6.99411">
        <ele>1092.5999755859</ele>
        <time>2022-10-30T13:43:53.000Z</time>
      </trkpt>
      <trkpt lat="48.01633" lon="6.9941">
        <ele>1092.8000488281</ele>
        <time>2022-10-30T13:43:55.000Z</time>
      </trkpt>
      <trkpt lat="48.01636" lon="6.99411">
        <ele>1092.8000488281</ele>
        <time>2022-10-30T13:43:57.000Z</time>
      </trkpt>
      <trkpt lat="48.01639" lon="6.99412">
        <ele>1093.4000244141</ele>
        <time>2022-10-30T13:44:01.000Z</time>
      </trkpt>
      <trkpt lat="48.0164" lon="6.99413">
        <ele>1093.5999755859</ele>
        <time>2022-10-30T13:44:07.000Z</time>
      </trkpt>
      <trkpt lat="48.01641" lon="6.99418">
        <ele>1093.5999755859</ele>
        <time>2022-10-30T13:44:12.000Z</time>
      </trkpt>
      <trkpt lat="48.0164" lon="6.99418">
        <ele>1093.4000244141</ele>
        <time>2022-10-30T13:44:19.000Z</time>
      </trkpt>
      <trkpt lat="48.0164" lon="6.99418">
        <ele>1093.5999755859</ele>
        <time>2022-10-30T13:44:33.000Z</time>
      </trkpt>
      <trkpt lat="48.0164" lon="6.99419">
        <ele>1093.8000488281</ele>
        <time>2022-10-30T13:44:36.000Z</time>
      </trkpt>
      <trkpt lat="48.01642" lon="6.9942">
        <ele>1094.4000244141</ele>
        <time>2022-10-30T13:44:42.000Z</time>
      </trkpt>
      <trkpt lat="48.01645" lon="6.9942">
        <ele>1094.8000488281</ele>
        <time>2022-10-30T13:44:46.000Z</time>
      </trkpt>
      <trkpt lat="48.01646" lon="6.99419">
        <ele>1095</ele>
        <time>2022-10-30T13:44:47.000Z</time>
      </trkpt>
      <trkpt lat="48.01652" lon="6.9941">
        <ele>1095.5999755859</ele>
        <time>2022-10-30T13:44:54.000Z</time>
      </trkpt>
      <trkpt lat="48.01654" lon="6.99409">
        <ele>1095.8000488281</ele>
        <time>2022-10-30T13:44:57.000Z</time>
      </trkpt>
      <trkpt lat="48.01656" lon="6.99405">
        <ele>1096.1999511719</ele>
        <time>2022-10-30T13:45:01.000Z</time>
      </trkpt>
      <trkpt lat="48.01662" lon="6.99409">
        <ele>1096.4000244141</ele>
        <time>2022-10-30T13:45:06.000Z</time>
      </trkpt>
      <trkpt lat="48.01664" lon="6.99407">
        <ele>1097</ele>
        <time>2022-10-30T13:45:10.000Z</time>
      </trkpt>
      <trkpt lat="48.01663" lon="6.99406">
        <ele>1097</ele>
        <time>2022-10-30T13:45:12.000Z</time>
      </trkpt>
      <trkpt lat="48.01661" lon="6.99405">
        <ele>1097.4000244141</ele>
        <time>2022-10-30T13:45:17.000Z</time>
      </trkpt>
      <trkpt lat="48.01661" lon="6.99403">
        <ele>1097.8000488281</ele>
        <time>2022-10-30T13:45:20.000Z</time>
      </trkpt>
      <trkpt lat="48.01663" lon="6.994">
        <ele>1097.8000488281</ele>
        <time>2022-10-30T13:45:24.000Z</time>
      </trkpt>
      <trkpt lat="48.01664" lon="6.994">
        <ele>1098</ele>
        <time>2022-10-30T13:45:25.000Z</time>
      </trkpt>
      <trkpt lat="48.01665" lon="6.99403">
        <ele>1098.5999755859</ele>
        <time>2022-10-30T13:45:31.000Z</time>
      </trkpt>
      <trkpt lat="48.01668" lon="6.99404">
        <ele>1099</ele>
        <time>2022-10-30T13:45:37.000Z</time>
      </trkpt>
      <trkpt lat="48.01668" lon="6.99403">
        <ele>1099</ele>
        <time>2022-10-30T13:45:38.000Z</time>
      </trkpt>
      <trkpt lat="48.01673" lon="6.99408">
        <ele>1099</ele>
        <time>2022-10-30T13:45:43.000Z</time>
      </trkpt>
      <trkpt lat="48.01672" lon="6.9941">
        <ele>1099</ele>
        <time>2022-10-30T13:45:48.000Z</time>
      </trkpt>
      <trkpt lat="48.01673" lon="6.99409">
        <ele>1099.4000244141</ele>
        <time>2022-10-30T13:45:54.000Z</time>
      </trkpt>
      <trkpt lat="48.01676" lon="6.99406">
        <ele>1099.5999755859</ele>
        <time>2022-10-30T13:46:00.000Z</time>
      </trkpt>
      <trkpt lat="48.01678" lon="6.99405">
        <ele>1100</ele>
        <time>2022-10-30T13:46:04.000Z</time>
      </trkpt>
      <trkpt lat="48.01678" lon="6.99405">
        <ele>1100.1999511719</ele>
        <time>2022-10-30T13:46:05.000Z</time>
      </trkpt>
      <trkpt lat="48.01683" lon="6.99407">
        <ele>1100.8000488281</ele>
        <time>2022-10-30T13:46:11.000Z</time>
      </trkpt>
      <trkpt lat="48.01683" lon="6.99408">
        <ele>1101</ele>
        <time>2022-10-30T13:46:12.000Z</time>
      </trkpt>
      <trkpt lat="48.01684" lon="6.99409">
        <ele>1101.1999511719</ele>
        <time>2022-10-30T13:46:14.000Z</time>
      </trkpt>
      <trkpt lat="48.01679" lon="6.99415">
        <ele>1102.1999511719</ele>
        <time>2022-10-30T13:46:21.000Z</time>
      </trkpt>
      <trkpt lat="48.01677" lon="6.99423">
        <ele>1102.8000488281</ele>
        <time>2022-10-30T13:46:31.000Z</time>
      </trkpt>
      <trkpt lat="48.01678" lon="6.99426">
        <ele>1103.1999511719</ele>
        <time>2022-10-30T13:46:35.000Z</time>
      </trkpt>
      <trkpt lat="48.01678" lon="6.99428">
        <ele>1103.4000244141</ele>
        <time>2022-10-30T13:46:37.000Z</time>
      </trkpt>
      <trkpt lat="48.01677" lon="6.9943">
        <ele>1103.5999755859</ele>
        <time>2022-10-30T13:46:44.000Z</time>
      </trkpt>
      <trkpt lat="48.01674" lon="6.99426">
        <ele>1103.8000488281</ele>
        <time>2022-10-30T13:46:50.000Z</time>
      </trkpt>
      <trkpt lat="48.01675" lon="6.99425">
        <ele>1104.1999511719</ele>
        <time>2022-10-30T13:46:58.000Z</time>
      </trkpt>
      <trkpt lat="48.01675" lon="6.99425">
        <ele>1104.1999511719</ele>
        <time>2022-10-30T13:47:03.000Z</time>
      </trkpt>
      <trkpt lat="48.01677" lon="6.99423">
        <ele>1104.8000488281</ele>
        <time>2022-10-30T13:47:25.000Z</time>
      </trkpt>
      <trkpt lat="48.01678" lon="6.99418">
        <ele>1105</ele>
        <time>2022-10-30T13:47:40.000Z</time>
      </trkpt>
      <trkpt lat="48.01678" lon="6.99418">
        <ele>1105.1999511719</ele>
        <time>2022-10-30T13:47:42.000Z</time>
      </trkpt>
      <trkpt lat="48.01678" lon="6.99418">
        <ele>1105.1999511719</ele>
        <time>2022-10-30T13:47:44.000Z</time>
      </trkpt>
      <trkpt lat="48.01678" lon="6.99419">
        <ele>1105.5999755859</ele>
        <time>2022-10-30T13:47:49.000Z</time>
      </trkpt>
      <trkpt lat="48.01675" lon="6.99424">
        <ele>1105.8000488281</ele>
        <time>2022-10-30T13:47:51.000Z</time>
      </trkpt>
      <trkpt lat="48.01672" lon="6.99431">
        <ele>1106</ele>
        <time>2022-10-30T13:47:54.000Z</time>
      </trkpt>
      <trkpt lat="48.0167" lon="6.99436">
        <ele>1106.4000244141</ele>
        <time>2022-10-30T13:47:57.000Z</time>
      </trkpt>
      <trkpt lat="48.01671" lon="6.99441">
        <ele>1106.5999755859</ele>
        <time>2022-10-30T13:48:00.000Z</time>
      </trkpt>
      <trkpt lat="48.0167" lon="6.99446">
        <ele>1107.4000244141</ele>
        <time>2022-10-30T13:48:05.000Z</time>
      </trkpt>
      <trkpt lat="48.01667" lon="6.99454">
        <ele>1108.4000244141</ele>
        <time>2022-10-30T13:48:12.000Z</time>
      </trkpt>
      <trkpt lat="48.01666" lon="6.99454">
        <ele>1108.5999755859</ele>
        <time>2022-10-30T13:48:13.000Z</time>
      </trkpt>
      <trkpt lat="48.01663" lon="6.9946">
        <ele>1109.1999511719</ele>
        <time>2022-10-30T13:48:18.000Z</time>
      </trkpt>
      <trkpt lat="48.01661" lon="6.99461">
        <ele>1109.1999511719</ele>
        <time>2022-10-30T13:48:19.000Z</time>
      </trkpt>
      <trkpt lat="48.01661" lon="6.99464">
        <ele>1109.1999511719</ele>
        <time>2022-10-30T13:48:24.000Z</time>
      </trkpt>
      <trkpt lat="48.01659" lon="6.99467">
        <ele>1109.4000244141</ele>
        <time>2022-10-30T13:48:29.000Z</time>
      </trkpt>
      <trkpt lat="48.01656" lon="6.99468">
        <ele>1109.5999755859</ele>
        <time>2022-10-30T13:48:31.000Z</time>
      </trkpt>
      <trkpt lat="48.01652" lon="6.99469">
        <ele>1109.8000488281</ele>
        <time>2022-10-30T13:48:35.000Z</time>
      </trkpt>
      <trkpt lat="48.01647" lon="6.99482">
        <ele>1110.5999755859</ele>
        <time>2022-10-30T13:48:45.000Z</time>
      </trkpt>
      <trkpt lat="48.01646" lon="6.99483">
        <ele>1110.5999755859</ele>
        <time>2022-10-30T13:48:46.000Z</time>
      </trkpt>
      <trkpt lat="48.01644" lon="6.99488">
        <ele>1111.1999511719</ele>
        <time>2022-10-30T13:48:51.000Z</time>
      </trkpt>
      <trkpt lat="48.0164" lon="6.99494">
        <ele>1111.8000488281</ele>
        <time>2022-10-30T13:48:57.000Z</time>
      </trkpt>
      <trkpt lat="48.01638" lon="6.99495">
        <ele>1112</ele>
        <time>2022-10-30T13:48:59.000Z</time>
      </trkpt>
      <trkpt lat="48.01636" lon="6.99501">
        <ele>1112.4000244141</ele>
        <time>2022-10-30T13:49:05.000Z</time>
      </trkpt>
      <trkpt lat="48.01633" lon="6.99502">
        <ele>1112.8000488281</ele>
        <time>2022-10-30T13:49:09.000Z</time>
      </trkpt>
      <trkpt lat="48.01633" lon="6.99501">
        <ele>1112.8000488281</ele>
        <time>2022-10-30T13:49:10.000Z</time>
      </trkpt>
      <trkpt lat="48.01632" lon="6.995">
        <ele>1112.8000488281</ele>
        <time>2022-10-30T13:49:11.000Z</time>
      </trkpt>
      <trkpt lat="48.01631" lon="6.99493">
        <ele>1112.5999755859</ele>
        <time>2022-10-30T13:49:17.000Z</time>
      </trkpt>
      <trkpt lat="48.01633" lon="6.99491">
        <ele>1112.4000244141</ele>
        <time>2022-10-30T13:49:21.000Z</time>
      </trkpt>
      <trkpt lat="48.0163" lon="6.99494">
        <ele>1112.5999755859</ele>
        <time>2022-10-30T13:49:28.000Z</time>
      </trkpt>
      <trkpt lat="48.01627" lon="6.99499">
        <ele>1112.8000488281</ele>
        <time>2022-10-30T13:49:35.000Z</time>
      </trkpt>
      <trkpt lat="48.01625" lon="6.99508">
        <ele>1113</ele>
        <time>2022-10-30T13:49:42.000Z</time>
      </trkpt>
      <trkpt lat="48.01622" lon="6.99514">
        <ele>1113.1999511719</ele>
        <time>2022-10-30T13:49:49.000Z</time>
      </trkpt>
      <trkpt lat="48.01619" lon="6.9952">
        <ele>1114</ele>
        <time>2022-10-30T13:49:56.000Z</time>
      </trkpt>
      <trkpt lat="48.01613" lon="6.99529">
        <ele>1114.8000488281</ele>
        <time>2022-10-30T13:50:03.000Z</time>
      </trkpt>
      <trkpt lat="48.01612" lon="6.99534">
        <ele>1115</ele>
        <time>2022-10-30T13:50:06.000Z</time>
      </trkpt>
      <trkpt lat="48.0161" lon="6.99539">
        <ele>1115.8000488281</ele>
        <time>2022-10-30T13:50:13.000Z</time>
      </trkpt>
      <trkpt lat="48.01609" lon="6.99542">
        <ele>1116</ele>
        <time>2022-10-30T13:50:16.000Z</time>
      </trkpt>
      <trkpt lat="48.01608" lon="6.99547">
        <ele>1116.4000244141</ele>
        <time>2022-10-30T13:50:21.000Z</time>
      </trkpt>
      <trkpt lat="48.01607" lon="6.99552">
        <ele>1116.8000488281</ele>
        <time>2022-10-30T13:50:27.000Z</time>
      </trkpt>
      <trkpt lat="48.01607" lon="6.99556">
        <ele>1117.1999511719</ele>
        <time>2022-10-30T13:50:30.000Z</time>
      </trkpt>
      <trkpt lat="48.01605" lon="6.99562">
        <ele>1118</ele>
        <time>2022-10-30T13:50:36.000Z</time>
      </trkpt>
      <trkpt lat="48.01604" lon="6.99563">
        <ele>1118.1999511719</ele>
        <time>2022-10-30T13:50:38.000Z</time>
      </trkpt>
      <trkpt lat="48.01603" lon="6.99568">
        <ele>1118.5999755859</ele>
        <time>2022-10-30T13:50:41.000Z</time>
      </trkpt>
      <trkpt lat="48.01603" lon="6.99569">
        <ele>1118.8000488281</ele>
        <time>2022-10-30T13:50:42.000Z</time>
      </trkpt>
      <trkpt lat="48.016" lon="6.99572">
        <ele>1119.4000244141</ele>
        <time>2022-10-30T13:50:46.000Z</time>
      </trkpt>
      <trkpt lat="48.01599" lon="6.99576">
        <ele>1120</ele>
        <time>2022-10-30T13:50:49.000Z</time>
      </trkpt>
      <trkpt lat="48.01597" lon="6.99579">
        <ele>1120.4000244141</ele>
        <time>2022-10-30T13:50:52.000Z</time>
      </trkpt>
      <trkpt lat="48.01596" lon="6.99581">
        <ele>1121</ele>
        <time>2022-10-30T13:50:54.000Z</time>
      </trkpt>
      <trkpt lat="48.01596" lon="6.99583">
        <ele>1121.1999511719</ele>
        <time>2022-10-30T13:50:56.000Z</time>
      </trkpt>
      <trkpt lat="48.01595" lon="6.99585">
        <ele>1121.4000244141</ele>
        <time>2022-10-30T13:50:57.000Z</time>
      </trkpt>
      <trkpt lat="48.01595" lon="6.99585">
        <ele>1121.5999755859</ele>
        <time>2022-10-30T13:50:58.000Z</time>
      </trkpt>
      <trkpt lat="48.01593" lon="6.99592">
        <ele>1122.4000244141</ele>
        <time>2022-10-30T13:51:04.000Z</time>
      </trkpt>
      <trkpt lat="48.01592" lon="6.99592">
        <ele>1122.5999755859</ele>
        <time>2022-10-30T13:51:05.000Z</time>
      </trkpt>
      <trkpt lat="48.0159" lon="6.99592">
        <ele>1122.8000488281</ele>
        <time>2022-10-30T13:51:09.000Z</time>
      </trkpt>
      <trkpt lat="48.01586" lon="6.99588">
        <ele>1122.4000244141</ele>
        <time>2022-10-30T13:51:17.000Z</time>
      </trkpt>
      <trkpt lat="48.01586" lon="6.99589">
        <ele>1122.1999511719</ele>
        <time>2022-10-30T13:51:19.000Z</time>
      </trkpt>
      <trkpt lat="48.01584" lon="6.99588">
        <ele>1121.5999755859</ele>
        <time>2022-10-30T13:51:26.000Z</time>
      </trkpt>
      <trkpt lat="48.01581" lon="6.99587">
        <ele>1121</ele>
        <time>2022-10-30T13:51:48.000Z</time>
      </trkpt>
      <trkpt lat="48.0158" lon="6.99586">
        <ele>1121.8000488281</ele>
        <time>2022-10-30T13:52:02.000Z</time>
      </trkpt>
      <trkpt lat="48.0158" lon="6.99586">
        <ele>1121.8000488281</ele>
        <time>2022-10-30T13:52:07.000Z</time>
      </trkpt>
      <trkpt lat="48.01579" lon="6.99592">
        <ele>1121.8000488281</ele>
        <time>2022-10-30T13:52:13.000Z</time>
      </trkpt>
      <trkpt lat="48.01577" lon="6.99598">
        <ele>1121.8000488281</ele>
        <time>2022-10-30T13:52:20.000Z</time>
      </trkpt>
      <trkpt lat="48.01575" lon="6.99614">
        <ele>1121.8000488281</ele>
        <time>2022-10-30T13:52:28.000Z</time>
      </trkpt>
      <trkpt lat="48.01575" lon="6.99627">
        <ele>1121.8000488281</ele>
        <time>2022-10-30T13:52:33.000Z</time>
      </trkpt>
      <trkpt lat="48.01574" lon="6.99629">
        <ele>1121.8000488281</ele>
        <time>2022-10-30T13:52:35.000Z</time>
      </trkpt>
      <trkpt lat="48.01569" lon="6.99635">
        <ele>1121.8000488281</ele>
        <time>2022-10-30T13:52:40.000Z</time>
      </trkpt>
      <trkpt lat="48.01567" lon="6.99642">
        <ele>1121.8000488281</ele>
        <time>2022-10-30T13:52:48.000Z</time>
      </trkpt>
      <trkpt lat="48.01569" lon="6.99639">
        <ele>1121.8000488281</ele>
        <time>2022-10-30T13:52:54.000Z</time>
      </trkpt>
      <trkpt lat="48.0157" lon="6.99636">
        <ele>1121.8000488281</ele>
        <time>2022-10-30T13:53:00.000Z</time>
      </trkpt>
      <trkpt lat="48.01571" lon="6.99636">
        <ele>1126.5999755859</ele>
        <time>2022-10-30T13:53:01.000Z</time>
      </trkpt>
      <trkpt lat="48.01572" lon="6.99633">
        <ele>1126.8000488281</ele>
        <time>2022-10-30T13:53:07.000Z</time>
      </trkpt>
      <trkpt lat="48.0157" lon="6.99624">
        <ele>1126.8000488281</ele>
        <time>2022-10-30T13:53:13.000Z</time>
      </trkpt>
      <trkpt lat="48.01572" lon="6.99615">
        <ele>1127.5999755859</ele>
        <time>2022-10-30T13:53:18.000Z</time>
      </trkpt>
      <trkpt lat="48.01573" lon="6.99613">
        <ele>1128</ele>
        <time>2022-10-30T13:53:19.000Z</time>
      </trkpt>
      <trkpt lat="48.01573" lon="6.99611">
        <ele>1128.5999755859</ele>
        <time>2022-10-30T13:53:22.000Z</time>
      </trkpt>
      <trkpt lat="48.01574" lon="6.9961">
        <ele>1128.8000488281</ele>
        <time>2022-10-30T13:53:23.000Z</time>
      </trkpt>
      <trkpt lat="48.01575" lon="6.99608">
        <ele>1128.8000488281</ele>
        <time>2022-10-30T13:53:26.000Z</time>
      </trkpt>
      <trkpt lat="48.0158" lon="6.99602">
        <ele>1129.1999511719</ele>
        <time>2022-10-30T13:53:34.000Z</time>
      </trkpt>
      <trkpt lat="48.01581" lon="6.99599">
        <ele>1129.8000488281</ele>
        <time>2022-10-30T13:53:37.000Z</time>
      </trkpt>
      <trkpt lat="48.0158" lon="6.99598">
        <ele>1130</ele>
        <time>2022-10-30T13:53:38.000Z</time>
      </trkpt>
      <trkpt lat="48.01579" lon="6.99596">
        <ele>1130.5999755859</ele>
        <time>2022-10-30T13:53:40.000Z</time>
      </trkpt>
      <trkpt lat="48.0158" lon="6.99596">
        <ele>1130.8000488281</ele>
        <time>2022-10-30T13:53:42.000Z</time>
      </trkpt>
      <trkpt lat="48.01585" lon="6.99595">
        <ele>1131.5999755859</ele>
        <time>2022-10-30T13:53:49.000Z</time>
      </trkpt>
      <trkpt lat="48.01586" lon="6.99594">
        <ele>1131.8000488281</ele>
        <time>2022-10-30T13:53:51.000Z</time>
      </trkpt>
      <trkpt lat="48.01589" lon="6.99594">
        <ele>1132.4000244141</ele>
        <time>2022-10-30T13:53:55.000Z</time>
      </trkpt>
      <trkpt lat="48.01591" lon="6.99594">
        <ele>1133</ele>
        <time>2022-10-30T13:53:58.000Z</time>
      </trkpt>
      <trkpt lat="48.01592" lon="6.99592">
        <ele>1133.4000244141</ele>
        <time>2022-10-30T13:54:01.000Z</time>
      </trkpt>
      <trkpt lat="48.01593" lon="6.99591">
        <ele>1134</ele>
        <time>2022-10-30T13:54:04.000Z</time>
      </trkpt>
      <trkpt lat="48.01597" lon="6.99589">
        <ele>1134.4000244141</ele>
        <time>2022-10-30T13:54:08.000Z</time>
      </trkpt>
      <trkpt lat="48.01601" lon="6.99587">
        <ele>1135.4000244141</ele>
        <time>2022-10-30T13:54:13.000Z</time>
      </trkpt>
      <trkpt lat="48.01602" lon="6.99587">
        <ele>1135.5999755859</ele>
        <time>2022-10-30T13:54:14.000Z</time>
      </trkpt>
      <trkpt lat="48.01603" lon="6.99584">
        <ele>1135.8000488281</ele>
        <time>2022-10-30T13:54:19.000Z</time>
      </trkpt>
      <trkpt lat="48.01607" lon="6.99583">
        <ele>1136.1999511719</ele>
        <time>2022-10-30T13:54:23.000Z</time>
      </trkpt>
      <trkpt lat="48.01609" lon="6.99584">
        <ele>1136.4000244141</ele>
        <time>2022-10-30T13:54:24.000Z</time>
      </trkpt>
      <trkpt lat="48.01611" lon="6.99581">
        <ele>1137</ele>
        <time>2022-10-30T13:54:29.000Z</time>
      </trkpt>
      <trkpt lat="48.01612" lon="6.9958">
        <ele>1137.4000244141</ele>
        <time>2022-10-30T13:54:32.000Z</time>
      </trkpt>
      <trkpt lat="48.01614" lon="6.99579">
        <ele>1137.8000488281</ele>
        <time>2022-10-30T13:54:35.000Z</time>
      </trkpt>
      <trkpt lat="48.01618" lon="6.99578">
        <ele>1138.4000244141</ele>
        <time>2022-10-30T13:54:40.000Z</time>
      </trkpt>
      <trkpt lat="48.01619" lon="6.99577">
        <ele>1138.5999755859</ele>
        <time>2022-10-30T13:54:41.000Z</time>
      </trkpt>
      <trkpt lat="48.01623" lon="6.99576">
        <ele>1139.1999511719</ele>
        <time>2022-10-30T13:54:47.000Z</time>
      </trkpt>
      <trkpt lat="48.01623" lon="6.99574">
        <ele>1139.1999511719</ele>
        <time>2022-10-30T13:54:48.000Z</time>
      </trkpt>
      <trkpt lat="48.01625" lon="6.99568">
        <ele>1139.5999755859</ele>
        <time>2022-10-30T13:54:52.000Z</time>
      </trkpt>
      <trkpt lat="48.01625" lon="6.99566">
        <ele>1139.5999755859</ele>
        <time>2022-10-30T13:54:53.000Z</time>
      </trkpt>
      <trkpt lat="48.01632" lon="6.99565">
        <ele>1140.1999511719</ele>
        <time>2022-10-30T13:54:59.000Z</time>
      </trkpt>
      <trkpt lat="48.01633" lon="6.99563">
        <ele>1140.8000488281</ele>
        <time>2022-10-30T13:55:04.000Z</time>
      </trkpt>
      <trkpt lat="48.01634" lon="6.99563">
        <ele>1140.8000488281</ele>
        <time>2022-10-30T13:55:05.000Z</time>
      </trkpt>
      <trkpt lat="48.01637" lon="6.99562">
        <ele>1141.4000244141</ele>
        <time>2022-10-30T13:55:11.000Z</time>
      </trkpt>
      <trkpt lat="48.01642" lon="6.99565">
        <ele>1141.5999755859</ele>
        <time>2022-10-30T13:55:18.000Z</time>
      </trkpt>
      <trkpt lat="48.01645" lon="6.99566">
        <ele>1141.8000488281</ele>
        <time>2022-10-30T13:55:24.000Z</time>
      </trkpt>
      <trkpt lat="48.01645" lon="6.99565">
        <ele>1141.8000488281</ele>
        <time>2022-10-30T13:55:27.000Z</time>
      </trkpt>
      <trkpt lat="48.01646" lon="6.9956">
        <ele>1142.4000244141</ele>
        <time>2022-10-30T13:55:33.000Z</time>
      </trkpt>
      <trkpt lat="48.01647" lon="6.99558">
        <ele>1143</ele>
        <time>2022-10-30T13:55:37.000Z</time>
      </trkpt>
      <trkpt lat="48.01648" lon="6.99557">
        <ele>1143.4000244141</ele>
        <time>2022-10-30T13:55:39.000Z</time>
      </trkpt>
      <trkpt lat="48.01652" lon="6.99559">
        <ele>1143.8000488281</ele>
        <time>2022-10-30T13:55:45.000Z</time>
      </trkpt>
      <trkpt lat="48.01653" lon="6.99562">
        <ele>1144</ele>
        <time>2022-10-30T13:55:46.000Z</time>
      </trkpt>
      <trkpt lat="48.01653" lon="6.99567">
        <ele>1144.1999511719</ele>
        <time>2022-10-30T13:55:49.000Z</time>
      </trkpt>
      <trkpt lat="48.01651" lon="6.99568">
        <ele>1144.5999755859</ele>
        <time>2022-10-30T13:55:51.000Z</time>
      </trkpt>
      <trkpt lat="48.01651" lon="6.99568">
        <ele>1144.5999755859</ele>
        <time>2022-10-30T13:55:52.000Z</time>
      </trkpt>
      <trkpt lat="48.01649" lon="6.99572">
        <ele>1145</ele>
        <time>2022-10-30T13:55:56.000Z</time>
      </trkpt>
      <trkpt lat="48.0165" lon="6.99573">
        <ele>1145.1999511719</ele>
        <time>2022-10-30T13:55:57.000Z</time>
      </trkpt>
      <trkpt lat="48.01647" lon="6.99576">
        <ele>1145.8000488281</ele>
        <time>2022-10-30T13:56:03.000Z</time>
      </trkpt>
      <trkpt lat="48.01647" lon="6.99579">
        <ele>1146.1999511719</ele>
        <time>2022-10-30T13:56:06.000Z</time>
      </trkpt>
      <trkpt lat="48.01648" lon="6.99584">
        <ele>1146.5999755859</ele>
        <time>2022-10-30T13:56:09.000Z</time>
      </trkpt>
      <trkpt lat="48.01645" lon="6.99589">
        <ele>1147.1999511719</ele>
        <time>2022-10-30T13:56:14.000Z</time>
      </trkpt>
      <trkpt lat="48.01645" lon="6.99592">
        <ele>1147.1999511719</ele>
        <time>2022-10-30T13:56:15.000Z</time>
      </trkpt>
      <trkpt lat="48.01641" lon="6.996">
        <ele>1147.8000488281</ele>
        <time>2022-10-30T13:56:23.000Z</time>
      </trkpt>
      <trkpt lat="48.01639" lon="6.99603">
        <ele>1148.4000244141</ele>
        <time>2022-10-30T13:56:28.000Z</time>
      </trkpt>
      <trkpt lat="48.01639" lon="6.99604">
        <ele>1148.4000244141</ele>
        <time>2022-10-30T13:56:29.000Z</time>
      </trkpt>
      <trkpt lat="48.01637" lon="6.99609">
        <ele>1149.1999511719</ele>
        <time>2022-10-30T13:56:35.000Z</time>
      </trkpt>
      <trkpt lat="48.01637" lon="6.9961">
        <ele>1149.4000244141</ele>
        <time>2022-10-30T13:56:36.000Z</time>
      </trkpt>
      <trkpt lat="48.01634" lon="6.99614">
        <ele>1150.1999511719</ele>
        <time>2022-10-30T13:56:41.000Z</time>
      </trkpt>
      <trkpt lat="48.01631" lon="6.99619">
        <ele>1150.4000244141</ele>
        <time>2022-10-30T13:56:43.000Z</time>
      </trkpt>
      <trkpt lat="48.01629" lon="6.99621">
        <ele>1151.4000244141</ele>
        <time>2022-10-30T13:56:49.000Z</time>
      </trkpt>
      <trkpt lat="48.01629" lon="6.99623">
        <ele>1151.5999755859</ele>
        <time>2022-10-30T13:56:50.000Z</time>
      </trkpt>
      <trkpt lat="48.01627" lon="6.99626">
        <ele>1152</ele>
        <time>2022-10-30T13:56:54.000Z</time>
      </trkpt>
      <trkpt lat="48.01626" lon="6.99628">
        <ele>1152.5999755859</ele>
        <time>2022-10-30T13:56:57.000Z</time>
      </trkpt>
      <trkpt lat="48.01624" lon="6.99629">
        <ele>1153</ele>
        <time>2022-10-30T13:57:01.000Z</time>
      </trkpt>
      <trkpt lat="48.01622" lon="6.99634">
        <ele>1153.4000244141</ele>
        <time>2022-10-30T13:57:06.000Z</time>
      </trkpt>
      <trkpt lat="48.01621" lon="6.99635">
        <ele>1153.5999755859</ele>
        <time>2022-10-30T13:57:07.000Z</time>
      </trkpt>
      <trkpt lat="48.01619" lon="6.99641">
        <ele>1154.1999511719</ele>
        <time>2022-10-30T13:57:12.000Z</time>
      </trkpt>
      <trkpt lat="48.01618" lon="6.99644">
        <ele>1154.8000488281</ele>
        <time>2022-10-30T13:57:15.000Z</time>
      </trkpt>
      <trkpt lat="48.01617" lon="6.99646">
        <ele>1155</ele>
        <time>2022-10-30T13:57:18.000Z</time>
      </trkpt>
      <trkpt lat="48.01613" lon="6.9965">
        <ele>1155.4000244141</ele>
        <time>2022-10-30T13:57:25.000Z</time>
      </trkpt>
      <trkpt lat="48.0161" lon="6.99652">
        <ele>1156</ele>
        <time>2022-10-30T13:57:29.000Z</time>
      </trkpt>
      <trkpt lat="48.01607" lon="6.99653">
        <ele>1156.1999511719</ele>
        <time>2022-10-30T13:57:32.000Z</time>
      </trkpt>
      <trkpt lat="48.01608" lon="6.99656">
        <ele>1156.8000488281</ele>
        <time>2022-10-30T13:57:37.000Z</time>
      </trkpt>
      <trkpt lat="48.01608" lon="6.99656">
        <ele>1157</ele>
        <time>2022-10-30T13:57:38.000Z</time>
      </trkpt>
      <trkpt lat="48.01606" lon="6.99664">
        <ele>1157.8000488281</ele>
        <time>2022-10-30T13:57:43.000Z</time>
      </trkpt>
      <trkpt lat="48.01605" lon="6.99664">
        <ele>1158</ele>
        <time>2022-10-30T13:57:44.000Z</time>
      </trkpt>
      <trkpt lat="48.01604" lon="6.99673">
        <ele>1158.8000488281</ele>
        <time>2022-10-30T13:57:50.000Z</time>
      </trkpt>
      <trkpt lat="48.01603" lon="6.99677">
        <ele>1159.1999511719</ele>
        <time>2022-10-30T13:57:53.000Z</time>
      </trkpt>
      <trkpt lat="48.01599" lon="6.99677">
        <ele>1159.8000488281</ele>
        <time>2022-10-30T13:57:57.000Z</time>
      </trkpt>
      <trkpt lat="48.01598" lon="6.9968">
        <ele>1160.1999511719</ele>
        <time>2022-10-30T13:57:59.000Z</time>
      </trkpt>
      <trkpt lat="48.01598" lon="6.99687">
        <ele>1160.4000244141</ele>
        <time>2022-10-30T13:58:03.000Z</time>
      </trkpt>
      <trkpt lat="48.01596" lon="6.99691">
        <ele>1161</ele>
        <time>2022-10-30T13:58:08.000Z</time>
      </trkpt>
      <trkpt lat="48.01595" lon="6.99691">
        <ele>1161.1999511719</ele>
        <time>2022-10-30T13:58:09.000Z</time>
      </trkpt>
      <trkpt lat="48.01593" lon="6.99698">
        <ele>1162</ele>
        <time>2022-10-30T13:58:15.000Z</time>
      </trkpt>
      <trkpt lat="48.01592" lon="6.99702">
        <ele>1162.1999511719</ele>
        <time>2022-10-30T13:58:17.000Z</time>
      </trkpt>
      <trkpt lat="48.01592" lon="6.99705">
        <ele>1163</ele>
        <time>2022-10-30T13:58:21.000Z</time>
      </trkpt>
      <trkpt lat="48.01588" lon="6.99705">
        <ele>1163.4000244141</ele>
        <time>2022-10-30T13:58:27.000Z</time>
      </trkpt>
      <trkpt lat="48.01587" lon="6.99706">
        <ele>1163.4000244141</ele>
        <time>2022-10-30T13:58:29.000Z</time>
      </trkpt>
      <trkpt lat="48.01588" lon="6.9971">
        <ele>1163.8000488281</ele>
        <time>2022-10-30T13:58:36.000Z</time>
      </trkpt>
      <trkpt lat="48.01588" lon="6.99711">
        <ele>1163.8000488281</ele>
        <time>2022-10-30T13:58:37.000Z</time>
      </trkpt>
      <trkpt lat="48.01587" lon="6.99714">
        <ele>1164.4000244141</ele>
        <time>2022-10-30T13:58:41.000Z</time>
      </trkpt>
      <trkpt lat="48.01587" lon="6.99717">
        <ele>1164.5999755859</ele>
        <time>2022-10-30T13:58:43.000Z</time>
      </trkpt>
      <trkpt lat="48.01587" lon="6.99723">
        <ele>1165.1999511719</ele>
        <time>2022-10-30T13:58:49.000Z</time>
      </trkpt>
      <trkpt lat="48.01586" lon="6.99724">
        <ele>1165.4000244141</ele>
        <time>2022-10-30T13:58:50.000Z</time>
      </trkpt>
      <trkpt lat="48.01583" lon="6.99728">
        <ele>1166.4000244141</ele>
        <time>2022-10-30T13:58:55.000Z</time>
      </trkpt>
      <trkpt lat="48.01583" lon="6.99728">
        <ele>1166.4000244141</ele>
        <time>2022-10-30T13:58:56.000Z</time>
      </trkpt>
      <trkpt lat="48.0158" lon="6.99733">
        <ele>1167</ele>
        <time>2022-10-30T13:59:02.000Z</time>
      </trkpt>
      <trkpt lat="48.01578" lon="6.99734">
        <ele>1167.1999511719</ele>
        <time>2022-10-30T13:59:08.000Z</time>
      </trkpt>
      <trkpt lat="48.01576" lon="6.99738">
        <ele>1167.4000244141</ele>
        <time>2022-10-30T13:59:12.000Z</time>
      </trkpt>
      <trkpt lat="48.01575" lon="6.99742">
        <ele>1167.8000488281</ele>
        <time>2022-10-30T13:59:15.000Z</time>
      </trkpt>
      <trkpt lat="48.01574" lon="6.99749">
        <ele>1168.5999755859</ele>
        <time>2022-10-30T13:59:22.000Z</time>
      </trkpt>
      <trkpt lat="48.01572" lon="6.99754">
        <ele>1169.1999511719</ele>
        <time>2022-10-30T13:59:28.000Z</time>
      </trkpt>
      <trkpt lat="48.01572" lon="6.99757">
        <ele>1169.5999755859</ele>
        <time>2022-10-30T13:59:30.000Z</time>
      </trkpt>
      <trkpt lat="48.01572" lon="6.99762">
        <ele>1170.5999755859</ele>
        <time>2022-10-30T13:59:35.000Z</time>
      </trkpt>
      <trkpt lat="48.01572" lon="6.99764">
        <ele>1170.5999755859</ele>
        <time>2022-10-30T13:59:36.000Z</time>
      </trkpt>
      <trkpt lat="48.01568" lon="6.99776">
        <ele>1171.4000244141</ele>
        <time>2022-10-30T13:59:42.000Z</time>
      </trkpt>
      <trkpt lat="48.01568" lon="6.99778">
        <ele>1171.5999755859</ele>
        <time>2022-10-30T13:59:43.000Z</time>
      </trkpt>
      <trkpt lat="48.01568" lon="6.99779">
        <ele>1171.5999755859</ele>
        <time>2022-10-30T13:59:44.000Z</time>
      </trkpt>
      <trkpt lat="48.01567" lon="6.99782">
        <ele>1172</ele>
        <time>2022-10-30T13:59:46.000Z</time>
      </trkpt>
      <trkpt lat="48.01565" lon="6.99786">
        <ele>1172.4000244141</ele>
        <time>2022-10-30T13:59:50.000Z</time>
      </trkpt>
      <trkpt lat="48.01564" lon="6.9979">
        <ele>1172.8000488281</ele>
        <time>2022-10-30T13:59:54.000Z</time>
      </trkpt>
      <trkpt lat="48.01563" lon="6.99793">
        <ele>1173.1999511719</ele>
        <time>2022-10-30T13:59:58.000Z</time>
      </trkpt>
      <trkpt lat="48.01562" lon="6.99799">
        <ele>1173.8000488281</ele>
        <time>2022-10-30T14:00:04.000Z</time>
      </trkpt>
      <trkpt lat="48.01561" lon="6.998">
        <ele>1173.8000488281</ele>
        <time>2022-10-30T14:00:05.000Z</time>
      </trkpt>
      <trkpt lat="48.01557" lon="6.99809">
        <ele>1175</ele>
        <time>2022-10-30T14:00:11.000Z</time>
      </trkpt>
      <trkpt lat="48.01556" lon="6.9981">
        <ele>1175</ele>
        <time>2022-10-30T14:00:12.000Z</time>
      </trkpt>
      <trkpt lat="48.01551" lon="6.99819">
        <ele>1176</ele>
        <time>2022-10-30T14:00:20.000Z</time>
      </trkpt>
      <trkpt lat="48.01551" lon="6.99821">
        <ele>1176</ele>
        <time>2022-10-30T14:00:21.000Z</time>
      </trkpt>
      <trkpt lat="48.01548" lon="6.9983">
        <ele>1177</ele>
        <time>2022-10-30T14:00:29.000Z</time>
      </trkpt>
      <trkpt lat="48.01545" lon="6.99833">
        <ele>1177.1999511719</ele>
        <time>2022-10-30T14:00:32.000Z</time>
      </trkpt>
      <trkpt lat="48.01542" lon="6.99839">
        <ele>1177.5999755859</ele>
        <time>2022-10-30T14:00:38.000Z</time>
      </trkpt>
      <trkpt lat="48.01537" lon="6.99847">
        <ele>1177.8000488281</ele>
        <time>2022-10-30T14:00:46.000Z</time>
      </trkpt>
      <trkpt lat="48.01537" lon="6.99849">
        <ele>1178.1999511719</ele>
        <time>2022-10-30T14:00:49.000Z</time>
      </trkpt>
      <trkpt lat="48.01534" lon="6.99853">
        <ele>1178.5999755859</ele>
        <time>2022-10-30T14:00:53.000Z</time>
      </trkpt>
      <trkpt lat="48.01532" lon="6.9986">
        <ele>1179.1999511719</ele>
        <time>2022-10-30T14:00:59.000Z</time>
      </trkpt>
      <trkpt lat="48.0153" lon="6.99863">
        <ele>1179.4000244141</ele>
        <time>2022-10-30T14:01:01.000Z</time>
      </trkpt>
      <trkpt lat="48.01528" lon="6.99865">
        <ele>1179.4000244141</ele>
        <time>2022-10-30T14:01:02.000Z</time>
      </trkpt>
      <trkpt lat="48.01519" lon="6.99877">
        <ele>1179</ele>
        <time>2022-10-30T14:01:11.000Z</time>
      </trkpt>
      <trkpt lat="48.01517" lon="6.99874">
        <ele>1179</ele>
        <time>2022-10-30T14:01:18.000Z</time>
      </trkpt>
      <trkpt lat="48.01516" lon="6.99874">
        <ele>1178.8000488281</ele>
        <time>2022-10-30T14:01:19.000Z</time>
      </trkpt>
      <trkpt lat="48.01515" lon="6.99872">
        <ele>1178.5999755859</ele>
        <time>2022-10-30T14:01:24.000Z</time>
      </trkpt>
      <trkpt lat="48.01515" lon="6.99872">
        <ele>1179.4000244141</ele>
        <time>2022-10-30T14:01:31.000Z</time>
      </trkpt>
      <trkpt lat="48.01515" lon="6.99881">
        <ele>1179.4000244141</ele>
        <time>2022-10-30T14:01:37.000Z</time>
      </trkpt>
      <trkpt lat="48.01516" lon="6.99891">
        <ele>1179.5999755859</ele>
        <time>2022-10-30T14:01:44.000Z</time>
      </trkpt>
      <trkpt lat="48.01517" lon="6.99904">
        <ele>1178.8000488281</ele>
        <time>2022-10-30T14:01:51.000Z</time>
      </trkpt>
      <trkpt lat="48.01518" lon="6.99907">
        <ele>1178.8000488281</ele>
        <time>2022-10-30T14:01:53.000Z</time>
      </trkpt>
      <trkpt lat="48.01518" lon="6.9991">
        <ele>1178.5999755859</ele>
        <time>2022-10-30T14:01:55.000Z</time>
      </trkpt>
      <trkpt lat="48.01519" lon="6.99915">
        <ele>1178.5999755859</ele>
        <time>2022-10-30T14:01:59.000Z</time>
      </trkpt>
      <trkpt lat="48.0152" lon="6.99925">
        <ele>1178.5999755859</ele>
        <time>2022-10-30T14:02:04.000Z</time>
      </trkpt>
      <trkpt lat="48.01521" lon="6.99934">
        <ele>1178.8000488281</ele>
        <time>2022-10-30T14:02:08.000Z</time>
      </trkpt>
      <trkpt lat="48.01522" lon="6.99937">
        <ele>1178.8000488281</ele>
        <time>2022-10-30T14:02:10.000Z</time>
      </trkpt>
      <trkpt lat="48.01522" lon="6.99935">
        <ele>1178.8000488281</ele>
        <time>2022-10-30T14:02:13.000Z</time>
      </trkpt>
      <trkpt lat="48.01521" lon="6.99934">
        <ele>1178.8000488281</ele>
        <time>2022-10-30T14:02:14.000Z</time>
      </trkpt>
      <trkpt lat="48.01518" lon="6.99931">
        <ele>1179.5999755859</ele>
        <time>2022-10-30T14:02:20.000Z</time>
      </trkpt>
      <trkpt lat="48.01518" lon="6.9993">
        <ele>1179.8000488281</ele>
        <time>2022-10-30T14:02:21.000Z</time>
      </trkpt>
      <trkpt lat="48.01519" lon="6.99928">
        <ele>1180.1999511719</ele>
        <time>2022-10-30T14:02:24.000Z</time>
      </trkpt>
      <trkpt lat="48.01519" lon="6.99927">
        <ele>1180.4000244141</ele>
        <time>2022-10-30T14:02:25.000Z</time>
      </trkpt>
      <trkpt lat="48.01521" lon="6.99924">
        <ele>1180.8000488281</ele>
        <time>2022-10-30T14:02:28.000Z</time>
      </trkpt>
      <trkpt lat="48.0152" lon="6.9992">
        <ele>1181.1999511719</ele>
        <time>2022-10-30T14:02:33.000Z</time>
      </trkpt>
      <trkpt lat="48.01519" lon="6.99918">
        <ele>1181.4000244141</ele>
        <time>2022-10-30T14:02:34.000Z</time>
      </trkpt>
      <trkpt lat="48.0152" lon="6.99908">
        <ele>1182</ele>
        <time>2022-10-30T14:02:41.000Z</time>
      </trkpt>
      <trkpt lat="48.01522" lon="6.99904">
        <ele>1182.4000244141</ele>
        <time>2022-10-30T14:02:46.000Z</time>
      </trkpt>
      <trkpt lat="48.01522" lon="6.99903">
        <ele>1182.5999755859</ele>
        <time>2022-10-30T14:02:47.000Z</time>
      </trkpt>
      <trkpt lat="48.01525" lon="6.99894">
        <ele>1182.5999755859</ele>
        <time>2022-10-30T14:02:54.000Z</time>
      </trkpt>
      <trkpt lat="48.01527" lon="6.99888">
        <ele>1183.1999511719</ele>
        <time>2022-10-30T14:03:01.000Z</time>
      </trkpt>
      <trkpt lat="48.01527" lon="6.99885">
        <ele>1183.5999755859</ele>
        <time>2022-10-30T14:03:03.000Z</time>
      </trkpt>
      <trkpt lat="48.01529" lon="6.9988">
        <ele>1184.8000488281</ele>
        <time>2022-10-30T14:03:08.000Z</time>
      </trkpt>
      <trkpt lat="48.01529" lon="6.99879">
        <ele>1184.8000488281</ele>
        <time>2022-10-30T14:03:09.000Z</time>
      </trkpt>
      <trkpt lat="48.0153" lon="6.99874">
        <ele>1185</ele>
        <time>2022-10-30T14:03:13.000Z</time>
      </trkpt>
      <trkpt lat="48.01534" lon="6.99872">
        <ele>1185.1999511719</ele>
        <time>2022-10-30T14:03:16.000Z</time>
      </trkpt>
      <trkpt lat="48.01536" lon="6.99871">
        <ele>1185.1999511719</ele>
        <time>2022-10-30T14:03:19.000Z</time>
      </trkpt>
      <trkpt lat="48.01538" lon="6.99865">
        <ele>1185.8000488281</ele>
        <time>2022-10-30T14:03:25.000Z</time>
      </trkpt>
      <trkpt lat="48.01544" lon="6.99854">
        <ele>1186.8000488281</ele>
        <time>2022-10-30T14:03:35.000Z</time>
      </trkpt>
      <trkpt lat="48.01545" lon="6.99854">
        <ele>1187</ele>
        <time>2022-10-30T14:03:36.000Z</time>
      </trkpt>
      <trkpt lat="48.01547" lon="6.99853">
        <ele>1187.5999755859</ele>
        <time>2022-10-30T14:03:38.000Z</time>
      </trkpt>
      <trkpt lat="48.01552" lon="6.99849">
        <ele>1187.8000488281</ele>
        <time>2022-10-30T14:03:43.000Z</time>
      </trkpt>
      <trkpt lat="48.01554" lon="6.99847">
        <ele>1188.1999511719</ele>
        <time>2022-10-30T14:03:45.000Z</time>
      </trkpt>
      <trkpt lat="48.01562" lon="6.99837">
        <ele>1188.5999755859</ele>
        <time>2022-10-30T14:03:53.000Z</time>
      </trkpt>
      <trkpt lat="48.01569" lon="6.99831">
        <ele>1189.4000244141</ele>
        <time>2022-10-30T14:04:00.000Z</time>
      </trkpt>
      <trkpt lat="48.01571" lon="6.99827">
        <ele>1189.5999755859</ele>
        <time>2022-10-30T14:04:03.000Z</time>
      </trkpt>
      <trkpt lat="48.01578" lon="6.99819">
        <ele>1189.8000488281</ele>
        <time>2022-10-30T14:04:10.000Z</time>
      </trkpt>
      <trkpt lat="48.01579" lon="6.99817">
        <ele>1190</ele>
        <time>2022-10-30T14:04:12.000Z</time>
      </trkpt>
      <trkpt lat="48.01584" lon="6.99808">
        <ele>1190</ele>
        <time>2022-10-30T14:04:20.000Z</time>
      </trkpt>
      <trkpt lat="48.01585" lon="6.99802">
        <ele>1190.1999511719</ele>
        <time>2022-10-30T14:04:23.000Z</time>
      </trkpt>
      <trkpt lat="48.01588" lon="6.99799">
        <ele>1190.4000244141</ele>
        <time>2022-10-30T14:04:27.000Z</time>
      </trkpt>
      <trkpt lat="48.01589" lon="6.99799">
        <ele>1190.5999755859</ele>
        <time>2022-10-30T14:04:28.000Z</time>
      </trkpt>
      <trkpt lat="48.01592" lon="6.998">
        <ele>1191.5999755859</ele>
        <time>2022-10-30T14:04:34.000Z</time>
      </trkpt>
      <trkpt lat="48.01593" lon="6.99798">
        <ele>1191.5999755859</ele>
        <time>2022-10-30T14:04:35.000Z</time>
      </trkpt>
      <trkpt lat="48.01597" lon="6.99795">
        <ele>1192</ele>
        <time>2022-10-30T14:04:43.000Z</time>
      </trkpt>
      <trkpt lat="48.01598" lon="6.99788">
        <ele>1192.8000488281</ele>
        <time>2022-10-30T14:04:49.000Z</time>
      </trkpt>
      <trkpt lat="48.01599" lon="6.99786">
        <ele>1193.1999511719</ele>
        <time>2022-10-30T14:04:51.000Z</time>
      </trkpt>
      <trkpt lat="48.01602" lon="6.99778">
        <ele>1193.8000488281</ele>
        <time>2022-10-30T14:04:58.000Z</time>
      </trkpt>
      <trkpt lat="48.01602" lon="6.99777">
        <ele>1193.8000488281</ele>
        <time>2022-10-30T14:04:59.000Z</time>
      </trkpt>
      <trkpt lat="48.01604" lon="6.99773">
        <ele>1194.5999755859</ele>
        <time>2022-10-30T14:05:04.000Z</time>
      </trkpt>
      <trkpt lat="48.01605" lon="6.99771">
        <ele>1194.8000488281</ele>
        <time>2022-10-30T14:05:07.000Z</time>
      </trkpt>
      <trkpt lat="48.01608" lon="6.99768">
        <ele>1194.5999755859</ele>
        <time>2022-10-30T14:05:11.000Z</time>
      </trkpt>
      <trkpt lat="48.01611" lon="6.99756">
        <ele>1195</ele>
        <time>2022-10-30T14:05:19.000Z</time>
      </trkpt>
      <trkpt lat="48.01617" lon="6.99749">
        <ele>1195.8000488281</ele>
        <time>2022-10-30T14:05:26.000Z</time>
      </trkpt>
      <trkpt lat="48.01621" lon="6.99745">
        <ele>1196.8000488281</ele>
        <time>2022-10-30T14:05:30.000Z</time>
      </trkpt>
      <trkpt lat="48.01622" lon="6.99744">
        <ele>1197</ele>
        <time>2022-10-30T14:05:31.000Z</time>
      </trkpt>
      <trkpt lat="48.01626" lon="6.99745">
        <ele>1198.4000244141</ele>
        <time>2022-10-30T14:05:35.000Z</time>
      </trkpt>
      <trkpt lat="48.01626" lon="6.99745">
        <ele>1198.8000488281</ele>
        <time>2022-10-30T14:05:36.000Z</time>
      </trkpt>
      <trkpt lat="48.01628" lon="6.99747">
        <ele>1199.5999755859</ele>
        <time>2022-10-30T14:05:39.000Z</time>
      </trkpt>
      <trkpt lat="48.01628" lon="6.99749">
        <ele>1200</ele>
        <time>2022-10-30T14:05:41.000Z</time>
      </trkpt>
      <trkpt lat="48.01628" lon="6.99754">
        <ele>1200.8000488281</ele>
        <time>2022-10-30T14:05:44.000Z</time>
      </trkpt>
      <trkpt lat="48.01631" lon="6.99757">
        <ele>1201.1999511719</ele>
        <time>2022-10-30T14:05:47.000Z</time>
      </trkpt>
      <trkpt lat="48.01633" lon="6.99761">
        <ele>1201.8000488281</ele>
        <time>2022-10-30T14:05:52.000Z</time>
      </trkpt>
      <trkpt lat="48.01633" lon="6.99762">
        <ele>1202</ele>
        <time>2022-10-30T14:05:53.000Z</time>
      </trkpt>
      <trkpt lat="48.01632" lon="6.99764">
        <ele>1202.1999511719</ele>
        <time>2022-10-30T14:05:55.000Z</time>
      </trkpt>
      <trkpt lat="48.0163" lon="6.99769">
        <ele>1202.5999755859</ele>
        <time>2022-10-30T14:05:59.000Z</time>
      </trkpt>
      <trkpt lat="48.0163" lon="6.99772">
        <ele>1202.8000488281</ele>
        <time>2022-10-30T14:06:01.000Z</time>
      </trkpt>
      <trkpt lat="48.01627" lon="6.99778">
        <ele>1203.5999755859</ele>
        <time>2022-10-30T14:06:07.000Z</time>
      </trkpt>
      <trkpt lat="48.01627" lon="6.99783">
        <ele>1204</ele>
        <time>2022-10-30T14:06:10.000Z</time>
      </trkpt>
      <trkpt lat="48.01626" lon="6.99791">
        <ele>1204.1999511719</ele>
        <time>2022-10-30T14:06:14.000Z</time>
      </trkpt>
      <trkpt lat="48.01626" lon="6.99804">
        <ele>1204.5999755859</ele>
        <time>2022-10-30T14:06:21.000Z</time>
      </trkpt>
      <trkpt lat="48.01625" lon="6.99806">
        <ele>1204.5999755859</ele>
        <time>2022-10-30T14:06:23.000Z</time>
      </trkpt>
      <trkpt lat="48.01625" lon="6.99812">
        <ele>1205</ele>
        <time>2022-10-30T14:06:28.000Z</time>
      </trkpt>
      <trkpt lat="48.01625" lon="6.99813">
        <ele>1205</ele>
        <time>2022-10-30T14:06:29.000Z</time>
      </trkpt>
      <trkpt lat="48.01625" lon="6.9982">
        <ele>1205.5999755859</ele>
        <time>2022-10-30T14:06:34.000Z</time>
      </trkpt>
      <trkpt lat="48.01624" lon="6.99828">
        <ele>1206</ele>
        <time>2022-10-30T14:06:40.000Z</time>
      </trkpt>
      <trkpt lat="48.01623" lon="6.99834">
        <ele>1206.8000488281</ele>
        <time>2022-10-30T14:06:44.000Z</time>
      </trkpt>
      <trkpt lat="48.01622" lon="6.99836">
        <ele>1207.1999511719</ele>
        <time>2022-10-30T14:06:45.000Z</time>
      </trkpt>
      <trkpt lat="48.01623" lon="6.99838">
        <ele>1207.4000244141</ele>
        <time>2022-10-30T14:06:46.000Z</time>
      </trkpt>
      <trkpt lat="48.01623" lon="6.99839">
        <ele>1207.4000244141</ele>
        <time>2022-10-30T14:06:47.000Z</time>
      </trkpt>
      <trkpt lat="48.01622" lon="6.99846">
        <ele>1208</ele>
        <time>2022-10-30T14:06:51.000Z</time>
      </trkpt>
      <trkpt lat="48.01622" lon="6.9985">
        <ele>1208.1999511719</ele>
        <time>2022-10-30T14:06:53.000Z</time>
      </trkpt>
      <trkpt lat="48.01621" lon="6.99855">
        <ele>1208.5999755859</ele>
        <time>2022-10-30T14:06:56.000Z</time>
      </trkpt>
      <trkpt lat="48.01619" lon="6.99868">
        <ele>1209.1999511719</ele>
        <time>2022-10-30T14:07:04.000Z</time>
      </trkpt>
      <trkpt lat="48.01619" lon="6.9987">
        <ele>1209.1999511719</ele>
        <time>2022-10-30T14:07:05.000Z</time>
      </trkpt>
      <trkpt lat="48.01618" lon="6.99883">
        <ele>1210.1999511719</ele>
        <time>2022-10-30T14:07:13.000Z</time>
      </trkpt>
      <trkpt lat="48.01619" lon="6.99902">
        <ele>1211.4000244141</ele>
        <time>2022-10-30T14:07:25.000Z</time>
      </trkpt>
      <trkpt lat="48.01618" lon="6.99903">
        <ele>1211.5999755859</ele>
        <time>2022-10-30T14:07:26.000Z</time>
      </trkpt>
      <trkpt lat="48.01621" lon="6.99917">
        <ele>1212.4000244141</ele>
        <time>2022-10-30T14:07:35.000Z</time>
      </trkpt>
      <trkpt lat="48.01621" lon="6.99918">
        <ele>1212.4000244141</ele>
        <time>2022-10-30T14:07:36.000Z</time>
      </trkpt>
      <trkpt lat="48.01624" lon="6.99928">
        <ele>1213.1999511719</ele>
        <time>2022-10-30T14:07:43.000Z</time>
      </trkpt>
      <trkpt lat="48.01625" lon="6.99929">
        <ele>1213.5999755859</ele>
        <time>2022-10-30T14:07:44.000Z</time>
      </trkpt>
      <trkpt lat="48.0163" lon="6.99936">
        <ele>1214.5999755859</ele>
        <time>2022-10-30T14:07:50.000Z</time>
      </trkpt>
      <trkpt lat="48.01633" lon="6.9994">
        <ele>1215.1999511719</ele>
        <time>2022-10-30T14:07:54.000Z</time>
      </trkpt>
      <trkpt lat="48.01635" lon="6.99945">
        <ele>1215.5999755859</ele>
        <time>2022-10-30T14:07:57.000Z</time>
      </trkpt>
      <trkpt lat="48.01636" lon="6.99949">
        <ele>1216</ele>
        <time>2022-10-30T14:08:00.000Z</time>
      </trkpt>
      <trkpt lat="48.01639" lon="6.99956">
        <ele>1216.8000488281</ele>
        <time>2022-10-30T14:08:05.000Z</time>
      </trkpt>
      <trkpt lat="48.01641" lon="6.99961">
        <ele>1217.1999511719</ele>
        <time>2022-10-30T14:08:09.000Z</time>
      </trkpt>
      <trkpt lat="48.01642" lon="6.99964">
        <ele>1217.4000244141</ele>
        <time>2022-10-30T14:08:11.000Z</time>
      </trkpt>
      <trkpt lat="48.01645" lon="6.99972">
        <ele>1217.8000488281</ele>
        <time>2022-10-30T14:08:16.000Z</time>
      </trkpt>
      <trkpt lat="48.01647" lon="6.99976">
        <ele>1218</ele>
        <time>2022-10-30T14:08:19.000Z</time>
      </trkpt>
      <trkpt lat="48.01647" lon="6.99979">
        <ele>1218.4000244141</ele>
        <time>2022-10-30T14:08:23.000Z</time>
      </trkpt>
      <trkpt lat="48.01646" lon="6.99979">
        <ele>1218.4000244141</ele>
        <time>2022-10-30T14:08:25.000Z</time>
      </trkpt>
      <trkpt lat="48.01648" lon="6.99971">
        <ele>1218.8000488281</ele>
        <time>2022-10-30T14:08:32.000Z</time>
      </trkpt>
      <trkpt lat="48.01647" lon="6.9997">
        <ele>1219</ele>
        <time>2022-10-30T14:08:33.000Z</time>
      </trkpt>
      <trkpt lat="48.0165" lon="6.99973">
        <ele>1219.5999755859</ele>
        <time>2022-10-30T14:08:38.000Z</time>
      </trkpt>
      <trkpt lat="48.0165" lon="6.99973">
        <ele>1219.5999755859</ele>
        <time>2022-10-30T14:08:39.000Z</time>
      </trkpt>
      <trkpt lat="48.01651" lon="6.99981">
        <ele>1219</ele>
        <time>2022-10-30T14:08:42.000Z</time>
      </trkpt>
      <trkpt lat="48.01652" lon="6.99987">
        <ele>1218.8000488281</ele>
        <time>2022-10-30T14:08:44.000Z</time>
      </trkpt>
      <trkpt lat="48.01657" lon="7">
        <ele>1218.8000488281</ele>
        <time>2022-10-30T14:08:50.000Z</time>
      </trkpt>
      <trkpt lat="48.01662" lon="7.00011">
        <ele>1219.1999511719</ele>
        <time>2022-10-30T14:08:57.000Z</time>
      </trkpt>
      <trkpt lat="48.01665" lon="7.00016">
        <ele>1219.4000244141</ele>
        <time>2022-10-30T14:09:01.000Z</time>
      </trkpt>
      <trkpt lat="48.01665" lon="7.00018">
        <ele>1219.5999755859</ele>
        <time>2022-10-30T14:09:03.000Z</time>
      </trkpt>
      <trkpt lat="48.01669" lon="7.00031">
        <ele>1220</ele>
        <time>2022-10-30T14:09:12.000Z</time>
      </trkpt>
      <trkpt lat="48.01671" lon="7.00033">
        <ele>1220</ele>
        <time>2022-10-30T14:09:14.000Z</time>
      </trkpt>
      <trkpt lat="48.01676" lon="7.00044">
        <ele>1221</ele>
        <time>2022-10-30T14:09:22.000Z</time>
      </trkpt>
      <trkpt lat="48.01677" lon="7.00046">
        <ele>1221.1999511719</ele>
        <time>2022-10-30T14:09:24.000Z</time>
      </trkpt>
      <trkpt lat="48.01683" lon="7.00054">
        <ele>1222.1999511719</ele>
        <time>2022-10-30T14:09:31.000Z</time>
      </trkpt>
      <trkpt lat="48.01683" lon="7.00056">
        <ele>1222.1999511719</ele>
        <time>2022-10-30T14:09:33.000Z</time>
      </trkpt>
      <trkpt lat="48.01688" lon="7.00061">
        <ele>1222.5999755859</ele>
        <time>2022-10-30T14:09:39.000Z</time>
      </trkpt>
      <trkpt lat="48.01693" lon="7.00067">
        <ele>1223.1999511719</ele>
        <time>2022-10-30T14:09:46.000Z</time>
      </trkpt>
      <trkpt lat="48.01693" lon="7.00068">
        <ele>1223.4000244141</ele>
        <time>2022-10-30T14:09:47.000Z</time>
      </trkpt>
      <trkpt lat="48.01698" lon="7.00076">
        <ele>1224.1999511719</ele>
        <time>2022-10-30T14:09:55.000Z</time>
      </trkpt>
      <trkpt lat="48.01699" lon="7.00077">
        <ele>1224.1999511719</ele>
        <time>2022-10-30T14:09:56.000Z</time>
      </trkpt>
      <trkpt lat="48.01704" lon="7.00087">
        <ele>1225.4000244141</ele>
        <time>2022-10-30T14:10:04.000Z</time>
      </trkpt>
      <trkpt lat="48.01707" lon="7.00094">
        <ele>1226</ele>
        <time>2022-10-30T14:10:11.000Z</time>
      </trkpt>
      <trkpt lat="48.01709" lon="7.00095">
        <ele>1226.1999511719</ele>
        <time>2022-10-30T14:10:13.000Z</time>
      </trkpt>
      <trkpt lat="48.01709" lon="7.00097">
        <ele>1226.4000244141</ele>
        <time>2022-10-30T14:10:15.000Z</time>
      </trkpt>
      <trkpt lat="48.01709" lon="7.00098">
        <ele>1226.8000488281</ele>
        <time>2022-10-30T14:10:19.000Z</time>
      </trkpt>
      <trkpt lat="48.01708" lon="7.00099">
        <ele>1227</ele>
        <time>2022-10-30T14:10:27.000Z</time>
      </trkpt>
      <trkpt lat="48.01708" lon="7.00098">
        <ele>1227.1999511719</ele>
        <time>2022-10-30T14:10:43.000Z</time>
      </trkpt>
      <trkpt lat="48.01708" lon="7.00098">
        <ele>1227.5999755859</ele>
        <time>2022-10-30T14:10:45.000Z</time>
      </trkpt>
      <trkpt lat="48.01708" lon="7.00099">
        <ele>1227.5999755859</ele>
        <time>2022-10-30T14:10:50.000Z</time>
      </trkpt>
      <trkpt lat="48.01709" lon="7.00099">
        <ele>1227.5999755859</ele>
        <time>2022-10-30T14:10:52.000Z</time>
      </trkpt>
      <trkpt lat="48.01715" lon="7.00109">
        <ele>1228.4000244141</ele>
        <time>2022-10-30T14:10:56.000Z</time>
      </trkpt>
      <trkpt lat="48.01716" lon="7.00111">
        <ele>1228.5999755859</ele>
        <time>2022-10-30T14:10:57.000Z</time>
      </trkpt>
      <trkpt lat="48.01719" lon="7.00121">
        <ele>1228.8000488281</ele>
        <time>2022-10-30T14:11:01.000Z</time>
      </trkpt>
      <trkpt lat="48.0172" lon="7.00124">
        <ele>1229.1999511719</ele>
        <time>2022-10-30T14:11:03.000Z</time>
      </trkpt>
      <trkpt lat="48.01721" lon="7.00125">
        <ele>1229.1999511719</ele>
        <time>2022-10-30T14:11:04.000Z</time>
      </trkpt>
      <trkpt lat="48.01722" lon="7.00127">
        <ele>1229.5999755859</ele>
        <time>2022-10-30T14:11:06.000Z</time>
      </trkpt>
      <trkpt lat="48.01722" lon="7.00129">
        <ele>1230</ele>
        <time>2022-10-30T14:11:08.000Z</time>
      </trkpt>
      <trkpt lat="48.01722" lon="7.00131">
        <ele>1230.4000244141</ele>
        <time>2022-10-30T14:11:13.000Z</time>
      </trkpt>
      <trkpt lat="48.01723" lon="7.00133">
        <ele>1230.8000488281</ele>
        <time>2022-10-30T14:11:15.000Z</time>
      </trkpt>
      <trkpt lat="48.01726" lon="7.00135">
        <ele>1231.1999511719</ele>
        <time>2022-10-30T14:11:18.000Z</time>
      </trkpt>
      <trkpt lat="48.0173" lon="7.00139">
        <ele>1232</ele>
        <time>2022-10-30T14:11:22.000Z</time>
      </trkpt>
      <trkpt lat="48.01731" lon="7.00141">
        <ele>1232</ele>
        <time>2022-10-30T14:11:23.000Z</time>
      </trkpt>
      <trkpt lat="48.01734" lon="7.00143">
        <ele>1232.4000244141</ele>
        <time>2022-10-30T14:11:26.000Z</time>
      </trkpt>
      <trkpt lat="48.01736" lon="7.00146">
        <ele>1233.1999511719</ele>
        <time>2022-10-30T14:11:30.000Z</time>
      </trkpt>
      <trkpt lat="48.01736" lon="7.00146">
        <ele>1233.1999511719</ele>
        <time>2022-10-30T14:11:31.000Z</time>
      </trkpt>
      <trkpt lat="48.0174" lon="7.00153">
        <ele>1234</ele>
        <time>2022-10-30T14:11:38.000Z</time>
      </trkpt>
      <trkpt lat="48.01741" lon="7.00154">
        <ele>1234.1999511719</ele>
        <time>2022-10-30T14:11:39.000Z</time>
      </trkpt>
      <trkpt lat="48.01741" lon="7.00155">
        <ele>1234.4000244141</ele>
        <time>2022-10-30T14:11:41.000Z</time>
      </trkpt>
      <trkpt lat="48.01742" lon="7.00156">
        <ele>1234.4000244141</ele>
        <time>2022-10-30T14:11:42.000Z</time>
      </trkpt>
      <trkpt lat="48.01741" lon="7.00157">
        <ele>1234.5999755859</ele>
        <time>2022-10-30T14:11:44.000Z</time>
      </trkpt>
      <trkpt lat="48.01741" lon="7.00157">
        <ele>1234.5999755859</ele>
        <time>2022-10-30T14:11:45.000Z</time>
      </trkpt>
      <trkpt lat="48.01743" lon="7.0016">
        <ele>1234.5999755859</ele>
        <time>2022-10-30T14:11:49.000Z</time>
      </trkpt>
      <trkpt lat="48.01745" lon="7.00162">
        <ele>1234.8000488281</ele>
        <time>2022-10-30T14:11:52.000Z</time>
      </trkpt>
      <trkpt lat="48.01746" lon="7.00163">
        <ele>1235.1999511719</ele>
        <time>2022-10-30T14:11:57.000Z</time>
      </trkpt>
      <trkpt lat="48.01746" lon="7.00162">
        <ele>1235.1999511719</ele>
        <time>2022-10-30T14:11:58.000Z</time>
      </trkpt>
      <trkpt lat="48.01744" lon="7.00157">
        <ele>1236.4000244141</ele>
        <time>2022-10-30T14:12:03.000Z</time>
      </trkpt>
      <trkpt lat="48.01742" lon="7.00156">
        <ele>1237</ele>
        <time>2022-10-30T14:12:06.000Z</time>
      </trkpt>
      <trkpt lat="48.01742" lon="7.00148">
        <ele>1237</ele>
        <time>2022-10-30T14:12:13.000Z</time>
      </trkpt>
      <trkpt lat="48.01741" lon="7.00146">
        <ele>1237.1999511719</ele>
        <time>2022-10-30T14:12:14.000Z</time>
      </trkpt>
      <trkpt lat="48.01736" lon="7.00134">
        <ele>1237.4000244141</ele>
        <time>2022-10-30T14:12:22.000Z</time>
      </trkpt>
      <trkpt lat="48.01736" lon="7.00133">
        <ele>1237.4000244141</ele>
        <time>2022-10-30T14:12:23.000Z</time>
      </trkpt>
      <trkpt lat="48.01735" lon="7.00131">
        <ele>1237.4000244141</ele>
        <time>2022-10-30T14:12:25.000Z</time>
      </trkpt>
      <trkpt lat="48.01733" lon="7.00128">
        <ele>1237.1999511719</ele>
        <time>2022-10-30T14:12:28.000Z</time>
      </trkpt>
      <trkpt lat="48.01731" lon="7.00122">
        <ele>1237.1999511719</ele>
        <time>2022-10-30T14:12:33.000Z</time>
      </trkpt>
      <trkpt lat="48.01728" lon="7.00114">
        <ele>1237.1999511719</ele>
        <time>2022-10-30T14:12:38.000Z</time>
      </trkpt>
      <trkpt lat="48.01728" lon="7.00109">
        <ele>1237.4000244141</ele>
        <time>2022-10-30T14:12:42.000Z</time>
      </trkpt>
      <trkpt lat="48.01726" lon="7.00094">
        <ele>1238.4000244141</ele>
        <time>2022-10-30T14:12:50.000Z</time>
      </trkpt>
      <trkpt lat="48.01726" lon="7.00092">
        <ele>1238.8000488281</ele>
        <time>2022-10-30T14:12:51.000Z</time>
      </trkpt>
      <trkpt lat="48.01723" lon="7.00085">
        <ele>1239.4000244141</ele>
        <time>2022-10-30T14:12:55.000Z</time>
      </trkpt>
      <trkpt lat="48.01721" lon="7.00081">
        <ele>1239.5999755859</ele>
        <time>2022-10-30T14:12:57.000Z</time>
      </trkpt>
      <trkpt lat="48.0172" lon="7.00076">
        <ele>1239.8000488281</ele>
        <time>2022-10-30T14:13:00.000Z</time>
      </trkpt>
      <trkpt lat="48.01721" lon="7.00071">
        <ele>1240.4000244141</ele>
        <time>2022-10-30T14:13:04.000Z</time>
      </trkpt>
      <trkpt lat="48.0172" lon="7.00068">
        <ele>1240.8000488281</ele>
        <time>2022-10-30T14:13:07.000Z</time>
      </trkpt>
      <trkpt lat="48.0172" lon="7.00062">
        <ele>1241</ele>
        <time>2022-10-30T14:13:10.000Z</time>
      </trkpt>
      <trkpt lat="48.01719" lon="7.00052">
        <ele>1241.4000244141</ele>
        <time>2022-10-30T14:13:15.000Z</time>
      </trkpt>
      <trkpt lat="48.01719" lon="7.00048">
        <ele>1241.5999755859</ele>
        <time>2022-10-30T14:13:17.000Z</time>
      </trkpt>
      <trkpt lat="48.01716" lon="7.00031">
        <ele>1241.4000244141</ele>
        <time>2022-10-30T14:13:26.000Z</time>
      </trkpt>
      <trkpt lat="48.01717" lon="7.00021">
        <ele>1242</ele>
        <time>2022-10-30T14:13:32.000Z</time>
      </trkpt>
      <trkpt lat="48.01718" lon="7.00016">
        <ele>1242.1999511719</ele>
        <time>2022-10-30T14:13:35.000Z</time>
      </trkpt>
      <trkpt lat="48.01719" lon="7.00013">
        <ele>1242.5999755859</ele>
        <time>2022-10-30T14:13:37.000Z</time>
      </trkpt>
      <trkpt lat="48.01721" lon="7.00013">
        <ele>1243</ele>
        <time>2022-10-30T14:13:39.000Z</time>
      </trkpt>
      <trkpt lat="48.01724" lon="7.00013">
        <ele>1243.5999755859</ele>
        <time>2022-10-30T14:13:42.000Z</time>
      </trkpt>
      <trkpt lat="48.01725" lon="7.00012">
        <ele>1244.1999511719</ele>
        <time>2022-10-30T14:13:44.000Z</time>
      </trkpt>
      <trkpt lat="48.01724" lon="7.00009">
        <ele>1245</ele>
        <time>2022-10-30T14:13:47.000Z</time>
      </trkpt>
      <trkpt lat="48.01724" lon="7.0001">
        <ele>1245.1999511719</ele>
        <time>2022-10-30T14:13:49.000Z</time>
      </trkpt>
      <trkpt lat="48.01723" lon="7.00015">
        <ele>1245.4000244141</ele>
        <time>2022-10-30T14:13:53.000Z</time>
      </trkpt>
      <trkpt lat="48.01723" lon="7.00016">
        <ele>1245.4000244141</ele>
        <time>2022-10-30T14:14:05.000Z</time>
      </trkpt>
      <trkpt lat="48.01723" lon="7.00013">
        <ele>1245.1999511719</ele>
        <time>2022-10-30T14:14:12.000Z</time>
      </trkpt>
      <trkpt lat="48.01723" lon="6.99995">
        <ele>1246.1999511719</ele>
        <time>2022-10-30T14:14:21.000Z</time>
      </trkpt>
      <trkpt lat="48.01723" lon="6.99993">
        <ele>1246.1999511719</ele>
        <time>2022-10-30T14:14:22.000Z</time>
      </trkpt>
      <trkpt lat="48.01726" lon="6.99986">
        <ele>1246.5999755859</ele>
        <time>2022-10-30T14:14:27.000Z</time>
      </trkpt>
      <trkpt lat="48.01726" lon="6.99984">
        <ele>1246.8000488281</ele>
        <time>2022-10-30T14:14:28.000Z</time>
      </trkpt>
      <trkpt lat="48.01726" lon="6.99976">
        <ele>1247.1999511719</ele>
        <time>2022-10-30T14:14:33.000Z</time>
      </trkpt>
      <trkpt lat="48.01726" lon="6.99971">
        <ele>1247.4000244141</ele>
        <time>2022-10-30T14:14:36.000Z</time>
      </trkpt>
      <trkpt lat="48.01725" lon="6.99956">
        <ele>1248.1999511719</ele>
        <time>2022-10-30T14:14:44.000Z</time>
      </trkpt>
      <trkpt lat="48.01726" lon="6.99953">
        <ele>1248.1999511719</ele>
        <time>2022-10-30T14:14:46.000Z</time>
      </trkpt>
      <trkpt lat="48.01726" lon="6.99951">
        <ele>1248.1999511719</ele>
        <time>2022-10-30T14:14:47.000Z</time>
      </trkpt>
      <trkpt lat="48.01726" lon="6.9995">
        <ele>1248.4000244141</ele>
        <time>2022-10-30T14:14:54.000Z</time>
      </trkpt>
      <trkpt lat="48.01725" lon="6.99938">
        <ele>1247.8000488281</ele>
        <time>2022-10-30T14:15:01.000Z</time>
      </trkpt>
      <trkpt lat="48.01724" lon="6.9992">
        <ele>1248.1999511719</ele>
        <time>2022-10-30T14:15:10.000Z</time>
      </trkpt>
      <trkpt lat="48.01725" lon="6.99907">
        <ele>1249</ele>
        <time>2022-10-30T14:15:18.000Z</time>
      </trkpt>
      <trkpt lat="48.01725" lon="6.99906">
        <ele>1249.1999511719</ele>
        <time>2022-10-30T14:15:19.000Z</time>
      </trkpt>
      <trkpt lat="48.01725" lon="6.99907">
        <ele>1249.1999511719</ele>
        <time>2022-10-30T14:15:21.000Z</time>
      </trkpt>
      <trkpt lat="48.01726" lon="6.99905">
        <ele>1249.1999511719</ele>
        <time>2022-10-30T14:15:25.000Z</time>
      </trkpt>
      <trkpt lat="48.01726" lon="6.99894">
        <ele>1249</ele>
        <time>2022-10-30T14:15:30.000Z</time>
      </trkpt>
      <trkpt lat="48.01726" lon="6.99892">
        <ele>1249.1999511719</ele>
        <time>2022-10-30T14:15:31.000Z</time>
      </trkpt>
      <trkpt lat="48.01728" lon="6.9988">
        <ele>1250</ele>
        <time>2022-10-30T14:15:38.000Z</time>
      </trkpt>
      <trkpt lat="48.0173" lon="6.99877">
        <ele>1250.4000244141</ele>
        <time>2022-10-30T14:15:41.000Z</time>
      </trkpt>
      <trkpt lat="48.01731" lon="6.99874">
        <ele>1250.4000244141</ele>
        <time>2022-10-30T14:15:43.000Z</time>
      </trkpt>
      <trkpt lat="48.01732" lon="6.99874">
        <ele>1250.8000488281</ele>
        <time>2022-10-30T14:15:45.000Z</time>
      </trkpt>
      <trkpt lat="48.01732" lon="6.99868">
        <ele>1251.4000244141</ele>
        <time>2022-10-30T14:15:51.000Z</time>
      </trkpt>
      <trkpt lat="48.01732" lon="6.99866">
        <ele>1251.4000244141</ele>
        <time>2022-10-30T14:15:52.000Z</time>
      </trkpt>
      <trkpt lat="48.01732" lon="6.99858">
        <ele>1251.4000244141</ele>
        <time>2022-10-30T14:15:59.000Z</time>
      </trkpt>
      <trkpt lat="48.01731" lon="6.99852">
        <ele>1251.4000244141</ele>
        <time>2022-10-30T14:16:04.000Z</time>
      </trkpt>
      <trkpt lat="48.01732" lon="6.99846">
        <ele>1251.8000488281</ele>
        <time>2022-10-30T14:16:10.000Z</time>
      </trkpt>
      <trkpt lat="48.01731" lon="6.99837">
        <ele>1251.8000488281</ele>
        <time>2022-10-30T14:16:16.000Z</time>
      </trkpt>
      <trkpt lat="48.01732" lon="6.99836">
        <ele>1251.8000488281</ele>
        <time>2022-10-30T14:16:17.000Z</time>
      </trkpt>
      <trkpt lat="48.01733" lon="6.99827">
        <ele>1252</ele>
        <time>2022-10-30T14:16:23.000Z</time>
      </trkpt>
      <trkpt lat="48.01735" lon="6.99819">
        <ele>1252.4000244141</ele>
        <time>2022-10-30T14:16:29.000Z</time>
      </trkpt>
      <trkpt lat="48.01736" lon="6.99815">
        <ele>1252.5999755859</ele>
        <time>2022-10-30T14:16:31.000Z</time>
      </trkpt>
      <trkpt lat="48.01739" lon="6.99813">
        <ele>1253</ele>
        <time>2022-10-30T14:16:36.000Z</time>
      </trkpt>
      <trkpt lat="48.01741" lon="6.9981">
        <ele>1253.5999755859</ele>
        <time>2022-10-30T14:16:40.000Z</time>
      </trkpt>
      <trkpt lat="48.01742" lon="6.99806">
        <ele>1253.8000488281</ele>
        <time>2022-10-30T14:16:42.000Z</time>
      </trkpt>
      <trkpt lat="48.01746" lon="6.99799">
        <ele>1254.4000244141</ele>
        <time>2022-10-30T14:16:50.000Z</time>
      </trkpt>
      <trkpt lat="48.01748" lon="6.99794">
        <ele>1254.8000488281</ele>
        <time>2022-10-30T14:16:57.000Z</time>
      </trkpt>
      <trkpt lat="48.0175" lon="6.99789">
        <ele>1255.8000488281</ele>
        <time>2022-10-30T14:17:03.000Z</time>
      </trkpt>
      <trkpt lat="48.01755" lon="6.99781">
        <ele>1257</ele>
        <time>2022-10-30T14:17:13.000Z</time>
      </trkpt>
      <trkpt lat="48.01757" lon="6.99774">
        <ele>1257.8000488281</ele>
        <time>2022-10-30T14:17:19.000Z</time>
      </trkpt>
      <trkpt lat="48.01758" lon="6.99775">
        <ele>1258</ele>
        <time>2022-10-30T14:17:21.000Z</time>
      </trkpt>
      <trkpt lat="48.01761" lon="6.99775">
        <ele>1258.1999511719</ele>
        <time>2022-10-30T14:17:25.000Z</time>
      </trkpt>
      <trkpt lat="48.01765" lon="6.99765">
        <ele>1258.1999511719</ele>
        <time>2022-10-30T14:17:33.000Z</time>
      </trkpt>
      <trkpt lat="48.0177" lon="6.99763">
        <ele>1258.8000488281</ele>
        <time>2022-10-30T14:17:38.000Z</time>
      </trkpt>
      <trkpt lat="48.01772" lon="6.9976">
        <ele>1259</ele>
        <time>2022-10-30T14:17:40.000Z</time>
      </trkpt>
      <trkpt lat="48.01774" lon="6.99757">
        <ele>1259</ele>
        <time>2022-10-30T14:17:43.000Z</time>
      </trkpt>
      <trkpt lat="48.01777" lon="6.99754">
        <ele>1259</ele>
        <time>2022-10-30T14:17:46.000Z</time>
      </trkpt>
      <trkpt lat="48.01779" lon="6.99754">
        <ele>1259</ele>
        <time>2022-10-30T14:17:47.000Z</time>
      </trkpt>
      <trkpt lat="48.01783" lon="6.99741">
        <ele>1258.8000488281</ele>
        <time>2022-10-30T14:17:54.000Z</time>
      </trkpt>
      <trkpt lat="48.01786" lon="6.99732">
        <ele>1259.1999511719</ele>
        <time>2022-10-30T14:18:01.000Z</time>
      </trkpt>
      <trkpt lat="48.0179" lon="6.99725">
        <ele>1260</ele>
        <time>2022-10-30T14:18:06.000Z</time>
      </trkpt>
      <trkpt lat="48.01793" lon="6.99722">
        <ele>1260.1999511719</ele>
        <time>2022-10-30T14:18:09.000Z</time>
      </trkpt>
      <trkpt lat="48.01796" lon="6.99718">
        <ele>1261</ele>
        <time>2022-10-30T14:18:14.000Z</time>
      </trkpt>
      <trkpt lat="48.01799" lon="6.99718">
        <ele>1261</ele>
        <time>2022-10-30T14:18:19.000Z</time>
      </trkpt>
      <trkpt lat="48.01802" lon="6.99717">
        <ele>1260.8000488281</ele>
        <time>2022-10-30T14:18:26.000Z</time>
      </trkpt>
      <trkpt lat="48.01804" lon="6.99714">
        <ele>1260.8000488281</ele>
        <time>2022-10-30T14:18:32.000Z</time>
      </trkpt>
      <trkpt lat="48.01807" lon="6.99708">
        <ele>1261.1999511719</ele>
        <time>2022-10-30T14:18:37.000Z</time>
      </trkpt>
      <trkpt lat="48.01809" lon="6.99708">
        <ele>1261.5999755859</ele>
        <time>2022-10-30T14:18:40.000Z</time>
      </trkpt>
      <trkpt lat="48.01814" lon="6.99698">
        <ele>1261.8000488281</ele>
        <time>2022-10-30T14:18:48.000Z</time>
      </trkpt>
      <trkpt lat="48.01819" lon="6.99694">
        <ele>1262</ele>
        <time>2022-10-30T14:18:54.000Z</time>
      </trkpt>
      <trkpt lat="48.01819" lon="6.99694">
        <ele>1262</ele>
        <time>2022-10-30T14:18:55.000Z</time>
      </trkpt>
      <trkpt lat="48.01823" lon="6.99691">
        <ele>1262.4000244141</ele>
        <time>2022-10-30T14:19:00.000Z</time>
      </trkpt>
      <trkpt lat="48.01823" lon="6.99689">
        <ele>1262.4000244141</ele>
        <time>2022-10-30T14:19:01.000Z</time>
      </trkpt>
      <trkpt lat="48.01829" lon="6.99683">
        <ele>1263.1999511719</ele>
        <time>2022-10-30T14:19:08.000Z</time>
      </trkpt>
      <trkpt lat="48.01831" lon="6.9968">
        <ele>1263.4000244141</ele>
        <time>2022-10-30T14:19:12.000Z</time>
      </trkpt>
      <trkpt lat="48.01832" lon="6.99679">
        <ele>1263.4000244141</ele>
        <time>2022-10-30T14:19:13.000Z</time>
      </trkpt>
      <trkpt lat="48.01832" lon="6.99676">
        <ele>1263.4000244141</ele>
        <time>2022-10-30T14:19:15.000Z</time>
      </trkpt>
      <trkpt lat="48.01833" lon="6.99673">
        <ele>1263.4000244141</ele>
        <time>2022-10-30T14:19:18.000Z</time>
      </trkpt>
      <trkpt lat="48.01833" lon="6.99668">
        <ele>1263.4000244141</ele>
        <time>2022-10-30T14:19:21.000Z</time>
      </trkpt>
      <trkpt lat="48.01833" lon="6.99666">
        <ele>1263.1999511719</ele>
        <time>2022-10-30T14:19:22.000Z</time>
      </trkpt>
      <trkpt lat="48.01835" lon="6.99661">
        <ele>1263</ele>
        <time>2022-10-30T14:19:26.000Z</time>
      </trkpt>
      <trkpt lat="48.01836" lon="6.99658">
        <ele>1263</ele>
        <time>2022-10-30T14:19:28.000Z</time>
      </trkpt>
      <trkpt lat="48.01836" lon="6.99657">
        <ele>1263</ele>
        <time>2022-10-30T14:19:29.000Z</time>
      </trkpt>
      <trkpt lat="48.01837" lon="6.99656">
        <ele>1263</ele>
        <time>2022-10-30T14:19:31.000Z</time>
      </trkpt>
      <trkpt lat="48.01838" lon="6.99655">
        <ele>1263</ele>
        <time>2022-10-30T14:19:32.000Z</time>
      </trkpt>
      <trkpt lat="48.01839" lon="6.99654">
        <ele>1263.1999511719</ele>
        <time>2022-10-30T14:19:33.000Z</time>
      </trkpt>
      <trkpt lat="48.0184" lon="6.99654">
        <ele>1263.1999511719</ele>
        <time>2022-10-30T14:19:34.000Z</time>
      </trkpt>
      <trkpt lat="48.0184" lon="6.99652">
        <ele>1263.1999511719</ele>
        <time>2022-10-30T14:19:35.000Z</time>
      </trkpt>
      <trkpt lat="48.01847" lon="6.99642">
        <ele>1262.8000488281</ele>
        <time>2022-10-30T14:19:44.000Z</time>
      </trkpt>
      <trkpt lat="48.01847" lon="6.9964">
        <ele>1263</ele>
        <time>2022-10-30T14:19:45.000Z</time>
      </trkpt>
      <trkpt lat="48.01848" lon="6.99636">
        <ele>1263.1999511719</ele>
        <time>2022-10-30T14:19:48.000Z</time>
      </trkpt>
      <trkpt lat="48.0185" lon="6.99633">
        <ele>1263.1999511719</ele>
        <time>2022-10-30T14:19:50.000Z</time>
      </trkpt>
      <trkpt lat="48.01854" lon="6.99627">
        <ele>1263</ele>
        <time>2022-10-30T14:19:54.000Z</time>
      </trkpt>
      <trkpt lat="48.01859" lon="6.99619">
        <ele>1264.1999511719</ele>
        <time>2022-10-30T14:20:00.000Z</time>
      </trkpt>
      <trkpt lat="48.0186" lon="6.99617">
        <ele>1264.5999755859</ele>
        <time>2022-10-30T14:20:01.000Z</time>
      </trkpt>
      <trkpt lat="48.01863" lon="6.99614">
        <ele>1265</ele>
        <time>2022-10-30T14:20:04.000Z</time>
      </trkpt>
      <trkpt lat="48.01865" lon="6.9961">
        <ele>1265.1999511719</ele>
        <time>2022-10-30T14:20:07.000Z</time>
      </trkpt>
      <trkpt lat="48.01867" lon="6.99607">
        <ele>1265.5999755859</ele>
        <time>2022-10-30T14:20:09.000Z</time>
      </trkpt>
      <trkpt lat="48.01868" lon="6.99603">
        <ele>1265.8000488281</ele>
        <time>2022-10-30T14:20:11.000Z</time>
      </trkpt>
      <trkpt lat="48.01869" lon="6.99602">
        <ele>1265.8000488281</ele>
        <time>2022-10-30T14:20:12.000Z</time>
      </trkpt>
      <trkpt lat="48.0187" lon="6.996">
        <ele>1266</ele>
        <time>2022-10-30T14:20:13.000Z</time>
      </trkpt>
      <trkpt lat="48.01871" lon="6.99598">
        <ele>1266.1999511719</ele>
        <time>2022-10-30T14:20:14.000Z</time>
      </trkpt>
      <trkpt lat="48.01873" lon="6.99597">
        <ele>1266.8000488281</ele>
        <time>2022-10-30T14:20:16.000Z</time>
      </trkpt>
      <trkpt lat="48.01875" lon="6.99594">
        <ele>1267.1999511719</ele>
        <time>2022-10-30T14:20:18.000Z</time>
      </trkpt>
      <trkpt lat="48.01877" lon="6.99591">
        <ele>1267.4000244141</ele>
        <time>2022-10-30T14:20:20.000Z</time>
      </trkpt>
      <trkpt lat="48.01879" lon="6.99585">
        <ele>1267.4000244141</ele>
        <time>2022-10-30T14:20:24.000Z</time>
      </trkpt>
      <trkpt lat="48.01881" lon="6.99581">
        <ele>1267.4000244141</ele>
        <time>2022-10-30T14:20:27.000Z</time>
      </trkpt>
      <trkpt lat="48.01883" lon="6.99577">
        <ele>1267.1999511719</ele>
        <time>2022-10-30T14:20:30.000Z</time>
      </trkpt>
      <trkpt lat="48.01884" lon="6.99575">
        <ele>1267.1999511719</ele>
        <time>2022-10-30T14:20:32.000Z</time>
      </trkpt>
      <trkpt lat="48.01884" lon="6.99573">
        <ele>1267.1999511719</ele>
        <time>2022-10-30T14:20:33.000Z</time>
      </trkpt>
      <trkpt lat="48.01885" lon="6.9957">
        <ele>1267.1999511719</ele>
        <time>2022-10-30T14:20:34.000Z</time>
      </trkpt>
      <trkpt lat="48.01888" lon="6.99563">
        <ele>1267</ele>
        <time>2022-10-30T14:20:39.000Z</time>
      </trkpt>
      <trkpt lat="48.01893" lon="6.99554">
        <ele>1266.8000488281</ele>
        <time>2022-10-30T14:20:46.000Z</time>
      </trkpt>
      <trkpt lat="48.01894" lon="6.99548">
        <ele>1267.4000244141</ele>
        <time>2022-10-30T14:20:49.000Z</time>
      </trkpt>
      <trkpt lat="48.01896" lon="6.99544">
        <ele>1267.5999755859</ele>
        <time>2022-10-30T14:20:54.000Z</time>
      </trkpt>
      <trkpt lat="48.01899" lon="6.99537">
        <ele>1267</ele>
        <time>2022-10-30T14:21:00.000Z</time>
      </trkpt>
      <trkpt lat="48.01902" lon="6.99528">
        <ele>1267.4000244141</ele>
        <time>2022-10-30T14:21:07.000Z</time>
      </trkpt>
      <trkpt lat="48.01903" lon="6.99521">
        <ele>1266.8000488281</ele>
        <time>2022-10-30T14:21:14.000Z</time>
      </trkpt>
      <trkpt lat="48.01904" lon="6.99515">
        <ele>1266.4000244141</ele>
        <time>2022-10-30T14:21:20.000Z</time>
      </trkpt>
      <trkpt lat="48.01905" lon="6.99514">
        <ele>1265.5999755859</ele>
        <time>2022-10-30T14:21:23.000Z</time>
      </trkpt>
      <trkpt lat="48.01905" lon="6.99508">
        <ele>1264.4000244141</ele>
        <time>2022-10-30T14:21:28.000Z</time>
      </trkpt>
      <trkpt lat="48.01905" lon="6.99506">
        <ele>1264.1999511719</ele>
        <time>2022-10-30T14:21:29.000Z</time>
      </trkpt>
      <trkpt lat="48.01905" lon="6.99505">
        <ele>1263.5999755859</ele>
        <time>2022-10-30T14:21:34.000Z</time>
      </trkpt>
      <trkpt lat="48.01905" lon="6.99502">
        <ele>1263.4000244141</ele>
        <time>2022-10-30T14:21:36.000Z</time>
      </trkpt>
      <trkpt lat="48.01909" lon="6.99493">
        <ele>1262.8000488281</ele>
        <time>2022-10-30T14:21:41.000Z</time>
      </trkpt>
      <trkpt lat="48.01914" lon="6.99486">
        <ele>1262.4000244141</ele>
        <time>2022-10-30T14:21:46.000Z</time>
      </trkpt>
      <trkpt lat="48.01915" lon="6.99484">
        <ele>1262.4000244141</ele>
        <time>2022-10-30T14:21:47.000Z</time>
      </trkpt>
      <trkpt lat="48.01916" lon="6.99482">
        <ele>1262.4000244141</ele>
        <time>2022-10-30T14:21:48.000Z</time>
      </trkpt>
      <trkpt lat="48.0192" lon="6.99478">
        <ele>1262.5999755859</ele>
        <time>2022-10-30T14:21:53.000Z</time>
      </trkpt>
      <trkpt lat="48.01921" lon="6.99476">
        <ele>1262.8000488281</ele>
        <time>2022-10-30T14:21:55.000Z</time>
      </trkpt>
      <trkpt lat="48.01924" lon="6.99471">
        <ele>1262.8000488281</ele>
        <time>2022-10-30T14:21:59.000Z</time>
      </trkpt>
      <trkpt lat="48.01928" lon="6.99463">
        <ele>1262.5999755859</ele>
        <time>2022-10-30T14:22:04.000Z</time>
      </trkpt>
      <trkpt lat="48.01932" lon="6.99454">
        <ele>1262.4000244141</ele>
        <time>2022-10-30T14:22:10.000Z</time>
      </trkpt>
      <trkpt lat="48.01932" lon="6.99453">
        <ele>1262.1999511719</ele>
        <time>2022-10-30T14:22:11.000Z</time>
      </trkpt>
      <trkpt lat="48.01931" lon="6.99448">
        <ele>1261.5999755859</ele>
        <time>2022-10-30T14:22:15.000Z</time>
      </trkpt>
      <trkpt lat="48.01931" lon="6.99447">
        <ele>1261.5999755859</ele>
        <time>2022-10-30T14:22:16.000Z</time>
      </trkpt>
      <trkpt lat="48.0193" lon="6.99445">
        <ele>1261.4000244141</ele>
        <time>2022-10-30T14:22:17.000Z</time>
      </trkpt>
      <trkpt lat="48.0193" lon="6.99444">
        <ele>1261.4000244141</ele>
        <time>2022-10-30T14:22:18.000Z</time>
      </trkpt>
      <trkpt lat="48.01931" lon="6.99439">
        <ele>1261</ele>
        <time>2022-10-30T14:22:21.000Z</time>
      </trkpt>
      <trkpt lat="48.01929" lon="6.99435">
        <ele>1260.4000244141</ele>
        <time>2022-10-30T14:22:24.000Z</time>
      </trkpt>
      <trkpt lat="48.01931" lon="6.99424">
        <ele>1259.1999511719</ele>
        <time>2022-10-30T14:22:29.000Z</time>
      </trkpt>
      <trkpt lat="48.01931" lon="6.99421">
        <ele>1258.5999755859</ele>
        <time>2022-10-30T14:22:30.000Z</time>
      </trkpt>
      <trkpt lat="48.01933" lon="6.99416">
        <ele>1258</ele>
        <time>2022-10-30T14:22:33.000Z</time>
      </trkpt>
      <trkpt lat="48.01933" lon="6.99415">
        <ele>1257.8000488281</ele>
        <time>2022-10-30T14:22:34.000Z</time>
      </trkpt>
      <trkpt lat="48.01932" lon="6.99412">
        <ele>1257.4000244141</ele>
        <time>2022-10-30T14:22:36.000Z</time>
      </trkpt>
      <trkpt lat="48.01932" lon="6.99407">
        <ele>1256.8000488281</ele>
        <time>2022-10-30T14:22:39.000Z</time>
      </trkpt>
      <trkpt lat="48.01933" lon="6.99402">
        <ele>1255.8000488281</ele>
        <time>2022-10-30T14:22:43.000Z</time>
      </trkpt>
      <trkpt lat="48.01933" lon="6.994">
        <ele>1255.5999755859</ele>
        <time>2022-10-30T14:22:44.000Z</time>
      </trkpt>
      <trkpt lat="48.01935" lon="6.99392">
        <ele>1255.4000244141</ele>
        <time>2022-10-30T14:22:50.000Z</time>
      </trkpt>
      <trkpt lat="48.01937" lon="6.99379">
        <ele>1254.5999755859</ele>
        <time>2022-10-30T14:22:57.000Z</time>
      </trkpt>
      <trkpt lat="48.01937" lon="6.99375">
        <ele>1254.4000244141</ele>
        <time>2022-10-30T14:23:00.000Z</time>
      </trkpt>
      <trkpt lat="48.01939" lon="6.99369">
        <ele>1253.5999755859</ele>
        <time>2022-10-30T14:23:05.000Z</time>
      </trkpt>
      <trkpt lat="48.01941" lon="6.99361">
        <ele>1253</ele>
        <time>2022-10-30T14:23:10.000Z</time>
      </trkpt>
      <trkpt lat="48.01943" lon="6.99357">
        <ele>1252.8000488281</ele>
        <time>2022-10-30T14:23:12.000Z</time>
      </trkpt>
      <trkpt lat="48.01944" lon="6.9935">
        <ele>1252.4000244141</ele>
        <time>2022-10-30T14:23:15.000Z</time>
      </trkpt>
      <trkpt lat="48.01946" lon="6.99346">
        <ele>1252.4000244141</ele>
        <time>2022-10-30T14:23:17.000Z</time>
      </trkpt>
      <trkpt lat="48.01947" lon="6.99345">
        <ele>1252.4000244141</ele>
        <time>2022-10-30T14:23:18.000Z</time>
      </trkpt>
      <trkpt lat="48.01947" lon="6.99339">
        <ele>1252.4000244141</ele>
        <time>2022-10-30T14:23:21.000Z</time>
      </trkpt>
      <trkpt lat="48.01946" lon="6.99337">
        <ele>1252.5999755859</ele>
        <time>2022-10-30T14:23:22.000Z</time>
      </trkpt>
      <trkpt lat="48.01946" lon="6.99335">
        <ele>1252.8000488281</ele>
        <time>2022-10-30T14:23:23.000Z</time>
      </trkpt>
      <trkpt lat="48.01945" lon="6.99325">
        <ele>1252.5999755859</ele>
        <time>2022-10-30T14:23:28.000Z</time>
      </trkpt>
      <trkpt lat="48.01945" lon="6.99324">
        <ele>1252.5999755859</ele>
        <time>2022-10-30T14:23:29.000Z</time>
      </trkpt>
      <trkpt lat="48.01944" lon="6.99321">
        <ele>1252.5999755859</ele>
        <time>2022-10-30T14:23:31.000Z</time>
      </trkpt>
      <trkpt lat="48.01942" lon="6.99317">
        <ele>1252.5999755859</ele>
        <time>2022-10-30T14:23:34.000Z</time>
      </trkpt>
      <trkpt lat="48.0194" lon="6.99311">
        <ele>1253.1999511719</ele>
        <time>2022-10-30T14:23:40.000Z</time>
      </trkpt>
      <trkpt lat="48.0194" lon="6.99308">
        <ele>1253.4000244141</ele>
        <time>2022-10-30T14:23:41.000Z</time>
      </trkpt>
      <trkpt lat="48.01938" lon="6.99301">
        <ele>1254</ele>
        <time>2022-10-30T14:23:46.000Z</time>
      </trkpt>
      <trkpt lat="48.01938" lon="6.99299">
        <ele>1254</ele>
        <time>2022-10-30T14:23:47.000Z</time>
      </trkpt>
      <trkpt lat="48.01937" lon="6.99296">
        <ele>1254.4000244141</ele>
        <time>2022-10-30T14:23:49.000Z</time>
      </trkpt>
      <trkpt lat="48.01936" lon="6.99291">
        <ele>1255.1999511719</ele>
        <time>2022-10-30T14:23:53.000Z</time>
      </trkpt>
      <trkpt lat="48.01936" lon="6.9929">
        <ele>1255.5999755859</ele>
        <time>2022-10-30T14:23:54.000Z</time>
      </trkpt>
      <trkpt lat="48.01938" lon="6.99284">
        <ele>1256.5999755859</ele>
        <time>2022-10-30T14:23:58.000Z</time>
      </trkpt>
      <trkpt lat="48.01938" lon="6.99283">
        <ele>1256.5999755859</ele>
        <time>2022-10-30T14:23:59.000Z</time>
      </trkpt>
      <trkpt lat="48.01945" lon="6.99266">
        <ele>1255.4000244141</ele>
        <time>2022-10-30T14:24:07.000Z</time>
      </trkpt>
      <trkpt lat="48.0194" lon="6.99261">
        <ele>1255.4000244141</ele>
        <time>2022-10-30T14:24:13.000Z</time>
      </trkpt>
      <trkpt lat="48.01938" lon="6.99258">
        <ele>1255.8000488281</ele>
        <time>2022-10-30T14:24:16.000Z</time>
      </trkpt>
      <trkpt lat="48.01937" lon="6.99257">
        <ele>1255.8000488281</ele>
        <time>2022-10-30T14:24:17.000Z</time>
      </trkpt>
      <trkpt lat="48.01932" lon="6.99255">
        <ele>1256.4000244141</ele>
        <time>2022-10-30T14:24:22.000Z</time>
      </trkpt>
      <trkpt lat="48.01931" lon="6.99254">
        <ele>1256.5999755859</ele>
        <time>2022-10-30T14:24:23.000Z</time>
      </trkpt>
      <trkpt lat="48.01931" lon="6.99254">
        <ele>1256.8000488281</ele>
        <time>2022-10-30T14:24:24.000Z</time>
      </trkpt>
      <trkpt lat="48.01929" lon="6.99251">
        <ele>1257.8000488281</ele>
        <time>2022-10-30T14:24:28.000Z</time>
      </trkpt>
      <trkpt lat="48.01929" lon="6.99251">
        <ele>1258</ele>
        <time>2022-10-30T14:24:29.000Z</time>
      </trkpt>
      <trkpt lat="48.01924" lon="6.99248">
        <ele>1259</ele>
        <time>2022-10-30T14:24:34.000Z</time>
      </trkpt>
      <trkpt lat="48.01922" lon="6.99246">
        <ele>1259.5999755859</ele>
        <time>2022-10-30T14:24:36.000Z</time>
      </trkpt>
      <trkpt lat="48.01921" lon="6.99245">
        <ele>1260.1999511719</ele>
        <time>2022-10-30T14:24:38.000Z</time>
      </trkpt>
      <trkpt lat="48.01921" lon="6.99245">
        <ele>1261.4000244141</ele>
        <time>2022-10-30T14:24:42.000Z</time>
      </trkpt>
      <trkpt lat="48.01915" lon="6.99239">
        <ele>1262.1999511719</ele>
        <time>2022-10-30T14:24:49.000Z</time>
      </trkpt>
      <trkpt lat="48.01914" lon="6.99238">
        <ele>1262.5999755859</ele>
        <time>2022-10-30T14:24:50.000Z</time>
      </trkpt>
      <trkpt lat="48.01908" lon="6.99234">
        <ele>1263.4000244141</ele>
        <time>2022-10-30T14:24:55.000Z</time>
      </trkpt>
      <trkpt lat="48.01907" lon="6.99231">
        <ele>1263.4000244141</ele>
        <time>2022-10-30T14:24:58.000Z</time>
      </trkpt>
      <trkpt lat="48.01906" lon="6.9923">
        <ele>1263.4000244141</ele>
        <time>2022-10-30T14:25:00.000Z</time>
      </trkpt>
      <trkpt lat="48.01903" lon="6.99228">
        <ele>1263.1999511719</ele>
        <time>2022-10-30T14:25:03.000Z</time>
      </trkpt>
      <trkpt lat="48.019" lon="6.99223">
        <ele>1263.4000244141</ele>
        <time>2022-10-30T14:25:07.000Z</time>
      </trkpt>
      <trkpt lat="48.01899" lon="6.99218">
        <ele>1263.8000488281</ele>
        <time>2022-10-30T14:25:10.000Z</time>
      </trkpt>
      <trkpt lat="48.01897" lon="6.99214">
        <ele>1264.4000244141</ele>
        <time>2022-10-30T14:25:13.000Z</time>
      </trkpt>
      <trkpt lat="48.01894" lon="6.99202">
        <ele>1264</ele>
        <time>2022-10-30T14:25:21.000Z</time>
      </trkpt>
      <trkpt lat="48.01893" lon="6.99186">
        <ele>1264.4000244141</ele>
        <time>2022-10-30T14:25:30.000Z</time>
      </trkpt>
      <trkpt lat="48.01888" lon="6.99173">
        <ele>1263.8000488281</ele>
        <time>2022-10-30T14:25:38.000Z</time>
      </trkpt>
      <trkpt lat="48.01887" lon="6.9917">
        <ele>1263.5999755859</ele>
        <time>2022-10-30T14:25:39.000Z</time>
      </trkpt>
      <trkpt lat="48.01884" lon="6.99161">
        <ele>1263.1999511719</ele>
        <time>2022-10-30T14:25:44.000Z</time>
      </trkpt>
      <trkpt lat="48.01881" lon="6.99159">
        <ele>1262.8000488281</ele>
        <time>2022-10-30T14:25:47.000Z</time>
      </trkpt>
      <trkpt lat="48.01879" lon="6.99154">
        <ele>1262</ele>
        <time>2022-10-30T14:25:50.000Z</time>
      </trkpt>
      <trkpt lat="48.01879" lon="6.99152">
        <ele>1261.8000488281</ele>
        <time>2022-10-30T14:25:52.000Z</time>
      </trkpt>
      <trkpt lat="48.01877" lon="6.99149">
        <ele>1261.4000244141</ele>
        <time>2022-10-30T14:25:54.000Z</time>
      </trkpt>
      <trkpt lat="48.01875" lon="6.99142">
        <ele>1260.4000244141</ele>
        <time>2022-10-30T14:25:57.000Z</time>
      </trkpt>
      <trkpt lat="48.01874" lon="6.99139">
        <ele>1259.8000488281</ele>
        <time>2022-10-30T14:25:58.000Z</time>
      </trkpt>
      <trkpt lat="48.01875" lon="6.99132">
        <ele>1259.4000244141</ele>
        <time>2022-10-30T14:26:01.000Z</time>
      </trkpt>
      <trkpt lat="48.01873" lon="6.99123">
        <ele>1259.4000244141</ele>
        <time>2022-10-30T14:26:06.000Z</time>
      </trkpt>
      <trkpt lat="48.01872" lon="6.99111">
        <ele>1259.5999755859</ele>
        <time>2022-10-30T14:26:12.000Z</time>
      </trkpt>
      <trkpt lat="48.01869" lon="6.99096">
        <ele>1259</ele>
        <time>2022-10-30T14:26:19.000Z</time>
      </trkpt>
      <trkpt lat="48.01868" lon="6.99092">
        <ele>1258.1999511719</ele>
        <time>2022-10-30T14:26:21.000Z</time>
      </trkpt>
      <trkpt lat="48.01866" lon="6.99078">
        <ele>1257.4000244141</ele>
        <time>2022-10-30T14:26:28.000Z</time>
      </trkpt>
      <trkpt lat="48.01863" lon="6.99059">
        <ele>1257.8000488281</ele>
        <time>2022-10-30T14:26:37.000Z</time>
      </trkpt>
      <trkpt lat="48.01857" lon="6.99035">
        <ele>1258.4000244141</ele>
        <time>2022-10-30T14:26:49.000Z</time>
      </trkpt>
      <trkpt lat="48.01854" lon="6.99019">
        <ele>1258</ele>
        <time>2022-10-30T14:26:56.000Z</time>
      </trkpt>
      <trkpt lat="48.01854" lon="6.9901">
        <ele>1257.1999511719</ele>
        <time>2022-10-30T14:26:59.000Z</time>
      </trkpt>
      <trkpt lat="48.01853" lon="6.99004">
        <ele>1256.5999755859</ele>
        <time>2022-10-30T14:27:02.000Z</time>
      </trkpt>
      <trkpt lat="48.01848" lon="6.98981">
        <ele>1257.8000488281</ele>
        <time>2022-10-30T14:27:14.000Z</time>
      </trkpt>
      <trkpt lat="48.01845" lon="6.98965">
        <ele>1258.1999511719</ele>
        <time>2022-10-30T14:27:23.000Z</time>
      </trkpt>
      <trkpt lat="48.01844" lon="6.98958">
        <ele>1258.5999755859</ele>
        <time>2022-10-30T14:27:27.000Z</time>
      </trkpt>
      <trkpt lat="48.01843" lon="6.98948">
        <ele>1257.1999511719</ele>
        <time>2022-10-30T14:27:33.000Z</time>
      </trkpt>
      <trkpt lat="48.01841" lon="6.98945">
        <ele>1256.8000488281</ele>
        <time>2022-10-30T14:27:36.000Z</time>
      </trkpt>
      <trkpt lat="48.01837" lon="6.98943">
        <ele>1256</ele>
        <time>2022-10-30T14:27:39.000Z</time>
      </trkpt>
      <trkpt lat="48.01832" lon="6.98938">
        <ele>1255</ele>
        <time>2022-10-30T14:27:44.000Z</time>
      </trkpt>
      <trkpt lat="48.01829" lon="6.98936">
        <ele>1254.5999755859</ele>
        <time>2022-10-30T14:27:46.000Z</time>
      </trkpt>
      <trkpt lat="48.01825" lon="6.98933">
        <ele>1253.8000488281</ele>
        <time>2022-10-30T14:27:50.000Z</time>
      </trkpt>
      <trkpt lat="48.01821" lon="6.98929">
        <ele>1252.4000244141</ele>
        <time>2022-10-30T14:27:54.000Z</time>
      </trkpt>
      <trkpt lat="48.01819" lon="6.98927">
        <ele>1251.8000488281</ele>
        <time>2022-10-30T14:27:56.000Z</time>
      </trkpt>
      <trkpt lat="48.01816" lon="6.98924">
        <ele>1251.4000244141</ele>
        <time>2022-10-30T14:27:59.000Z</time>
      </trkpt>
      <trkpt lat="48.01815" lon="6.98922">
        <ele>1251.4000244141</ele>
        <time>2022-10-30T14:28:00.000Z</time>
      </trkpt>
      <trkpt lat="48.01815" lon="6.98918">
        <ele>1251.4000244141</ele>
        <time>2022-10-30T14:28:02.000Z</time>
      </trkpt>
      <trkpt lat="48.01814" lon="6.98917">
        <ele>1251.4000244141</ele>
        <time>2022-10-30T14:28:03.000Z</time>
      </trkpt>
      <trkpt lat="48.01803" lon="6.98907">
        <ele>1250.8000488281</ele>
        <time>2022-10-30T14:28:13.000Z</time>
      </trkpt>
      <trkpt lat="48.01801" lon="6.98905">
        <ele>1250.4000244141</ele>
        <time>2022-10-30T14:28:15.000Z</time>
      </trkpt>
      <trkpt lat="48.01798" lon="6.98901">
        <ele>1249.4000244141</ele>
        <time>2022-10-30T14:28:18.000Z</time>
      </trkpt>
      <trkpt lat="48.01796" lon="6.989">
        <ele>1249.4000244141</ele>
        <time>2022-10-30T14:28:19.000Z</time>
      </trkpt>
      <trkpt lat="48.01795" lon="6.98898">
        <ele>1249.1999511719</ele>
        <time>2022-10-30T14:28:20.000Z</time>
      </trkpt>
      <trkpt lat="48.01792" lon="6.98895">
        <ele>1248.1999511719</ele>
        <time>2022-10-30T14:28:23.000Z</time>
      </trkpt>
      <trkpt lat="48.01791" lon="6.98894">
        <ele>1248</ele>
        <time>2022-10-30T14:28:24.000Z</time>
      </trkpt>
      <trkpt lat="48.01785" lon="6.98888">
        <ele>1246.8000488281</ele>
        <time>2022-10-30T14:28:29.000Z</time>
      </trkpt>
      <trkpt lat="48.0178" lon="6.98882">
        <ele>1245.5999755859</ele>
        <time>2022-10-30T14:28:34.000Z</time>
      </trkpt>
      <trkpt lat="48.01779" lon="6.98881">
        <ele>1245.5999755859</ele>
        <time>2022-10-30T14:28:35.000Z</time>
      </trkpt>
      <trkpt lat="48.01774" lon="6.98877">
        <ele>1244.5999755859</ele>
        <time>2022-10-30T14:28:39.000Z</time>
      </trkpt>
      <trkpt lat="48.01769" lon="6.98875">
        <ele>1243.5999755859</ele>
        <time>2022-10-30T14:28:43.000Z</time>
      </trkpt>
      <trkpt lat="48.01767" lon="6.98873">
        <ele>1242.5999755859</ele>
        <time>2022-10-30T14:28:45.000Z</time>
      </trkpt>
      <trkpt lat="48.01765" lon="6.98872">
        <ele>1242</ele>
        <time>2022-10-30T14:28:46.000Z</time>
      </trkpt>
      <trkpt lat="48.01761" lon="6.98868">
        <ele>1241</ele>
        <time>2022-10-30T14:28:50.000Z</time>
      </trkpt>
      <trkpt lat="48.01759" lon="6.98867">
        <ele>1240.8000488281</ele>
        <time>2022-10-30T14:28:52.000Z</time>
      </trkpt>
      <trkpt lat="48.01757" lon="6.98865">
        <ele>1240</ele>
        <time>2022-10-30T14:28:54.000Z</time>
      </trkpt>
      <trkpt lat="48.01753" lon="6.98861">
        <ele>1239</ele>
        <time>2022-10-30T14:28:58.000Z</time>
      </trkpt>
      <trkpt lat="48.01752" lon="6.9886">
        <ele>1238.5999755859</ele>
        <time>2022-10-30T14:28:59.000Z</time>
      </trkpt>
      <trkpt lat="48.01746" lon="6.98856">
        <ele>1238</ele>
        <time>2022-10-30T14:29:04.000Z</time>
      </trkpt>
      <trkpt lat="48.01742" lon="6.98852">
        <ele>1236.4000244141</ele>
        <time>2022-10-30T14:29:08.000Z</time>
      </trkpt>
      <trkpt lat="48.01737" lon="6.98848">
        <ele>1235.4000244141</ele>
        <time>2022-10-30T14:29:13.000Z</time>
      </trkpt>
      <trkpt lat="48.01734" lon="6.98842">
        <ele>1234.8000488281</ele>
        <time>2022-10-30T14:29:17.000Z</time>
      </trkpt>
      <trkpt lat="48.01734" lon="6.98841">
        <ele>1234.8000488281</ele>
        <time>2022-10-30T14:29:18.000Z</time>
      </trkpt>
      <trkpt lat="48.01733" lon="6.98841">
        <ele>1234.5999755859</ele>
        <time>2022-10-30T14:29:19.000Z</time>
      </trkpt>
      <trkpt lat="48.0173" lon="6.98838">
        <ele>1234.4000244141</ele>
        <time>2022-10-30T14:29:23.000Z</time>
      </trkpt>
      <trkpt lat="48.01729" lon="6.98837">
        <ele>1234.1999511719</ele>
        <time>2022-10-30T14:29:24.000Z</time>
      </trkpt>
      <trkpt lat="48.01723" lon="6.98834">
        <ele>1233.4000244141</ele>
        <time>2022-10-30T14:29:29.000Z</time>
      </trkpt>
      <trkpt lat="48.0172" lon="6.98832">
        <ele>1233.1999511719</ele>
        <time>2022-10-30T14:29:31.000Z</time>
      </trkpt>
      <trkpt lat="48.01712" lon="6.98821">
        <ele>1232.5999755859</ele>
        <time>2022-10-30T14:29:39.000Z</time>
      </trkpt>
      <trkpt lat="48.01709" lon="6.98815">
        <ele>1232.4000244141</ele>
        <time>2022-10-30T14:29:43.000Z</time>
      </trkpt>
      <trkpt lat="48.01706" lon="6.9881">
        <ele>1232</ele>
        <time>2022-10-30T14:29:46.000Z</time>
      </trkpt>
      <trkpt lat="48.01702" lon="6.98805">
        <ele>1231.8000488281</ele>
        <time>2022-10-30T14:29:50.000Z</time>
      </trkpt>
      <trkpt lat="48.01697" lon="6.98794">
        <ele>1231</ele>
        <time>2022-10-30T14:29:57.000Z</time>
      </trkpt>
      <trkpt lat="48.01691" lon="6.98788">
        <ele>1230.4000244141</ele>
        <time>2022-10-30T14:30:03.000Z</time>
      </trkpt>
      <trkpt lat="48.01689" lon="6.98787">
        <ele>1230</ele>
        <time>2022-10-30T14:30:05.000Z</time>
      </trkpt>
      <trkpt lat="48.01687" lon="6.98785">
        <ele>1229.5999755859</ele>
        <time>2022-10-30T14:30:07.000Z</time>
      </trkpt>
      <trkpt lat="48.01684" lon="6.98782">
        <ele>1229</ele>
        <time>2022-10-30T14:30:10.000Z</time>
      </trkpt>
      <trkpt lat="48.01684" lon="6.9878">
        <ele>1228.8000488281</ele>
        <time>2022-10-30T14:30:11.000Z</time>
      </trkpt>
      <trkpt lat="48.01679" lon="6.98775">
        <ele>1227.8000488281</ele>
        <time>2022-10-30T14:30:16.000Z</time>
      </trkpt>
      <trkpt lat="48.01678" lon="6.98774">
        <ele>1227.8000488281</ele>
        <time>2022-10-30T14:30:17.000Z</time>
      </trkpt>
      <trkpt lat="48.01677" lon="6.98773">
        <ele>1227.8000488281</ele>
        <time>2022-10-30T14:30:18.000Z</time>
      </trkpt>
      <trkpt lat="48.01675" lon="6.9877">
        <ele>1227.4000244141</ele>
        <time>2022-10-30T14:30:20.000Z</time>
      </trkpt>
      <trkpt lat="48.01672" lon="6.98765">
        <ele>1226.5999755859</ele>
        <time>2022-10-30T14:30:24.000Z</time>
      </trkpt>
      <trkpt lat="48.01666" lon="6.98754">
        <ele>1226.1999511719</ele>
        <time>2022-10-30T14:30:31.000Z</time>
      </trkpt>
      <trkpt lat="48.0166" lon="6.98745">
        <ele>1225.4000244141</ele>
        <time>2022-10-30T14:30:40.000Z</time>
      </trkpt>
      <trkpt lat="48.01658" lon="6.98743">
        <ele>1225</ele>
        <time>2022-10-30T14:30:42.000Z</time>
      </trkpt>
      <trkpt lat="48.01656" lon="6.98736">
        <ele>1224.1999511719</ele>
        <time>2022-10-30T14:30:46.000Z</time>
      </trkpt>
      <trkpt lat="48.01655" lon="6.98735">
        <ele>1224.1999511719</ele>
        <time>2022-10-30T14:30:47.000Z</time>
      </trkpt>
      <trkpt lat="48.01653" lon="6.98727">
        <ele>1223.8000488281</ele>
        <time>2022-10-30T14:30:53.000Z</time>
      </trkpt>
      <trkpt lat="48.0165" lon="6.98723">
        <ele>1223.1999511719</ele>
        <time>2022-10-30T14:30:57.000Z</time>
      </trkpt>
      <trkpt lat="48.01646" lon="6.98719">
        <ele>1222.1999511719</ele>
        <time>2022-10-30T14:31:01.000Z</time>
      </trkpt>
      <trkpt lat="48.01646" lon="6.98717">
        <ele>1222</ele>
        <time>2022-10-30T14:31:02.000Z</time>
      </trkpt>
      <trkpt lat="48.01638" lon="6.98704">
        <ele>1221</ele>
        <time>2022-10-30T14:31:12.000Z</time>
      </trkpt>
      <trkpt lat="48.01637" lon="6.98702">
        <ele>1221</ele>
        <time>2022-10-30T14:31:13.000Z</time>
      </trkpt>
      <trkpt lat="48.01631" lon="6.98692">
        <ele>1220.5999755859</ele>
        <time>2022-10-30T14:31:21.000Z</time>
      </trkpt>
      <trkpt lat="48.01629" lon="6.98692">
        <ele>1220.5999755859</ele>
        <time>2022-10-30T14:31:22.000Z</time>
      </trkpt>
      <trkpt lat="48.01622" lon="6.9868">
        <ele>1220.1999511719</ele>
        <time>2022-10-30T14:31:30.000Z</time>
      </trkpt>
      <trkpt lat="48.01618" lon="6.98673">
        <ele>1220</ele>
        <time>2022-10-30T14:31:35.000Z</time>
      </trkpt>
      <trkpt lat="48.01616" lon="6.98671">
        <ele>1219.5999755859</ele>
        <time>2022-10-30T14:31:38.000Z</time>
      </trkpt>
      <trkpt lat="48.01611" lon="6.98661">
        <ele>1219</ele>
        <time>2022-10-30T14:31:45.000Z</time>
      </trkpt>
      <trkpt lat="48.01611" lon="6.9866">
        <ele>1219</ele>
        <time>2022-10-30T14:31:46.000Z</time>
      </trkpt>
      <trkpt lat="48.01611" lon="6.98656">
        <ele>1218.8000488281</ele>
        <time>2022-10-30T14:31:48.000Z</time>
      </trkpt>
      <trkpt lat="48.0161" lon="6.98653">
        <ele>1218</ele>
        <time>2022-10-30T14:31:52.000Z</time>
      </trkpt>
      <trkpt lat="48.0161" lon="6.98651">
        <ele>1217.8000488281</ele>
        <time>2022-10-30T14:31:53.000Z</time>
      </trkpt>
      <trkpt lat="48.01608" lon="6.98643">
        <ele>1217.1999511719</ele>
        <time>2022-10-30T14:31:58.000Z</time>
      </trkpt>
      <trkpt lat="48.01606" lon="6.98635">
        <ele>1217</ele>
        <time>2022-10-30T14:32:04.000Z</time>
      </trkpt>
      <trkpt lat="48.01605" lon="6.98634">
        <ele>1217</ele>
        <time>2022-10-30T14:32:05.000Z</time>
      </trkpt>
      <trkpt lat="48.01604" lon="6.98632">
        <ele>1216.8000488281</ele>
        <time>2022-10-30T14:32:07.000Z</time>
      </trkpt>
      <trkpt lat="48.01602" lon="6.9863">
        <ele>1216.8000488281</ele>
        <time>2022-10-30T14:32:10.000Z</time>
      </trkpt>
      <trkpt lat="48.01601" lon="6.98629">
        <ele>1216.8000488281</ele>
        <time>2022-10-30T14:32:11.000Z</time>
      </trkpt>
      <trkpt lat="48.01599" lon="6.98625">
        <ele>1215.5999755859</ele>
        <time>2022-10-30T14:32:16.000Z</time>
      </trkpt>
      <trkpt lat="48.01598" lon="6.98624">
        <ele>1215.4000244141</ele>
        <time>2022-10-30T14:32:17.000Z</time>
      </trkpt>
      <trkpt lat="48.01595" lon="6.9862">
        <ele>1214.8000488281</ele>
        <time>2022-10-30T14:32:20.000Z</time>
      </trkpt>
      <trkpt lat="48.01593" lon="6.98618">
        <ele>1214.5999755859</ele>
        <time>2022-10-30T14:32:22.000Z</time>
      </trkpt>
      <trkpt lat="48.01592" lon="6.98617">
        <ele>1214.5999755859</ele>
        <time>2022-10-30T14:32:23.000Z</time>
      </trkpt>
      <trkpt lat="48.01589" lon="6.98613">
        <ele>1214.5999755859</ele>
        <time>2022-10-30T14:32:27.000Z</time>
      </trkpt>
      <trkpt lat="48.01588" lon="6.98612">
        <ele>1214.4000244141</ele>
        <time>2022-10-30T14:32:29.000Z</time>
      </trkpt>
      <trkpt lat="48.01587" lon="6.98611">
        <ele>1214.1999511719</ele>
        <time>2022-10-30T14:32:30.000Z</time>
      </trkpt>
      <trkpt lat="48.01583" lon="6.98607">
        <ele>1213.5999755859</ele>
        <time>2022-10-30T14:32:34.000Z</time>
      </trkpt>
      <trkpt lat="48.01578" lon="6.98602">
        <ele>1213</ele>
        <time>2022-10-30T14:32:38.000Z</time>
      </trkpt>
      <trkpt lat="48.01575" lon="6.98598">
        <ele>1212.4000244141</ele>
        <time>2022-10-30T14:32:41.000Z</time>
      </trkpt>
      <trkpt lat="48.0157" lon="6.98592">
        <ele>1212</ele>
        <time>2022-10-30T14:32:46.000Z</time>
      </trkpt>
      <trkpt lat="48.01569" lon="6.98591">
        <ele>1212</ele>
        <time>2022-10-30T14:32:47.000Z</time>
      </trkpt>
      <trkpt lat="48.01565" lon="6.98588">
        <ele>1211.4000244141</ele>
        <time>2022-10-30T14:32:51.000Z</time>
      </trkpt>
      <trkpt lat="48.01559" lon="6.98584">
        <ele>1210.1999511719</ele>
        <time>2022-10-30T14:32:57.000Z</time>
      </trkpt>
      <trkpt lat="48.01558" lon="6.98583">
        <ele>1210</ele>
        <time>2022-10-30T14:32:58.000Z</time>
      </trkpt>
      <trkpt lat="48.01554" lon="6.9858">
        <ele>1209.1999511719</ele>
        <time>2022-10-30T14:33:02.000Z</time>
      </trkpt>
      <trkpt lat="48.01546" lon="6.98575">
        <ele>1208.1999511719</ele>
        <time>2022-10-30T14:33:08.000Z</time>
      </trkpt>
      <trkpt lat="48.01543" lon="6.98573">
        <ele>1207.8000488281</ele>
        <time>2022-10-30T14:33:10.000Z</time>
      </trkpt>
      <trkpt lat="48.0154" lon="6.98572">
        <ele>1207</ele>
        <time>2022-10-30T14:33:12.000Z</time>
      </trkpt>
      <trkpt lat="48.01531" lon="6.98568">
        <ele>1206.4000244141</ele>
        <time>2022-10-30T14:33:19.000Z</time>
      </trkpt>
      <trkpt lat="48.0152" lon="6.98561">
        <ele>1207</ele>
        <time>2022-10-30T14:33:27.000Z</time>
      </trkpt>
      <trkpt lat="48.01507" lon="6.98559">
        <ele>1207</ele>
        <time>2022-10-30T14:33:37.000Z</time>
      </trkpt>
      <trkpt lat="48.01496" lon="6.98556">
        <ele>1207</ele>
        <time>2022-10-30T14:33:46.000Z</time>
      </trkpt>
      <trkpt lat="48.0149" lon="6.98544">
        <ele>1206.1999511719</ele>
        <time>2022-10-30T14:33:54.000Z</time>
      </trkpt>
      <trkpt lat="48.01489" lon="6.98541">
        <ele>1206</ele>
        <time>2022-10-30T14:33:56.000Z</time>
      </trkpt>
      <trkpt lat="48.01485" lon="6.98531">
        <ele>1205.5999755859</ele>
        <time>2022-10-30T14:34:02.000Z</time>
      </trkpt>
      <trkpt lat="48.01476" lon="6.98515">
        <ele>1205</ele>
        <time>2022-10-30T14:34:14.000Z</time>
      </trkpt>
      <trkpt lat="48.01474" lon="6.98511">
        <ele>1205</ele>
        <time>2022-10-30T14:34:17.000Z</time>
      </trkpt>
      <trkpt lat="48.01473" lon="6.9851">
        <ele>1204.8000488281</ele>
        <time>2022-10-30T14:34:18.000Z</time>
      </trkpt>
      <trkpt lat="48.01472" lon="6.98508">
        <ele>1204.8000488281</ele>
        <time>2022-10-30T14:34:20.000Z</time>
      </trkpt>
      <trkpt lat="48.01471" lon="6.98507">
        <ele>1204.5999755859</ele>
        <time>2022-10-30T14:34:21.000Z</time>
      </trkpt>
      <trkpt lat="48.01468" lon="6.985">
        <ele>1203.8000488281</ele>
        <time>2022-10-30T14:34:26.000Z</time>
      </trkpt>
      <trkpt lat="48.01467" lon="6.98497">
        <ele>1203.5999755859</ele>
        <time>2022-10-30T14:34:29.000Z</time>
      </trkpt>
      <trkpt lat="48.01465" lon="6.98487">
        <ele>1203.4000244141</ele>
        <time>2022-10-30T14:34:35.000Z</time>
      </trkpt>
      <trkpt lat="48.01453" lon="6.98471">
        <ele>1204</ele>
        <time>2022-10-30T14:34:47.000Z</time>
      </trkpt>
      <trkpt lat="48.01449" lon="6.98464">
        <ele>1204.1999511719</ele>
        <time>2022-10-30T14:34:53.000Z</time>
      </trkpt>
      <trkpt lat="48.0145" lon="6.98462">
        <ele>1204</ele>
        <time>2022-10-30T14:34:55.000Z</time>
      </trkpt>
      <trkpt lat="48.01453" lon="6.98462">
        <ele>1202.8000488281</ele>
        <time>2022-10-30T14:35:00.000Z</time>
      </trkpt>
      <trkpt lat="48.01456" lon="6.98457">
        <ele>1201.8000488281</ele>
        <time>2022-10-30T14:35:07.000Z</time>
      </trkpt>
      <trkpt lat="48.01456" lon="6.98457">
        <ele>1201.4000244141</ele>
        <time>2022-10-30T14:35:08.000Z</time>
      </trkpt>
      <trkpt lat="48.01457" lon="6.98457">
        <ele>1201.1999511719</ele>
        <time>2022-10-30T14:35:09.000Z</time>
      </trkpt>
      <trkpt lat="48.01459" lon="6.98454">
        <ele>1200.1999511719</ele>
        <time>2022-10-30T14:35:13.000Z</time>
      </trkpt>
      <trkpt lat="48.01459" lon="6.98453">
        <ele>1199.5999755859</ele>
        <time>2022-10-30T14:35:16.000Z</time>
      </trkpt>
      <trkpt lat="48.01456" lon="6.9845">
        <ele>1199</ele>
        <time>2022-10-30T14:35:22.000Z</time>
      </trkpt>
      <trkpt lat="48.01456" lon="6.98448">
        <ele>1198.4000244141</ele>
        <time>2022-10-30T14:35:25.000Z</time>
      </trkpt>
      <trkpt lat="48.01456" lon="6.98448">
        <ele>1198</ele>
        <time>2022-10-30T14:35:27.000Z</time>
      </trkpt>
      <trkpt lat="48.01455" lon="6.98443">
        <ele>1197.4000244141</ele>
        <time>2022-10-30T14:35:33.000Z</time>
      </trkpt>
      <trkpt lat="48.01455" lon="6.98442">
        <ele>1196.8000488281</ele>
        <time>2022-10-30T14:35:34.000Z</time>
      </trkpt>
      <trkpt lat="48.01454" lon="6.98438">
        <ele>1195.5999755859</ele>
        <time>2022-10-30T14:35:39.000Z</time>
      </trkpt>
      <trkpt lat="48.01452" lon="6.98434">
        <ele>1194.8000488281</ele>
        <time>2022-10-30T14:35:42.000Z</time>
      </trkpt>
      <trkpt lat="48.01452" lon="6.98434">
        <ele>1194.5999755859</ele>
        <time>2022-10-30T14:35:43.000Z</time>
      </trkpt>
      <trkpt lat="48.01451" lon="6.9843">
        <ele>1193.8000488281</ele>
        <time>2022-10-30T14:35:48.000Z</time>
      </trkpt>
      <trkpt lat="48.01451" lon="6.98427">
        <ele>1193.4000244141</ele>
        <time>2022-10-30T14:35:51.000Z</time>
      </trkpt>
      <trkpt lat="48.01451" lon="6.98426">
        <ele>1193.4000244141</ele>
        <time>2022-10-30T14:35:53.000Z</time>
      </trkpt>
      <trkpt lat="48.01454" lon="6.98426">
        <ele>1193.4000244141</ele>
        <time>2022-10-30T14:36:01.000Z</time>
      </trkpt>
      <trkpt lat="48.01459" lon="6.98431">
        <ele>1194.8000488281</ele>
        <time>2022-10-30T14:36:12.000Z</time>
      </trkpt>
      <trkpt lat="48.01464" lon="6.98434">
        <ele>1195.4000244141</ele>
        <time>2022-10-30T14:36:19.000Z</time>
      </trkpt>
      <trkpt lat="48.01464" lon="6.98434">
        <ele>1195.4000244141</ele>
        <time>2022-10-30T14:36:20.000Z</time>
      </trkpt>
      <trkpt lat="48.01464" lon="6.98434">
        <ele>1195.4000244141</ele>
        <time>2022-10-30T14:36:21.000Z</time>
      </trkpt>
      <trkpt lat="48.01466" lon="6.98435">
        <ele>1195.1999511719</ele>
        <time>2022-10-30T14:36:24.000Z</time>
      </trkpt>
      <trkpt lat="48.01469" lon="6.98433">
        <ele>1194.5999755859</ele>
        <time>2022-10-30T14:36:29.000Z</time>
      </trkpt>
      <trkpt lat="48.0147" lon="6.98436">
        <ele>1194.4000244141</ele>
        <time>2022-10-30T14:36:36.000Z</time>
      </trkpt>
      <trkpt lat="48.01471" lon="6.98438">
        <ele>1194.4000244141</ele>
        <time>2022-10-30T14:36:41.000Z</time>
      </trkpt>
      <trkpt lat="48.01472" lon="6.98437">
        <ele>1194.1999511719</ele>
        <time>2022-10-30T14:36:43.000Z</time>
      </trkpt>
      <trkpt lat="48.01472" lon="6.98437">
        <ele>1193.5999755859</ele>
        <time>2022-10-30T14:36:45.000Z</time>
      </trkpt>
      <trkpt lat="48.01475" lon="6.98436">
        <ele>1193</ele>
        <time>2022-10-30T14:36:50.000Z</time>
      </trkpt>
      <trkpt lat="48.01477" lon="6.98435">
        <ele>1192.5999755859</ele>
        <time>2022-10-30T14:36:52.000Z</time>
      </trkpt>
      <trkpt lat="48.01479" lon="6.98435">
        <ele>1191.8000488281</ele>
        <time>2022-10-30T14:36:56.000Z</time>
      </trkpt>
      <trkpt lat="48.01481" lon="6.98436">
        <ele>1191.5999755859</ele>
        <time>2022-10-30T14:36:58.000Z</time>
      </trkpt>
      <trkpt lat="48.01486" lon="6.98436">
        <ele>1190.8000488281</ele>
        <time>2022-10-30T14:37:03.000Z</time>
      </trkpt>
      <trkpt lat="48.01488" lon="6.98435">
        <ele>1190.4000244141</ele>
        <time>2022-10-30T14:37:05.000Z</time>
      </trkpt>
      <trkpt lat="48.01493" lon="6.98434">
        <ele>1190.1999511719</ele>
        <time>2022-10-30T14:37:10.000Z</time>
      </trkpt>
      <trkpt lat="48.01494" lon="6.98433">
        <ele>1190.1999511719</ele>
        <time>2022-10-30T14:37:12.000Z</time>
      </trkpt>
      <trkpt lat="48.01497" lon="6.98434">
        <ele>1189.1999511719</ele>
        <time>2022-10-30T14:37:16.000Z</time>
      </trkpt>
      <trkpt lat="48.01505" lon="6.98437">
        <ele>1188.1999511719</ele>
        <time>2022-10-30T14:37:23.000Z</time>
      </trkpt>
      <trkpt lat="48.01506" lon="6.98437">
        <ele>1188.1999511719</ele>
        <time>2022-10-30T14:37:24.000Z</time>
      </trkpt>
      <trkpt lat="48.01513" lon="6.98437">
        <ele>1187.8000488281</ele>
        <time>2022-10-30T14:37:31.000Z</time>
      </trkpt>
      <trkpt lat="48.01515" lon="6.98439">
        <ele>1187.1999511719</ele>
        <time>2022-10-30T14:37:35.000Z</time>
      </trkpt>
      <trkpt lat="48.01516" lon="6.9844">
        <ele>1187.1999511719</ele>
        <time>2022-10-30T14:37:36.000Z</time>
      </trkpt>
      <trkpt lat="48.01519" lon="6.9844">
        <ele>1186.8000488281</ele>
        <time>2022-10-30T14:37:38.000Z</time>
      </trkpt>
      <trkpt lat="48.0152" lon="6.98441">
        <ele>1186.8000488281</ele>
        <time>2022-10-30T14:37:39.000Z</time>
      </trkpt>
      <trkpt lat="48.01524" lon="6.98443">
        <ele>1186</ele>
        <time>2022-10-30T14:37:42.000Z</time>
      </trkpt>
      <trkpt lat="48.01526" lon="6.98443">
        <ele>1185.5999755859</ele>
        <time>2022-10-30T14:37:46.000Z</time>
      </trkpt>
      <trkpt lat="48.01529" lon="6.98447">
        <ele>1185.5999755859</ele>
        <time>2022-10-30T14:37:52.000Z</time>
      </trkpt>
      <trkpt lat="48.01532" lon="6.98449">
        <ele>1185.5999755859</ele>
        <time>2022-10-30T14:37:55.000Z</time>
      </trkpt>
      <trkpt lat="48.01536" lon="6.9845">
        <ele>1185.5999755859</ele>
        <time>2022-10-30T14:37:59.000Z</time>
      </trkpt>
      <trkpt lat="48.01543" lon="6.9845">
        <ele>1185</ele>
        <time>2022-10-30T14:38:05.000Z</time>
      </trkpt>
      <trkpt lat="48.01548" lon="6.9845">
        <ele>1184</ele>
        <time>2022-10-30T14:38:09.000Z</time>
      </trkpt>
      <trkpt lat="48.0155" lon="6.9845">
        <ele>1183.4000244141</ele>
        <time>2022-10-30T14:38:11.000Z</time>
      </trkpt>
      <trkpt lat="48.01551" lon="6.9845">
        <ele>1183.1999511719</ele>
        <time>2022-10-30T14:38:12.000Z</time>
      </trkpt>
      <trkpt lat="48.01556" lon="6.9845">
        <ele>1182.8000488281</ele>
        <time>2022-10-30T14:38:16.000Z</time>
      </trkpt>
      <trkpt lat="48.01561" lon="6.98453">
        <ele>1181.8000488281</ele>
        <time>2022-10-30T14:38:20.000Z</time>
      </trkpt>
      <trkpt lat="48.01567" lon="6.98454">
        <ele>1181.8000488281</ele>
        <time>2022-10-30T14:38:25.000Z</time>
      </trkpt>
      <trkpt lat="48.01578" lon="6.98456">
        <ele>1182</ele>
        <time>2022-10-30T14:38:34.000Z</time>
      </trkpt>
      <trkpt lat="48.01581" lon="6.98458">
        <ele>1182</ele>
        <time>2022-10-30T14:38:38.000Z</time>
      </trkpt>
      <trkpt lat="48.01587" lon="6.9846">
        <ele>1181.8000488281</ele>
        <time>2022-10-30T14:38:43.000Z</time>
      </trkpt>
      <trkpt lat="48.01593" lon="6.98461">
        <ele>1181.4000244141</ele>
        <time>2022-10-30T14:38:47.000Z</time>
      </trkpt>
      <trkpt lat="48.01598" lon="6.98462">
        <ele>1181.1999511719</ele>
        <time>2022-10-30T14:38:51.000Z</time>
      </trkpt>
      <trkpt lat="48.01607" lon="6.98466">
        <ele>1181</ele>
        <time>2022-10-30T14:38:59.000Z</time>
      </trkpt>
      <trkpt lat="48.01613" lon="6.98467">
        <ele>1181</ele>
        <time>2022-10-30T14:39:04.000Z</time>
      </trkpt>
      <trkpt lat="48.01619" lon="6.98468">
        <ele>1180.8000488281</ele>
        <time>2022-10-30T14:39:09.000Z</time>
      </trkpt>
      <trkpt lat="48.01622" lon="6.9847">
        <ele>1180.5999755859</ele>
        <time>2022-10-30T14:39:12.000Z</time>
      </trkpt>
      <trkpt lat="48.01623" lon="6.98469">
        <ele>1180.5999755859</ele>
        <time>2022-10-30T14:39:13.000Z</time>
      </trkpt>
      <trkpt lat="48.01629" lon="6.98473">
        <ele>1181</ele>
        <time>2022-10-30T14:39:18.000Z</time>
      </trkpt>
      <trkpt lat="48.01633" lon="6.98474">
        <ele>1181.8000488281</ele>
        <time>2022-10-30T14:39:21.000Z</time>
      </trkpt>
      <trkpt lat="48.01638" lon="6.98476">
        <ele>1182.4000244141</ele>
        <time>2022-10-30T14:39:25.000Z</time>
      </trkpt>
      <trkpt lat="48.01639" lon="6.98477">
        <ele>1182.4000244141</ele>
        <time>2022-10-30T14:39:26.000Z</time>
      </trkpt>
      <trkpt lat="48.01643" lon="6.98479">
        <ele>1182.4000244141</ele>
        <time>2022-10-30T14:39:29.000Z</time>
      </trkpt>
      <trkpt lat="48.01648" lon="6.9848">
        <ele>1182.4000244141</ele>
        <time>2022-10-30T14:39:32.000Z</time>
      </trkpt>
      <trkpt lat="48.01649" lon="6.9848">
        <ele>1182.5999755859</ele>
        <time>2022-10-30T14:39:33.000Z</time>
      </trkpt>
      <trkpt lat="48.0165" lon="6.98481">
        <ele>1182.8000488281</ele>
        <time>2022-10-30T14:39:35.000Z</time>
      </trkpt>
      <trkpt lat="48.01651" lon="6.9848">
        <ele>1182.8000488281</ele>
        <time>2022-10-30T14:39:36.000Z</time>
      </trkpt>
      <trkpt lat="48.01652" lon="6.9848">
        <ele>1182.8000488281</ele>
        <time>2022-10-30T14:39:38.000Z</time>
      </trkpt>
      <trkpt lat="48.01657" lon="6.98482">
        <ele>1182.4000244141</ele>
        <time>2022-10-30T14:39:42.000Z</time>
      </trkpt>
      <trkpt lat="48.0166" lon="6.98482">
        <ele>1182.4000244141</ele>
        <time>2022-10-30T14:39:45.000Z</time>
      </trkpt>
      <trkpt lat="48.01664" lon="6.9848">
        <ele>1183</ele>
        <time>2022-10-30T14:39:50.000Z</time>
      </trkpt>
      <trkpt lat="48.01667" lon="6.98481">
        <ele>1183.8000488281</ele>
        <time>2022-10-30T14:39:55.000Z</time>
      </trkpt>
      <trkpt lat="48.0167" lon="6.98482">
        <ele>1184</ele>
        <time>2022-10-30T14:39:58.000Z</time>
      </trkpt>
      <trkpt lat="48.0168" lon="6.98484">
        <ele>1185.1999511719</ele>
        <time>2022-10-30T14:40:05.000Z</time>
      </trkpt>
      <trkpt lat="48.01682" lon="6.98485">
        <ele>1185.4000244141</ele>
        <time>2022-10-30T14:40:06.000Z</time>
      </trkpt>
      <trkpt lat="48.01689" lon="6.98486">
        <ele>1186.1999511719</ele>
        <time>2022-10-30T14:40:10.000Z</time>
      </trkpt>
      <trkpt lat="48.01698" lon="6.98488">
        <ele>1187</ele>
        <time>2022-10-30T14:40:14.000Z</time>
      </trkpt>
      <trkpt lat="48.01704" lon="6.9849">
        <ele>1187.4000244141</ele>
        <time>2022-10-30T14:40:21.000Z</time>
      </trkpt>
      <trkpt lat="48.01705" lon="6.9849">
        <ele>1187.4000244141</ele>
        <time>2022-10-30T14:40:22.000Z</time>
      </trkpt>
      <trkpt lat="48.01711" lon="6.98491">
        <ele>1187.8000488281</ele>
        <time>2022-10-30T14:40:29.000Z</time>
      </trkpt>
      <trkpt lat="48.01715" lon="6.9849">
        <ele>1188.1999511719</ele>
        <time>2022-10-30T14:40:35.000Z</time>
      </trkpt>
      <trkpt lat="48.0172" lon="6.9849">
        <ele>1188.4000244141</ele>
        <time>2022-10-30T14:40:40.000Z</time>
      </trkpt>
      <trkpt lat="48.01727" lon="6.98492">
        <ele>1189</ele>
        <time>2022-10-30T14:40:46.000Z</time>
      </trkpt>
      <trkpt lat="48.01737" lon="6.98495">
        <ele>1188.1999511719</ele>
        <time>2022-10-30T14:40:55.000Z</time>
      </trkpt>
      <trkpt lat="48.01742" lon="6.98496">
        <ele>1187.4000244141</ele>
        <time>2022-10-30T14:41:00.000Z</time>
      </trkpt>
      <trkpt lat="48.01743" lon="6.98496">
        <ele>1187</ele>
        <time>2022-10-30T14:41:02.000Z</time>
      </trkpt>
      <trkpt lat="48.0175" lon="6.98491">
        <ele>1186.4000244141</ele>
        <time>2022-10-30T14:41:09.000Z</time>
      </trkpt>
      <trkpt lat="48.01752" lon="6.98491">
        <ele>1186.4000244141</ele>
        <time>2022-10-30T14:41:10.000Z</time>
      </trkpt>
      <trkpt lat="48.0176" lon="6.98491">
        <ele>1187.4000244141</ele>
        <time>2022-10-30T14:41:16.000Z</time>
      </trkpt>
      <trkpt lat="48.01761" lon="6.9849">
        <ele>1187.5999755859</ele>
        <time>2022-10-30T14:41:17.000Z</time>
      </trkpt>
      <trkpt lat="48.01765" lon="6.98491">
        <ele>1187.8000488281</ele>
        <time>2022-10-30T14:41:20.000Z</time>
      </trkpt>
      <trkpt lat="48.01768" lon="6.98495">
        <ele>1188.5999755859</ele>
        <time>2022-10-30T14:41:24.000Z</time>
      </trkpt>
      <trkpt lat="48.0177" lon="6.98497">
        <ele>1189.4000244141</ele>
        <time>2022-10-30T14:41:30.000Z</time>
      </trkpt>
      <trkpt lat="48.01773" lon="6.985">
        <ele>1189.5999755859</ele>
        <time>2022-10-30T14:41:33.000Z</time>
      </trkpt>
      <trkpt lat="48.01776" lon="6.985">
        <ele>1189.8000488281</ele>
        <time>2022-10-30T14:41:35.000Z</time>
      </trkpt>
      <trkpt lat="48.01783" lon="6.98505">
        <ele>1189.8000488281</ele>
        <time>2022-10-30T14:41:42.000Z</time>
      </trkpt>
      <trkpt lat="48.01786" lon="6.98505">
        <ele>1189.8000488281</ele>
        <time>2022-10-30T14:41:44.000Z</time>
      </trkpt>
      <trkpt lat="48.01792" lon="6.98507">
        <ele>1189.5999755859</ele>
        <time>2022-10-30T14:41:47.000Z</time>
      </trkpt>
      <trkpt lat="48.01793" lon="6.98507">
        <ele>1189.5999755859</ele>
        <time>2022-10-30T14:41:48.000Z</time>
      </trkpt>
      <trkpt lat="48.01795" lon="6.98507">
        <ele>1189.5999755859</ele>
        <time>2022-10-30T14:41:49.000Z</time>
      </trkpt>
      <trkpt lat="48.01801" lon="6.98506">
        <ele>1189.8000488281</ele>
        <time>2022-10-30T14:41:57.000Z</time>
      </trkpt>
      <trkpt lat="48.01811" lon="6.98508">
        <ele>1188.8000488281</ele>
        <time>2022-10-30T14:42:05.000Z</time>
      </trkpt>
      <trkpt lat="48.01818" lon="6.9851">
        <ele>1189</ele>
        <time>2022-10-30T14:42:10.000Z</time>
      </trkpt>
      <trkpt lat="48.01821" lon="6.98511">
        <ele>1189</ele>
        <time>2022-10-30T14:42:13.000Z</time>
      </trkpt>
      <trkpt lat="48.01825" lon="6.98512">
        <ele>1188.5999755859</ele>
        <time>2022-10-30T14:42:16.000Z</time>
      </trkpt>
      <trkpt lat="48.01828" lon="6.98511">
        <ele>1188.1999511719</ele>
        <time>2022-10-30T14:42:20.000Z</time>
      </trkpt>
      <trkpt lat="48.01834" lon="6.98515">
        <ele>1187.8000488281</ele>
        <time>2022-10-30T14:42:27.000Z</time>
      </trkpt>
      <trkpt lat="48.01841" lon="6.98515">
        <ele>1187.8000488281</ele>
        <time>2022-10-30T14:42:34.000Z</time>
      </trkpt>
      <trkpt lat="48.01845" lon="6.98515">
        <ele>1187.5999755859</ele>
        <time>2022-10-30T14:42:37.000Z</time>
      </trkpt>
      <trkpt lat="48.0185" lon="6.98517">
        <ele>1187.1999511719</ele>
        <time>2022-10-30T14:42:41.000Z</time>
      </trkpt>
      <trkpt lat="48.01851" lon="6.98517">
        <ele>1186.5999755859</ele>
        <time>2022-10-30T14:42:44.000Z</time>
      </trkpt>
      <trkpt lat="48.01854" lon="6.98515">
        <ele>1185.8000488281</ele>
        <time>2022-10-30T14:42:47.000Z</time>
      </trkpt>
      <trkpt lat="48.01857" lon="6.98515">
        <ele>1185.5999755859</ele>
        <time>2022-10-30T14:42:49.000Z</time>
      </trkpt>
      <trkpt lat="48.01859" lon="6.98516">
        <ele>1185.4000244141</ele>
        <time>2022-10-30T14:42:51.000Z</time>
      </trkpt>
      <trkpt lat="48.01865" lon="6.98521">
        <ele>1186</ele>
        <time>2022-10-30T14:42:56.000Z</time>
      </trkpt>
      <trkpt lat="48.01866" lon="6.98523">
        <ele>1186.1999511719</ele>
        <time>2022-10-30T14:42:57.000Z</time>
      </trkpt>
      <trkpt lat="48.01867" lon="6.98524">
        <ele>1186.4000244141</ele>
        <time>2022-10-30T14:42:58.000Z</time>
      </trkpt>
      <trkpt lat="48.01868" lon="6.98526">
        <ele>1186.5999755859</ele>
        <time>2022-10-30T14:42:59.000Z</time>
      </trkpt>
      <trkpt lat="48.01869" lon="6.98529">
        <ele>1187.4000244141</ele>
        <time>2022-10-30T14:43:02.000Z</time>
      </trkpt>
      <trkpt lat="48.0187" lon="6.98529">
        <ele>1187.5999755859</ele>
        <time>2022-10-30T14:43:03.000Z</time>
      </trkpt>
      <trkpt lat="48.01873" lon="6.98532">
        <ele>1188.1999511719</ele>
        <time>2022-10-30T14:43:07.000Z</time>
      </trkpt>
      <trkpt lat="48.01874" lon="6.98533">
        <ele>1188.1999511719</ele>
        <time>2022-10-30T14:43:08.000Z</time>
      </trkpt>
      <trkpt lat="48.01879" lon="6.98537">
        <ele>1188.1999511719</ele>
        <time>2022-10-30T14:43:12.000Z</time>
      </trkpt>
      <trkpt lat="48.01884" lon="6.98535">
        <ele>1187.4000244141</ele>
        <time>2022-10-30T14:43:16.000Z</time>
      </trkpt>
      <trkpt lat="48.01885" lon="6.98535">
        <ele>1187.1999511719</ele>
        <time>2022-10-30T14:43:17.000Z</time>
      </trkpt>
      <trkpt lat="48.01885" lon="6.98535">
        <ele>1187</ele>
        <time>2022-10-30T14:43:18.000Z</time>
      </trkpt>
      <trkpt lat="48.01888" lon="6.98534">
        <ele>1186.5999755859</ele>
        <time>2022-10-30T14:43:20.000Z</time>
      </trkpt>
      <trkpt lat="48.01891" lon="6.98534">
        <ele>1185.5999755859</ele>
        <time>2022-10-30T14:43:22.000Z</time>
      </trkpt>
      <trkpt lat="48.01894" lon="6.98533">
        <ele>1184.5999755859</ele>
        <time>2022-10-30T14:43:25.000Z</time>
      </trkpt>
      <trkpt lat="48.01895" lon="6.98531">
        <ele>1183.4000244141</ele>
        <time>2022-10-30T14:43:28.000Z</time>
      </trkpt>
      <trkpt lat="48.01901" lon="6.98528">
        <ele>1183.5999755859</ele>
        <time>2022-10-30T14:43:33.000Z</time>
      </trkpt>
      <trkpt lat="48.01904" lon="6.98527">
        <ele>1183</ele>
        <time>2022-10-30T14:43:39.000Z</time>
      </trkpt>
      <trkpt lat="48.01904" lon="6.98525">
        <ele>1182.8000488281</ele>
        <time>2022-10-30T14:43:40.000Z</time>
      </trkpt>
      <trkpt lat="48.01906" lon="6.98523">
        <ele>1182.1999511719</ele>
        <time>2022-10-30T14:43:43.000Z</time>
      </trkpt>
      <trkpt lat="48.01909" lon="6.9852">
        <ele>1181.8000488281</ele>
        <time>2022-10-30T14:43:46.000Z</time>
      </trkpt>
      <trkpt lat="48.01911" lon="6.98518">
        <ele>1181</ele>
        <time>2022-10-30T14:43:48.000Z</time>
      </trkpt>
      <trkpt lat="48.01915" lon="6.98514">
        <ele>1180.1999511719</ele>
        <time>2022-10-30T14:43:52.000Z</time>
      </trkpt>
      <trkpt lat="48.01917" lon="6.98513">
        <ele>1179.5999755859</ele>
        <time>2022-10-30T14:43:54.000Z</time>
      </trkpt>
      <trkpt lat="48.01919" lon="6.98512">
        <ele>1178.8000488281</ele>
        <time>2022-10-30T14:43:56.000Z</time>
      </trkpt>
      <trkpt lat="48.01919" lon="6.98512">
        <ele>1178.5999755859</ele>
        <time>2022-10-30T14:43:57.000Z</time>
      </trkpt>
      <trkpt lat="48.01921" lon="6.9851">
        <ele>1178.1999511719</ele>
        <time>2022-10-30T14:43:59.000Z</time>
      </trkpt>
      <trkpt lat="48.01926" lon="6.98505">
        <ele>1177.4000244141</ele>
        <time>2022-10-30T14:44:05.000Z</time>
      </trkpt>
      <trkpt lat="48.01928" lon="6.98502">
        <ele>1177.1999511719</ele>
        <time>2022-10-30T14:44:08.000Z</time>
      </trkpt>
      <trkpt lat="48.01932" lon="6.98501">
        <ele>1176.4000244141</ele>
        <time>2022-10-30T14:44:11.000Z</time>
      </trkpt>
      <trkpt lat="48.01933" lon="6.985">
        <ele>1176.1999511719</ele>
        <time>2022-10-30T14:44:12.000Z</time>
      </trkpt>
      <trkpt lat="48.01935" lon="6.98498">
        <ele>1175.4000244141</ele>
        <time>2022-10-30T14:44:15.000Z</time>
      </trkpt>
      <trkpt lat="48.01938" lon="6.98495">
        <ele>1174.4000244141</ele>
        <time>2022-10-30T14:44:19.000Z</time>
      </trkpt>
      <trkpt lat="48.01939" lon="6.98494">
        <ele>1174.4000244141</ele>
        <time>2022-10-30T14:44:20.000Z</time>
      </trkpt>
      <trkpt lat="48.0194" lon="6.98494">
        <ele>1174.1999511719</ele>
        <time>2022-10-30T14:44:21.000Z</time>
      </trkpt>
      <trkpt lat="48.01941" lon="6.98493">
        <ele>1174</ele>
        <time>2022-10-30T14:44:22.000Z</time>
      </trkpt>
      <trkpt lat="48.01944" lon="6.98492">
        <ele>1173.1999511719</ele>
        <time>2022-10-30T14:44:25.000Z</time>
      </trkpt>
      <trkpt lat="48.01945" lon="6.98492">
        <ele>1173</ele>
        <time>2022-10-30T14:44:26.000Z</time>
      </trkpt>
      <trkpt lat="48.01948" lon="6.98489">
        <ele>1172.1999511719</ele>
        <time>2022-10-30T14:44:31.000Z</time>
      </trkpt>
      <trkpt lat="48.01949" lon="6.98489">
        <ele>1171.8000488281</ele>
        <time>2022-10-30T14:44:32.000Z</time>
      </trkpt>
      <trkpt lat="48.01953" lon="6.98485">
        <ele>1171.1999511719</ele>
        <time>2022-10-30T14:44:36.000Z</time>
      </trkpt>
      <trkpt lat="48.01956" lon="6.98485">
        <ele>1170.5999755859</ele>
        <time>2022-10-30T14:44:39.000Z</time>
      </trkpt>
      <trkpt lat="48.01958" lon="6.98484">
        <ele>1170.1999511719</ele>
        <time>2022-10-30T14:44:41.000Z</time>
      </trkpt>
      <trkpt lat="48.01959" lon="6.98483">
        <ele>1169.8000488281</ele>
        <time>2022-10-30T14:44:42.000Z</time>
      </trkpt>
      <trkpt lat="48.01963" lon="6.98478">
        <ele>1168.5999755859</ele>
        <time>2022-10-30T14:44:47.000Z</time>
      </trkpt>
      <trkpt lat="48.01964" lon="6.98477">
        <ele>1168.5999755859</ele>
        <time>2022-10-30T14:44:48.000Z</time>
      </trkpt>
      <trkpt lat="48.01967" lon="6.98475">
        <ele>1167.8000488281</ele>
        <time>2022-10-30T14:44:51.000Z</time>
      </trkpt>
      <trkpt lat="48.01968" lon="6.98474">
        <ele>1167.8000488281</ele>
        <time>2022-10-30T14:44:52.000Z</time>
      </trkpt>
      <trkpt lat="48.01969" lon="6.98475">
        <ele>1167.5999755859</ele>
        <time>2022-10-30T14:44:53.000Z</time>
      </trkpt>
      <trkpt lat="48.01972" lon="6.98474">
        <ele>1167</ele>
        <time>2022-10-30T14:44:55.000Z</time>
      </trkpt>
      <trkpt lat="48.01974" lon="6.98473">
        <ele>1166.5999755859</ele>
        <time>2022-10-30T14:44:57.000Z</time>
      </trkpt>
      <trkpt lat="48.0198" lon="6.98473">
        <ele>1166</ele>
        <time>2022-10-30T14:45:01.000Z</time>
      </trkpt>
      <trkpt lat="48.01982" lon="6.98472">
        <ele>1165.4000244141</ele>
        <time>2022-10-30T14:45:04.000Z</time>
      </trkpt>
      <trkpt lat="48.01983" lon="6.98472">
        <ele>1165.1999511719</ele>
        <time>2022-10-30T14:45:05.000Z</time>
      </trkpt>
      <trkpt lat="48.01986" lon="6.98469">
        <ele>1164.8000488281</ele>
        <time>2022-10-30T14:45:08.000Z</time>
      </trkpt>
      <trkpt lat="48.01987" lon="6.98467">
        <ele>1164.4000244141</ele>
        <time>2022-10-30T14:45:10.000Z</time>
      </trkpt>
      <trkpt lat="48.01988" lon="6.98467">
        <ele>1164.1999511719</ele>
        <time>2022-10-30T14:45:11.000Z</time>
      </trkpt>
      <trkpt lat="48.01992" lon="6.98464">
        <ele>1163.1999511719</ele>
        <time>2022-10-30T14:45:16.000Z</time>
      </trkpt>
      <trkpt lat="48.01993" lon="6.98464">
        <ele>1163.1999511719</ele>
        <time>2022-10-30T14:45:17.000Z</time>
      </trkpt>
      <trkpt lat="48.01995" lon="6.98463">
        <ele>1163</ele>
        <time>2022-10-30T14:45:18.000Z</time>
      </trkpt>
      <trkpt lat="48.01997" lon="6.98461">
        <ele>1162.1999511719</ele>
        <time>2022-10-30T14:45:22.000Z</time>
      </trkpt>
      <trkpt lat="48.01999" lon="6.98462">
        <ele>1162</ele>
        <time>2022-10-30T14:45:24.000Z</time>
      </trkpt>
      <trkpt lat="48.02002" lon="6.98462">
        <ele>1161.1999511719</ele>
        <time>2022-10-30T14:45:27.000Z</time>
      </trkpt>
      <trkpt lat="48.02007" lon="6.98462">
        <ele>1160.5999755859</ele>
        <time>2022-10-30T14:45:31.000Z</time>
      </trkpt>
      <trkpt lat="48.02009" lon="6.98464">
        <ele>1160.1999511719</ele>
        <time>2022-10-30T14:45:33.000Z</time>
      </trkpt>
      <trkpt lat="48.0201" lon="6.98465">
        <ele>1160</ele>
        <time>2022-10-30T14:45:34.000Z</time>
      </trkpt>
      <trkpt lat="48.02016" lon="6.98468">
        <ele>1159.1999511719</ele>
        <time>2022-10-30T14:45:39.000Z</time>
      </trkpt>
      <trkpt lat="48.02018" lon="6.98466">
        <ele>1158.5999755859</ele>
        <time>2022-10-30T14:45:41.000Z</time>
      </trkpt>
      <trkpt lat="48.02022" lon="6.98467">
        <ele>1158.1999511719</ele>
        <time>2022-10-30T14:45:44.000Z</time>
      </trkpt>
      <trkpt lat="48.02023" lon="6.98466">
        <ele>1158</ele>
        <time>2022-10-30T14:45:45.000Z</time>
      </trkpt>
      <trkpt lat="48.02023" lon="6.98465">
        <ele>1158</ele>
        <time>2022-10-30T14:45:46.000Z</time>
      </trkpt>
      <trkpt lat="48.02028" lon="6.98465">
        <ele>1157.5999755859</ele>
        <time>2022-10-30T14:45:52.000Z</time>
      </trkpt>
      <trkpt lat="48.02029" lon="6.98465">
        <ele>1157.5999755859</ele>
        <time>2022-10-30T14:45:53.000Z</time>
      </trkpt>
      <trkpt lat="48.02029" lon="6.98466">
        <ele>1157.5999755859</ele>
        <time>2022-10-30T14:45:54.000Z</time>
      </trkpt>
      <trkpt lat="48.0203" lon="6.98467">
        <ele>1157.4000244141</ele>
        <time>2022-10-30T14:45:55.000Z</time>
      </trkpt>
      <trkpt lat="48.02035" lon="6.98469">
        <ele>1157.1999511719</ele>
        <time>2022-10-30T14:45:59.000Z</time>
      </trkpt>
      <trkpt lat="48.02035" lon="6.98469">
        <ele>1157</ele>
        <time>2022-10-30T14:46:00.000Z</time>
      </trkpt>
      <trkpt lat="48.02038" lon="6.98471">
        <ele>1156.5999755859</ele>
        <time>2022-10-30T14:46:04.000Z</time>
      </trkpt>
      <trkpt lat="48.02044" lon="6.98473">
        <ele>1156</ele>
        <time>2022-10-30T14:46:11.000Z</time>
      </trkpt>
      <trkpt lat="48.0205" lon="6.9848">
        <ele>1155</ele>
        <time>2022-10-30T14:46:16.000Z</time>
      </trkpt>
      <trkpt lat="48.02051" lon="6.98482">
        <ele>1154.8000488281</ele>
        <time>2022-10-30T14:46:17.000Z</time>
      </trkpt>
      <trkpt lat="48.02057" lon="6.98484">
        <ele>1153.8000488281</ele>
        <time>2022-10-30T14:46:24.000Z</time>
      </trkpt>
      <trkpt lat="48.02058" lon="6.98483">
        <ele>1153.5999755859</ele>
        <time>2022-10-30T14:46:25.000Z</time>
      </trkpt>
      <trkpt lat="48.02063" lon="6.98482">
        <ele>1153.4000244141</ele>
        <time>2022-10-30T14:46:30.000Z</time>
      </trkpt>
      <trkpt lat="48.02064" lon="6.98482">
        <ele>1153.4000244141</ele>
        <time>2022-10-30T14:46:31.000Z</time>
      </trkpt>
      <trkpt lat="48.02068" lon="6.9848">
        <ele>1152.5999755859</ele>
        <time>2022-10-30T14:46:34.000Z</time>
      </trkpt>
      <trkpt lat="48.02068" lon="6.9848">
        <ele>1152.1999511719</ele>
        <time>2022-10-30T14:46:35.000Z</time>
      </trkpt>
      <trkpt lat="48.02073" lon="6.98477">
        <ele>1151.4000244141</ele>
        <time>2022-10-30T14:46:40.000Z</time>
      </trkpt>
      <trkpt lat="48.02074" lon="6.98476">
        <ele>1151.1999511719</ele>
        <time>2022-10-30T14:46:42.000Z</time>
      </trkpt>
      <trkpt lat="48.02077" lon="6.98472">
        <ele>1151</ele>
        <time>2022-10-30T14:46:46.000Z</time>
      </trkpt>
      <trkpt lat="48.0208" lon="6.98471">
        <ele>1150.5999755859</ele>
        <time>2022-10-30T14:46:48.000Z</time>
      </trkpt>
      <trkpt lat="48.02081" lon="6.9847">
        <ele>1150.5999755859</ele>
        <time>2022-10-30T14:46:49.000Z</time>
      </trkpt>
      <trkpt lat="48.02085" lon="6.9847">
        <ele>1150.4000244141</ele>
        <time>2022-10-30T14:46:53.000Z</time>
      </trkpt>
      <trkpt lat="48.02094" lon="6.98471">
        <ele>1149.1999511719</ele>
        <time>2022-10-30T14:47:00.000Z</time>
      </trkpt>
      <trkpt lat="48.02096" lon="6.9847">
        <ele>1148.5999755859</ele>
        <time>2022-10-30T14:47:02.000Z</time>
      </trkpt>
      <trkpt lat="48.02098" lon="6.98469">
        <ele>1148.4000244141</ele>
        <time>2022-10-30T14:47:04.000Z</time>
      </trkpt>
      <trkpt lat="48.02101" lon="6.98469">
        <ele>1148.1999511719</ele>
        <time>2022-10-30T14:47:07.000Z</time>
      </trkpt>
      <trkpt lat="48.02102" lon="6.98469">
        <ele>1148.1999511719</ele>
        <time>2022-10-30T14:47:08.000Z</time>
      </trkpt>
      <trkpt lat="48.02106" lon="6.98467">
        <ele>1147.8000488281</ele>
        <time>2022-10-30T14:47:11.000Z</time>
      </trkpt>
      <trkpt lat="48.0211" lon="6.98464">
        <ele>1146.8000488281</ele>
        <time>2022-10-30T14:47:15.000Z</time>
      </trkpt>
      <trkpt lat="48.02115" lon="6.98462">
        <ele>1146</ele>
        <time>2022-10-30T14:47:19.000Z</time>
      </trkpt>
      <trkpt lat="48.02116" lon="6.98462">
        <ele>1145.8000488281</ele>
        <time>2022-10-30T14:47:20.000Z</time>
      </trkpt>
      <trkpt lat="48.02124" lon="6.98462">
        <ele>1144.5999755859</ele>
        <time>2022-10-30T14:47:27.000Z</time>
      </trkpt>
      <trkpt lat="48.02126" lon="6.98461">
        <ele>1144.4000244141</ele>
        <time>2022-10-30T14:47:28.000Z</time>
      </trkpt>
      <trkpt lat="48.02138" lon="6.9846">
        <ele>1144</ele>
        <time>2022-10-30T14:47:36.000Z</time>
      </trkpt>
      <trkpt lat="48.02142" lon="6.9846">
        <ele>1143.5999755859</ele>
        <time>2022-10-30T14:47:39.000Z</time>
      </trkpt>
      <trkpt lat="48.02144" lon="6.9846">
        <ele>1143.4000244141</ele>
        <time>2022-10-30T14:47:41.000Z</time>
      </trkpt>
      <trkpt lat="48.02146" lon="6.98459">
        <ele>1143</ele>
        <time>2022-10-30T14:47:44.000Z</time>
      </trkpt>
      <trkpt lat="48.02148" lon="6.98459">
        <ele>1142.4000244141</ele>
        <time>2022-10-30T14:47:46.000Z</time>
      </trkpt>
      <trkpt lat="48.02153" lon="6.98458">
        <ele>1142</ele>
        <time>2022-10-30T14:47:50.000Z</time>
      </trkpt>
      <trkpt lat="48.02156" lon="6.98458">
        <ele>1141.4000244141</ele>
        <time>2022-10-30T14:47:53.000Z</time>
      </trkpt>
      <trkpt lat="48.02162" lon="6.98459">
        <ele>1141</ele>
        <time>2022-10-30T14:47:57.000Z</time>
      </trkpt>
      <trkpt lat="48.02164" lon="6.9846">
        <ele>1140.8000488281</ele>
        <time>2022-10-30T14:47:59.000Z</time>
      </trkpt>
      <trkpt lat="48.02165" lon="6.98461">
        <ele>1140.4000244141</ele>
        <time>2022-10-30T14:48:01.000Z</time>
      </trkpt>
      <trkpt lat="48.02166" lon="6.98461">
        <ele>1140.1999511719</ele>
        <time>2022-10-30T14:48:02.000Z</time>
      </trkpt>
      <trkpt lat="48.02169" lon="6.98462">
        <ele>1139.8000488281</ele>
        <time>2022-10-30T14:48:04.000Z</time>
      </trkpt>
      <trkpt lat="48.02172" lon="6.98463">
        <ele>1139.5999755859</ele>
        <time>2022-10-30T14:48:07.000Z</time>
      </trkpt>
      <trkpt lat="48.02174" lon="6.98463">
        <ele>1139.1999511719</ele>
        <time>2022-10-30T14:48:09.000Z</time>
      </trkpt>
      <trkpt lat="48.02175" lon="6.98464">
        <ele>1138.8000488281</ele>
        <time>2022-10-30T14:48:11.000Z</time>
      </trkpt>
      <trkpt lat="48.0218" lon="6.98463">
        <ele>1138.4000244141</ele>
        <time>2022-10-30T14:48:16.000Z</time>
      </trkpt>
      <trkpt lat="48.02183" lon="6.98466">
        <ele>1138.1999511719</ele>
        <time>2022-10-30T14:48:19.000Z</time>
      </trkpt>
      <trkpt lat="48.02192" lon="6.98474">
        <ele>1137.1999511719</ele>
        <time>2022-10-30T14:48:26.000Z</time>
      </trkpt>
      <trkpt lat="48.02193" lon="6.98475">
        <ele>1137</ele>
        <time>2022-10-30T14:48:27.000Z</time>
      </trkpt>
      <trkpt lat="48.02202" lon="6.98478">
        <ele>1136</ele>
        <time>2022-10-30T14:48:35.000Z</time>
      </trkpt>
      <trkpt lat="48.02203" lon="6.98478">
        <ele>1135.8000488281</ele>
        <time>2022-10-30T14:48:36.000Z</time>
      </trkpt>
      <trkpt lat="48.02207" lon="6.98478">
        <ele>1135.1999511719</ele>
        <time>2022-10-30T14:48:43.000Z</time>
      </trkpt>
      <trkpt lat="48.02209" lon="6.98479">
        <ele>1135</ele>
        <time>2022-10-30T14:48:45.000Z</time>
      </trkpt>
      <trkpt lat="48.02214" lon="6.98479">
        <ele>1134.1999511719</ele>
        <time>2022-10-30T14:48:49.000Z</time>
      </trkpt>
      <trkpt lat="48.02214" lon="6.98479">
        <ele>1134</ele>
        <time>2022-10-30T14:48:50.000Z</time>
      </trkpt>
      <trkpt lat="48.02219" lon="6.98474">
        <ele>1133.4000244141</ele>
        <time>2022-10-30T14:48:54.000Z</time>
      </trkpt>
      <trkpt lat="48.02219" lon="6.98474">
        <ele>1133.4000244141</ele>
        <time>2022-10-30T14:48:55.000Z</time>
      </trkpt>
      <trkpt lat="48.02222" lon="6.98474">
        <ele>1132.8000488281</ele>
        <time>2022-10-30T14:48:59.000Z</time>
      </trkpt>
      <trkpt lat="48.02226" lon="6.98478">
        <ele>1132</ele>
        <time>2022-10-30T14:49:03.000Z</time>
      </trkpt>
      <trkpt lat="48.02228" lon="6.98477">
        <ele>1131.8000488281</ele>
        <time>2022-10-30T14:49:05.000Z</time>
      </trkpt>
      <trkpt lat="48.0223" lon="6.98476">
        <ele>1131.4000244141</ele>
        <time>2022-10-30T14:49:08.000Z</time>
      </trkpt>
      <trkpt lat="48.02237" lon="6.98482">
        <ele>1130.8000488281</ele>
        <time>2022-10-30T14:49:13.000Z</time>
      </trkpt>
      <trkpt lat="48.02238" lon="6.98483">
        <ele>1130.8000488281</ele>
        <time>2022-10-30T14:49:14.000Z</time>
      </trkpt>
      <trkpt lat="48.0224" lon="6.98484">
        <ele>1130</ele>
        <time>2022-10-30T14:49:18.000Z</time>
      </trkpt>
      <trkpt lat="48.02241" lon="6.98485">
        <ele>1130</ele>
        <time>2022-10-30T14:49:19.000Z</time>
      </trkpt>
      <trkpt lat="48.02243" lon="6.98487">
        <ele>1129.5999755859</ele>
        <time>2022-10-30T14:49:22.000Z</time>
      </trkpt>
      <trkpt lat="48.02246" lon="6.98491">
        <ele>1129.4000244141</ele>
        <time>2022-10-30T14:49:25.000Z</time>
      </trkpt>
      <trkpt lat="48.02259" lon="6.98491">
        <ele>1128.5999755859</ele>
        <time>2022-10-30T14:49:34.000Z</time>
      </trkpt>
      <trkpt lat="48.02264" lon="6.98494">
        <ele>1127.8000488281</ele>
        <time>2022-10-30T14:49:40.000Z</time>
      </trkpt>
      <trkpt lat="48.02265" lon="6.98495">
        <ele>1127.8000488281</ele>
        <time>2022-10-30T14:49:41.000Z</time>
      </trkpt>
      <trkpt lat="48.02266" lon="6.98496">
        <ele>1127.5999755859</ele>
        <time>2022-10-30T14:49:42.000Z</time>
      </trkpt>
      <trkpt lat="48.02269" lon="6.98498">
        <ele>1126.8000488281</ele>
        <time>2022-10-30T14:49:47.000Z</time>
      </trkpt>
      <trkpt lat="48.0227" lon="6.98499">
        <ele>1126.5999755859</ele>
        <time>2022-10-30T14:49:49.000Z</time>
      </trkpt>
      <trkpt lat="48.02272" lon="6.985">
        <ele>1126.4000244141</ele>
        <time>2022-10-30T14:49:51.000Z</time>
      </trkpt>
      <trkpt lat="48.0228" lon="6.98506">
        <ele>1125.5999755859</ele>
        <time>2022-10-30T14:49:59.000Z</time>
      </trkpt>
      <trkpt lat="48.02281" lon="6.98506">
        <ele>1125.4000244141</ele>
        <time>2022-10-30T14:50:00.000Z</time>
      </trkpt>
      <trkpt lat="48.02285" lon="6.98505">
        <ele>1125.1999511719</ele>
        <time>2022-10-30T14:50:03.000Z</time>
      </trkpt>
      <trkpt lat="48.02288" lon="6.98502">
        <ele>1125</ele>
        <time>2022-10-30T14:50:05.000Z</time>
      </trkpt>
      <trkpt lat="48.02292" lon="6.98503">
        <ele>1124.4000244141</ele>
        <time>2022-10-30T14:50:09.000Z</time>
      </trkpt>
      <trkpt lat="48.02294" lon="6.98504">
        <ele>1123.8000488281</ele>
        <time>2022-10-30T14:50:12.000Z</time>
      </trkpt>
      <trkpt lat="48.02298" lon="6.98506">
        <ele>1123.5999755859</ele>
        <time>2022-10-30T14:50:18.000Z</time>
      </trkpt>
      <trkpt lat="48.02302" lon="6.98507">
        <ele>1123.1999511719</ele>
        <time>2022-10-30T14:50:22.000Z</time>
      </trkpt>
      <trkpt lat="48.02308" lon="6.98505">
        <ele>1122.4000244141</ele>
        <time>2022-10-30T14:50:28.000Z</time>
      </trkpt>
      <trkpt lat="48.02308" lon="6.98505">
        <ele>1122.1999511719</ele>
        <time>2022-10-30T14:50:29.000Z</time>
      </trkpt>
      <trkpt lat="48.02313" lon="6.98506">
        <ele>1121.8000488281</ele>
        <time>2022-10-30T14:50:33.000Z</time>
      </trkpt>
      <trkpt lat="48.02318" lon="6.98504">
        <ele>1121</ele>
        <time>2022-10-30T14:50:38.000Z</time>
      </trkpt>
      <trkpt lat="48.02319" lon="6.98504">
        <ele>1121</ele>
        <time>2022-10-30T14:50:39.000Z</time>
      </trkpt>
      <trkpt lat="48.02324" lon="6.98502">
        <ele>1120.1999511719</ele>
        <time>2022-10-30T14:50:45.000Z</time>
      </trkpt>
      <trkpt lat="48.02327" lon="6.985">
        <ele>1120</ele>
        <time>2022-10-30T14:50:47.000Z</time>
      </trkpt>
      <trkpt lat="48.02332" lon="6.98504">
        <ele>1119.4000244141</ele>
        <time>2022-10-30T14:50:51.000Z</time>
      </trkpt>
      <trkpt lat="48.02334" lon="6.98506">
        <ele>1118.8000488281</ele>
        <time>2022-10-30T14:50:53.000Z</time>
      </trkpt>
      <trkpt lat="48.02337" lon="6.98505">
        <ele>1118.4000244141</ele>
        <time>2022-10-30T14:50:57.000Z</time>
      </trkpt>
      <trkpt lat="48.0234" lon="6.98504">
        <ele>1118.4000244141</ele>
        <time>2022-10-30T14:50:59.000Z</time>
      </trkpt>
      <trkpt lat="48.02347" lon="6.98508">
        <ele>1117.8000488281</ele>
        <time>2022-10-30T14:51:04.000Z</time>
      </trkpt>
      <trkpt lat="48.02351" lon="6.98507">
        <ele>1116.8000488281</ele>
        <time>2022-10-30T14:51:09.000Z</time>
      </trkpt>
      <trkpt lat="48.02352" lon="6.98506">
        <ele>1116.5999755859</ele>
        <time>2022-10-30T14:51:10.000Z</time>
      </trkpt>
      <trkpt lat="48.02355" lon="6.98506">
        <ele>1116.4000244141</ele>
        <time>2022-10-30T14:51:13.000Z</time>
      </trkpt>
      <trkpt lat="48.02358" lon="6.98508">
        <ele>1116.4000244141</ele>
        <time>2022-10-30T14:51:16.000Z</time>
      </trkpt>
      <trkpt lat="48.02362" lon="6.98507">
        <ele>1116.5999755859</ele>
        <time>2022-10-30T14:51:19.000Z</time>
      </trkpt>
      <trkpt lat="48.02364" lon="6.98506">
        <ele>1116.1999511719</ele>
        <time>2022-10-30T14:51:21.000Z</time>
      </trkpt>
      <trkpt lat="48.02365" lon="6.98505">
        <ele>1116</ele>
        <time>2022-10-30T14:51:22.000Z</time>
      </trkpt>
      <trkpt lat="48.02369" lon="6.98503">
        <ele>1115.5999755859</ele>
        <time>2022-10-30T14:51:25.000Z</time>
      </trkpt>
      <trkpt lat="48.0237" lon="6.98503">
        <ele>1115.5999755859</ele>
        <time>2022-10-30T14:51:26.000Z</time>
      </trkpt>
      <trkpt lat="48.02372" lon="6.98503">
        <ele>1115.1999511719</ele>
        <time>2022-10-30T14:51:28.000Z</time>
      </trkpt>
      <trkpt lat="48.02378" lon="6.98504">
        <ele>1114.5999755859</ele>
        <time>2022-10-30T14:51:33.000Z</time>
      </trkpt>
      <trkpt lat="48.0238" lon="6.98502">
        <ele>1114.4000244141</ele>
        <time>2022-10-30T14:51:35.000Z</time>
      </trkpt>
      <trkpt lat="48.02383" lon="6.98498">
        <ele>1114.1999511719</ele>
        <time>2022-10-30T14:51:39.000Z</time>
      </trkpt>
      <trkpt lat="48.02381" lon="6.98497">
        <ele>1114.1999511719</ele>
        <time>2022-10-30T14:51:41.000Z</time>
      </trkpt>
      <trkpt lat="48.02379" lon="6.98496">
        <ele>1114</ele>
        <time>2022-10-30T14:51:42.000Z</time>
      </trkpt>
      <trkpt lat="48.02377" lon="6.98494">
        <ele>1113.4000244141</ele>
        <time>2022-10-30T14:51:44.000Z</time>
      </trkpt>
      <trkpt lat="48.02374" lon="6.98492">
        <ele>1113.4000244141</ele>
        <time>2022-10-30T14:51:47.000Z</time>
      </trkpt>
      <trkpt lat="48.02362" lon="6.98491">
        <ele>1112.4000244141</ele>
        <time>2022-10-30T14:51:54.000Z</time>
      </trkpt>
      <trkpt lat="48.0236" lon="6.9849">
        <ele>1112</ele>
        <time>2022-10-30T14:51:56.000Z</time>
      </trkpt>
      <trkpt lat="48.02357" lon="6.98489">
        <ele>1111.8000488281</ele>
        <time>2022-10-30T14:51:58.000Z</time>
      </trkpt>
      <trkpt lat="48.02353" lon="6.98488">
        <ele>1111.5999755859</ele>
        <time>2022-10-30T14:52:01.000Z</time>
      </trkpt>
      <trkpt lat="48.02351" lon="6.98489">
        <ele>1111</ele>
        <time>2022-10-30T14:52:02.000Z</time>
      </trkpt>
      <trkpt lat="48.02347" lon="6.9849">
        <ele>1110</ele>
        <time>2022-10-30T14:52:05.000Z</time>
      </trkpt>
      <trkpt lat="48.02343" lon="6.98489">
        <ele>1109.5999755859</ele>
        <time>2022-10-30T14:52:08.000Z</time>
      </trkpt>
      <trkpt lat="48.02341" lon="6.98486">
        <ele>1109.4000244141</ele>
        <time>2022-10-30T14:52:11.000Z</time>
      </trkpt>
      <trkpt lat="48.02339" lon="6.98483">
        <ele>1109</ele>
        <time>2022-10-30T14:52:15.000Z</time>
      </trkpt>
      <trkpt lat="48.02337" lon="6.9848">
        <ele>1108.5999755859</ele>
        <time>2022-10-30T14:52:18.000Z</time>
      </trkpt>
      <trkpt lat="48.02332" lon="6.98477">
        <ele>1108</ele>
        <time>2022-10-30T14:52:22.000Z</time>
      </trkpt>
      <trkpt lat="48.02331" lon="6.98477">
        <ele>1107.8000488281</ele>
        <time>2022-10-30T14:52:23.000Z</time>
      </trkpt>
      <trkpt lat="48.02328" lon="6.98476">
        <ele>1107.1999511719</ele>
        <time>2022-10-30T14:52:25.000Z</time>
      </trkpt>
      <trkpt lat="48.02323" lon="6.98476">
        <ele>1107</ele>
        <time>2022-10-30T14:52:28.000Z</time>
      </trkpt>
      <trkpt lat="48.02317" lon="6.98476">
        <ele>1107</ele>
        <time>2022-10-30T14:52:31.000Z</time>
      </trkpt>
      <trkpt lat="48.02316" lon="6.98476">
        <ele>1106.8000488281</ele>
        <time>2022-10-30T14:52:32.000Z</time>
      </trkpt>
      <trkpt lat="48.0231" lon="6.98472">
        <ele>1105.8000488281</ele>
        <time>2022-10-30T14:52:37.000Z</time>
      </trkpt>
      <trkpt lat="48.02309" lon="6.98472">
        <ele>1105.8000488281</ele>
        <time>2022-10-30T14:52:38.000Z</time>
      </trkpt>
      <trkpt lat="48.02307" lon="6.9847">
        <ele>1105.8000488281</ele>
        <time>2022-10-30T14:52:39.000Z</time>
      </trkpt>
      <trkpt lat="48.02307" lon="6.98469">
        <ele>1105.5999755859</ele>
        <time>2022-10-30T14:52:40.000Z</time>
      </trkpt>
      <trkpt lat="48.02306" lon="6.98469">
        <ele>1105.5999755859</ele>
        <time>2022-10-30T14:52:43.000Z</time>
      </trkpt>
      <trkpt lat="48.02303" lon="6.98464">
        <ele>1105.1999511719</ele>
        <time>2022-10-30T14:52:47.000Z</time>
      </trkpt>
      <trkpt lat="48.02301" lon="6.9846">
        <ele>1104.8000488281</ele>
        <time>2022-10-30T14:52:50.000Z</time>
      </trkpt>
      <trkpt lat="48.02296" lon="6.98453">
        <ele>1104</ele>
        <time>2022-10-30T14:52:56.000Z</time>
      </trkpt>
      <trkpt lat="48.02295" lon="6.98452">
        <ele>1103.8000488281</ele>
        <time>2022-10-30T14:52:57.000Z</time>
      </trkpt>
      <trkpt lat="48.02294" lon="6.98451">
        <ele>1103.5999755859</ele>
        <time>2022-10-30T14:52:58.000Z</time>
      </trkpt>
      <trkpt lat="48.02291" lon="6.98442">
        <ele>1102.8000488281</ele>
        <time>2022-10-30T14:53:03.000Z</time>
      </trkpt>
      <trkpt lat="48.02289" lon="6.9844">
        <ele>1102.5999755859</ele>
        <time>2022-10-30T14:53:05.000Z</time>
      </trkpt>
      <trkpt lat="48.02287" lon="6.98436">
        <ele>1102.4000244141</ele>
        <time>2022-10-30T14:53:08.000Z</time>
      </trkpt>
      <trkpt lat="48.02285" lon="6.98431">
        <ele>1102</ele>
        <time>2022-10-30T14:53:11.000Z</time>
      </trkpt>
      <trkpt lat="48.02281" lon="6.98426">
        <ele>1101.5999755859</ele>
        <time>2022-10-30T14:53:15.000Z</time>
      </trkpt>
      <trkpt lat="48.02279" lon="6.98423">
        <ele>1101.4000244141</ele>
        <time>2022-10-30T14:53:17.000Z</time>
      </trkpt>
      <trkpt lat="48.02278" lon="6.98421">
        <ele>1101.1999511719</ele>
        <time>2022-10-30T14:53:18.000Z</time>
      </trkpt>
      <trkpt lat="48.02274" lon="6.98417">
        <ele>1100.4000244141</ele>
        <time>2022-10-30T14:53:22.000Z</time>
      </trkpt>
      <trkpt lat="48.02273" lon="6.98416">
        <ele>1100.1999511719</ele>
        <time>2022-10-30T14:53:23.000Z</time>
      </trkpt>
      <trkpt lat="48.02271" lon="6.98414">
        <ele>1100</ele>
        <time>2022-10-30T14:53:25.000Z</time>
      </trkpt>
      <trkpt lat="48.02268" lon="6.98413">
        <ele>1099.5999755859</ele>
        <time>2022-10-30T14:53:27.000Z</time>
      </trkpt>
      <trkpt lat="48.02267" lon="6.98413">
        <ele>1099.4000244141</ele>
        <time>2022-10-30T14:53:28.000Z</time>
      </trkpt>
      <trkpt lat="48.02267" lon="6.98412">
        <ele>1099.4000244141</ele>
        <time>2022-10-30T14:53:29.000Z</time>
      </trkpt>
      <trkpt lat="48.02265" lon="6.98405">
        <ele>1098.4000244141</ele>
        <time>2022-10-30T14:53:34.000Z</time>
      </trkpt>
      <trkpt lat="48.02264" lon="6.98404">
        <ele>1098.1999511719</ele>
        <time>2022-10-30T14:53:35.000Z</time>
      </trkpt>
      <trkpt lat="48.02261" lon="6.98399">
        <ele>1097.8000488281</ele>
        <time>2022-10-30T14:53:41.000Z</time>
      </trkpt>
      <trkpt lat="48.02261" lon="6.98391">
        <ele>1097.1999511719</ele>
        <time>2022-10-30T14:53:47.000Z</time>
      </trkpt>
      <trkpt lat="48.02258" lon="6.98385">
        <ele>1096.1999511719</ele>
        <time>2022-10-30T14:53:53.000Z</time>
      </trkpt>
      <trkpt lat="48.02255" lon="6.98374">
        <ele>1095.1999511719</ele>
        <time>2022-10-30T14:54:00.000Z</time>
      </trkpt>
      <trkpt lat="48.02254" lon="6.98372">
        <ele>1095</ele>
        <time>2022-10-30T14:54:01.000Z</time>
      </trkpt>
      <trkpt lat="48.02249" lon="6.9837">
        <ele>1094</ele>
        <time>2022-10-30T14:54:06.000Z</time>
      </trkpt>
      <trkpt lat="48.02243" lon="6.98365">
        <ele>1093</ele>
        <time>2022-10-30T14:54:12.000Z</time>
      </trkpt>
      <trkpt lat="48.02239" lon="6.98366">
        <ele>1093</ele>
        <time>2022-10-30T14:54:14.000Z</time>
      </trkpt>
      <trkpt lat="48.02236" lon="6.98363">
        <ele>1093</ele>
        <time>2022-10-30T14:54:17.000Z</time>
      </trkpt>
      <trkpt lat="48.02235" lon="6.98361">
        <ele>1092.5999755859</ele>
        <time>2022-10-30T14:54:18.000Z</time>
      </trkpt>
      <trkpt lat="48.02234" lon="6.9836">
        <ele>1092.5999755859</ele>
        <time>2022-10-30T14:54:19.000Z</time>
      </trkpt>
      <trkpt lat="48.02226" lon="6.98357">
        <ele>1091.8000488281</ele>
        <time>2022-10-30T14:54:25.000Z</time>
      </trkpt>
      <trkpt lat="48.02224" lon="6.98356">
        <ele>1091.5999755859</ele>
        <time>2022-10-30T14:54:26.000Z</time>
      </trkpt>
      <trkpt lat="48.02215" lon="6.98353">
        <ele>1090.8000488281</ele>
        <time>2022-10-30T14:54:33.000Z</time>
      </trkpt>
      <trkpt lat="48.02214" lon="6.98353">
        <ele>1090.8000488281</ele>
        <time>2022-10-30T14:54:34.000Z</time>
      </trkpt>
      <trkpt lat="48.02212" lon="6.98351">
        <ele>1090.5999755859</ele>
        <time>2022-10-30T14:54:36.000Z</time>
      </trkpt>
      <trkpt lat="48.02209" lon="6.9835">
        <ele>1090.4000244141</ele>
        <time>2022-10-30T14:54:38.000Z</time>
      </trkpt>
      <trkpt lat="48.02203" lon="6.98346">
        <ele>1090</ele>
        <time>2022-10-30T14:54:44.000Z</time>
      </trkpt>
      <trkpt lat="48.02202" lon="6.98345">
        <ele>1089.5999755859</ele>
        <time>2022-10-30T14:54:45.000Z</time>
      </trkpt>
      <trkpt lat="48.02195" lon="6.98336">
        <ele>1088.8000488281</ele>
        <time>2022-10-30T14:54:51.000Z</time>
      </trkpt>
      <trkpt lat="48.02195" lon="6.98336">
        <ele>1088.4000244141</ele>
        <time>2022-10-30T14:54:52.000Z</time>
      </trkpt>
      <trkpt lat="48.02189" lon="6.98331">
        <ele>1087.8000488281</ele>
        <time>2022-10-30T14:54:57.000Z</time>
      </trkpt>
      <trkpt lat="48.02185" lon="6.98324">
        <ele>1087.4000244141</ele>
        <time>2022-10-30T14:55:03.000Z</time>
      </trkpt>
      <trkpt lat="48.02182" lon="6.98323">
        <ele>1087.4000244141</ele>
        <time>2022-10-30T14:55:06.000Z</time>
      </trkpt>
      <trkpt lat="48.02178" lon="6.98316">
        <ele>1086.1999511719</ele>
        <time>2022-10-30T14:55:12.000Z</time>
      </trkpt>
      <trkpt lat="48.02175" lon="6.98313">
        <ele>1085.8000488281</ele>
        <time>2022-10-30T14:55:17.000Z</time>
      </trkpt>
      <trkpt lat="48.02172" lon="6.98308">
        <ele>1085.1999511719</ele>
        <time>2022-10-30T14:55:23.000Z</time>
      </trkpt>
      <trkpt lat="48.02171" lon="6.98307">
        <ele>1085.1999511719</ele>
        <time>2022-10-30T14:55:24.000Z</time>
      </trkpt>
      <trkpt lat="48.02166" lon="6.98301">
        <ele>1085</ele>
        <time>2022-10-30T14:55:30.000Z</time>
      </trkpt>
      <trkpt lat="48.02164" lon="6.983">
        <ele>1084.1999511719</ele>
        <time>2022-10-30T14:55:33.000Z</time>
      </trkpt>
      <trkpt lat="48.02161" lon="6.98295">
        <ele>1083.8000488281</ele>
        <time>2022-10-30T14:55:37.000Z</time>
      </trkpt>
      <trkpt lat="48.02156" lon="6.98289">
        <ele>1083.5999755859</ele>
        <time>2022-10-30T14:55:41.000Z</time>
      </trkpt>
      <trkpt lat="48.02155" lon="6.98285">
        <ele>1083.4000244141</ele>
        <time>2022-10-30T14:55:43.000Z</time>
      </trkpt>
      <trkpt lat="48.02153" lon="6.98284">
        <ele>1083</ele>
        <time>2022-10-30T14:55:45.000Z</time>
      </trkpt>
      <trkpt lat="48.02149" lon="6.9828">
        <ele>1082.4000244141</ele>
        <time>2022-10-30T14:55:48.000Z</time>
      </trkpt>
      <trkpt lat="48.02143" lon="6.98278">
        <ele>1082</ele>
        <time>2022-10-30T14:55:51.000Z</time>
      </trkpt>
      <trkpt lat="48.02141" lon="6.98278">
        <ele>1081.8000488281</ele>
        <time>2022-10-30T14:55:52.000Z</time>
      </trkpt>
      <trkpt lat="48.0214" lon="6.98272">
        <ele>1081.5999755859</ele>
        <time>2022-10-30T14:55:55.000Z</time>
      </trkpt>
      <trkpt lat="48.02135" lon="6.98263">
        <ele>1080.8000488281</ele>
        <time>2022-10-30T14:56:01.000Z</time>
      </trkpt>
      <trkpt lat="48.02133" lon="6.98263">
        <ele>1080.5999755859</ele>
        <time>2022-10-30T14:56:02.000Z</time>
      </trkpt>
      <trkpt lat="48.02132" lon="6.98261">
        <ele>1080.4000244141</ele>
        <time>2022-10-30T14:56:03.000Z</time>
      </trkpt>
      <trkpt lat="48.02131" lon="6.9826">
        <ele>1080</ele>
        <time>2022-10-30T14:56:05.000Z</time>
      </trkpt>
      <trkpt lat="48.0213" lon="6.98259">
        <ele>1079.8000488281</ele>
        <time>2022-10-30T14:56:06.000Z</time>
      </trkpt>
      <trkpt lat="48.0213" lon="6.98259">
        <ele>1079.5999755859</ele>
        <time>2022-10-30T14:56:07.000Z</time>
      </trkpt>
      <trkpt lat="48.02127" lon="6.98256">
        <ele>1079.1999511719</ele>
        <time>2022-10-30T14:56:11.000Z</time>
      </trkpt>
      <trkpt lat="48.02123" lon="6.98248">
        <ele>1078.5999755859</ele>
        <time>2022-10-30T14:56:17.000Z</time>
      </trkpt>
      <trkpt lat="48.02122" lon="6.98246">
        <ele>1078.5999755859</ele>
        <time>2022-10-30T14:56:18.000Z</time>
      </trkpt>
      <trkpt lat="48.02117" lon="6.98244">
        <ele>1078.5999755859</ele>
        <time>2022-10-30T14:56:21.000Z</time>
      </trkpt>
      <trkpt lat="48.02117" lon="6.98242">
        <ele>1078.4000244141</ele>
        <time>2022-10-30T14:56:23.000Z</time>
      </trkpt>
      <trkpt lat="48.02108" lon="6.98233">
        <ele>1077.4000244141</ele>
        <time>2022-10-30T14:56:30.000Z</time>
      </trkpt>
      <trkpt lat="48.02107" lon="6.98232">
        <ele>1077.1999511719</ele>
        <time>2022-10-30T14:56:31.000Z</time>
      </trkpt>
      <trkpt lat="48.02106" lon="6.98229">
        <ele>1076.5999755859</ele>
        <time>2022-10-30T14:56:34.000Z</time>
      </trkpt>
      <trkpt lat="48.02104" lon="6.98226">
        <ele>1076.4000244141</ele>
        <time>2022-10-30T14:56:36.000Z</time>
      </trkpt>
      <trkpt lat="48.02103" lon="6.98225">
        <ele>1076.4000244141</ele>
        <time>2022-10-30T14:56:37.000Z</time>
      </trkpt>
      <trkpt lat="48.02099" lon="6.98222">
        <ele>1075.8000488281</ele>
        <time>2022-10-30T14:56:42.000Z</time>
      </trkpt>
      <trkpt lat="48.02096" lon="6.98216">
        <ele>1075.4000244141</ele>
        <time>2022-10-30T14:56:46.000Z</time>
      </trkpt>
      <trkpt lat="48.02094" lon="6.98212">
        <ele>1075</ele>
        <time>2022-10-30T14:56:49.000Z</time>
      </trkpt>
      <trkpt lat="48.02093" lon="6.9821">
        <ele>1075</ele>
        <time>2022-10-30T14:56:51.000Z</time>
      </trkpt>
      <trkpt lat="48.02091" lon="6.98205">
        <ele>1075</ele>
        <time>2022-10-30T14:56:54.000Z</time>
      </trkpt>
      <trkpt lat="48.02088" lon="6.98201">
        <ele>1074.4000244141</ele>
        <time>2022-10-30T14:56:56.000Z</time>
      </trkpt>
      <trkpt lat="48.02084" lon="6.98199">
        <ele>1073.8000488281</ele>
        <time>2022-10-30T14:56:59.000Z</time>
      </trkpt>
      <trkpt lat="48.02083" lon="6.98198">
        <ele>1073.5999755859</ele>
        <time>2022-10-30T14:57:00.000Z</time>
      </trkpt>
      <trkpt lat="48.02081" lon="6.98196">
        <ele>1073.4000244141</ele>
        <time>2022-10-30T14:57:03.000Z</time>
      </trkpt>
      <trkpt lat="48.0208" lon="6.98195">
        <ele>1073.1999511719</ele>
        <time>2022-10-30T14:57:04.000Z</time>
      </trkpt>
      <trkpt lat="48.02079" lon="6.98191">
        <ele>1073</ele>
        <time>2022-10-30T14:57:06.000Z</time>
      </trkpt>
      <trkpt lat="48.02075" lon="6.98186">
        <ele>1072.8000488281</ele>
        <time>2022-10-30T14:57:11.000Z</time>
      </trkpt>
      <trkpt lat="48.02072" lon="6.98181">
        <ele>1072.4000244141</ele>
        <time>2022-10-30T14:57:16.000Z</time>
      </trkpt>
      <trkpt lat="48.0207" lon="6.98178">
        <ele>1072</ele>
        <time>2022-10-30T14:57:19.000Z</time>
      </trkpt>
      <trkpt lat="48.02068" lon="6.98173">
        <ele>1071.8000488281</ele>
        <time>2022-10-30T14:57:23.000Z</time>
      </trkpt>
      <trkpt lat="48.02067" lon="6.98172">
        <ele>1071.5999755859</ele>
        <time>2022-10-30T14:57:24.000Z</time>
      </trkpt>
      <trkpt lat="48.02064" lon="6.9817">
        <ele>1071.4000244141</ele>
        <time>2022-10-30T14:57:26.000Z</time>
      </trkpt>
      <trkpt lat="48.02062" lon="6.98169">
        <ele>1071.1999511719</ele>
        <time>2022-10-30T14:57:27.000Z</time>
      </trkpt>
      <trkpt lat="48.02058" lon="6.98168">
        <ele>1071</ele>
        <time>2022-10-30T14:57:30.000Z</time>
      </trkpt>
      <trkpt lat="48.02055" lon="6.98166">
        <ele>1070.8000488281</ele>
        <time>2022-10-30T14:57:32.000Z</time>
      </trkpt>
      <trkpt lat="48.0205" lon="6.98162">
        <ele>1070.4000244141</ele>
        <time>2022-10-30T14:57:36.000Z</time>
      </trkpt>
      <trkpt lat="48.02049" lon="6.98161">
        <ele>1070.4000244141</ele>
        <time>2022-10-30T14:57:37.000Z</time>
      </trkpt>
      <trkpt lat="48.02048" lon="6.98161">
        <ele>1070.1999511719</ele>
        <time>2022-10-30T14:57:38.000Z</time>
      </trkpt>
      <trkpt lat="48.02048" lon="6.9816">
        <ele>1070</ele>
        <time>2022-10-30T14:57:39.000Z</time>
      </trkpt>
      <trkpt lat="48.02047" lon="6.98155">
        <ele>1069.5999755859</ele>
        <time>2022-10-30T14:57:42.000Z</time>
      </trkpt>
      <trkpt lat="48.02045" lon="6.98153">
        <ele>1069.4000244141</ele>
        <time>2022-10-30T14:57:45.000Z</time>
      </trkpt>
      <trkpt lat="48.02044" lon="6.9815">
        <ele>1069.1999511719</ele>
        <time>2022-10-30T14:57:51.000Z</time>
      </trkpt>
      <trkpt lat="48.0204" lon="6.98145">
        <ele>1068.4000244141</ele>
        <time>2022-10-30T14:57:57.000Z</time>
      </trkpt>
      <trkpt lat="48.0204" lon="6.98141">
        <ele>1068.1999511719</ele>
        <time>2022-10-30T14:58:00.000Z</time>
      </trkpt>
      <trkpt lat="48.02037" lon="6.98136">
        <ele>1067.4000244141</ele>
        <time>2022-10-30T14:58:05.000Z</time>
      </trkpt>
      <trkpt lat="48.02035" lon="6.98133">
        <ele>1067.1999511719</ele>
        <time>2022-10-30T14:58:08.000Z</time>
      </trkpt>
      <trkpt lat="48.02034" lon="6.98133">
        <ele>1067.1999511719</ele>
        <time>2022-10-30T14:58:09.000Z</time>
      </trkpt>
      <trkpt lat="48.02032" lon="6.98131">
        <ele>1066.8000488281</ele>
        <time>2022-10-30T14:58:11.000Z</time>
      </trkpt>
      <trkpt lat="48.02028" lon="6.98125">
        <ele>1066.5999755859</ele>
        <time>2022-10-30T14:58:15.000Z</time>
      </trkpt>
      <trkpt lat="48.02027" lon="6.98123">
        <ele>1066.4000244141</ele>
        <time>2022-10-30T14:58:16.000Z</time>
      </trkpt>
      <trkpt lat="48.02027" lon="6.98121">
        <ele>1066.4000244141</ele>
        <time>2022-10-30T14:58:17.000Z</time>
      </trkpt>
      <trkpt lat="48.02026" lon="6.9812">
        <ele>1066.4000244141</ele>
        <time>2022-10-30T14:58:18.000Z</time>
      </trkpt>
      <trkpt lat="48.02025" lon="6.98118">
        <ele>1066.1999511719</ele>
        <time>2022-10-30T14:58:19.000Z</time>
      </trkpt>
      <trkpt lat="48.02024" lon="6.98117">
        <ele>1066</ele>
        <time>2022-10-30T14:58:20.000Z</time>
      </trkpt>
      <trkpt lat="48.02022" lon="6.98116">
        <ele>1065.8000488281</ele>
        <time>2022-10-30T14:58:22.000Z</time>
      </trkpt>
      <trkpt lat="48.0202" lon="6.98114">
        <ele>1065.4000244141</ele>
        <time>2022-10-30T14:58:24.000Z</time>
      </trkpt>
      <trkpt lat="48.02018" lon="6.98113">
        <ele>1065</ele>
        <time>2022-10-30T14:58:25.000Z</time>
      </trkpt>
      <trkpt lat="48.02014" lon="6.98111">
        <ele>1064.4000244141</ele>
        <time>2022-10-30T14:58:29.000Z</time>
      </trkpt>
      <trkpt lat="48.02012" lon="6.9811">
        <ele>1064</ele>
        <time>2022-10-30T14:58:31.000Z</time>
      </trkpt>
      <trkpt lat="48.02005" lon="6.98101">
        <ele>1063</ele>
        <time>2022-10-30T14:58:37.000Z</time>
      </trkpt>
      <trkpt lat="48.02004" lon="6.981">
        <ele>1063</ele>
        <time>2022-10-30T14:58:38.000Z</time>
      </trkpt>
      <trkpt lat="48.02003" lon="6.98095">
        <ele>1062.5999755859</ele>
        <time>2022-10-30T14:58:41.000Z</time>
      </trkpt>
      <trkpt lat="48.02003" lon="6.98093">
        <ele>1062.4000244141</ele>
        <time>2022-10-30T14:58:42.000Z</time>
      </trkpt>
      <trkpt lat="48.02003" lon="6.98091">
        <ele>1062.1999511719</ele>
        <time>2022-10-30T14:58:43.000Z</time>
      </trkpt>
      <trkpt lat="48.02003" lon="6.98084">
        <ele>1061.8000488281</ele>
        <time>2022-10-30T14:58:46.000Z</time>
      </trkpt>
      <trkpt lat="48.02002" lon="6.98082">
        <ele>1061.5999755859</ele>
        <time>2022-10-30T14:58:47.000Z</time>
      </trkpt>
      <trkpt lat="48.02002" lon="6.98074">
        <ele>1061.1999511719</ele>
        <time>2022-10-30T14:58:51.000Z</time>
      </trkpt>
      <trkpt lat="48.02001" lon="6.98071">
        <ele>1061.1999511719</ele>
        <time>2022-10-30T14:58:52.000Z</time>
      </trkpt>
      <trkpt lat="48.02001" lon="6.98064">
        <ele>1060.5999755859</ele>
        <time>2022-10-30T14:58:57.000Z</time>
      </trkpt>
      <trkpt lat="48.02001" lon="6.9806">
        <ele>1060.1999511719</ele>
        <time>2022-10-30T14:58:59.000Z</time>
      </trkpt>
      <trkpt lat="48.02" lon="6.98054">
        <ele>1059.8000488281</ele>
        <time>2022-10-30T14:59:02.000Z</time>
      </trkpt>
      <trkpt lat="48.02" lon="6.98052">
        <ele>1059.5999755859</ele>
        <time>2022-10-30T14:59:03.000Z</time>
      </trkpt>
      <trkpt lat="48.01998" lon="6.98046">
        <ele>1059.1999511719</ele>
        <time>2022-10-30T14:59:06.000Z</time>
      </trkpt>
      <trkpt lat="48.01997" lon="6.98044">
        <ele>1059</ele>
        <time>2022-10-30T14:59:07.000Z</time>
      </trkpt>
      <trkpt lat="48.01998" lon="6.98037">
        <ele>1058.5999755859</ele>
        <time>2022-10-30T14:59:10.000Z</time>
      </trkpt>
      <trkpt lat="48.01998" lon="6.98035">
        <ele>1058.4000244141</ele>
        <time>2022-10-30T14:59:11.000Z</time>
      </trkpt>
      <trkpt lat="48.01999" lon="6.9803">
        <ele>1058.1999511719</ele>
        <time>2022-10-30T14:59:13.000Z</time>
      </trkpt>
      <trkpt lat="48.02" lon="6.98023">
        <ele>1058</ele>
        <time>2022-10-30T14:59:17.000Z</time>
      </trkpt>
      <trkpt lat="48.01997" lon="6.98022">
        <ele>1057.8000488281</ele>
        <time>2022-10-30T14:59:21.000Z</time>
      </trkpt>
      <trkpt lat="48.01997" lon="6.98023">
        <ele>1057.5999755859</ele>
        <time>2022-10-30T14:59:25.000Z</time>
      </trkpt>
      <trkpt lat="48.01998" lon="6.98022">
        <ele>1057.4000244141</ele>
        <time>2022-10-30T14:59:28.000Z</time>
      </trkpt>
      <trkpt lat="48.01997" lon="6.98022">
        <ele>1057.4000244141</ele>
        <time>2022-10-30T14:59:29.000Z</time>
      </trkpt>
      <trkpt lat="48.01996" lon="6.98029">
        <ele>1056.4000244141</ele>
        <time>2022-10-30T14:59:36.000Z</time>
      </trkpt>
      <trkpt lat="48.01996" lon="6.9803">
        <ele>1056.4000244141</ele>
        <time>2022-10-30T14:59:37.000Z</time>
      </trkpt>
      <trkpt lat="48.01994" lon="6.98033">
        <ele>1055.4000244141</ele>
        <time>2022-10-30T14:59:41.000Z</time>
      </trkpt>
      <trkpt lat="48.01995" lon="6.98034">
        <ele>1055.1999511719</ele>
        <time>2022-10-30T14:59:43.000Z</time>
      </trkpt>
      <trkpt lat="48.01995" lon="6.98037">
        <ele>1054.1999511719</ele>
        <time>2022-10-30T14:59:49.000Z</time>
      </trkpt>
      <trkpt lat="48.01995" lon="6.98037">
        <ele>1053.8000488281</ele>
        <time>2022-10-30T14:59:51.000Z</time>
      </trkpt>
      <trkpt lat="48.01994" lon="6.98039">
        <ele>1053</ele>
        <time>2022-10-30T14:59:55.000Z</time>
      </trkpt>
      <trkpt lat="48.01994" lon="6.98041">
        <ele>1052.1999511719</ele>
        <time>2022-10-30T14:59:57.000Z</time>
      </trkpt>
      <trkpt lat="48.01993" lon="6.98044">
        <ele>1051.8000488281</ele>
        <time>2022-10-30T15:00:00.000Z</time>
      </trkpt>
      <trkpt lat="48.01992" lon="6.98047">
        <ele>1051.4000244141</ele>
        <time>2022-10-30T15:00:03.000Z</time>
      </trkpt>
      <trkpt lat="48.01989" lon="6.9805">
        <ele>1050.8000488281</ele>
        <time>2022-10-30T15:00:06.000Z</time>
      </trkpt>
      <trkpt lat="48.01987" lon="6.98052">
        <ele>1050.4000244141</ele>
        <time>2022-10-30T15:00:08.000Z</time>
      </trkpt>
      <trkpt lat="48.01984" lon="6.98053">
        <ele>1049.5999755859</ele>
        <time>2022-10-30T15:00:11.000Z</time>
      </trkpt>
      <trkpt lat="48.01982" lon="6.9805">
        <ele>1049</ele>
        <time>2022-10-30T15:00:15.000Z</time>
      </trkpt>
      <trkpt lat="48.01983" lon="6.98046">
        <ele>1048.8000488281</ele>
        <time>2022-10-30T15:00:23.000Z</time>
      </trkpt>
      <trkpt lat="48.01983" lon="6.98043">
        <ele>1048.8000488281</ele>
        <time>2022-10-30T15:00:29.000Z</time>
      </trkpt>
      <trkpt lat="48.01988" lon="6.9804">
        <ele>1048.5999755859</ele>
        <time>2022-10-30T15:00:35.000Z</time>
      </trkpt>
      <trkpt lat="48.01988" lon="6.9804">
        <ele>1048.5999755859</ele>
        <time>2022-10-30T15:00:36.000Z</time>
      </trkpt>
      <trkpt lat="48.01985" lon="6.98038">
        <ele>1047.8000488281</ele>
        <time>2022-10-30T15:00:42.000Z</time>
      </trkpt>
      <trkpt lat="48.01984" lon="6.98036">
        <ele>1047.4000244141</ele>
        <time>2022-10-30T15:00:45.000Z</time>
      </trkpt>
      <trkpt lat="48.01981" lon="6.98035">
        <ele>1047</ele>
        <time>2022-10-30T15:00:49.000Z</time>
      </trkpt>
      <trkpt lat="48.01979" lon="6.98033">
        <ele>1046.4000244141</ele>
        <time>2022-10-30T15:00:52.000Z</time>
      </trkpt>
      <trkpt lat="48.01974" lon="6.98032">
        <ele>1045</ele>
        <time>2022-10-30T15:00:59.000Z</time>
      </trkpt>
      <trkpt lat="48.01971" lon="6.98031">
        <ele>1044</ele>
        <time>2022-10-30T15:01:04.000Z</time>
      </trkpt>
      <trkpt lat="48.01971" lon="6.9803">
        <ele>1043.8000488281</ele>
        <time>2022-10-30T15:01:05.000Z</time>
      </trkpt>
      <trkpt lat="48.01971" lon="6.9803">
        <ele>1043.5999755859</ele>
        <time>2022-10-30T15:01:06.000Z</time>
      </trkpt>
      <trkpt lat="48.0197" lon="6.98029">
        <ele>1043.1999511719</ele>
        <time>2022-10-30T15:01:11.000Z</time>
      </trkpt>
      <trkpt lat="48.01969" lon="6.98028">
        <ele>1042.8000488281</ele>
        <time>2022-10-30T15:01:12.000Z</time>
      </trkpt>
      <trkpt lat="48.01966" lon="6.98027">
        <ele>1042.1999511719</ele>
        <time>2022-10-30T15:01:16.000Z</time>
      </trkpt>
      <trkpt lat="48.01966" lon="6.98026">
        <ele>1041.8000488281</ele>
        <time>2022-10-30T15:01:19.000Z</time>
      </trkpt>
      <trkpt lat="48.01964" lon="6.98027">
        <ele>1041</ele>
        <time>2022-10-30T15:01:23.000Z</time>
      </trkpt>
      <trkpt lat="48.01963" lon="6.98028">
        <ele>1040.8000488281</ele>
        <time>2022-10-30T15:01:24.000Z</time>
      </trkpt>
      <trkpt lat="48.01963" lon="6.9803">
        <ele>1040</ele>
        <time>2022-10-30T15:01:28.000Z</time>
      </trkpt>
      <trkpt lat="48.01962" lon="6.9803">
        <ele>1039.5999755859</ele>
        <time>2022-10-30T15:01:31.000Z</time>
      </trkpt>
      <trkpt lat="48.01962" lon="6.98028">
        <ele>1039.4000244141</ele>
        <time>2022-10-30T15:01:33.000Z</time>
      </trkpt>
      <trkpt lat="48.0196" lon="6.98028">
        <ele>1039</ele>
        <time>2022-10-30T15:01:38.000Z</time>
      </trkpt>
      <trkpt lat="48.0196" lon="6.98029">
        <ele>1039</ele>
        <time>2022-10-30T15:01:39.000Z</time>
      </trkpt>
      <trkpt lat="48.0196" lon="6.9803">
        <ele>1039</ele>
        <time>2022-10-30T15:01:47.000Z</time>
      </trkpt>
      <trkpt lat="48.0196" lon="6.98028">
        <ele>1038.5999755859</ele>
        <time>2022-10-30T15:02:01.000Z</time>
      </trkpt>
      <trkpt lat="48.01959" lon="6.98027">
        <ele>1039.1999511719</ele>
        <time>2022-10-30T15:02:12.000Z</time>
      </trkpt>
      <trkpt lat="48.0196" lon="6.98027">
        <ele>1039.4000244141</ele>
        <time>2022-10-30T15:02:16.000Z</time>
      </trkpt>
      <trkpt lat="48.01961" lon="6.98025">
        <ele>1039.5999755859</ele>
        <time>2022-10-30T15:02:24.000Z</time>
      </trkpt>
      <trkpt lat="48.0196" lon="6.98022">
        <ele>1039.8000488281</ele>
        <time>2022-10-30T15:02:27.000Z</time>
      </trkpt>
      <trkpt lat="48.01961" lon="6.98018">
        <ele>1040.1999511719</ele>
        <time>2022-10-30T15:02:30.000Z</time>
      </trkpt>
      <trkpt lat="48.01961" lon="6.98012">
        <ele>1040.4000244141</ele>
        <time>2022-10-30T15:02:36.000Z</time>
      </trkpt>
      <trkpt lat="48.01956" lon="6.98006">
        <ele>1040.1999511719</ele>
        <time>2022-10-30T15:02:42.000Z</time>
      </trkpt>
      <trkpt lat="48.0195" lon="6.98003">
        <ele>1039.1999511719</ele>
        <time>2022-10-30T15:02:48.000Z</time>
      </trkpt>
      <trkpt lat="48.01949" lon="6.98001">
        <ele>1039</ele>
        <time>2022-10-30T15:02:50.000Z</time>
      </trkpt>
      <trkpt lat="48.01946" lon="6.98002">
        <ele>1038.5999755859</ele>
        <time>2022-10-30T15:02:53.000Z</time>
      </trkpt>
      <trkpt lat="48.01945" lon="6.98">
        <ele>1038</ele>
        <time>2022-10-30T15:02:58.000Z</time>
      </trkpt>
      <trkpt lat="48.01944" lon="6.97997">
        <ele>1037.4000244141</ele>
        <time>2022-10-30T15:03:01.000Z</time>
      </trkpt>
      <trkpt lat="48.01943" lon="6.97991">
        <ele>1036.5999755859</ele>
        <time>2022-10-30T15:03:04.000Z</time>
      </trkpt>
      <trkpt lat="48.01941" lon="6.97987">
        <ele>1036.1999511719</ele>
        <time>2022-10-30T15:03:07.000Z</time>
      </trkpt>
      <trkpt lat="48.0194" lon="6.97983">
        <ele>1035.8000488281</ele>
        <time>2022-10-30T15:03:10.000Z</time>
      </trkpt>
      <trkpt lat="48.01938" lon="6.97979">
        <ele>1035</ele>
        <time>2022-10-30T15:03:14.000Z</time>
      </trkpt>
      <trkpt lat="48.01933" lon="6.97976">
        <ele>1034.4000244141</ele>
        <time>2022-10-30T15:03:18.000Z</time>
      </trkpt>
      <trkpt lat="48.01932" lon="6.97974">
        <ele>1034</ele>
        <time>2022-10-30T15:03:20.000Z</time>
      </trkpt>
      <trkpt lat="48.01931" lon="6.97967">
        <ele>1033</ele>
        <time>2022-10-30T15:03:24.000Z</time>
      </trkpt>
      <trkpt lat="48.0193" lon="6.97966">
        <ele>1033</ele>
        <time>2022-10-30T15:03:25.000Z</time>
      </trkpt>
      <trkpt lat="48.01929" lon="6.97966">
        <ele>1032.4000244141</ele>
        <time>2022-10-30T15:03:30.000Z</time>
      </trkpt>
      <trkpt lat="48.01926" lon="6.97969">
        <ele>1032.1999511719</ele>
        <time>2022-10-30T15:03:37.000Z</time>
      </trkpt>
      <trkpt lat="48.01924" lon="6.97969">
        <ele>1031.8000488281</ele>
        <time>2022-10-30T15:03:40.000Z</time>
      </trkpt>
      <trkpt lat="48.01923" lon="6.9797">
        <ele>1031.5999755859</ele>
        <time>2022-10-30T15:03:42.000Z</time>
      </trkpt>
      <trkpt lat="48.0192" lon="6.97966">
        <ele>1030.8000488281</ele>
        <time>2022-10-30T15:03:48.000Z</time>
      </trkpt>
      <trkpt lat="48.01917" lon="6.97966">
        <ele>1030</ele>
        <time>2022-10-30T15:03:54.000Z</time>
      </trkpt>
      <trkpt lat="48.01914" lon="6.97966">
        <ele>1029.5999755859</ele>
        <time>2022-10-30T15:03:57.000Z</time>
      </trkpt>
      <trkpt lat="48.01911" lon="6.97965">
        <ele>1029.1999511719</ele>
        <time>2022-10-30T15:04:00.000Z</time>
      </trkpt>
      <trkpt lat="48.01907" lon="6.97963">
        <ele>1028.5999755859</ele>
        <time>2022-10-30T15:04:06.000Z</time>
      </trkpt>
      <trkpt lat="48.01907" lon="6.97963">
        <ele>1028.5999755859</ele>
        <time>2022-10-30T15:04:07.000Z</time>
      </trkpt>
      <trkpt lat="48.01906" lon="6.97962">
        <ele>1028.4000244141</ele>
        <time>2022-10-30T15:04:11.000Z</time>
      </trkpt>
      <trkpt lat="48.01907" lon="6.97962">
        <ele>1028.1999511719</ele>
        <time>2022-10-30T15:04:12.000Z</time>
      </trkpt>
      <trkpt lat="48.01907" lon="6.97962">
        <ele>1028.1999511719</ele>
        <time>2022-10-30T15:04:13.000Z</time>
      </trkpt>
      <trkpt lat="48.01906" lon="6.97961">
        <ele>1027.4000244141</ele>
        <time>2022-10-30T15:04:17.000Z</time>
      </trkpt>
      <trkpt lat="48.01906" lon="6.97961">
        <ele>1027.1999511719</ele>
        <time>2022-10-30T15:04:18.000Z</time>
      </trkpt>
      <trkpt lat="48.01906" lon="6.97959">
        <ele>1027</ele>
        <time>2022-10-30T15:04:20.000Z</time>
      </trkpt>
      <trkpt lat="48.01906" lon="6.97955">
        <ele>1026.8000488281</ele>
        <time>2022-10-30T15:04:24.000Z</time>
      </trkpt>
      <trkpt lat="48.01907" lon="6.97952">
        <ele>1026.8000488281</ele>
        <time>2022-10-30T15:04:32.000Z</time>
      </trkpt>
      <trkpt lat="48.01905" lon="6.97951">
        <ele>1027</ele>
        <time>2022-10-30T15:04:38.000Z</time>
      </trkpt>
      <trkpt lat="48.01903" lon="6.97952">
        <ele>1026.4000244141</ele>
        <time>2022-10-30T15:04:41.000Z</time>
      </trkpt>
      <trkpt lat="48.01901" lon="6.97954">
        <ele>1025.8000488281</ele>
        <time>2022-10-30T15:04:44.000Z</time>
      </trkpt>
      <trkpt lat="48.01896" lon="6.97959">
        <ele>1025.1999511719</ele>
        <time>2022-10-30T15:04:48.000Z</time>
      </trkpt>
      <trkpt lat="48.01892" lon="6.9796">
        <ele>1025.1999511719</ele>
        <time>2022-10-30T15:04:50.000Z</time>
      </trkpt>
      <trkpt lat="48.01888" lon="6.97955">
        <ele>1024.8000488281</ele>
        <time>2022-10-30T15:04:58.000Z</time>
      </trkpt>
      <trkpt lat="48.01894" lon="6.97958">
        <ele>1024.5999755859</ele>
        <time>2022-10-30T15:05:04.000Z</time>
      </trkpt>
      <trkpt lat="48.01885" lon="6.97953">
        <ele>1024.5999755859</ele>
        <time>2022-10-30T15:05:10.000Z</time>
      </trkpt>
      <trkpt lat="48.01883" lon="6.97952">
        <ele>1024.5999755859</ele>
        <time>2022-10-30T15:05:16.000Z</time>
      </trkpt>
      <trkpt lat="48.01882" lon="6.97954">
        <ele>1024.5999755859</ele>
        <time>2022-10-30T15:05:18.000Z</time>
      </trkpt>
      <trkpt lat="48.01882" lon="6.97955">
        <ele>1024.1999511719</ele>
        <time>2022-10-30T15:05:20.000Z</time>
      </trkpt>
      <trkpt lat="48.0188" lon="6.97949">
        <ele>1024</ele>
        <time>2022-10-30T15:05:24.000Z</time>
      </trkpt>
      <trkpt lat="48.01879" lon="6.9795">
        <ele>1023.8000488281</ele>
        <time>2022-10-30T15:05:25.000Z</time>
      </trkpt>
      <trkpt lat="48.01878" lon="6.97951">
        <ele>1023.5999755859</ele>
        <time>2022-10-30T15:05:27.000Z</time>
      </trkpt>
      <trkpt lat="48.0188" lon="6.97944">
        <ele>1023.5999755859</ele>
        <time>2022-10-30T15:05:30.000Z</time>
      </trkpt>
      <trkpt lat="48.01874" lon="6.97941">
        <ele>1023.1999511719</ele>
        <time>2022-10-30T15:05:35.000Z</time>
      </trkpt>
      <trkpt lat="48.01872" lon="6.97939">
        <ele>1022.8000488281</ele>
        <time>2022-10-30T15:05:38.000Z</time>
      </trkpt>
      <trkpt lat="48.01867" lon="6.97933">
        <ele>1022.4000244141</ele>
        <time>2022-10-30T15:05:45.000Z</time>
      </trkpt>
      <trkpt lat="48.01867" lon="6.97931">
        <ele>1022.1999511719</ele>
        <time>2022-10-30T15:05:46.000Z</time>
      </trkpt>
      <trkpt lat="48.01867" lon="6.97929">
        <ele>1022.1999511719</ele>
        <time>2022-10-30T15:05:47.000Z</time>
      </trkpt>
      <trkpt lat="48.01867" lon="6.97927">
        <ele>1022</ele>
        <time>2022-10-30T15:05:48.000Z</time>
      </trkpt>
      <trkpt lat="48.01866" lon="6.97927">
        <ele>1022</ele>
        <time>2022-10-30T15:05:49.000Z</time>
      </trkpt>
      <trkpt lat="48.01865" lon="6.97927">
        <ele>1022</ele>
        <time>2022-10-30T15:05:50.000Z</time>
      </trkpt>
      <trkpt lat="48.0186" lon="6.9792">
        <ele>1021.5999755859</ele>
        <time>2022-10-30T15:05:55.000Z</time>
      </trkpt>
      <trkpt lat="48.01861" lon="6.97917">
        <ele>1021.4000244141</ele>
        <time>2022-10-30T15:05:57.000Z</time>
      </trkpt>
      <trkpt lat="48.01861" lon="6.97913">
        <ele>1021.1999511719</ele>
        <time>2022-10-30T15:06:00.000Z</time>
      </trkpt>
      <trkpt lat="48.0186" lon="6.97913">
        <ele>1021</ele>
        <time>2022-10-30T15:06:01.000Z</time>
      </trkpt>
      <trkpt lat="48.01859" lon="6.97912">
        <ele>1021</ele>
        <time>2022-10-30T15:06:02.000Z</time>
      </trkpt>
      <trkpt lat="48.01858" lon="6.97907">
        <ele>1020.5999755859</ele>
        <time>2022-10-30T15:06:06.000Z</time>
      </trkpt>
      <trkpt lat="48.0186" lon="6.97903">
        <ele>1020.5999755859</ele>
        <time>2022-10-30T15:06:08.000Z</time>
      </trkpt>
      <trkpt lat="48.01858" lon="6.97898">
        <ele>1020.4000244141</ele>
        <time>2022-10-30T15:06:12.000Z</time>
      </trkpt>
      <trkpt lat="48.01856" lon="6.97899">
        <ele>1020.1999511719</ele>
        <time>2022-10-30T15:06:15.000Z</time>
      </trkpt>
      <trkpt lat="48.01854" lon="6.97898">
        <ele>1019.5999755859</ele>
        <time>2022-10-30T15:06:18.000Z</time>
      </trkpt>
      <trkpt lat="48.01854" lon="6.97892">
        <ele>1019</ele>
        <time>2022-10-30T15:06:22.000Z</time>
      </trkpt>
      <trkpt lat="48.01854" lon="6.97891">
        <ele>1019</ele>
        <time>2022-10-30T15:06:23.000Z</time>
      </trkpt>
      <trkpt lat="48.01853" lon="6.97888">
        <ele>1018.5999755859</ele>
        <time>2022-10-30T15:06:26.000Z</time>
      </trkpt>
      <trkpt lat="48.01857" lon="6.97886">
        <ele>1018.1999511719</ele>
        <time>2022-10-30T15:06:30.000Z</time>
      </trkpt>
      <trkpt lat="48.01856" lon="6.97885">
        <ele>1018</ele>
        <time>2022-10-30T15:06:33.000Z</time>
      </trkpt>
      <trkpt lat="48.01849" lon="6.97888">
        <ele>1017.4000244141</ele>
        <time>2022-10-30T15:06:39.000Z</time>
      </trkpt>
      <trkpt lat="48.01847" lon="6.97886">
        <ele>1017</ele>
        <time>2022-10-30T15:06:42.000Z</time>
      </trkpt>
      <trkpt lat="48.01846" lon="6.97881">
        <ele>1016.8000488281</ele>
        <time>2022-10-30T15:06:45.000Z</time>
      </trkpt>
      <trkpt lat="48.01846" lon="6.97878">
        <ele>1016.5999755859</ele>
        <time>2022-10-30T15:06:47.000Z</time>
      </trkpt>
      <trkpt lat="48.01847" lon="6.97876">
        <ele>1016.4000244141</ele>
        <time>2022-10-30T15:06:48.000Z</time>
      </trkpt>
      <trkpt lat="48.01847" lon="6.97875">
        <ele>1016.1999511719</ele>
        <time>2022-10-30T15:06:49.000Z</time>
      </trkpt>
      <trkpt lat="48.01845" lon="6.97872">
        <ele>1015.8000488281</ele>
        <time>2022-10-30T15:06:51.000Z</time>
      </trkpt>
      <trkpt lat="48.01841" lon="6.97861">
        <ele>1015.4000244141</ele>
        <time>2022-10-30T15:06:57.000Z</time>
      </trkpt>
      <trkpt lat="48.01832" lon="6.97858">
        <ele>1014.8000488281</ele>
        <time>2022-10-30T15:07:03.000Z</time>
      </trkpt>
      <trkpt lat="48.01823" lon="6.9786">
        <ele>1014.1999511719</ele>
        <time>2022-10-30T15:07:09.000Z</time>
      </trkpt>
      <trkpt lat="48.01818" lon="6.97856">
        <ele>1013.8000488281</ele>
        <time>2022-10-30T15:07:14.000Z</time>
      </trkpt>
      <trkpt lat="48.01817" lon="6.97856">
        <ele>1013.8000488281</ele>
        <time>2022-10-30T15:07:15.000Z</time>
      </trkpt>
      <trkpt lat="48.01812" lon="6.97854">
        <ele>1013.4000244141</ele>
        <time>2022-10-30T15:07:18.000Z</time>
      </trkpt>
      <trkpt lat="48.0181" lon="6.97853">
        <ele>1013.4000244141</ele>
        <time>2022-10-30T15:07:20.000Z</time>
      </trkpt>
      <trkpt lat="48.0181" lon="6.97844">
        <ele>1013.4000244141</ele>
        <time>2022-10-30T15:07:24.000Z</time>
      </trkpt>
      <trkpt lat="48.01812" lon="6.97841">
        <ele>1013.5999755859</ele>
        <time>2022-10-30T15:07:28.000Z</time>
      </trkpt>
      <trkpt lat="48.01812" lon="6.97841">
        <ele>1013.5999755859</ele>
        <time>2022-10-30T15:07:32.000Z</time>
      </trkpt>
      <trkpt lat="48.01807" lon="6.97843">
        <ele>1012.8000488281</ele>
        <time>2022-10-30T15:07:38.000Z</time>
      </trkpt>
      <trkpt lat="48.01804" lon="6.97839">
        <ele>1012.4000244141</ele>
        <time>2022-10-30T15:07:44.000Z</time>
      </trkpt>
      <trkpt lat="48.01816" lon="6.97814">
        <ele>1012.8000488281</ele>
        <time>2022-10-30T15:08:25.000Z</time>
      </trkpt>
      <trkpt lat="48.01809" lon="6.97821">
        <ele>1012.8000488281</ele>
        <time>2022-10-30T15:08:26.000Z</time>
      </trkpt>
      <trkpt lat="48.01809" lon="6.97813">
        <ele>1012.8000488281</ele>
        <time>2022-10-30T15:08:31.000Z</time>
      </trkpt>
      <trkpt lat="48.01809" lon="6.97811">
        <ele>1012.8000488281</ele>
        <time>2022-10-30T15:08:32.000Z</time>
      </trkpt>
      <trkpt lat="48.0181" lon="6.97809">
        <ele>1012.8000488281</ele>
        <time>2022-10-30T15:08:33.000Z</time>
      </trkpt>
      <trkpt lat="48.0181" lon="6.97809">
        <ele>1012.8000488281</ele>
        <time>2022-10-30T15:08:37.000Z</time>
      </trkpt>
      <trkpt lat="48.01807" lon="6.9781">
        <ele>1012.8000488281</ele>
        <time>2022-10-30T15:08:42.000Z</time>
      </trkpt>
      <trkpt lat="48.01807" lon="6.97807">
        <ele>1012.8000488281</ele>
        <time>2022-10-30T15:08:50.000Z</time>
      </trkpt>
      <trkpt lat="48.01807" lon="6.97808">
        <ele>1012.8000488281</ele>
        <time>2022-10-30T15:08:56.000Z</time>
      </trkpt>
      <trkpt lat="48.01812" lon="6.97803">
        <ele>1012.8000488281</ele>
        <time>2022-10-30T15:09:12.000Z</time>
      </trkpt>
      <trkpt lat="48.01822" lon="6.97792">
        <ele>1012.8000488281</ele>
        <time>2022-10-30T15:09:19.000Z</time>
      </trkpt>
      <trkpt lat="48.01826" lon="6.97789">
        <ele>1012.8000488281</ele>
        <time>2022-10-30T15:09:24.000Z</time>
      </trkpt>
      <trkpt lat="48.01833" lon="6.97779">
        <ele>1012.8000488281</ele>
        <time>2022-10-30T15:09:31.000Z</time>
      </trkpt>
      <trkpt lat="48.01836" lon="6.97773">
        <ele>1012.8000488281</ele>
        <time>2022-10-30T15:09:37.000Z</time>
      </trkpt>
      <trkpt lat="48.01839" lon="6.97769">
        <ele>1012.8000488281</ele>
        <time>2022-10-30T15:09:44.000Z</time>
      </trkpt>
      <trkpt lat="48.01844" lon="6.97763">
        <ele>1012.8000488281</ele>
        <time>2022-10-30T15:09:51.000Z</time>
      </trkpt>
      <trkpt lat="48.01845" lon="6.97758">
        <ele>1012.8000488281</ele>
        <time>2022-10-30T15:09:57.000Z</time>
      </trkpt>
      <trkpt lat="48.01844" lon="6.97755">
        <ele>1012.8000488281</ele>
        <time>2022-10-30T15:10:08.000Z</time>
      </trkpt>
      <trkpt lat="48.01845" lon="6.97755">
        <ele>1012.8000488281</ele>
        <time>2022-10-30T15:10:17.000Z</time>
      </trkpt>
      <trkpt lat="48.01851" lon="6.97752">
        <ele>1012.8000488281</ele>
        <time>2022-10-30T15:10:23.000Z</time>
      </trkpt>
      <trkpt lat="48.01855" lon="6.97745">
        <ele>1012.8000488281</ele>
        <time>2022-10-30T15:10:30.000Z</time>
      </trkpt>
      <trkpt lat="48.0186" lon="6.97736">
        <ele>1012.8000488281</ele>
        <time>2022-10-30T15:10:36.000Z</time>
      </trkpt>
      <trkpt lat="48.01864" lon="6.97725">
        <ele>1012.8000488281</ele>
        <time>2022-10-30T15:10:46.000Z</time>
      </trkpt>
      <trkpt lat="48.01869" lon="6.97717">
        <ele>1012.8000488281</ele>
        <time>2022-10-30T15:10:52.000Z</time>
      </trkpt>
      <trkpt lat="48.01869" lon="6.97716">
        <ele>1012.8000488281</ele>
        <time>2022-10-30T15:10:55.000Z</time>
      </trkpt>
      <trkpt lat="48.0187" lon="6.97713">
        <ele>1012.8000488281</ele>
        <time>2022-10-30T15:10:58.000Z</time>
      </trkpt>
      <trkpt lat="48.01871" lon="6.97706">
        <ele>1012.8000488281</ele>
        <time>2022-10-30T15:11:04.000Z</time>
      </trkpt>
      <trkpt lat="48.01868" lon="6.977">
        <ele>1012.8000488281</ele>
        <time>2022-10-30T15:11:10.000Z</time>
      </trkpt>
      <trkpt lat="48.01869" lon="6.97695">
        <ele>1012.8000488281</ele>
        <time>2022-10-30T15:11:13.000Z</time>
      </trkpt>
      <trkpt lat="48.0187" lon="6.97692">
        <ele>1012.8000488281</ele>
        <time>2022-10-30T15:11:14.000Z</time>
      </trkpt>
      <trkpt lat="48.01873" lon="6.97683">
        <ele>1012.8000488281</ele>
        <time>2022-10-30T15:11:18.000Z</time>
      </trkpt>
      <trkpt lat="48.01872" lon="6.97675">
        <ele>1012.8000488281</ele>
        <time>2022-10-30T15:11:25.000Z</time>
      </trkpt>
      <trkpt lat="48.01872" lon="6.97668">
        <ele>1012.8000488281</ele>
        <time>2022-10-30T15:11:30.000Z</time>
      </trkpt>
      <trkpt lat="48.01872" lon="6.97661">
        <ele>1012.8000488281</ele>
        <time>2022-10-30T15:11:36.000Z</time>
      </trkpt>
      <trkpt lat="48.01871" lon="6.97659">
        <ele>1012.8000488281</ele>
        <time>2022-10-30T15:11:38.000Z</time>
      </trkpt>
      <trkpt lat="48.01869" lon="6.97652">
        <ele>1012.8000488281</ele>
        <time>2022-10-30T15:11:43.000Z</time>
      </trkpt>
      <trkpt lat="48.01868" lon="6.97649">
        <ele>1012.8000488281</ele>
        <time>2022-10-30T15:11:46.000Z</time>
      </trkpt>
      <trkpt lat="48.01867" lon="6.97632">
        <ele>1012.8000488281</ele>
        <time>2022-10-30T15:11:54.000Z</time>
      </trkpt>
      <trkpt lat="48.01867" lon="6.97625">
        <ele>1012.8000488281</ele>
        <time>2022-10-30T15:12:00.000Z</time>
      </trkpt>
      <trkpt lat="48.01867" lon="6.97623">
        <ele>1012.8000488281</ele>
        <time>2022-10-30T15:12:01.000Z</time>
      </trkpt>
      <trkpt lat="48.01867" lon="6.9762">
        <ele>1012.8000488281</ele>
        <time>2022-10-30T15:12:04.000Z</time>
      </trkpt>
      <trkpt lat="48.01868" lon="6.97613">
        <ele>1012.8000488281</ele>
        <time>2022-10-30T15:12:09.000Z</time>
      </trkpt>
      <trkpt lat="48.01868" lon="6.97602">
        <ele>1012.8000488281</ele>
        <time>2022-10-30T15:12:15.000Z</time>
      </trkpt>
      <trkpt lat="48.01868" lon="6.9759">
        <ele>1012.8000488281</ele>
        <time>2022-10-30T15:12:24.000Z</time>
      </trkpt>
      <trkpt lat="48.01866" lon="6.97586">
        <ele>1012.8000488281</ele>
        <time>2022-10-30T15:12:31.000Z</time>
      </trkpt>
      <trkpt lat="48.01869" lon="6.97586">
        <ele>1012.8000488281</ele>
        <time>2022-10-30T15:12:38.000Z</time>
      </trkpt>
      <trkpt lat="48.01869" lon="6.97586">
        <ele>1012.8000488281</ele>
        <time>2022-10-30T15:12:40.000Z</time>
      </trkpt>
      <trkpt lat="48.0187" lon="6.97586">
        <ele>1012.8000488281</ele>
        <time>2022-10-30T15:12:43.000Z</time>
      </trkpt>
      <trkpt lat="48.0187" lon="6.97583">
        <ele>1012.8000488281</ele>
        <time>2022-10-30T15:12:50.000Z</time>
      </trkpt>
      <trkpt lat="48.01873" lon="6.97567">
        <ele>1012.8000488281</ele>
        <time>2022-10-30T15:12:58.000Z</time>
      </trkpt>
      <trkpt lat="48.01871" lon="6.97557">
        <ele>1012.8000488281</ele>
        <time>2022-10-30T15:13:05.000Z</time>
      </trkpt>
      <trkpt lat="48.01873" lon="6.97552">
        <ele>1012.8000488281</ele>
        <time>2022-10-30T15:13:08.000Z</time>
      </trkpt>
      <trkpt lat="48.01875" lon="6.97547">
        <ele>1012.8000488281</ele>
        <time>2022-10-30T15:13:11.000Z</time>
      </trkpt>
      <trkpt lat="48.01877" lon="6.97543">
        <ele>1012.8000488281</ele>
        <time>2022-10-30T15:13:15.000Z</time>
      </trkpt>
      <trkpt lat="48.0188" lon="6.97537">
        <ele>1012.8000488281</ele>
        <time>2022-10-30T15:13:19.000Z</time>
      </trkpt>
      <trkpt lat="48.01883" lon="6.97531">
        <ele>1012.8000488281</ele>
        <time>2022-10-30T15:13:24.000Z</time>
      </trkpt>
      <trkpt lat="48.01886" lon="6.97526">
        <ele>1012.8000488281</ele>
        <time>2022-10-30T15:13:27.000Z</time>
      </trkpt>
      <trkpt lat="48.01887" lon="6.97523">
        <ele>1012.8000488281</ele>
        <time>2022-10-30T15:13:30.000Z</time>
      </trkpt>
      <trkpt lat="48.01895" lon="6.97515">
        <ele>1012.8000488281</ele>
        <time>2022-10-30T15:13:38.000Z</time>
      </trkpt>
      <trkpt lat="48.019" lon="6.97503">
        <ele>1012.8000488281</ele>
        <time>2022-10-30T15:13:46.000Z</time>
      </trkpt>
      <trkpt lat="48.01906" lon="6.97498">
        <ele>1012.8000488281</ele>
        <time>2022-10-30T15:13:52.000Z</time>
      </trkpt>
      <trkpt lat="48.01909" lon="6.97493">
        <ele>1012.8000488281</ele>
        <time>2022-10-30T15:13:58.000Z</time>
      </trkpt>
      <trkpt lat="48.01911" lon="6.97492">
        <ele>1012.8000488281</ele>
        <time>2022-10-30T15:14:00.000Z</time>
      </trkpt>
      <trkpt lat="48.01914" lon="6.97487">
        <ele>1012.8000488281</ele>
        <time>2022-10-30T15:14:06.000Z</time>
      </trkpt>
      <trkpt lat="48.01917" lon="6.97477">
        <ele>1012.8000488281</ele>
        <time>2022-10-30T15:14:15.000Z</time>
      </trkpt>
      <trkpt lat="48.01918" lon="6.97475">
        <ele>1012.8000488281</ele>
        <time>2022-10-30T15:14:16.000Z</time>
      </trkpt>
      <trkpt lat="48.01919" lon="6.97467">
        <ele>1012.8000488281</ele>
        <time>2022-10-30T15:14:20.000Z</time>
      </trkpt>
      <trkpt lat="48.01919" lon="6.97462">
        <ele>1012.8000488281</ele>
        <time>2022-10-30T15:14:22.000Z</time>
      </trkpt>
      <trkpt lat="48.0192" lon="6.97459">
        <ele>1012.8000488281</ele>
        <time>2022-10-30T15:14:24.000Z</time>
      </trkpt>
      <trkpt lat="48.01921" lon="6.97457">
        <ele>1012.8000488281</ele>
        <time>2022-10-30T15:14:26.000Z</time>
      </trkpt>
      <trkpt lat="48.01922" lon="6.97455">
        <ele>1012.8000488281</ele>
        <time>2022-10-30T15:14:28.000Z</time>
      </trkpt>
      <trkpt lat="48.01922" lon="6.97454">
        <ele>1012.8000488281</ele>
        <time>2022-10-30T15:14:29.000Z</time>
      </trkpt>
      <trkpt lat="48.01926" lon="6.97449">
        <ele>1012.8000488281</ele>
        <time>2022-10-30T15:14:34.000Z</time>
      </trkpt>
      <trkpt lat="48.01926" lon="6.97448">
        <ele>1012.8000488281</ele>
        <time>2022-10-30T15:14:36.000Z</time>
      </trkpt>
      <trkpt lat="48.01929" lon="6.97442">
        <ele>1012.8000488281</ele>
        <time>2022-10-30T15:14:39.000Z</time>
      </trkpt>
      <trkpt lat="48.0193" lon="6.9744">
        <ele>1012.8000488281</ele>
        <time>2022-10-30T15:14:41.000Z</time>
      </trkpt>
      <trkpt lat="48.01936" lon="6.97435">
        <ele>1012.8000488281</ele>
        <time>2022-10-30T15:14:45.000Z</time>
      </trkpt>
      <trkpt lat="48.01939" lon="6.97428">
        <ele>1012.8000488281</ele>
        <time>2022-10-30T15:14:51.000Z</time>
      </trkpt>
      <trkpt lat="48.01941" lon="6.9742">
        <ele>1012.8000488281</ele>
        <time>2022-10-30T15:14:57.000Z</time>
      </trkpt>
      <trkpt lat="48.01943" lon="6.97412">
        <ele>1012.8000488281</ele>
        <time>2022-10-30T15:15:03.000Z</time>
      </trkpt>
      <trkpt lat="48.01943" lon="6.974">
        <ele>1012.8000488281</ele>
        <time>2022-10-30T15:15:09.000Z</time>
      </trkpt>
      <trkpt lat="48.01946" lon="6.97383">
        <ele>1012.8000488281</ele>
        <time>2022-10-30T15:15:17.000Z</time>
      </trkpt>
      <trkpt lat="48.01947" lon="6.97375">
        <ele>1006.1999511719</ele>
        <time>2022-10-30T15:15:22.000Z</time>
      </trkpt>
      <trkpt lat="48.01948" lon="6.97374">
        <ele>1006.1999511719</ele>
        <time>2022-10-30T15:15:23.000Z</time>
      </trkpt>
      <trkpt lat="48.01951" lon="6.97366">
        <ele>1005.8000488281</ele>
        <time>2022-10-30T15:15:31.000Z</time>
      </trkpt>
      <trkpt lat="48.01954" lon="6.97359">
        <ele>1005.5999755859</ele>
        <time>2022-10-30T15:15:36.000Z</time>
      </trkpt>
      <trkpt lat="48.01955" lon="6.97356">
        <ele>1005.4000244141</ele>
        <time>2022-10-30T15:15:37.000Z</time>
      </trkpt>
      <trkpt lat="48.01955" lon="6.9735">
        <ele>1005.1999511719</ele>
        <time>2022-10-30T15:15:40.000Z</time>
      </trkpt>
      <trkpt lat="48.01955" lon="6.97348">
        <ele>1005.1999511719</ele>
        <time>2022-10-30T15:15:41.000Z</time>
      </trkpt>
      <trkpt lat="48.01956" lon="6.97342">
        <ele>1005</ele>
        <time>2022-10-30T15:15:44.000Z</time>
      </trkpt>
      <trkpt lat="48.01956" lon="6.9733">
        <ele>1004.4000244141</ele>
        <time>2022-10-30T15:15:51.000Z</time>
      </trkpt>
      <trkpt lat="48.01957" lon="6.97326">
        <ele>1004.1999511719</ele>
        <time>2022-10-30T15:15:55.000Z</time>
      </trkpt>
      <trkpt lat="48.01959" lon="6.97321">
        <ele>1004</ele>
        <time>2022-10-30T15:15:57.000Z</time>
      </trkpt>
      <trkpt lat="48.01958" lon="6.97316">
        <ele>1003.8000488281</ele>
        <time>2022-10-30T15:16:00.000Z</time>
      </trkpt>
      <trkpt lat="48.01957" lon="6.97311">
        <ele>1003.4000244141</ele>
        <time>2022-10-30T15:16:07.000Z</time>
      </trkpt>
      <trkpt lat="48.01957" lon="6.97302">
        <ele>1003</ele>
        <time>2022-10-30T15:16:12.000Z</time>
      </trkpt>
      <trkpt lat="48.01956" lon="6.97301">
        <ele>1002.8000488281</ele>
        <time>2022-10-30T15:16:15.000Z</time>
      </trkpt>
      <trkpt lat="48.01955" lon="6.97294">
        <ele>1002.4000244141</ele>
        <time>2022-10-30T15:16:21.000Z</time>
      </trkpt>
      <trkpt lat="48.01955" lon="6.9729">
        <ele>1002</ele>
        <time>2022-10-30T15:16:25.000Z</time>
      </trkpt>
      <trkpt lat="48.01956" lon="6.97286">
        <ele>1001.8000488281</ele>
        <time>2022-10-30T15:16:28.000Z</time>
      </trkpt>
      <trkpt lat="48.01959" lon="6.97275">
        <ele>1001</ele>
        <time>2022-10-30T15:16:34.000Z</time>
      </trkpt>
      <trkpt lat="48.0196" lon="6.97267">
        <ele>1000.5999755859</ele>
        <time>2022-10-30T15:16:38.000Z</time>
      </trkpt>
      <trkpt lat="48.0196" lon="6.97263">
        <ele>1000.4000244141</ele>
        <time>2022-10-30T15:16:41.000Z</time>
      </trkpt>
      <trkpt lat="48.01961" lon="6.97263">
        <ele>1000.1999511719</ele>
        <time>2022-10-30T15:16:45.000Z</time>
      </trkpt>
      <trkpt lat="48.01961" lon="6.97266">
        <ele>1000.1999511719</ele>
        <time>2022-10-30T15:16:49.000Z</time>
      </trkpt>
      <trkpt lat="48.0196" lon="6.97258">
        <ele>999.80004882812</ele>
        <time>2022-10-30T15:16:55.000Z</time>
      </trkpt>
      <trkpt lat="48.01959" lon="6.97257">
        <ele>999.59997558594</ele>
        <time>2022-10-30T15:16:57.000Z</time>
      </trkpt>
      <trkpt lat="48.01957" lon="6.97252">
        <ele>999</ele>
        <time>2022-10-30T15:17:03.000Z</time>
      </trkpt>
      <trkpt lat="48.01956" lon="6.97251">
        <ele>998.80004882812</ele>
        <time>2022-10-30T15:17:04.000Z</time>
      </trkpt>
      <trkpt lat="48.01953" lon="6.97249">
        <ele>998.19995117188</ele>
        <time>2022-10-30T15:17:09.000Z</time>
      </trkpt>
      <trkpt lat="48.0195" lon="6.97245">
        <ele>997.80004882812</ele>
        <time>2022-10-30T15:17:14.000Z</time>
      </trkpt>
      <trkpt lat="48.0195" lon="6.97244">
        <ele>997.59997558594</ele>
        <time>2022-10-30T15:17:15.000Z</time>
      </trkpt>
      <trkpt lat="48.01949" lon="6.9724">
        <ele>996.80004882812</ele>
        <time>2022-10-30T15:17:20.000Z</time>
      </trkpt>
      <trkpt lat="48.01949" lon="6.9724">
        <ele>996.59997558594</ele>
        <time>2022-10-30T15:17:22.000Z</time>
      </trkpt>
      <trkpt lat="48.01948" lon="6.97238">
        <ele>996</ele>
        <time>2022-10-30T15:17:25.000Z</time>
      </trkpt>
      <trkpt lat="48.01948" lon="6.97238">
        <ele>995.59997558594</ele>
        <time>2022-10-30T15:17:27.000Z</time>
      </trkpt>
      <trkpt lat="48.01945" lon="6.97235">
        <ele>995.19995117188</ele>
        <time>2022-10-30T15:17:30.000Z</time>
      </trkpt>
      <trkpt lat="48.01948" lon="6.97226">
        <ele>994.59997558594</ele>
        <time>2022-10-30T15:17:35.000Z</time>
      </trkpt>
      <trkpt lat="48.01949" lon="6.97222">
        <ele>994.59997558594</ele>
        <time>2022-10-30T15:17:37.000Z</time>
      </trkpt>
      <trkpt lat="48.01949" lon="6.97212">
        <ele>993.80004882812</ele>
        <time>2022-10-30T15:17:43.000Z</time>
      </trkpt>
      <trkpt lat="48.01949" lon="6.97211">
        <ele>993.59997558594</ele>
        <time>2022-10-30T15:17:44.000Z</time>
      </trkpt>
      <trkpt lat="48.01949" lon="6.97205">
        <ele>992.80004882812</ele>
        <time>2022-10-30T15:17:49.000Z</time>
      </trkpt>
      <trkpt lat="48.01949" lon="6.97203">
        <ele>992.59997558594</ele>
        <time>2022-10-30T15:17:51.000Z</time>
      </trkpt>
      <trkpt lat="48.01949" lon="6.97203">
        <ele>992.19995117188</ele>
        <time>2022-10-30T15:17:53.000Z</time>
      </trkpt>
      <trkpt lat="48.01948" lon="6.97201">
        <ele>991.40002441406</ele>
        <time>2022-10-30T15:17:57.000Z</time>
      </trkpt>
      <trkpt lat="48.01947" lon="6.972">
        <ele>991.19995117188</ele>
        <time>2022-10-30T15:17:58.000Z</time>
      </trkpt>
      <trkpt lat="48.01945" lon="6.97195">
        <ele>990.40002441406</ele>
        <time>2022-10-30T15:18:04.000Z</time>
      </trkpt>
      <trkpt lat="48.01946" lon="6.97193">
        <ele>990.40002441406</ele>
        <time>2022-10-30T15:18:06.000Z</time>
      </trkpt>
      <trkpt lat="48.01947" lon="6.97193">
        <ele>990</ele>
        <time>2022-10-30T15:18:09.000Z</time>
      </trkpt>
      <trkpt lat="48.01946" lon="6.9719">
        <ele>989.19995117188</ele>
        <time>2022-10-30T15:18:13.000Z</time>
      </trkpt>
      <trkpt lat="48.01948" lon="6.97188">
        <ele>989</ele>
        <time>2022-10-30T15:18:18.000Z</time>
      </trkpt>
      <trkpt lat="48.0195" lon="6.97187">
        <ele>989</ele>
        <time>2022-10-30T15:18:22.000Z</time>
      </trkpt>
      <trkpt lat="48.01949" lon="6.97183">
        <ele>988.80004882812</ele>
        <time>2022-10-30T15:18:27.000Z</time>
      </trkpt>
      <trkpt lat="48.01952" lon="6.97173">
        <ele>988.59997558594</ele>
        <time>2022-10-30T15:18:33.000Z</time>
      </trkpt>
      <trkpt lat="48.01951" lon="6.97161">
        <ele>988.59997558594</ele>
        <time>2022-10-30T15:18:39.000Z</time>
      </trkpt>
      <trkpt lat="48.01952" lon="6.97156">
        <ele>988.19995117188</ele>
        <time>2022-10-30T15:18:42.000Z</time>
      </trkpt>
      <trkpt lat="48.01951" lon="6.97151">
        <ele>987.80004882812</ele>
        <time>2022-10-30T15:18:46.000Z</time>
      </trkpt>
      <trkpt lat="48.0195" lon="6.9714">
        <ele>987.40002441406</ele>
        <time>2022-10-30T15:18:53.000Z</time>
      </trkpt>
      <trkpt lat="48.01953" lon="6.9713">
        <ele>987.19995117188</ele>
        <time>2022-10-30T15:18:57.000Z</time>
      </trkpt>
      <trkpt lat="48.01953" lon="6.97127">
        <ele>987.19995117188</ele>
        <time>2022-10-30T15:18:59.000Z</time>
      </trkpt>
      <trkpt lat="48.01955" lon="6.97119">
        <ele>987</ele>
        <time>2022-10-30T15:19:05.000Z</time>
      </trkpt>
      <trkpt lat="48.01959" lon="6.97113">
        <ele>987</ele>
        <time>2022-10-30T15:19:12.000Z</time>
      </trkpt>
      <trkpt lat="48.01958" lon="6.9711">
        <ele>987</ele>
        <time>2022-10-30T15:19:17.000Z</time>
      </trkpt>
      <trkpt lat="48.01959" lon="6.97103">
        <ele>987</ele>
        <time>2022-10-30T15:19:23.000Z</time>
      </trkpt>
      <trkpt lat="48.01961" lon="6.97097">
        <ele>987</ele>
        <time>2022-10-30T15:19:29.000Z</time>
      </trkpt>
      <trkpt lat="48.01963" lon="6.97087">
        <ele>986.80004882812</ele>
        <time>2022-10-30T15:19:36.000Z</time>
      </trkpt>
      <trkpt lat="48.01961" lon="6.97078">
        <ele>986.59997558594</ele>
        <time>2022-10-30T15:19:42.000Z</time>
      </trkpt>
      <trkpt lat="48.01961" lon="6.97076">
        <ele>986.19995117188</ele>
        <time>2022-10-30T15:19:44.000Z</time>
      </trkpt>
      <trkpt lat="48.01961" lon="6.97074">
        <ele>985.80004882812</ele>
        <time>2022-10-30T15:19:47.000Z</time>
      </trkpt>
      <trkpt lat="48.01965" lon="6.97065">
        <ele>985.19995117188</ele>
        <time>2022-10-30T15:19:52.000Z</time>
      </trkpt>
      <trkpt lat="48.01967" lon="6.97063">
        <ele>984.59997558594</ele>
        <time>2022-10-30T15:19:55.000Z</time>
      </trkpt>
      <trkpt lat="48.01969" lon="6.97061">
        <ele>984.19995117188</ele>
        <time>2022-10-30T15:19:59.000Z</time>
      </trkpt>
      <trkpt lat="48.01969" lon="6.97061">
        <ele>984</ele>
        <time>2022-10-30T15:20:00.000Z</time>
      </trkpt>
      <trkpt lat="48.01969" lon="6.97063">
        <ele>983.80004882812</ele>
        <time>2022-10-30T15:20:04.000Z</time>
      </trkpt>
      <trkpt lat="48.01969" lon="6.97061">
        <ele>983.59997558594</ele>
        <time>2022-10-30T15:20:10.000Z</time>
      </trkpt>
      <trkpt lat="48.01969" lon="6.97061">
        <ele>983</ele>
        <time>2022-10-30T15:20:20.000Z</time>
      </trkpt>
      <trkpt lat="48.01969" lon="6.97061">
        <ele>982.59997558594</ele>
        <time>2022-10-30T15:20:24.000Z</time>
      </trkpt>
      <trkpt lat="48.01966" lon="6.9706">
        <ele>982.19995117188</ele>
        <time>2022-10-30T15:20:30.000Z</time>
      </trkpt>
      <trkpt lat="48.01964" lon="6.97057">
        <ele>982</ele>
        <time>2022-10-30T15:20:33.000Z</time>
      </trkpt>
      <trkpt lat="48.01964" lon="6.97058">
        <ele>981.80004882812</ele>
        <time>2022-10-30T15:20:35.000Z</time>
      </trkpt>
      <trkpt lat="48.01971" lon="6.97054">
        <ele>981.59997558594</ele>
        <time>2022-10-30T15:20:41.000Z</time>
      </trkpt>
      <trkpt lat="48.0197" lon="6.97053">
        <ele>979.80004882812</ele>
        <time>2022-10-30T15:20:59.000Z</time>
      </trkpt>
      <trkpt lat="48.0197" lon="6.97053">
        <ele>979.80004882812</ele>
        <time>2022-10-30T15:21:00.000Z</time>
      </trkpt>
      <trkpt lat="48.01969" lon="6.97053">
        <ele>979.59997558594</ele>
        <time>2022-10-30T15:21:02.000Z</time>
      </trkpt>
      <trkpt lat="48.01969" lon="6.97053">
        <ele>979.40002441406</ele>
        <time>2022-10-30T15:21:03.000Z</time>
      </trkpt>
      <trkpt lat="48.01969" lon="6.97052">
        <ele>978.80004882812</ele>
        <time>2022-10-30T15:21:06.000Z</time>
      </trkpt>
      <trkpt lat="48.01969" lon="6.97051">
        <ele>977.80004882812</ele>
        <time>2022-10-30T15:21:12.000Z</time>
      </trkpt>
      <trkpt lat="48.0197" lon="6.97038">
        <ele>976.80004882812</ele>
        <time>2022-10-30T15:21:31.000Z</time>
      </trkpt>
      <trkpt lat="48.0197" lon="6.97035">
        <ele>976.59997558594</ele>
        <time>2022-10-30T15:21:36.000Z</time>
      </trkpt>
      <trkpt lat="48.01971" lon="6.97034">
        <ele>976.59997558594</ele>
        <time>2022-10-30T15:21:38.000Z</time>
      </trkpt>
      <trkpt lat="48.01973" lon="6.97036">
        <ele>976.59997558594</ele>
        <time>2022-10-30T15:21:42.000Z</time>
      </trkpt>
      <trkpt lat="48.01973" lon="6.97037">
        <ele>976.59997558594</ele>
        <time>2022-10-30T15:21:43.000Z</time>
      </trkpt>
      <trkpt lat="48.01966" lon="6.97043">
        <ele>976.59997558594</ele>
        <time>2022-10-30T15:21:55.000Z</time>
      </trkpt>
      <trkpt lat="48.01964" lon="6.97041">
        <ele>976.40002441406</ele>
        <time>2022-10-30T15:22:03.000Z</time>
      </trkpt>
      <trkpt lat="48.01964" lon="6.97035">
        <ele>976.59997558594</ele>
        <time>2022-10-30T15:22:09.000Z</time>
      </trkpt>
      <trkpt lat="48.01965" lon="6.97026">
        <ele>976.59997558594</ele>
        <time>2022-10-30T15:22:16.000Z</time>
      </trkpt>
      <trkpt lat="48.01963" lon="6.97011">
        <ele>975.59997558594</ele>
        <time>2022-10-30T15:22:23.000Z</time>
      </trkpt>
      <trkpt lat="48.01966" lon="6.96996">
        <ele>975.59997558594</ele>
        <time>2022-10-30T15:22:28.000Z</time>
      </trkpt>
      <trkpt lat="48.01968" lon="6.9699">
        <ele>975.59997558594</ele>
        <time>2022-10-30T15:22:34.000Z</time>
      </trkpt>
      <trkpt lat="48.0197" lon="6.96985">
        <ele>975</ele>
        <time>2022-10-30T15:22:40.000Z</time>
      </trkpt>
      <trkpt lat="48.0197" lon="6.96981">
        <ele>974.59997558594</ele>
        <time>2022-10-30T15:22:45.000Z</time>
      </trkpt>
      <trkpt lat="48.01969" lon="6.9698">
        <ele>974.59997558594</ele>
        <time>2022-10-30T15:22:46.000Z</time>
      </trkpt>
      <trkpt lat="48.01971" lon="6.96973">
        <ele>973.80004882812</ele>
        <time>2022-10-30T15:22:51.000Z</time>
      </trkpt>
      <trkpt lat="48.01972" lon="6.96972">
        <ele>973.59997558594</ele>
        <time>2022-10-30T15:22:53.000Z</time>
      </trkpt>
      <trkpt lat="48.01972" lon="6.96973">
        <ele>973.40002441406</ele>
        <time>2022-10-30T15:22:57.000Z</time>
      </trkpt>
      <trkpt lat="48.01971" lon="6.96971">
        <ele>972.80004882812</ele>
        <time>2022-10-30T15:23:03.000Z</time>
      </trkpt>
      <trkpt lat="48.01972" lon="6.9697">
        <ele>972.40002441406</ele>
        <time>2022-10-30T15:23:05.000Z</time>
      </trkpt>
      <trkpt lat="48.01973" lon="6.96967">
        <ele>971.59997558594</ele>
        <time>2022-10-30T15:23:12.000Z</time>
      </trkpt>
      <trkpt lat="48.01972" lon="6.96964">
        <ele>971.40002441406</ele>
        <time>2022-10-30T15:23:14.000Z</time>
      </trkpt>
      <trkpt lat="48.01973" lon="6.96957">
        <ele>971</ele>
        <time>2022-10-30T15:23:18.000Z</time>
      </trkpt>
      <trkpt lat="48.01976" lon="6.96945">
        <ele>970.59997558594</ele>
        <time>2022-10-30T15:23:25.000Z</time>
      </trkpt>
      <trkpt lat="48.0198" lon="6.96942">
        <ele>970.40002441406</ele>
        <time>2022-10-30T15:23:33.000Z</time>
      </trkpt>
      <trkpt lat="48.01981" lon="6.96942">
        <ele>970.40002441406</ele>
        <time>2022-10-30T15:23:38.000Z</time>
      </trkpt>
      <trkpt lat="48.01982" lon="6.96941">
        <ele>970</ele>
        <time>2022-10-30T15:23:42.000Z</time>
      </trkpt>
      <trkpt lat="48.01983" lon="6.96941">
        <ele>969.80004882812</ele>
        <time>2022-10-30T15:24:00.000Z</time>
      </trkpt>
      <trkpt lat="48.01984" lon="6.96939">
        <ele>969.19995117188</ele>
        <time>2022-10-30T15:24:03.000Z</time>
      </trkpt>
      <trkpt lat="48.01984" lon="6.96938">
        <ele>968</ele>
        <time>2022-10-30T15:24:10.000Z</time>
      </trkpt>
      <trkpt lat="48.01984" lon="6.96932">
        <ele>967</ele>
        <time>2022-10-30T15:24:19.000Z</time>
      </trkpt>
      <trkpt lat="48.01984" lon="6.96926">
        <ele>965.80004882812</ele>
        <time>2022-10-30T15:24:26.000Z</time>
      </trkpt>
      <trkpt lat="48.01984" lon="6.96922">
        <ele>965.59997558594</ele>
        <time>2022-10-30T15:24:28.000Z</time>
      </trkpt>
      <trkpt lat="48.01983" lon="6.96912">
        <ele>964.59997558594</ele>
        <time>2022-10-30T15:24:35.000Z</time>
      </trkpt>
      <trkpt lat="48.01984" lon="6.96906">
        <ele>964.40002441406</ele>
        <time>2022-10-30T15:24:37.000Z</time>
      </trkpt>
      <trkpt lat="48.01986" lon="6.96894">
        <ele>963.80004882812</ele>
        <time>2022-10-30T15:24:41.000Z</time>
      </trkpt>
      <trkpt lat="48.01987" lon="6.96888">
        <ele>963.59997558594</ele>
        <time>2022-10-30T15:24:43.000Z</time>
      </trkpt>
      <trkpt lat="48.01987" lon="6.96882">
        <ele>963.19995117188</ele>
        <time>2022-10-30T15:24:47.000Z</time>
      </trkpt>
      <trkpt lat="48.01988" lon="6.96878">
        <ele>962.80004882812</ele>
        <time>2022-10-30T15:24:50.000Z</time>
      </trkpt>
      <trkpt lat="48.01988" lon="6.96872">
        <ele>962.40002441406</ele>
        <time>2022-10-30T15:24:54.000Z</time>
      </trkpt>
      <trkpt lat="48.01988" lon="6.96871">
        <ele>961.80004882812</ele>
        <time>2022-10-30T15:24:58.000Z</time>
      </trkpt>
      <trkpt lat="48.01988" lon="6.96862">
        <ele>961.40002441406</ele>
        <time>2022-10-30T15:25:04.000Z</time>
      </trkpt>
      <trkpt lat="48.01988" lon="6.9686">
        <ele>961.19995117188</ele>
        <time>2022-10-30T15:25:06.000Z</time>
      </trkpt>
      <trkpt lat="48.01988" lon="6.96857">
        <ele>961</ele>
        <time>2022-10-30T15:25:10.000Z</time>
      </trkpt>
      <trkpt lat="48.01987" lon="6.96854">
        <ele>960.59997558594</ele>
        <time>2022-10-30T15:25:13.000Z</time>
      </trkpt>
      <trkpt lat="48.01988" lon="6.96852">
        <ele>960.19995117188</ele>
        <time>2022-10-30T15:25:15.000Z</time>
      </trkpt>
      <trkpt lat="48.01987" lon="6.96846">
        <ele>959.80004882812</ele>
        <time>2022-10-30T15:25:20.000Z</time>
      </trkpt>
      <trkpt lat="48.01987" lon="6.96842">
        <ele>959.59997558594</ele>
        <time>2022-10-30T15:25:26.000Z</time>
      </trkpt>
      <trkpt lat="48.01988" lon="6.96835">
        <ele>959.59997558594</ele>
        <time>2022-10-30T15:25:33.000Z</time>
      </trkpt>
      <trkpt lat="48.0199" lon="6.96833">
        <ele>959.19995117188</ele>
        <time>2022-10-30T15:25:36.000Z</time>
      </trkpt>
      <trkpt lat="48.01993" lon="6.96831">
        <ele>958.80004882812</ele>
        <time>2022-10-30T15:25:40.000Z</time>
      </trkpt>
      <trkpt lat="48.01994" lon="6.96831">
        <ele>958.80004882812</ele>
        <time>2022-10-30T15:25:44.000Z</time>
      </trkpt>
      <trkpt lat="48.01994" lon="6.96832">
        <ele>958.80004882812</ele>
        <time>2022-10-30T15:25:47.000Z</time>
      </trkpt>
      <trkpt lat="48.01996" lon="6.96833">
        <ele>959</ele>
        <time>2022-10-30T15:25:56.000Z</time>
      </trkpt>
      <trkpt lat="48.01997" lon="6.96832">
        <ele>959</ele>
        <time>2022-10-30T15:26:02.000Z</time>
      </trkpt>
      <trkpt lat="48.01997" lon="6.96829">
        <ele>958.80004882812</ele>
        <time>2022-10-30T15:26:05.000Z</time>
      </trkpt>
      <trkpt lat="48.02" lon="6.96819">
        <ele>958.19995117188</ele>
        <time>2022-10-30T15:26:12.000Z</time>
      </trkpt>
      <trkpt lat="48.02" lon="6.96818">
        <ele>958</ele>
        <time>2022-10-30T15:26:13.000Z</time>
      </trkpt>
      <trkpt lat="48.02001" lon="6.9681">
        <ele>957.40002441406</ele>
        <time>2022-10-30T15:26:20.000Z</time>
      </trkpt>
      <trkpt lat="48.02003" lon="6.96804">
        <ele>957</ele>
        <time>2022-10-30T15:26:24.000Z</time>
      </trkpt>
      <trkpt lat="48.02003" lon="6.96798">
        <ele>956.80004882812</ele>
        <time>2022-10-30T15:26:28.000Z</time>
      </trkpt>
      <trkpt lat="48.02003" lon="6.9679">
        <ele>956.40002441406</ele>
        <time>2022-10-30T15:26:33.000Z</time>
      </trkpt>
      <trkpt lat="48.02001" lon="6.96785">
        <ele>956</ele>
        <time>2022-10-30T15:26:37.000Z</time>
      </trkpt>
      <trkpt lat="48.02" lon="6.96786">
        <ele>955.59997558594</ele>
        <time>2022-10-30T15:26:40.000Z</time>
      </trkpt>
      <trkpt lat="48.02001" lon="6.9678">
        <ele>955.40002441406</ele>
        <time>2022-10-30T15:26:46.000Z</time>
      </trkpt>
      <trkpt lat="48.02003" lon="6.96777">
        <ele>955</ele>
        <time>2022-10-30T15:26:49.000Z</time>
      </trkpt>
      <trkpt lat="48.02006" lon="6.96774">
        <ele>954.59997558594</ele>
        <time>2022-10-30T15:26:52.000Z</time>
      </trkpt>
      <trkpt lat="48.0201" lon="6.96768">
        <ele>954.40002441406</ele>
        <time>2022-10-30T15:26:58.000Z</time>
      </trkpt>
      <trkpt lat="48.0201" lon="6.96767">
        <ele>954.40002441406</ele>
        <time>2022-10-30T15:26:59.000Z</time>
      </trkpt>
      <trkpt lat="48.02012" lon="6.96758">
        <ele>953.80004882812</ele>
        <time>2022-10-30T15:27:06.000Z</time>
      </trkpt>
      <trkpt lat="48.02012" lon="6.96757">
        <ele>953.80004882812</ele>
        <time>2022-10-30T15:27:07.000Z</time>
      </trkpt>
      <trkpt lat="48.02013" lon="6.96753">
        <ele>953.59997558594</ele>
        <time>2022-10-30T15:27:10.000Z</time>
      </trkpt>
      <trkpt lat="48.02014" lon="6.9675">
        <ele>953.19995117188</ele>
        <time>2022-10-30T15:27:12.000Z</time>
      </trkpt>
      <trkpt lat="48.02013" lon="6.96748">
        <ele>952.80004882812</ele>
        <time>2022-10-30T15:27:15.000Z</time>
      </trkpt>
      <trkpt lat="48.02012" lon="6.96745">
        <ele>952.59997558594</ele>
        <time>2022-10-30T15:27:17.000Z</time>
      </trkpt>
      <trkpt lat="48.02013" lon="6.96741">
        <ele>952.40002441406</ele>
        <time>2022-10-30T15:27:20.000Z</time>
      </trkpt>
      <trkpt lat="48.02015" lon="6.96736">
        <ele>951.80004882812</ele>
        <time>2022-10-30T15:27:24.000Z</time>
      </trkpt>
      <trkpt lat="48.02016" lon="6.96735">
        <ele>951.80004882812</ele>
        <time>2022-10-30T15:27:25.000Z</time>
      </trkpt>
      <trkpt lat="48.02019" lon="6.96734">
        <ele>951.59997558594</ele>
        <time>2022-10-30T15:27:30.000Z</time>
      </trkpt>
      <trkpt lat="48.02021" lon="6.96734">
        <ele>951.59997558594</ele>
        <time>2022-10-30T15:27:36.000Z</time>
      </trkpt>
      <trkpt lat="48.02023" lon="6.96732">
        <ele>951.80004882812</ele>
        <time>2022-10-30T15:27:42.000Z</time>
      </trkpt>
      <trkpt lat="48.02023" lon="6.96732">
        <ele>952</ele>
        <time>2022-10-30T15:27:43.000Z</time>
      </trkpt>
      <trkpt lat="48.02025" lon="6.96736">
        <ele>952.80004882812</ele>
        <time>2022-10-30T15:27:49.000Z</time>
      </trkpt>
      <trkpt lat="48.02027" lon="6.96734">
        <ele>953</ele>
        <time>2022-10-30T15:27:51.000Z</time>
      </trkpt>
      <trkpt lat="48.02029" lon="6.96731">
        <ele>953.59997558594</ele>
        <time>2022-10-30T15:27:57.000Z</time>
      </trkpt>
      <trkpt lat="48.0203" lon="6.96731">
        <ele>954</ele>
        <time>2022-10-30T15:27:58.000Z</time>
      </trkpt>
      <trkpt lat="48.02032" lon="6.96732">
        <ele>954.59997558594</ele>
        <time>2022-10-30T15:28:02.000Z</time>
      </trkpt>
      <trkpt lat="48.02034" lon="6.96732">
        <ele>955</ele>
        <time>2022-10-30T15:28:04.000Z</time>
      </trkpt>
      <trkpt lat="48.02036" lon="6.96731">
        <ele>956</ele>
        <time>2022-10-30T15:28:10.000Z</time>
      </trkpt>
      <trkpt lat="48.02036" lon="6.9673">
        <ele>956.40002441406</ele>
        <time>2022-10-30T15:28:11.000Z</time>
      </trkpt>
      <trkpt lat="48.02039" lon="6.96731">
        <ele>957</ele>
        <time>2022-10-30T15:28:14.000Z</time>
      </trkpt>
      <trkpt lat="48.0204" lon="6.9673">
        <ele>957.59997558594</ele>
        <time>2022-10-30T15:28:16.000Z</time>
      </trkpt>
      <trkpt lat="48.02043" lon="6.96732">
        <ele>958.19995117188</ele>
        <time>2022-10-30T15:28:19.000Z</time>
      </trkpt>
      <trkpt lat="48.02044" lon="6.96736">
        <ele>958.80004882812</ele>
        <time>2022-10-30T15:28:23.000Z</time>
      </trkpt>
      <trkpt lat="48.02048" lon="6.96737">
        <ele>959.19995117188</ele>
        <time>2022-10-30T15:28:29.000Z</time>
      </trkpt>
      <trkpt lat="48.02046" lon="6.96741">
        <ele>959.19995117188</ele>
        <time>2022-10-30T15:28:36.000Z</time>
      </trkpt>
      <trkpt lat="48.02045" lon="6.96742">
        <ele>959.19995117188</ele>
        <time>2022-10-30T15:28:46.000Z</time>
      </trkpt>
      <trkpt lat="48.02045" lon="6.96743">
        <ele>959.59997558594</ele>
        <time>2022-10-30T15:28:57.000Z</time>
      </trkpt>
      <trkpt lat="48.02046" lon="6.96743">
        <ele>960.40002441406</ele>
        <time>2022-10-30T15:29:03.000Z</time>
      </trkpt>
      <trkpt lat="48.02055" lon="6.96734">
        <ele>959.80004882812</ele>
        <time>2022-10-30T15:29:31.000Z</time>
      </trkpt>
      <trkpt lat="48.02057" lon="6.96731">
        <ele>959.40002441406</ele>
        <time>2022-10-30T15:29:33.000Z</time>
      </trkpt>
      <trkpt lat="48.02063" lon="6.96722">
        <ele>958.59997558594</ele>
        <time>2022-10-30T15:29:40.000Z</time>
      </trkpt>
      <trkpt lat="48.02068" lon="6.96714">
        <ele>958.59997558594</ele>
        <time>2022-10-30T15:29:48.000Z</time>
      </trkpt>
      <trkpt lat="48.02073" lon="6.96705">
        <ele>958.59997558594</ele>
        <time>2022-10-30T15:29:56.000Z</time>
      </trkpt>
      <trkpt lat="48.02075" lon="6.96696">
        <ele>958.59997558594</ele>
        <time>2022-10-30T15:30:02.000Z</time>
      </trkpt>
      <trkpt lat="48.02077" lon="6.96693">
        <ele>958.59997558594</ele>
        <time>2022-10-30T15:30:04.000Z</time>
      </trkpt>
      <trkpt lat="48.0208" lon="6.96688">
        <ele>958.59997558594</ele>
        <time>2022-10-30T15:30:07.000Z</time>
      </trkpt>
      <trkpt lat="48.02081" lon="6.96684">
        <ele>958.59997558594</ele>
        <time>2022-10-30T15:30:10.000Z</time>
      </trkpt>
      <trkpt lat="48.02082" lon="6.96683">
        <ele>958.59997558594</ele>
        <time>2022-10-30T15:30:11.000Z</time>
      </trkpt>
      <trkpt lat="48.02086" lon="6.9668">
        <ele>958.59997558594</ele>
        <time>2022-10-30T15:30:16.000Z</time>
      </trkpt>
      <trkpt lat="48.02088" lon="6.96676">
        <ele>958.59997558594</ele>
        <time>2022-10-30T15:30:19.000Z</time>
      </trkpt>
      <trkpt lat="48.02091" lon="6.96674">
        <ele>958.59997558594</ele>
        <time>2022-10-30T15:30:24.000Z</time>
      </trkpt>
      <trkpt lat="48.02092" lon="6.96674">
        <ele>958.59997558594</ele>
        <time>2022-10-30T15:30:29.000Z</time>
      </trkpt>
      <trkpt lat="48.0209" lon="6.96675">
        <ele>952.80004882812</ele>
        <time>2022-10-30T15:30:37.000Z</time>
      </trkpt>
      <trkpt lat="48.0209" lon="6.96677">
        <ele>952.80004882812</ele>
        <time>2022-10-30T15:30:48.000Z</time>
      </trkpt>
      <trkpt lat="48.02094" lon="6.96672">
        <ele>952</ele>
        <time>2022-10-30T15:30:57.000Z</time>
      </trkpt>
      <trkpt lat="48.02095" lon="6.9667">
        <ele>951.80004882812</ele>
        <time>2022-10-30T15:30:58.000Z</time>
      </trkpt>
      <trkpt lat="48.02105" lon="6.96664">
        <ele>951</ele>
        <time>2022-10-30T15:31:05.000Z</time>
      </trkpt>
      <trkpt lat="48.02106" lon="6.96665">
        <ele>950.80004882812</ele>
        <time>2022-10-30T15:31:09.000Z</time>
      </trkpt>
      <trkpt lat="48.02107" lon="6.96664">
        <ele>950.59997558594</ele>
        <time>2022-10-30T15:31:11.000Z</time>
      </trkpt>
      <trkpt lat="48.02116" lon="6.96657">
        <ele>949.80004882812</ele>
        <time>2022-10-30T15:31:19.000Z</time>
      </trkpt>
      <trkpt lat="48.02117" lon="6.96656">
        <ele>949.80004882812</ele>
        <time>2022-10-30T15:31:20.000Z</time>
      </trkpt>
      <trkpt lat="48.02122" lon="6.96653">
        <ele>949.40002441406</ele>
        <time>2022-10-30T15:31:24.000Z</time>
      </trkpt>
      <trkpt lat="48.02123" lon="6.96652">
        <ele>949.19995117188</ele>
        <time>2022-10-30T15:31:25.000Z</time>
      </trkpt>
      <trkpt lat="48.02129" lon="6.96647">
        <ele>948.80004882812</ele>
        <time>2022-10-30T15:31:29.000Z</time>
      </trkpt>
      <trkpt lat="48.02132" lon="6.96644">
        <ele>948.40002441406</ele>
        <time>2022-10-30T15:31:32.000Z</time>
      </trkpt>
      <trkpt lat="48.02135" lon="6.96644">
        <ele>948.19995117188</ele>
        <time>2022-10-30T15:31:34.000Z</time>
      </trkpt>
      <trkpt lat="48.02139" lon="6.9664">
        <ele>947.80004882812</ele>
        <time>2022-10-30T15:31:37.000Z</time>
      </trkpt>
      <trkpt lat="48.02139" lon="6.96639">
        <ele>947.59997558594</ele>
        <time>2022-10-30T15:31:38.000Z</time>
      </trkpt>
      <trkpt lat="48.02139" lon="6.96637">
        <ele>947.40002441406</ele>
        <time>2022-10-30T15:31:40.000Z</time>
      </trkpt>
      <trkpt lat="48.02142" lon="6.96636">
        <ele>947.19995117188</ele>
        <time>2022-10-30T15:31:43.000Z</time>
      </trkpt>
      <trkpt lat="48.02144" lon="6.96635">
        <ele>947</ele>
        <time>2022-10-30T15:31:45.000Z</time>
      </trkpt>
      <trkpt lat="48.02147" lon="6.96634">
        <ele>946.59997558594</ele>
        <time>2022-10-30T15:31:48.000Z</time>
      </trkpt>
      <trkpt lat="48.02149" lon="6.96634">
        <ele>946</ele>
        <time>2022-10-30T15:31:51.000Z</time>
      </trkpt>
      <trkpt lat="48.02149" lon="6.96635">
        <ele>945.80004882812</ele>
        <time>2022-10-30T15:31:52.000Z</time>
      </trkpt>
      <trkpt lat="48.02148" lon="6.9664">
        <ele>945.80004882812</ele>
        <time>2022-10-30T15:31:58.000Z</time>
      </trkpt>
      <trkpt lat="48.0215" lon="6.96641">
        <ele>945.80004882812</ele>
        <time>2022-10-30T15:32:01.000Z</time>
      </trkpt>
      <trkpt lat="48.02152" lon="6.9664">
        <ele>945.59997558594</ele>
        <time>2022-10-30T15:32:03.000Z</time>
      </trkpt>
      <trkpt lat="48.02155" lon="6.96637">
        <ele>945.19995117188</ele>
        <time>2022-10-30T15:32:08.000Z</time>
      </trkpt>
      <trkpt lat="48.02158" lon="6.96637">
        <ele>944.59997558594</ele>
        <time>2022-10-30T15:32:13.000Z</time>
      </trkpt>
      <trkpt lat="48.02159" lon="6.96637">
        <ele>944.40002441406</ele>
        <time>2022-10-30T15:32:14.000Z</time>
      </trkpt>
      <trkpt lat="48.02165" lon="6.96636">
        <ele>943.59997558594</ele>
        <time>2022-10-30T15:32:21.000Z</time>
      </trkpt>
      <trkpt lat="48.02172" lon="6.96635">
        <ele>942.59997558594</ele>
        <time>2022-10-30T15:32:28.000Z</time>
      </trkpt>
      <trkpt lat="48.02181" lon="6.96638">
        <ele>942.59997558594</ele>
        <time>2022-10-30T15:32:32.000Z</time>
      </trkpt>
      <trkpt lat="48.02182" lon="6.96637">
        <ele>942.19995117188</ele>
        <time>2022-10-30T15:32:38.000Z</time>
      </trkpt>
      <trkpt lat="48.02183" lon="6.96636">
        <ele>941.80004882812</ele>
        <time>2022-10-30T15:32:43.000Z</time>
      </trkpt>
      <trkpt lat="48.02186" lon="6.96635">
        <ele>941.19995117188</ele>
        <time>2022-10-30T15:32:46.000Z</time>
      </trkpt>
      <trkpt lat="48.0219" lon="6.96633">
        <ele>940.80004882812</ele>
        <time>2022-10-30T15:32:50.000Z</time>
      </trkpt>
      <trkpt lat="48.02193" lon="6.96634">
        <ele>940.19995117188</ele>
        <time>2022-10-30T15:32:54.000Z</time>
      </trkpt>
      <trkpt lat="48.02195" lon="6.96634">
        <ele>940</ele>
        <time>2022-10-30T15:32:57.000Z</time>
      </trkpt>
      <trkpt lat="48.02196" lon="6.96634">
        <ele>939.80004882812</ele>
        <time>2022-10-30T15:32:58.000Z</time>
      </trkpt>
      <trkpt lat="48.02196" lon="6.96634">
        <ele>939.80004882812</ele>
        <time>2022-10-30T15:32:59.000Z</time>
      </trkpt>
      <trkpt lat="48.02199" lon="6.96629">
        <ele>939.19995117188</ele>
        <time>2022-10-30T15:33:04.000Z</time>
      </trkpt>
      <trkpt lat="48.02199" lon="6.96629">
        <ele>939.19995117188</ele>
        <time>2022-10-30T15:33:05.000Z</time>
      </trkpt>
      <trkpt lat="48.02201" lon="6.96624">
        <ele>938</ele>
        <time>2022-10-30T15:33:09.000Z</time>
      </trkpt>
      <trkpt lat="48.02202" lon="6.96624">
        <ele>938</ele>
        <time>2022-10-30T15:33:10.000Z</time>
      </trkpt>
    </trkseg>
  </trk>
</gpx>